<?xml version="1.0" encoding="UTF-8" standalone="no" ?>
<gpx xmlns="http://www.topografix.com/GPX/1/1" xmlns:xsi="http://www.w3.org/2001/XMLSchema-instance" xsi:schemaLocation="http://www.topografix.com/GPX/1/1 http://www.topografix.com/GPX/1/1/gpx.xsd" version="1.1" creator="VisuGPX - https://www.visugpx.com">
  <metadata>
    <name>Obiou face NW</name>
    <desc><![CDATA[Obiou face NW depuis chalets de Baumes en boucle]]></desc>
  </metadata>
  <trk>
    <name><![CDATA[2019-06-23 07-12]]></name>
    <trkseg>
      <trkpt lat="44.78447" lon="5.87525">
        <ele>1558.6</ele>
        <time>2019-06-23T05:13:05Z</time>
      </trkpt>
      <trkpt lat="44.78446" lon="5.87526">
        <ele>1568.2</ele>
        <time>2019-06-23T05:14:20Z</time>
      </trkpt>
      <trkpt lat="44.78446" lon="5.87526">
        <ele>1568.4</ele>
        <time>2019-06-23T05:14:25Z</time>
      </trkpt>
      <trkpt lat="44.78445" lon="5.87526">
        <ele>1567.2</ele>
        <time>2019-06-23T05:14:30Z</time>
      </trkpt>
      <trkpt lat="44.78441" lon="5.87528">
        <ele>1569.2</ele>
        <time>2019-06-23T05:14:35Z</time>
      </trkpt>
      <trkpt lat="44.78437" lon="5.87527">
        <ele>1568.2</ele>
        <time>2019-06-23T05:14:40Z</time>
      </trkpt>
      <trkpt lat="44.78432" lon="5.87528">
        <ele>1572.2</ele>
        <time>2019-06-23T05:14:45Z</time>
      </trkpt>
      <trkpt lat="44.78427" lon="5.8753">
        <ele>1568.6</ele>
        <time>2019-06-23T05:14:50Z</time>
      </trkpt>
      <trkpt lat="44.78421" lon="5.87532">
        <ele>1569</ele>
        <time>2019-06-23T05:14:55Z</time>
      </trkpt>
      <trkpt lat="44.78415" lon="5.87533">
        <ele>1571.8</ele>
        <time>2019-06-23T05:15:00Z</time>
      </trkpt>
      <trkpt lat="44.78409" lon="5.87534">
        <ele>1571.2</ele>
        <time>2019-06-23T05:15:05Z</time>
      </trkpt>
      <trkpt lat="44.78402" lon="5.87536">
        <ele>1571</ele>
        <time>2019-06-23T05:15:10Z</time>
      </trkpt>
      <trkpt lat="44.78396" lon="5.87538">
        <ele>1575.6</ele>
        <time>2019-06-23T05:15:15Z</time>
      </trkpt>
      <trkpt lat="44.78391" lon="5.87539">
        <ele>1573.6</ele>
        <time>2019-06-23T05:15:20Z</time>
      </trkpt>
      <trkpt lat="44.78385" lon="5.8754">
        <ele>1574.8</ele>
        <time>2019-06-23T05:15:25Z</time>
      </trkpt>
      <trkpt lat="44.7838" lon="5.87541">
        <ele>1576.2</ele>
        <time>2019-06-23T05:15:30Z</time>
      </trkpt>
      <trkpt lat="44.78374" lon="5.87541">
        <ele>1572.8</ele>
        <time>2019-06-23T05:15:35Z</time>
      </trkpt>
      <trkpt lat="44.78369" lon="5.87541">
        <ele>1571.4</ele>
        <time>2019-06-23T05:15:40Z</time>
      </trkpt>
      <trkpt lat="44.78364" lon="5.87542">
        <ele>1574.4</ele>
        <time>2019-06-23T05:15:45Z</time>
      </trkpt>
      <trkpt lat="44.78359" lon="5.87543">
        <ele>1575.6</ele>
        <time>2019-06-23T05:15:50Z</time>
      </trkpt>
      <trkpt lat="44.78354" lon="5.87544">
        <ele>1575.8</ele>
        <time>2019-06-23T05:15:55Z</time>
      </trkpt>
      <trkpt lat="44.7835" lon="5.87547">
        <ele>1575</ele>
        <time>2019-06-23T05:16:00Z</time>
      </trkpt>
      <trkpt lat="44.78346" lon="5.87549">
        <ele>1574.8</ele>
        <time>2019-06-23T05:16:05Z</time>
      </trkpt>
      <trkpt lat="44.78341" lon="5.87551">
        <ele>1578</ele>
        <time>2019-06-23T05:16:10Z</time>
      </trkpt>
      <trkpt lat="44.78337" lon="5.87552">
        <ele>1578.4</ele>
        <time>2019-06-23T05:16:15Z</time>
      </trkpt>
      <trkpt lat="44.78333" lon="5.87554">
        <ele>1580.2</ele>
        <time>2019-06-23T05:16:20Z</time>
      </trkpt>
      <trkpt lat="44.78328" lon="5.87555">
        <ele>1580.8</ele>
        <time>2019-06-23T05:16:25Z</time>
      </trkpt>
      <trkpt lat="44.78324" lon="5.87557">
        <ele>1581.8</ele>
        <time>2019-06-23T05:16:30Z</time>
      </trkpt>
      <trkpt lat="44.7832" lon="5.87558">
        <ele>1581</ele>
        <time>2019-06-23T05:16:35Z</time>
      </trkpt>
      <trkpt lat="44.78316" lon="5.8756">
        <ele>1583</ele>
        <time>2019-06-23T05:16:40Z</time>
      </trkpt>
      <trkpt lat="44.78312" lon="5.87561">
        <ele>1584.2</ele>
        <time>2019-06-23T05:16:45Z</time>
      </trkpt>
      <trkpt lat="44.78308" lon="5.87562">
        <ele>1585</ele>
        <time>2019-06-23T05:16:50Z</time>
      </trkpt>
      <trkpt lat="44.78304" lon="5.87565">
        <ele>1585.2</ele>
        <time>2019-06-23T05:16:55Z</time>
      </trkpt>
      <trkpt lat="44.78299" lon="5.87566">
        <ele>1583.2</ele>
        <time>2019-06-23T05:17:00Z</time>
      </trkpt>
      <trkpt lat="44.78296" lon="5.87564">
        <ele>1584.8</ele>
        <time>2019-06-23T05:17:05Z</time>
      </trkpt>
      <trkpt lat="44.78296" lon="5.87561">
        <ele>1585</ele>
        <time>2019-06-23T05:17:10Z</time>
      </trkpt>
      <trkpt lat="44.78295" lon="5.8756">
        <ele>1587.8</ele>
        <time>2019-06-23T05:17:15Z</time>
      </trkpt>
      <trkpt lat="44.78294" lon="5.87558">
        <ele>1588</ele>
        <time>2019-06-23T05:17:20Z</time>
      </trkpt>
      <trkpt lat="44.78293" lon="5.87557">
        <ele>1589.2</ele>
        <time>2019-06-23T05:17:25Z</time>
      </trkpt>
      <trkpt lat="44.7829" lon="5.87558">
        <ele>1592</ele>
        <time>2019-06-23T05:17:30Z</time>
      </trkpt>
      <trkpt lat="44.78288" lon="5.87556">
        <ele>1594.2</ele>
        <time>2019-06-23T05:17:40Z</time>
      </trkpt>
      <trkpt lat="44.78286" lon="5.87554">
        <ele>1593.6</ele>
        <time>2019-06-23T05:17:45Z</time>
      </trkpt>
      <trkpt lat="44.78284" lon="5.87554">
        <ele>1593.2</ele>
        <time>2019-06-23T05:17:50Z</time>
      </trkpt>
      <trkpt lat="44.78281" lon="5.87554">
        <ele>1597</ele>
        <time>2019-06-23T05:17:55Z</time>
      </trkpt>
      <trkpt lat="44.7828" lon="5.87551">
        <ele>1595.2</ele>
        <time>2019-06-23T05:18:00Z</time>
      </trkpt>
      <trkpt lat="44.78282" lon="5.87548">
        <ele>1593</ele>
        <time>2019-06-23T05:18:05Z</time>
      </trkpt>
      <trkpt lat="44.78283" lon="5.87546">
        <ele>1594.2</ele>
        <time>2019-06-23T05:18:10Z</time>
      </trkpt>
      <trkpt lat="44.78284" lon="5.87543">
        <ele>1598.8</ele>
        <time>2019-06-23T05:18:15Z</time>
      </trkpt>
      <trkpt lat="44.78284" lon="5.8754">
        <ele>1598.2</ele>
        <time>2019-06-23T05:18:20Z</time>
      </trkpt>
      <trkpt lat="44.78284" lon="5.87537">
        <ele>1596.6</ele>
        <time>2019-06-23T05:18:25Z</time>
      </trkpt>
      <trkpt lat="44.78285" lon="5.87536">
        <ele>1597.8</ele>
        <time>2019-06-23T05:18:30Z</time>
      </trkpt>
      <trkpt lat="44.78284" lon="5.87534">
        <ele>1600</ele>
        <time>2019-06-23T05:18:35Z</time>
      </trkpt>
      <trkpt lat="44.78282" lon="5.87531">
        <ele>1597.8</ele>
        <time>2019-06-23T05:18:40Z</time>
      </trkpt>
      <trkpt lat="44.7828" lon="5.87533">
        <ele>1599.4</ele>
        <time>2019-06-23T05:18:45Z</time>
      </trkpt>
      <trkpt lat="44.78279" lon="5.87531">
        <ele>1601.8</ele>
        <time>2019-06-23T05:18:50Z</time>
      </trkpt>
      <trkpt lat="44.78278" lon="5.87529">
        <ele>1601</ele>
        <time>2019-06-23T05:18:55Z</time>
      </trkpt>
      <trkpt lat="44.78276" lon="5.87529">
        <ele>1600.8</ele>
        <time>2019-06-23T05:19:00Z</time>
      </trkpt>
      <trkpt lat="44.78274" lon="5.87529">
        <ele>1600.6</ele>
        <time>2019-06-23T05:19:05Z</time>
      </trkpt>
      <trkpt lat="44.78275" lon="5.87526">
        <ele>1601.6</ele>
        <time>2019-06-23T05:19:10Z</time>
      </trkpt>
      <trkpt lat="44.78276" lon="5.87523">
        <ele>1603.8</ele>
        <time>2019-06-23T05:19:15Z</time>
      </trkpt>
      <trkpt lat="44.78276" lon="5.87521">
        <ele>1606.4</ele>
        <time>2019-06-23T05:19:20Z</time>
      </trkpt>
      <trkpt lat="44.78273" lon="5.87521">
        <ele>1605.6</ele>
        <time>2019-06-23T05:19:25Z</time>
      </trkpt>
      <trkpt lat="44.78271" lon="5.87521">
        <ele>1605.4</ele>
        <time>2019-06-23T05:19:30Z</time>
      </trkpt>
      <trkpt lat="44.78269" lon="5.87519">
        <ele>1610</ele>
        <time>2019-06-23T05:19:35Z</time>
      </trkpt>
      <trkpt lat="44.78266" lon="5.87519">
        <ele>1610.4</ele>
        <time>2019-06-23T05:19:40Z</time>
      </trkpt>
      <trkpt lat="44.78263" lon="5.8752">
        <ele>1611.2</ele>
        <time>2019-06-23T05:19:45Z</time>
      </trkpt>
      <trkpt lat="44.7826" lon="5.8752">
        <ele>1613.8</ele>
        <time>2019-06-23T05:19:50Z</time>
      </trkpt>
      <trkpt lat="44.78257" lon="5.87519">
        <ele>1611.8</ele>
        <time>2019-06-23T05:19:55Z</time>
      </trkpt>
      <trkpt lat="44.78255" lon="5.87518">
        <ele>1612.8</ele>
        <time>2019-06-23T05:20:00Z</time>
      </trkpt>
      <trkpt lat="44.78252" lon="5.87518">
        <ele>1614</ele>
        <time>2019-06-23T05:20:05Z</time>
      </trkpt>
      <trkpt lat="44.78249" lon="5.87518">
        <ele>1617.6</ele>
        <time>2019-06-23T05:20:10Z</time>
      </trkpt>
      <trkpt lat="44.78246" lon="5.87518">
        <ele>1617</ele>
        <time>2019-06-23T05:20:15Z</time>
      </trkpt>
      <trkpt lat="44.78244" lon="5.87518">
        <ele>1616</ele>
        <time>2019-06-23T05:20:20Z</time>
      </trkpt>
      <trkpt lat="44.78241" lon="5.87517">
        <ele>1617.8</ele>
        <time>2019-06-23T05:20:25Z</time>
      </trkpt>
      <trkpt lat="44.78238" lon="5.87517">
        <ele>1620.2</ele>
        <time>2019-06-23T05:20:30Z</time>
      </trkpt>
      <trkpt lat="44.78236" lon="5.87517">
        <ele>1620.4</ele>
        <time>2019-06-23T05:20:35Z</time>
      </trkpt>
      <trkpt lat="44.78233" lon="5.87516">
        <ele>1620</ele>
        <time>2019-06-23T05:20:40Z</time>
      </trkpt>
      <trkpt lat="44.7823" lon="5.87516">
        <ele>1621</ele>
        <time>2019-06-23T05:20:45Z</time>
      </trkpt>
      <trkpt lat="44.78227" lon="5.87516">
        <ele>1624</ele>
        <time>2019-06-23T05:20:50Z</time>
      </trkpt>
      <trkpt lat="44.78225" lon="5.87516">
        <ele>1620.8</ele>
        <time>2019-06-23T05:20:55Z</time>
      </trkpt>
      <trkpt lat="44.78222" lon="5.87515">
        <ele>1624.4</ele>
        <time>2019-06-23T05:21:00Z</time>
      </trkpt>
      <trkpt lat="44.7822" lon="5.87515">
        <ele>1624.6</ele>
        <time>2019-06-23T05:21:05Z</time>
      </trkpt>
      <trkpt lat="44.78217" lon="5.87515">
        <ele>1623.2</ele>
        <time>2019-06-23T05:21:10Z</time>
      </trkpt>
      <trkpt lat="44.78214" lon="5.87516">
        <ele>1624</ele>
        <time>2019-06-23T05:21:15Z</time>
      </trkpt>
      <trkpt lat="44.7821" lon="5.87516">
        <ele>1626.2</ele>
        <time>2019-06-23T05:21:20Z</time>
      </trkpt>
      <trkpt lat="44.78206" lon="5.87518">
        <ele>1628.4</ele>
        <time>2019-06-23T05:21:25Z</time>
      </trkpt>
      <trkpt lat="44.78202" lon="5.8752">
        <ele>1627.4</ele>
        <time>2019-06-23T05:21:30Z</time>
      </trkpt>
      <trkpt lat="44.78199" lon="5.87521">
        <ele>1626.6</ele>
        <time>2019-06-23T05:21:35Z</time>
      </trkpt>
      <trkpt lat="44.78196" lon="5.87522">
        <ele>1627.4</ele>
        <time>2019-06-23T05:21:40Z</time>
      </trkpt>
      <trkpt lat="44.78193" lon="5.87523">
        <ele>1631</ele>
        <time>2019-06-23T05:21:45Z</time>
      </trkpt>
      <trkpt lat="44.7819" lon="5.87523">
        <ele>1629.8</ele>
        <time>2019-06-23T05:21:50Z</time>
      </trkpt>
      <trkpt lat="44.78187" lon="5.87523">
        <ele>1632</ele>
        <time>2019-06-23T05:21:55Z</time>
      </trkpt>
      <trkpt lat="44.78184" lon="5.87523">
        <ele>1635.4</ele>
        <time>2019-06-23T05:22:00Z</time>
      </trkpt>
      <trkpt lat="44.78182" lon="5.87523">
        <ele>1633.4</ele>
        <time>2019-06-23T05:22:05Z</time>
      </trkpt>
      <trkpt lat="44.78179" lon="5.87522">
        <ele>1633.6</ele>
        <time>2019-06-23T05:22:10Z</time>
      </trkpt>
      <trkpt lat="44.78176" lon="5.87522">
        <ele>1632.6</ele>
        <time>2019-06-23T05:22:15Z</time>
      </trkpt>
      <trkpt lat="44.78173" lon="5.87523">
        <ele>1636.2</ele>
        <time>2019-06-23T05:22:20Z</time>
      </trkpt>
      <trkpt lat="44.78171" lon="5.87522">
        <ele>1635.2</ele>
        <time>2019-06-23T05:22:25Z</time>
      </trkpt>
      <trkpt lat="44.78169" lon="5.87521">
        <ele>1635.6</ele>
        <time>2019-06-23T05:22:30Z</time>
      </trkpt>
      <trkpt lat="44.78167" lon="5.8752">
        <ele>1635.6</ele>
        <time>2019-06-23T05:22:35Z</time>
      </trkpt>
      <trkpt lat="44.78165" lon="5.8752">
        <ele>1636.4</ele>
        <time>2019-06-23T05:22:40Z</time>
      </trkpt>
      <trkpt lat="44.78163" lon="5.8752">
        <ele>1637.2</ele>
        <time>2019-06-23T05:22:45Z</time>
      </trkpt>
      <trkpt lat="44.7816" lon="5.87519">
        <ele>1639.2</ele>
        <time>2019-06-23T05:22:50Z</time>
      </trkpt>
      <trkpt lat="44.78159" lon="5.87516">
        <ele>1641.2</ele>
        <time>2019-06-23T05:22:55Z</time>
      </trkpt>
      <trkpt lat="44.78157" lon="5.87514">
        <ele>1638.8</ele>
        <time>2019-06-23T05:23:00Z</time>
      </trkpt>
      <trkpt lat="44.78155" lon="5.87514">
        <ele>1639</ele>
        <time>2019-06-23T05:23:05Z</time>
      </trkpt>
      <trkpt lat="44.78153" lon="5.87515">
        <ele>1638.2</ele>
        <time>2019-06-23T05:23:10Z</time>
      </trkpt>
      <trkpt lat="44.78151" lon="5.87516">
        <ele>1642</ele>
        <time>2019-06-23T05:23:15Z</time>
      </trkpt>
      <trkpt lat="44.78149" lon="5.87516">
        <ele>1641.4</ele>
        <time>2019-06-23T05:23:20Z</time>
      </trkpt>
      <trkpt lat="44.78146" lon="5.87516">
        <ele>1643.6</ele>
        <time>2019-06-23T05:23:25Z</time>
      </trkpt>
      <trkpt lat="44.78144" lon="5.87515">
        <ele>1644.4</ele>
        <time>2019-06-23T05:23:30Z</time>
      </trkpt>
      <trkpt lat="44.78142" lon="5.87514">
        <ele>1645.2</ele>
        <time>2019-06-23T05:23:35Z</time>
      </trkpt>
      <trkpt lat="44.7814" lon="5.87513">
        <ele>1643.8</ele>
        <time>2019-06-23T05:23:40Z</time>
      </trkpt>
      <trkpt lat="44.78138" lon="5.87511">
        <ele>1646</ele>
        <time>2019-06-23T05:23:45Z</time>
      </trkpt>
      <trkpt lat="44.78136" lon="5.8751">
        <ele>1646.4</ele>
        <time>2019-06-23T05:23:50Z</time>
      </trkpt>
      <trkpt lat="44.78134" lon="5.87508">
        <ele>1648</ele>
        <time>2019-06-23T05:23:55Z</time>
      </trkpt>
      <trkpt lat="44.78132" lon="5.87507">
        <ele>1648.6</ele>
        <time>2019-06-23T05:24:00Z</time>
      </trkpt>
      <trkpt lat="44.78131" lon="5.87506">
        <ele>1649.2</ele>
        <time>2019-06-23T05:24:05Z</time>
      </trkpt>
      <trkpt lat="44.78128" lon="5.87507">
        <ele>1648.8</ele>
        <time>2019-06-23T05:24:10Z</time>
      </trkpt>
      <trkpt lat="44.78125" lon="5.87507">
        <ele>1652.4</ele>
        <time>2019-06-23T05:24:15Z</time>
      </trkpt>
      <trkpt lat="44.78123" lon="5.87506">
        <ele>1652.4</ele>
        <time>2019-06-23T05:24:20Z</time>
      </trkpt>
      <trkpt lat="44.7812" lon="5.87505">
        <ele>1654.8</ele>
        <time>2019-06-23T05:24:25Z</time>
      </trkpt>
      <trkpt lat="44.78117" lon="5.87505">
        <ele>1653.4</ele>
        <time>2019-06-23T05:24:30Z</time>
      </trkpt>
      <trkpt lat="44.78115" lon="5.87505">
        <ele>1656.4</ele>
        <time>2019-06-23T05:24:35Z</time>
      </trkpt>
      <trkpt lat="44.78112" lon="5.87506">
        <ele>1656.2</ele>
        <time>2019-06-23T05:24:40Z</time>
      </trkpt>
      <trkpt lat="44.7811" lon="5.87507">
        <ele>1656</ele>
        <time>2019-06-23T05:24:45Z</time>
      </trkpt>
      <trkpt lat="44.78107" lon="5.8751">
        <ele>1656</ele>
        <time>2019-06-23T05:24:50Z</time>
      </trkpt>
      <trkpt lat="44.78104" lon="5.8751">
        <ele>1658.6</ele>
        <time>2019-06-23T05:24:55Z</time>
      </trkpt>
      <trkpt lat="44.78103" lon="5.87507">
        <ele>1660.2</ele>
        <time>2019-06-23T05:25:00Z</time>
      </trkpt>
      <trkpt lat="44.78102" lon="5.87503">
        <ele>1659.4</ele>
        <time>2019-06-23T05:25:05Z</time>
      </trkpt>
      <trkpt lat="44.781" lon="5.875">
        <ele>1660</ele>
        <time>2019-06-23T05:25:10Z</time>
      </trkpt>
      <trkpt lat="44.78097" lon="5.875">
        <ele>1660.8</ele>
        <time>2019-06-23T05:25:15Z</time>
      </trkpt>
      <trkpt lat="44.78095" lon="5.875">
        <ele>1660.4</ele>
        <time>2019-06-23T05:25:20Z</time>
      </trkpt>
      <trkpt lat="44.78091" lon="5.87501">
        <ele>1661.6</ele>
        <time>2019-06-23T05:25:25Z</time>
      </trkpt>
      <trkpt lat="44.78089" lon="5.87503">
        <ele>1663.2</ele>
        <time>2019-06-23T05:25:30Z</time>
      </trkpt>
      <trkpt lat="44.78085" lon="5.87504">
        <ele>1664.6</ele>
        <time>2019-06-23T05:25:35Z</time>
      </trkpt>
      <trkpt lat="44.78082" lon="5.87504">
        <ele>1666.6</ele>
        <time>2019-06-23T05:25:40Z</time>
      </trkpt>
      <trkpt lat="44.78079" lon="5.87503">
        <ele>1663.6</ele>
        <time>2019-06-23T05:25:45Z</time>
      </trkpt>
      <trkpt lat="44.78075" lon="5.87504">
        <ele>1665.6</ele>
        <time>2019-06-23T05:25:50Z</time>
      </trkpt>
      <trkpt lat="44.78072" lon="5.87503">
        <ele>1666.4</ele>
        <time>2019-06-23T05:25:55Z</time>
      </trkpt>
      <trkpt lat="44.78069" lon="5.87502">
        <ele>1669.6</ele>
        <time>2019-06-23T05:26:00Z</time>
      </trkpt>
      <trkpt lat="44.78065" lon="5.87502">
        <ele>1668.6</ele>
        <time>2019-06-23T05:26:05Z</time>
      </trkpt>
      <trkpt lat="44.78062" lon="5.87501">
        <ele>1668.8</ele>
        <time>2019-06-23T05:26:10Z</time>
      </trkpt>
      <trkpt lat="44.78059" lon="5.875">
        <ele>1670.6</ele>
        <time>2019-06-23T05:26:15Z</time>
      </trkpt>
      <trkpt lat="44.78055" lon="5.87498">
        <ele>1670.8</ele>
        <time>2019-06-23T05:26:20Z</time>
      </trkpt>
      <trkpt lat="44.78052" lon="5.87494">
        <ele>1669</ele>
        <time>2019-06-23T05:26:25Z</time>
      </trkpt>
      <trkpt lat="44.78051" lon="5.87488">
        <ele>1671.2</ele>
        <time>2019-06-23T05:26:30Z</time>
      </trkpt>
      <trkpt lat="44.78051" lon="5.87482">
        <ele>1669.8</ele>
        <time>2019-06-23T05:26:35Z</time>
      </trkpt>
      <trkpt lat="44.78049" lon="5.87477">
        <ele>1673.8</ele>
        <time>2019-06-23T05:26:40Z</time>
      </trkpt>
      <trkpt lat="44.78049" lon="5.87472">
        <ele>1674</ele>
        <time>2019-06-23T05:26:45Z</time>
      </trkpt>
      <trkpt lat="44.78045" lon="5.87469">
        <ele>1673.2</ele>
        <time>2019-06-23T05:26:50Z</time>
      </trkpt>
      <trkpt lat="44.78044" lon="5.87463">
        <ele>1674</ele>
        <time>2019-06-23T05:26:55Z</time>
      </trkpt>
      <trkpt lat="44.78043" lon="5.87457">
        <ele>1673.2</ele>
        <time>2019-06-23T05:27:00Z</time>
      </trkpt>
      <trkpt lat="44.78041" lon="5.87451">
        <ele>1674.4</ele>
        <time>2019-06-23T05:27:05Z</time>
      </trkpt>
      <trkpt lat="44.7804" lon="5.87445">
        <ele>1674.4</ele>
        <time>2019-06-23T05:27:10Z</time>
      </trkpt>
      <trkpt lat="44.78037" lon="5.8744">
        <ele>1675.2</ele>
        <time>2019-06-23T05:27:15Z</time>
      </trkpt>
      <trkpt lat="44.78034" lon="5.87434">
        <ele>1678.2</ele>
        <time>2019-06-23T05:27:20Z</time>
      </trkpt>
      <trkpt lat="44.78031" lon="5.87431">
        <ele>1677.6</ele>
        <time>2019-06-23T05:27:25Z</time>
      </trkpt>
      <trkpt lat="44.78029" lon="5.87426">
        <ele>1678.4</ele>
        <time>2019-06-23T05:27:30Z</time>
      </trkpt>
      <trkpt lat="44.78025" lon="5.87424">
        <ele>1678.4</ele>
        <time>2019-06-23T05:27:35Z</time>
      </trkpt>
      <trkpt lat="44.78022" lon="5.87421">
        <ele>1678</ele>
        <time>2019-06-23T05:27:40Z</time>
      </trkpt>
      <trkpt lat="44.78019" lon="5.87417">
        <ele>1677</ele>
        <time>2019-06-23T05:27:45Z</time>
      </trkpt>
      <trkpt lat="44.78018" lon="5.87411">
        <ele>1679.6</ele>
        <time>2019-06-23T05:27:50Z</time>
      </trkpt>
      <trkpt lat="44.78014" lon="5.87406">
        <ele>1679.2</ele>
        <time>2019-06-23T05:28:00Z</time>
      </trkpt>
      <trkpt lat="44.78012" lon="5.87401">
        <ele>1681.2</ele>
        <time>2019-06-23T05:28:05Z</time>
      </trkpt>
      <trkpt lat="44.7801" lon="5.87396">
        <ele>1681.8</ele>
        <time>2019-06-23T05:28:10Z</time>
      </trkpt>
      <trkpt lat="44.78007" lon="5.87394">
        <ele>1683.6</ele>
        <time>2019-06-23T05:28:15Z</time>
      </trkpt>
      <trkpt lat="44.78003" lon="5.87392">
        <ele>1683.2</ele>
        <time>2019-06-23T05:28:20Z</time>
      </trkpt>
      <trkpt lat="44.78" lon="5.8739">
        <ele>1682.4</ele>
        <time>2019-06-23T05:28:25Z</time>
      </trkpt>
      <trkpt lat="44.77997" lon="5.87386">
        <ele>1683.4</ele>
        <time>2019-06-23T05:28:30Z</time>
      </trkpt>
      <trkpt lat="44.77996" lon="5.8738">
        <ele>1685.4</ele>
        <time>2019-06-23T05:28:35Z</time>
      </trkpt>
      <trkpt lat="44.77993" lon="5.87376">
        <ele>1685.8</ele>
        <time>2019-06-23T05:28:40Z</time>
      </trkpt>
      <trkpt lat="44.77989" lon="5.87374">
        <ele>1685</ele>
        <time>2019-06-23T05:28:45Z</time>
      </trkpt>
      <trkpt lat="44.77987" lon="5.8737">
        <ele>1687.6</ele>
        <time>2019-06-23T05:28:50Z</time>
      </trkpt>
      <trkpt lat="44.77984" lon="5.87365">
        <ele>1690.8</ele>
        <time>2019-06-23T05:28:55Z</time>
      </trkpt>
      <trkpt lat="44.77983" lon="5.87361">
        <ele>1689.8</ele>
        <time>2019-06-23T05:29:00Z</time>
      </trkpt>
      <trkpt lat="44.77982" lon="5.87354">
        <ele>1691.2</ele>
        <time>2019-06-23T05:29:05Z</time>
      </trkpt>
      <trkpt lat="44.77979" lon="5.87349">
        <ele>1689.4</ele>
        <time>2019-06-23T05:29:10Z</time>
      </trkpt>
      <trkpt lat="44.77975" lon="5.87345">
        <ele>1691.2</ele>
        <time>2019-06-23T05:29:15Z</time>
      </trkpt>
      <trkpt lat="44.77972" lon="5.87341">
        <ele>1690.8</ele>
        <time>2019-06-23T05:29:20Z</time>
      </trkpt>
      <trkpt lat="44.7797" lon="5.87337">
        <ele>1692.4</ele>
        <time>2019-06-23T05:29:25Z</time>
      </trkpt>
      <trkpt lat="44.77968" lon="5.87332">
        <ele>1693.2</ele>
        <time>2019-06-23T05:29:30Z</time>
      </trkpt>
      <trkpt lat="44.77965" lon="5.87326">
        <ele>1691.4</ele>
        <time>2019-06-23T05:29:35Z</time>
      </trkpt>
      <trkpt lat="44.77962" lon="5.87322">
        <ele>1693</ele>
        <time>2019-06-23T05:29:40Z</time>
      </trkpt>
      <trkpt lat="44.77959" lon="5.87319">
        <ele>1693.2</ele>
        <time>2019-06-23T05:29:45Z</time>
      </trkpt>
      <trkpt lat="44.77956" lon="5.87316">
        <ele>1695.2</ele>
        <time>2019-06-23T05:29:50Z</time>
      </trkpt>
      <trkpt lat="44.77953" lon="5.87312">
        <ele>1695</ele>
        <time>2019-06-23T05:29:55Z</time>
      </trkpt>
      <trkpt lat="44.77951" lon="5.87308">
        <ele>1695.6</ele>
        <time>2019-06-23T05:30:00Z</time>
      </trkpt>
      <trkpt lat="44.77948" lon="5.87304">
        <ele>1695.2</ele>
        <time>2019-06-23T05:30:05Z</time>
      </trkpt>
      <trkpt lat="44.77945" lon="5.873">
        <ele>1694</ele>
        <time>2019-06-23T05:30:10Z</time>
      </trkpt>
      <trkpt lat="44.77942" lon="5.87296">
        <ele>1696</ele>
        <time>2019-06-23T05:30:15Z</time>
      </trkpt>
      <trkpt lat="44.7794" lon="5.87291">
        <ele>1694.8</ele>
        <time>2019-06-23T05:30:20Z</time>
      </trkpt>
      <trkpt lat="44.77938" lon="5.87286">
        <ele>1698.6</ele>
        <time>2019-06-23T05:30:25Z</time>
      </trkpt>
      <trkpt lat="44.77935" lon="5.87282">
        <ele>1696.8</ele>
        <time>2019-06-23T05:30:30Z</time>
      </trkpt>
      <trkpt lat="44.77932" lon="5.87278">
        <ele>1699.8</ele>
        <time>2019-06-23T05:30:35Z</time>
      </trkpt>
      <trkpt lat="44.7793" lon="5.87273">
        <ele>1699.2</ele>
        <time>2019-06-23T05:30:40Z</time>
      </trkpt>
      <trkpt lat="44.77929" lon="5.87268">
        <ele>1699.2</ele>
        <time>2019-06-23T05:30:45Z</time>
      </trkpt>
      <trkpt lat="44.77927" lon="5.87262">
        <ele>1699.6</ele>
        <time>2019-06-23T05:30:50Z</time>
      </trkpt>
      <trkpt lat="44.77925" lon="5.87256">
        <ele>1699.2</ele>
        <time>2019-06-23T05:30:55Z</time>
      </trkpt>
      <trkpt lat="44.77923" lon="5.8725">
        <ele>1700</ele>
        <time>2019-06-23T05:31:00Z</time>
      </trkpt>
      <trkpt lat="44.77921" lon="5.87244">
        <ele>1701</ele>
        <time>2019-06-23T05:31:05Z</time>
      </trkpt>
      <trkpt lat="44.7792" lon="5.87238">
        <ele>1701</ele>
        <time>2019-06-23T05:31:10Z</time>
      </trkpt>
      <trkpt lat="44.77918" lon="5.87233">
        <ele>1702.2</ele>
        <time>2019-06-23T05:31:15Z</time>
      </trkpt>
      <trkpt lat="44.77916" lon="5.87227">
        <ele>1701</ele>
        <time>2019-06-23T05:31:20Z</time>
      </trkpt>
      <trkpt lat="44.77914" lon="5.87221">
        <ele>1702.4</ele>
        <time>2019-06-23T05:31:25Z</time>
      </trkpt>
      <trkpt lat="44.77911" lon="5.87216">
        <ele>1702.2</ele>
        <time>2019-06-23T05:31:30Z</time>
      </trkpt>
      <trkpt lat="44.77908" lon="5.87212">
        <ele>1705.6</ele>
        <time>2019-06-23T05:31:35Z</time>
      </trkpt>
      <trkpt lat="44.77906" lon="5.87208">
        <ele>1703.2</ele>
        <time>2019-06-23T05:31:40Z</time>
      </trkpt>
      <trkpt lat="44.77903" lon="5.87203">
        <ele>1705.4</ele>
        <time>2019-06-23T05:31:45Z</time>
      </trkpt>
      <trkpt lat="44.77901" lon="5.87198">
        <ele>1706.8</ele>
        <time>2019-06-23T05:31:50Z</time>
      </trkpt>
      <trkpt lat="44.77899" lon="5.87193">
        <ele>1707.6</ele>
        <time>2019-06-23T05:31:55Z</time>
      </trkpt>
      <trkpt lat="44.77896" lon="5.87188">
        <ele>1707.6</ele>
        <time>2019-06-23T05:32:00Z</time>
      </trkpt>
      <trkpt lat="44.77894" lon="5.87184">
        <ele>1707.2</ele>
        <time>2019-06-23T05:32:05Z</time>
      </trkpt>
      <trkpt lat="44.77892" lon="5.87178">
        <ele>1708.6</ele>
        <time>2019-06-23T05:32:10Z</time>
      </trkpt>
      <trkpt lat="44.7789" lon="5.87174">
        <ele>1709.6</ele>
        <time>2019-06-23T05:32:15Z</time>
      </trkpt>
      <trkpt lat="44.77888" lon="5.87169">
        <ele>1710.2</ele>
        <time>2019-06-23T05:32:20Z</time>
      </trkpt>
      <trkpt lat="44.77885" lon="5.87164">
        <ele>1709</ele>
        <time>2019-06-23T05:32:25Z</time>
      </trkpt>
      <trkpt lat="44.77882" lon="5.8716">
        <ele>1711</ele>
        <time>2019-06-23T05:32:30Z</time>
      </trkpt>
      <trkpt lat="44.7788" lon="5.87157">
        <ele>1711</ele>
        <time>2019-06-23T05:32:35Z</time>
      </trkpt>
      <trkpt lat="44.77877" lon="5.87154">
        <ele>1711.8</ele>
        <time>2019-06-23T05:32:40Z</time>
      </trkpt>
      <trkpt lat="44.77875" lon="5.87149">
        <ele>1712.6</ele>
        <time>2019-06-23T05:32:45Z</time>
      </trkpt>
      <trkpt lat="44.77872" lon="5.87146">
        <ele>1712</ele>
        <time>2019-06-23T05:32:50Z</time>
      </trkpt>
      <trkpt lat="44.7787" lon="5.8714">
        <ele>1711.8</ele>
        <time>2019-06-23T05:32:55Z</time>
      </trkpt>
      <trkpt lat="44.77868" lon="5.87135">
        <ele>1715.2</ele>
        <time>2019-06-23T05:33:00Z</time>
      </trkpt>
      <trkpt lat="44.77866" lon="5.8713">
        <ele>1713.8</ele>
        <time>2019-06-23T05:33:05Z</time>
      </trkpt>
      <trkpt lat="44.77864" lon="5.87124">
        <ele>1713.4</ele>
        <time>2019-06-23T05:33:10Z</time>
      </trkpt>
      <trkpt lat="44.77863" lon="5.8712">
        <ele>1715</ele>
        <time>2019-06-23T05:33:15Z</time>
      </trkpt>
      <trkpt lat="44.77861" lon="5.87116">
        <ele>1717.4</ele>
        <time>2019-06-23T05:33:20Z</time>
      </trkpt>
      <trkpt lat="44.77859" lon="5.87112">
        <ele>1717.2</ele>
        <time>2019-06-23T05:33:25Z</time>
      </trkpt>
      <trkpt lat="44.77858" lon="5.87107">
        <ele>1717.6</ele>
        <time>2019-06-23T05:33:30Z</time>
      </trkpt>
      <trkpt lat="44.77857" lon="5.871">
        <ele>1717.8</ele>
        <time>2019-06-23T05:33:35Z</time>
      </trkpt>
      <trkpt lat="44.77856" lon="5.87094">
        <ele>1717.2</ele>
        <time>2019-06-23T05:33:40Z</time>
      </trkpt>
      <trkpt lat="44.77855" lon="5.87089">
        <ele>1716.4</ele>
        <time>2019-06-23T05:33:45Z</time>
      </trkpt>
      <trkpt lat="44.77853" lon="5.87084">
        <ele>1720</ele>
        <time>2019-06-23T05:33:50Z</time>
      </trkpt>
      <trkpt lat="44.77853" lon="5.87078">
        <ele>1720.4</ele>
        <time>2019-06-23T05:33:55Z</time>
      </trkpt>
      <trkpt lat="44.7785" lon="5.87075">
        <ele>1721.4</ele>
        <time>2019-06-23T05:34:00Z</time>
      </trkpt>
      <trkpt lat="44.77849" lon="5.87071">
        <ele>1720.2</ele>
        <time>2019-06-23T05:34:05Z</time>
      </trkpt>
      <trkpt lat="44.77848" lon="5.87066">
        <ele>1720</ele>
        <time>2019-06-23T05:34:10Z</time>
      </trkpt>
      <trkpt lat="44.77847" lon="5.87061">
        <ele>1722.4</ele>
        <time>2019-06-23T05:34:15Z</time>
      </trkpt>
      <trkpt lat="44.77845" lon="5.87056">
        <ele>1723.6</ele>
        <time>2019-06-23T05:34:20Z</time>
      </trkpt>
      <trkpt lat="44.77843" lon="5.87051">
        <ele>1724.6</ele>
        <time>2019-06-23T05:34:25Z</time>
      </trkpt>
      <trkpt lat="44.77841" lon="5.87048">
        <ele>1724.6</ele>
        <time>2019-06-23T05:34:30Z</time>
      </trkpt>
      <trkpt lat="44.7784" lon="5.87044">
        <ele>1724.6</ele>
        <time>2019-06-23T05:34:35Z</time>
      </trkpt>
      <trkpt lat="44.77839" lon="5.8704">
        <ele>1726</ele>
        <time>2019-06-23T05:34:40Z</time>
      </trkpt>
      <trkpt lat="44.77837" lon="5.87035">
        <ele>1727.6</ele>
        <time>2019-06-23T05:34:45Z</time>
      </trkpt>
      <trkpt lat="44.77836" lon="5.8703">
        <ele>1727.4</ele>
        <time>2019-06-23T05:34:50Z</time>
      </trkpt>
      <trkpt lat="44.77835" lon="5.87025">
        <ele>1728.8</ele>
        <time>2019-06-23T05:34:55Z</time>
      </trkpt>
      <trkpt lat="44.77833" lon="5.8702">
        <ele>1731.4</ele>
        <time>2019-06-23T05:35:00Z</time>
      </trkpt>
      <trkpt lat="44.77832" lon="5.87016">
        <ele>1729</ele>
        <time>2019-06-23T05:35:05Z</time>
      </trkpt>
      <trkpt lat="44.7783" lon="5.87011">
        <ele>1728.6</ele>
        <time>2019-06-23T05:35:10Z</time>
      </trkpt>
      <trkpt lat="44.77829" lon="5.87006">
        <ele>1730.2</ele>
        <time>2019-06-23T05:35:15Z</time>
      </trkpt>
      <trkpt lat="44.77828" lon="5.87">
        <ele>1732.4</ele>
        <time>2019-06-23T05:35:20Z</time>
      </trkpt>
      <trkpt lat="44.77827" lon="5.86995">
        <ele>1732.8</ele>
        <time>2019-06-23T05:35:25Z</time>
      </trkpt>
      <trkpt lat="44.77826" lon="5.8699">
        <ele>1730.8</ele>
        <time>2019-06-23T05:35:30Z</time>
      </trkpt>
      <trkpt lat="44.77825" lon="5.86985">
        <ele>1733.2</ele>
        <time>2019-06-23T05:35:35Z</time>
      </trkpt>
      <trkpt lat="44.77823" lon="5.86981">
        <ele>1733.6</ele>
        <time>2019-06-23T05:35:40Z</time>
      </trkpt>
      <trkpt lat="44.77822" lon="5.86977">
        <ele>1733.8</ele>
        <time>2019-06-23T05:35:45Z</time>
      </trkpt>
      <trkpt lat="44.77821" lon="5.86972">
        <ele>1732.6</ele>
        <time>2019-06-23T05:35:50Z</time>
      </trkpt>
      <trkpt lat="44.7782" lon="5.86967">
        <ele>1736.2</ele>
        <time>2019-06-23T05:35:55Z</time>
      </trkpt>
      <trkpt lat="44.77818" lon="5.86963">
        <ele>1738</ele>
        <time>2019-06-23T05:36:00Z</time>
      </trkpt>
      <trkpt lat="44.77818" lon="5.86958">
        <ele>1734.8</ele>
        <time>2019-06-23T05:36:05Z</time>
      </trkpt>
      <trkpt lat="44.77816" lon="5.86954">
        <ele>1739.2</ele>
        <time>2019-06-23T05:36:10Z</time>
      </trkpt>
      <trkpt lat="44.77815" lon="5.8695">
        <ele>1738.6</ele>
        <time>2019-06-23T05:36:15Z</time>
      </trkpt>
      <trkpt lat="44.77813" lon="5.86947">
        <ele>1739.6</ele>
        <time>2019-06-23T05:36:21Z</time>
      </trkpt>
      <trkpt lat="44.77811" lon="5.86943">
        <ele>1741</ele>
        <time>2019-06-23T05:36:26Z</time>
      </trkpt>
      <trkpt lat="44.77809" lon="5.86939">
        <ele>1743.2</ele>
        <time>2019-06-23T05:36:31Z</time>
      </trkpt>
      <trkpt lat="44.77808" lon="5.86935">
        <ele>1742.8</ele>
        <time>2019-06-23T05:36:36Z</time>
      </trkpt>
      <trkpt lat="44.77807" lon="5.8693">
        <ele>1741.6</ele>
        <time>2019-06-23T05:36:41Z</time>
      </trkpt>
      <trkpt lat="44.77806" lon="5.86925">
        <ele>1744</ele>
        <time>2019-06-23T05:36:46Z</time>
      </trkpt>
      <trkpt lat="44.77805" lon="5.86921">
        <ele>1743.2</ele>
        <time>2019-06-23T05:36:51Z</time>
      </trkpt>
      <trkpt lat="44.77804" lon="5.86916">
        <ele>1743.8</ele>
        <time>2019-06-23T05:36:56Z</time>
      </trkpt>
      <trkpt lat="44.77803" lon="5.86912">
        <ele>1747.4</ele>
        <time>2019-06-23T05:37:01Z</time>
      </trkpt>
      <trkpt lat="44.77802" lon="5.86907">
        <ele>1748</ele>
        <time>2019-06-23T05:37:06Z</time>
      </trkpt>
      <trkpt lat="44.778" lon="5.86902">
        <ele>1748.2</ele>
        <time>2019-06-23T05:37:11Z</time>
      </trkpt>
      <trkpt lat="44.77799" lon="5.86897">
        <ele>1746.8</ele>
        <time>2019-06-23T05:37:16Z</time>
      </trkpt>
      <trkpt lat="44.77798" lon="5.86891">
        <ele>1749</ele>
        <time>2019-06-23T05:37:21Z</time>
      </trkpt>
      <trkpt lat="44.77797" lon="5.86886">
        <ele>1748.2</ele>
        <time>2019-06-23T05:37:26Z</time>
      </trkpt>
      <trkpt lat="44.77796" lon="5.86881">
        <ele>1748.6</ele>
        <time>2019-06-23T05:37:31Z</time>
      </trkpt>
      <trkpt lat="44.77795" lon="5.86876">
        <ele>1752.6</ele>
        <time>2019-06-23T05:37:36Z</time>
      </trkpt>
      <trkpt lat="44.77793" lon="5.86871">
        <ele>1754.4</ele>
        <time>2019-06-23T05:37:41Z</time>
      </trkpt>
      <trkpt lat="44.77791" lon="5.86868">
        <ele>1754.6</ele>
        <time>2019-06-23T05:37:46Z</time>
      </trkpt>
      <trkpt lat="44.7779" lon="5.86863">
        <ele>1753</ele>
        <time>2019-06-23T05:37:51Z</time>
      </trkpt>
      <trkpt lat="44.77789" lon="5.86858">
        <ele>1752.6</ele>
        <time>2019-06-23T05:37:56Z</time>
      </trkpt>
      <trkpt lat="44.77788" lon="5.86852">
        <ele>1752</ele>
        <time>2019-06-23T05:38:01Z</time>
      </trkpt>
      <trkpt lat="44.77787" lon="5.86847">
        <ele>1757.4</ele>
        <time>2019-06-23T05:38:06Z</time>
      </trkpt>
      <trkpt lat="44.77786" lon="5.86841">
        <ele>1756.2</ele>
        <time>2019-06-23T05:38:11Z</time>
      </trkpt>
      <trkpt lat="44.77785" lon="5.86836">
        <ele>1754.8</ele>
        <time>2019-06-23T05:38:16Z</time>
      </trkpt>
      <trkpt lat="44.77784" lon="5.86831">
        <ele>1757.8</ele>
        <time>2019-06-23T05:38:21Z</time>
      </trkpt>
      <trkpt lat="44.77782" lon="5.86826">
        <ele>1759.6</ele>
        <time>2019-06-23T05:38:26Z</time>
      </trkpt>
      <trkpt lat="44.77781" lon="5.86821">
        <ele>1758.6</ele>
        <time>2019-06-23T05:38:31Z</time>
      </trkpt>
      <trkpt lat="44.77781" lon="5.86815">
        <ele>1757.6</ele>
        <time>2019-06-23T05:38:36Z</time>
      </trkpt>
      <trkpt lat="44.7778" lon="5.86808">
        <ele>1760</ele>
        <time>2019-06-23T05:38:41Z</time>
      </trkpt>
      <trkpt lat="44.7778" lon="5.86802">
        <ele>1760</ele>
        <time>2019-06-23T05:38:46Z</time>
      </trkpt>
      <trkpt lat="44.77779" lon="5.86796">
        <ele>1762.6</ele>
        <time>2019-06-23T05:38:51Z</time>
      </trkpt>
      <trkpt lat="44.77778" lon="5.8679">
        <ele>1762</ele>
        <time>2019-06-23T05:38:56Z</time>
      </trkpt>
      <trkpt lat="44.77777" lon="5.86785">
        <ele>1761</ele>
        <time>2019-06-23T05:39:01Z</time>
      </trkpt>
      <trkpt lat="44.77775" lon="5.86781">
        <ele>1760.8</ele>
        <time>2019-06-23T05:39:06Z</time>
      </trkpt>
      <trkpt lat="44.77775" lon="5.86775">
        <ele>1765.2</ele>
        <time>2019-06-23T05:39:11Z</time>
      </trkpt>
      <trkpt lat="44.77774" lon="5.86769">
        <ele>1762.6</ele>
        <time>2019-06-23T05:39:16Z</time>
      </trkpt>
      <trkpt lat="44.77775" lon="5.86764">
        <ele>1761.8</ele>
        <time>2019-06-23T05:39:21Z</time>
      </trkpt>
      <trkpt lat="44.77774" lon="5.86759">
        <ele>1764.4</ele>
        <time>2019-06-23T05:39:26Z</time>
      </trkpt>
      <trkpt lat="44.77774" lon="5.86754">
        <ele>1765.6</ele>
        <time>2019-06-23T05:39:31Z</time>
      </trkpt>
      <trkpt lat="44.77773" lon="5.86749">
        <ele>1765.2</ele>
        <time>2019-06-23T05:39:36Z</time>
      </trkpt>
      <trkpt lat="44.77771" lon="5.86744">
        <ele>1767.4</ele>
        <time>2019-06-23T05:39:41Z</time>
      </trkpt>
      <trkpt lat="44.77769" lon="5.8674">
        <ele>1765.8</ele>
        <time>2019-06-23T05:39:46Z</time>
      </trkpt>
      <trkpt lat="44.77766" lon="5.86736">
        <ele>1766</ele>
        <time>2019-06-23T05:39:51Z</time>
      </trkpt>
      <trkpt lat="44.77765" lon="5.86731">
        <ele>1767.6</ele>
        <time>2019-06-23T05:39:56Z</time>
      </trkpt>
      <trkpt lat="44.77763" lon="5.86726">
        <ele>1769.8</ele>
        <time>2019-06-23T05:40:01Z</time>
      </trkpt>
      <trkpt lat="44.77762" lon="5.86722">
        <ele>1770</ele>
        <time>2019-06-23T05:40:06Z</time>
      </trkpt>
      <trkpt lat="44.7776" lon="5.86719">
        <ele>1769.4</ele>
        <time>2019-06-23T05:40:11Z</time>
      </trkpt>
      <trkpt lat="44.77758" lon="5.86713">
        <ele>1770.2</ele>
        <time>2019-06-23T05:40:16Z</time>
      </trkpt>
      <trkpt lat="44.77756" lon="5.86708">
        <ele>1770</ele>
        <time>2019-06-23T05:40:21Z</time>
      </trkpt>
      <trkpt lat="44.77754" lon="5.86704">
        <ele>1771.4</ele>
        <time>2019-06-23T05:40:26Z</time>
      </trkpt>
      <trkpt lat="44.77753" lon="5.86699">
        <ele>1772.8</ele>
        <time>2019-06-23T05:40:31Z</time>
      </trkpt>
      <trkpt lat="44.77751" lon="5.86694">
        <ele>1772</ele>
        <time>2019-06-23T05:40:36Z</time>
      </trkpt>
      <trkpt lat="44.77749" lon="5.86689">
        <ele>1773.8</ele>
        <time>2019-06-23T05:40:41Z</time>
      </trkpt>
      <trkpt lat="44.77748" lon="5.86684">
        <ele>1773.4</ele>
        <time>2019-06-23T05:40:46Z</time>
      </trkpt>
      <trkpt lat="44.77747" lon="5.86679">
        <ele>1775.2</ele>
        <time>2019-06-23T05:40:51Z</time>
      </trkpt>
      <trkpt lat="44.77746" lon="5.86673">
        <ele>1774.8</ele>
        <time>2019-06-23T05:40:56Z</time>
      </trkpt>
      <trkpt lat="44.77744" lon="5.86668">
        <ele>1775.6</ele>
        <time>2019-06-23T05:41:01Z</time>
      </trkpt>
      <trkpt lat="44.77743" lon="5.86661">
        <ele>1775.6</ele>
        <time>2019-06-23T05:41:07Z</time>
      </trkpt>
      <trkpt lat="44.77742" lon="5.86655">
        <ele>1776.8</ele>
        <time>2019-06-23T05:41:12Z</time>
      </trkpt>
      <trkpt lat="44.77741" lon="5.8665">
        <ele>1778</ele>
        <time>2019-06-23T05:41:17Z</time>
      </trkpt>
      <trkpt lat="44.77741" lon="5.86645">
        <ele>1777.6</ele>
        <time>2019-06-23T05:41:22Z</time>
      </trkpt>
      <trkpt lat="44.77741" lon="5.86639">
        <ele>1775.8</ele>
        <time>2019-06-23T05:41:27Z</time>
      </trkpt>
      <trkpt lat="44.77741" lon="5.86632">
        <ele>1779</ele>
        <time>2019-06-23T05:41:32Z</time>
      </trkpt>
      <trkpt lat="44.77741" lon="5.86626">
        <ele>1779.8</ele>
        <time>2019-06-23T05:41:37Z</time>
      </trkpt>
      <trkpt lat="44.77742" lon="5.8662">
        <ele>1777</ele>
        <time>2019-06-23T05:41:42Z</time>
      </trkpt>
      <trkpt lat="44.77742" lon="5.86614">
        <ele>1777.6</ele>
        <time>2019-06-23T05:41:47Z</time>
      </trkpt>
      <trkpt lat="44.77742" lon="5.86607">
        <ele>1779.4</ele>
        <time>2019-06-23T05:41:52Z</time>
      </trkpt>
      <trkpt lat="44.77743" lon="5.86601">
        <ele>1778.8</ele>
        <time>2019-06-23T05:41:57Z</time>
      </trkpt>
      <trkpt lat="44.77744" lon="5.86594">
        <ele>1780.8</ele>
        <time>2019-06-23T05:42:02Z</time>
      </trkpt>
      <trkpt lat="44.77745" lon="5.86587">
        <ele>1779.4</ele>
        <time>2019-06-23T05:42:07Z</time>
      </trkpt>
      <trkpt lat="44.77745" lon="5.86581">
        <ele>1782.2</ele>
        <time>2019-06-23T05:42:12Z</time>
      </trkpt>
      <trkpt lat="44.77745" lon="5.86575">
        <ele>1781.6</ele>
        <time>2019-06-23T05:42:17Z</time>
      </trkpt>
      <trkpt lat="44.77746" lon="5.86568">
        <ele>1780.8</ele>
        <time>2019-06-23T05:42:22Z</time>
      </trkpt>
      <trkpt lat="44.77748" lon="5.86562">
        <ele>1782.4</ele>
        <time>2019-06-23T05:42:27Z</time>
      </trkpt>
      <trkpt lat="44.77749" lon="5.86556">
        <ele>1781</ele>
        <time>2019-06-23T05:42:32Z</time>
      </trkpt>
      <trkpt lat="44.77748" lon="5.8655">
        <ele>1780.8</ele>
        <time>2019-06-23T05:42:37Z</time>
      </trkpt>
      <trkpt lat="44.77748" lon="5.86543">
        <ele>1781.4</ele>
        <time>2019-06-23T05:42:42Z</time>
      </trkpt>
      <trkpt lat="44.77748" lon="5.86537">
        <ele>1784.4</ele>
        <time>2019-06-23T05:42:47Z</time>
      </trkpt>
      <trkpt lat="44.77747" lon="5.86532">
        <ele>1785.8</ele>
        <time>2019-06-23T05:42:52Z</time>
      </trkpt>
      <trkpt lat="44.77746" lon="5.86528">
        <ele>1785.6</ele>
        <time>2019-06-23T05:42:57Z</time>
      </trkpt>
      <trkpt lat="44.77745" lon="5.86524">
        <ele>1785.6</ele>
        <time>2019-06-23T05:43:02Z</time>
      </trkpt>
      <trkpt lat="44.77744" lon="5.8652">
        <ele>1785.4</ele>
        <time>2019-06-23T05:43:07Z</time>
      </trkpt>
      <trkpt lat="44.77743" lon="5.86516">
        <ele>1784.4</ele>
        <time>2019-06-23T05:43:12Z</time>
      </trkpt>
      <trkpt lat="44.77742" lon="5.86511">
        <ele>1786</ele>
        <time>2019-06-23T05:43:17Z</time>
      </trkpt>
      <trkpt lat="44.77741" lon="5.86506">
        <ele>1787.6</ele>
        <time>2019-06-23T05:43:22Z</time>
      </trkpt>
      <trkpt lat="44.77739" lon="5.86502">
        <ele>1788.2</ele>
        <time>2019-06-23T05:43:27Z</time>
      </trkpt>
      <trkpt lat="44.77738" lon="5.86498">
        <ele>1787.6</ele>
        <time>2019-06-23T05:43:32Z</time>
      </trkpt>
      <trkpt lat="44.77737" lon="5.86494">
        <ele>1786.8</ele>
        <time>2019-06-23T05:43:37Z</time>
      </trkpt>
      <trkpt lat="44.77736" lon="5.86489">
        <ele>1789</ele>
        <time>2019-06-23T05:43:42Z</time>
      </trkpt>
      <trkpt lat="44.77734" lon="5.86485">
        <ele>1790.4</ele>
        <time>2019-06-23T05:43:47Z</time>
      </trkpt>
      <trkpt lat="44.77733" lon="5.8648">
        <ele>1790.6</ele>
        <time>2019-06-23T05:43:52Z</time>
      </trkpt>
      <trkpt lat="44.77732" lon="5.86476">
        <ele>1790.8</ele>
        <time>2019-06-23T05:43:57Z</time>
      </trkpt>
      <trkpt lat="44.77731" lon="5.86471">
        <ele>1791</ele>
        <time>2019-06-23T05:44:02Z</time>
      </trkpt>
      <trkpt lat="44.77729" lon="5.86465">
        <ele>1793</ele>
        <time>2019-06-23T05:44:07Z</time>
      </trkpt>
      <trkpt lat="44.77728" lon="5.8646">
        <ele>1795.2</ele>
        <time>2019-06-23T05:44:12Z</time>
      </trkpt>
      <trkpt lat="44.77727" lon="5.86454">
        <ele>1792</ele>
        <time>2019-06-23T05:44:17Z</time>
      </trkpt>
      <trkpt lat="44.77726" lon="5.86448">
        <ele>1794.8</ele>
        <time>2019-06-23T05:44:22Z</time>
      </trkpt>
      <trkpt lat="44.77725" lon="5.86443">
        <ele>1793.4</ele>
        <time>2019-06-23T05:44:27Z</time>
      </trkpt>
      <trkpt lat="44.77724" lon="5.86439">
        <ele>1794</ele>
        <time>2019-06-23T05:44:32Z</time>
      </trkpt>
      <trkpt lat="44.77723" lon="5.86434">
        <ele>1797.6</ele>
        <time>2019-06-23T05:44:37Z</time>
      </trkpt>
      <trkpt lat="44.77722" lon="5.8643">
        <ele>1796.2</ele>
        <time>2019-06-23T05:44:42Z</time>
      </trkpt>
      <trkpt lat="44.7772" lon="5.86426">
        <ele>1797.8</ele>
        <time>2019-06-23T05:44:47Z</time>
      </trkpt>
      <trkpt lat="44.77719" lon="5.86422">
        <ele>1800.2</ele>
        <time>2019-06-23T05:44:52Z</time>
      </trkpt>
      <trkpt lat="44.77718" lon="5.86417">
        <ele>1799</ele>
        <time>2019-06-23T05:44:57Z</time>
      </trkpt>
      <trkpt lat="44.77717" lon="5.86412">
        <ele>1798.6</ele>
        <time>2019-06-23T05:45:02Z</time>
      </trkpt>
      <trkpt lat="44.77715" lon="5.86407">
        <ele>1801.2</ele>
        <time>2019-06-23T05:45:07Z</time>
      </trkpt>
      <trkpt lat="44.77715" lon="5.86402">
        <ele>1800.8</ele>
        <time>2019-06-23T05:45:12Z</time>
      </trkpt>
      <trkpt lat="44.77713" lon="5.86397">
        <ele>1800.8</ele>
        <time>2019-06-23T05:45:17Z</time>
      </trkpt>
      <trkpt lat="44.77713" lon="5.86392">
        <ele>1802.4</ele>
        <time>2019-06-23T05:45:22Z</time>
      </trkpt>
      <trkpt lat="44.77711" lon="5.86388">
        <ele>1801.4</ele>
        <time>2019-06-23T05:45:27Z</time>
      </trkpt>
      <trkpt lat="44.7771" lon="5.86383">
        <ele>1804</ele>
        <time>2019-06-23T05:45:32Z</time>
      </trkpt>
      <trkpt lat="44.77709" lon="5.86379">
        <ele>1804.6</ele>
        <time>2019-06-23T05:45:37Z</time>
      </trkpt>
      <trkpt lat="44.77708" lon="5.86374">
        <ele>1807.8</ele>
        <time>2019-06-23T05:45:42Z</time>
      </trkpt>
      <trkpt lat="44.77709" lon="5.8637">
        <ele>1805.8</ele>
        <time>2019-06-23T05:45:47Z</time>
      </trkpt>
      <trkpt lat="44.77708" lon="5.86367">
        <ele>1805.6</ele>
        <time>2019-06-23T05:45:52Z</time>
      </trkpt>
      <trkpt lat="44.77707" lon="5.86366">
        <ele>1806.8</ele>
        <time>2019-06-23T05:45:57Z</time>
      </trkpt>
      <trkpt lat="44.77706" lon="5.86361">
        <ele>1806.6</ele>
        <time>2019-06-23T05:46:02Z</time>
      </trkpt>
      <trkpt lat="44.77706" lon="5.86355">
        <ele>1808.2</ele>
        <time>2019-06-23T05:46:07Z</time>
      </trkpt>
      <trkpt lat="44.77705" lon="5.86349">
        <ele>1808.8</ele>
        <time>2019-06-23T05:46:12Z</time>
      </trkpt>
      <trkpt lat="44.77704" lon="5.86344">
        <ele>1810.4</ele>
        <time>2019-06-23T05:46:17Z</time>
      </trkpt>
      <trkpt lat="44.77703" lon="5.86338">
        <ele>1810.6</ele>
        <time>2019-06-23T05:46:22Z</time>
      </trkpt>
      <trkpt lat="44.77703" lon="5.86333">
        <ele>1811</ele>
        <time>2019-06-23T05:46:27Z</time>
      </trkpt>
      <trkpt lat="44.77702" lon="5.86327">
        <ele>1813.4</ele>
        <time>2019-06-23T05:46:33Z</time>
      </trkpt>
      <trkpt lat="44.77701" lon="5.86321">
        <ele>1817.4</ele>
        <time>2019-06-23T05:46:38Z</time>
      </trkpt>
      <trkpt lat="44.77701" lon="5.86316">
        <ele>1815.8</ele>
        <time>2019-06-23T05:46:43Z</time>
      </trkpt>
      <trkpt lat="44.777" lon="5.8631">
        <ele>1815.8</ele>
        <time>2019-06-23T05:46:48Z</time>
      </trkpt>
      <trkpt lat="44.777" lon="5.86306">
        <ele>1815.6</ele>
        <time>2019-06-23T05:46:53Z</time>
      </trkpt>
      <trkpt lat="44.777" lon="5.86301">
        <ele>1818.2</ele>
        <time>2019-06-23T05:46:58Z</time>
      </trkpt>
      <trkpt lat="44.777" lon="5.86295">
        <ele>1816</ele>
        <time>2019-06-23T05:47:03Z</time>
      </trkpt>
      <trkpt lat="44.777" lon="5.8629">
        <ele>1816.2</ele>
        <time>2019-06-23T05:47:08Z</time>
      </trkpt>
      <trkpt lat="44.777" lon="5.86285">
        <ele>1819.8</ele>
        <time>2019-06-23T05:47:13Z</time>
      </trkpt>
      <trkpt lat="44.77699" lon="5.8628">
        <ele>1819.4</ele>
        <time>2019-06-23T05:47:18Z</time>
      </trkpt>
      <trkpt lat="44.77699" lon="5.86276">
        <ele>1818.4</ele>
        <time>2019-06-23T05:47:23Z</time>
      </trkpt>
      <trkpt lat="44.77699" lon="5.86271">
        <ele>1820.2</ele>
        <time>2019-06-23T05:47:28Z</time>
      </trkpt>
      <trkpt lat="44.77698" lon="5.86267">
        <ele>1821.6</ele>
        <time>2019-06-23T05:47:33Z</time>
      </trkpt>
      <trkpt lat="44.77698" lon="5.86262">
        <ele>1821.4</ele>
        <time>2019-06-23T05:47:38Z</time>
      </trkpt>
      <trkpt lat="44.77698" lon="5.86258">
        <ele>1820.4</ele>
        <time>2019-06-23T05:47:43Z</time>
      </trkpt>
      <trkpt lat="44.77697" lon="5.86254">
        <ele>1824.2</ele>
        <time>2019-06-23T05:47:48Z</time>
      </trkpt>
      <trkpt lat="44.77697" lon="5.8625">
        <ele>1824.6</ele>
        <time>2019-06-23T05:47:53Z</time>
      </trkpt>
      <trkpt lat="44.77696" lon="5.86247">
        <ele>1825</ele>
        <time>2019-06-23T05:47:58Z</time>
      </trkpt>
      <trkpt lat="44.77696" lon="5.86244">
        <ele>1825.6</ele>
        <time>2019-06-23T05:48:03Z</time>
      </trkpt>
      <trkpt lat="44.77696" lon="5.8624">
        <ele>1827.2</ele>
        <time>2019-06-23T05:48:08Z</time>
      </trkpt>
      <trkpt lat="44.77695" lon="5.86237">
        <ele>1826.4</ele>
        <time>2019-06-23T05:48:13Z</time>
      </trkpt>
      <trkpt lat="44.77695" lon="5.86233">
        <ele>1826.8</ele>
        <time>2019-06-23T05:48:18Z</time>
      </trkpt>
      <trkpt lat="44.77695" lon="5.8623">
        <ele>1828</ele>
        <time>2019-06-23T05:48:23Z</time>
      </trkpt>
      <trkpt lat="44.77695" lon="5.86227">
        <ele>1826.8</ele>
        <time>2019-06-23T05:48:28Z</time>
      </trkpt>
      <trkpt lat="44.77694" lon="5.86225">
        <ele>1828.4</ele>
        <time>2019-06-23T05:48:33Z</time>
      </trkpt>
      <trkpt lat="44.77692" lon="5.86223">
        <ele>1830.6</ele>
        <time>2019-06-23T05:48:38Z</time>
      </trkpt>
      <trkpt lat="44.77693" lon="5.8622">
        <ele>1830.6</ele>
        <time>2019-06-23T05:48:43Z</time>
      </trkpt>
      <trkpt lat="44.77693" lon="5.86217">
        <ele>1827.6</ele>
        <time>2019-06-23T05:48:48Z</time>
      </trkpt>
      <trkpt lat="44.77692" lon="5.86214">
        <ele>1831</ele>
        <time>2019-06-23T05:48:53Z</time>
      </trkpt>
      <trkpt lat="44.77691" lon="5.86211">
        <ele>1830.6</ele>
        <time>2019-06-23T05:48:58Z</time>
      </trkpt>
      <trkpt lat="44.77691" lon="5.86208">
        <ele>1832.6</ele>
        <time>2019-06-23T05:49:03Z</time>
      </trkpt>
      <trkpt lat="44.77691" lon="5.86205">
        <ele>1831.2</ele>
        <time>2019-06-23T05:49:08Z</time>
      </trkpt>
      <trkpt lat="44.77691" lon="5.86202">
        <ele>1833.2</ele>
        <time>2019-06-23T05:49:13Z</time>
      </trkpt>
      <trkpt lat="44.77691" lon="5.86199">
        <ele>1834</ele>
        <time>2019-06-23T05:49:18Z</time>
      </trkpt>
      <trkpt lat="44.77691" lon="5.86195">
        <ele>1834.2</ele>
        <time>2019-06-23T05:49:23Z</time>
      </trkpt>
      <trkpt lat="44.77691" lon="5.86192">
        <ele>1835.2</ele>
        <time>2019-06-23T05:49:28Z</time>
      </trkpt>
      <trkpt lat="44.77691" lon="5.86188">
        <ele>1836.2</ele>
        <time>2019-06-23T05:49:33Z</time>
      </trkpt>
      <trkpt lat="44.77691" lon="5.86185">
        <ele>1838.2</ele>
        <time>2019-06-23T05:49:38Z</time>
      </trkpt>
      <trkpt lat="44.7769" lon="5.86182">
        <ele>1837.6</ele>
        <time>2019-06-23T05:49:43Z</time>
      </trkpt>
      <trkpt lat="44.77689" lon="5.86178">
        <ele>1840.6</ele>
        <time>2019-06-23T05:49:48Z</time>
      </trkpt>
      <trkpt lat="44.77689" lon="5.86175">
        <ele>1841.2</ele>
        <time>2019-06-23T05:49:53Z</time>
      </trkpt>
      <trkpt lat="44.77689" lon="5.86172">
        <ele>1840.2</ele>
        <time>2019-06-23T05:49:58Z</time>
      </trkpt>
      <trkpt lat="44.7769" lon="5.86169">
        <ele>1841.6</ele>
        <time>2019-06-23T05:50:03Z</time>
      </trkpt>
      <trkpt lat="44.7769" lon="5.86165">
        <ele>1845.2</ele>
        <time>2019-06-23T05:50:08Z</time>
      </trkpt>
      <trkpt lat="44.7769" lon="5.86162">
        <ele>1845.6</ele>
        <time>2019-06-23T05:50:13Z</time>
      </trkpt>
      <trkpt lat="44.77691" lon="5.86159">
        <ele>1843</ele>
        <time>2019-06-23T05:50:18Z</time>
      </trkpt>
      <trkpt lat="44.77691" lon="5.86158">
        <ele>1843</ele>
        <time>2019-06-23T05:50:23Z</time>
      </trkpt>
      <trkpt lat="44.7769" lon="5.86155">
        <ele>1845.4</ele>
        <time>2019-06-23T05:50:28Z</time>
      </trkpt>
      <trkpt lat="44.77689" lon="5.86152">
        <ele>1844.8</ele>
        <time>2019-06-23T05:50:33Z</time>
      </trkpt>
      <trkpt lat="44.77689" lon="5.86149">
        <ele>1847.4</ele>
        <time>2019-06-23T05:50:38Z</time>
      </trkpt>
      <trkpt lat="44.77688" lon="5.86147">
        <ele>1845.2</ele>
        <time>2019-06-23T05:50:43Z</time>
      </trkpt>
      <trkpt lat="44.77687" lon="5.86144">
        <ele>1847.2</ele>
        <time>2019-06-23T05:50:48Z</time>
      </trkpt>
      <trkpt lat="44.77687" lon="5.86142">
        <ele>1848.6</ele>
        <time>2019-06-23T05:50:53Z</time>
      </trkpt>
      <trkpt lat="44.77685" lon="5.86141">
        <ele>1845.8</ele>
        <time>2019-06-23T05:50:58Z</time>
      </trkpt>
      <trkpt lat="44.77684" lon="5.86137">
        <ele>1849.6</ele>
        <time>2019-06-23T05:51:03Z</time>
      </trkpt>
      <trkpt lat="44.77685" lon="5.86135">
        <ele>1850.2</ele>
        <time>2019-06-23T05:51:08Z</time>
      </trkpt>
      <trkpt lat="44.77686" lon="5.86132">
        <ele>1850.8</ele>
        <time>2019-06-23T05:51:13Z</time>
      </trkpt>
      <trkpt lat="44.77686" lon="5.86129">
        <ele>1852</ele>
        <time>2019-06-23T05:51:18Z</time>
      </trkpt>
      <trkpt lat="44.77686" lon="5.86126">
        <ele>1854</ele>
        <time>2019-06-23T05:51:23Z</time>
      </trkpt>
      <trkpt lat="44.77686" lon="5.86122">
        <ele>1854.6</ele>
        <time>2019-06-23T05:51:28Z</time>
      </trkpt>
      <trkpt lat="44.77686" lon="5.86119">
        <ele>1855.2</ele>
        <time>2019-06-23T05:51:33Z</time>
      </trkpt>
      <trkpt lat="44.77686" lon="5.86116">
        <ele>1857</ele>
        <time>2019-06-23T05:51:38Z</time>
      </trkpt>
      <trkpt lat="44.77686" lon="5.86112">
        <ele>1855.8</ele>
        <time>2019-06-23T05:51:43Z</time>
      </trkpt>
      <trkpt lat="44.77686" lon="5.8611">
        <ele>1855</ele>
        <time>2019-06-23T05:51:48Z</time>
      </trkpt>
      <trkpt lat="44.77685" lon="5.86107">
        <ele>1859.8</ele>
        <time>2019-06-23T05:51:53Z</time>
      </trkpt>
      <trkpt lat="44.77685" lon="5.86104">
        <ele>1858.4</ele>
        <time>2019-06-23T05:51:58Z</time>
      </trkpt>
      <trkpt lat="44.77684" lon="5.86101">
        <ele>1860.2</ele>
        <time>2019-06-23T05:52:03Z</time>
      </trkpt>
      <trkpt lat="44.77685" lon="5.86097">
        <ele>1860</ele>
        <time>2019-06-23T05:52:08Z</time>
      </trkpt>
      <trkpt lat="44.77685" lon="5.86094">
        <ele>1858.4</ele>
        <time>2019-06-23T05:52:13Z</time>
      </trkpt>
      <trkpt lat="44.77685" lon="5.8609">
        <ele>1858.2</ele>
        <time>2019-06-23T05:52:18Z</time>
      </trkpt>
      <trkpt lat="44.77685" lon="5.86086">
        <ele>1859.8</ele>
        <time>2019-06-23T05:52:23Z</time>
      </trkpt>
      <trkpt lat="44.77685" lon="5.86082">
        <ele>1866</ele>
        <time>2019-06-23T05:52:28Z</time>
      </trkpt>
      <trkpt lat="44.77685" lon="5.86078">
        <ele>1863.2</ele>
        <time>2019-06-23T05:52:33Z</time>
      </trkpt>
      <trkpt lat="44.77686" lon="5.86074">
        <ele>1861.6</ele>
        <time>2019-06-23T05:52:38Z</time>
      </trkpt>
      <trkpt lat="44.77686" lon="5.8607">
        <ele>1865</ele>
        <time>2019-06-23T05:52:43Z</time>
      </trkpt>
      <trkpt lat="44.77685" lon="5.86069">
        <ele>1864.4</ele>
        <time>2019-06-23T05:52:48Z</time>
      </trkpt>
      <trkpt lat="44.77684" lon="5.86068">
        <ele>1867.8</ele>
        <time>2019-06-23T05:52:53Z</time>
      </trkpt>
      <trkpt lat="44.77685" lon="5.86065">
        <ele>1864.2</ele>
        <time>2019-06-23T05:52:58Z</time>
      </trkpt>
      <trkpt lat="44.77685" lon="5.86062">
        <ele>1867</ele>
        <time>2019-06-23T05:53:03Z</time>
      </trkpt>
      <trkpt lat="44.77686" lon="5.86057">
        <ele>1865.2</ele>
        <time>2019-06-23T05:53:08Z</time>
      </trkpt>
      <trkpt lat="44.77687" lon="5.86053">
        <ele>1867.8</ele>
        <time>2019-06-23T05:53:13Z</time>
      </trkpt>
      <trkpt lat="44.77687" lon="5.8605">
        <ele>1866.8</ele>
        <time>2019-06-23T05:53:18Z</time>
      </trkpt>
      <trkpt lat="44.77688" lon="5.86047">
        <ele>1865.6</ele>
        <time>2019-06-23T05:53:23Z</time>
      </trkpt>
      <trkpt lat="44.7769" lon="5.86043">
        <ele>1870.6</ele>
        <time>2019-06-23T05:53:28Z</time>
      </trkpt>
      <trkpt lat="44.77691" lon="5.86041">
        <ele>1867</ele>
        <time>2019-06-23T05:53:33Z</time>
      </trkpt>
      <trkpt lat="44.77691" lon="5.86038">
        <ele>1867</ele>
        <time>2019-06-23T05:53:38Z</time>
      </trkpt>
      <trkpt lat="44.77692" lon="5.86034">
        <ele>1867.8</ele>
        <time>2019-06-23T05:53:43Z</time>
      </trkpt>
      <trkpt lat="44.77693" lon="5.86032">
        <ele>1870.8</ele>
        <time>2019-06-23T05:53:48Z</time>
      </trkpt>
      <trkpt lat="44.77693" lon="5.86029">
        <ele>1873</ele>
        <time>2019-06-23T05:53:53Z</time>
      </trkpt>
      <trkpt lat="44.77695" lon="5.86026">
        <ele>1870.4</ele>
        <time>2019-06-23T05:53:58Z</time>
      </trkpt>
      <trkpt lat="44.77696" lon="5.86023">
        <ele>1872.8</ele>
        <time>2019-06-23T05:54:03Z</time>
      </trkpt>
      <trkpt lat="44.77697" lon="5.8602">
        <ele>1873.6</ele>
        <time>2019-06-23T05:54:08Z</time>
      </trkpt>
      <trkpt lat="44.77699" lon="5.86018">
        <ele>1873.8</ele>
        <time>2019-06-23T05:54:13Z</time>
      </trkpt>
      <trkpt lat="44.77699" lon="5.86015">
        <ele>1874</ele>
        <time>2019-06-23T05:54:18Z</time>
      </trkpt>
      <trkpt lat="44.777" lon="5.86013">
        <ele>1876</ele>
        <time>2019-06-23T05:54:23Z</time>
      </trkpt>
      <trkpt lat="44.77701" lon="5.8601">
        <ele>1876.2</ele>
        <time>2019-06-23T05:54:28Z</time>
      </trkpt>
      <trkpt lat="44.77701" lon="5.86008">
        <ele>1876</ele>
        <time>2019-06-23T05:54:33Z</time>
      </trkpt>
      <trkpt lat="44.77702" lon="5.86006">
        <ele>1877.6</ele>
        <time>2019-06-23T05:54:38Z</time>
      </trkpt>
      <trkpt lat="44.77703" lon="5.86003">
        <ele>1879.8</ele>
        <time>2019-06-23T05:54:43Z</time>
      </trkpt>
      <trkpt lat="44.77705" lon="5.85999">
        <ele>1880.2</ele>
        <time>2019-06-23T05:54:48Z</time>
      </trkpt>
      <trkpt lat="44.77706" lon="5.85997">
        <ele>1884.4</ele>
        <time>2019-06-23T05:54:53Z</time>
      </trkpt>
      <trkpt lat="44.77706" lon="5.85994">
        <ele>1883.2</ele>
        <time>2019-06-23T05:54:58Z</time>
      </trkpt>
      <trkpt lat="44.77707" lon="5.85991">
        <ele>1884.6</ele>
        <time>2019-06-23T05:55:03Z</time>
      </trkpt>
      <trkpt lat="44.77707" lon="5.85989">
        <ele>1882.4</ele>
        <time>2019-06-23T05:55:08Z</time>
      </trkpt>
      <trkpt lat="44.77707" lon="5.85985">
        <ele>1884.6</ele>
        <time>2019-06-23T05:55:18Z</time>
      </trkpt>
      <trkpt lat="44.77706" lon="5.85982">
        <ele>1889</ele>
        <time>2019-06-23T05:55:28Z</time>
      </trkpt>
      <trkpt lat="44.77707" lon="5.8598">
        <ele>1889.2</ele>
        <time>2019-06-23T05:55:33Z</time>
      </trkpt>
      <trkpt lat="44.7771" lon="5.85979">
        <ele>1887</ele>
        <time>2019-06-23T05:55:38Z</time>
      </trkpt>
      <trkpt lat="44.77712" lon="5.85979">
        <ele>1888.2</ele>
        <time>2019-06-23T05:55:43Z</time>
      </trkpt>
      <trkpt lat="44.77714" lon="5.85979">
        <ele>1885.6</ele>
        <time>2019-06-23T05:55:48Z</time>
      </trkpt>
      <trkpt lat="44.77717" lon="5.8598">
        <ele>1888.6</ele>
        <time>2019-06-23T05:55:53Z</time>
      </trkpt>
      <trkpt lat="44.7772" lon="5.85981">
        <ele>1889.8</ele>
        <time>2019-06-23T05:55:58Z</time>
      </trkpt>
      <trkpt lat="44.77722" lon="5.8598">
        <ele>1890.8</ele>
        <time>2019-06-23T05:56:03Z</time>
      </trkpt>
      <trkpt lat="44.77724" lon="5.8598">
        <ele>1891.6</ele>
        <time>2019-06-23T05:56:08Z</time>
      </trkpt>
      <trkpt lat="44.77727" lon="5.8598">
        <ele>1893.2</ele>
        <time>2019-06-23T05:56:13Z</time>
      </trkpt>
      <trkpt lat="44.7773" lon="5.85978">
        <ele>1892.4</ele>
        <time>2019-06-23T05:56:18Z</time>
      </trkpt>
      <trkpt lat="44.77733" lon="5.85976">
        <ele>1891.4</ele>
        <time>2019-06-23T05:56:23Z</time>
      </trkpt>
      <trkpt lat="44.77736" lon="5.85975">
        <ele>1893</ele>
        <time>2019-06-23T05:56:28Z</time>
      </trkpt>
      <trkpt lat="44.77739" lon="5.85974">
        <ele>1896.2</ele>
        <time>2019-06-23T05:56:33Z</time>
      </trkpt>
      <trkpt lat="44.77739" lon="5.85971">
        <ele>1902</ele>
        <time>2019-06-23T05:56:38Z</time>
      </trkpt>
      <trkpt lat="44.77737" lon="5.85967">
        <ele>1900.6</ele>
        <time>2019-06-23T05:56:43Z</time>
      </trkpt>
      <trkpt lat="44.77737" lon="5.85961">
        <ele>1897.8</ele>
        <time>2019-06-23T05:56:48Z</time>
      </trkpt>
      <trkpt lat="44.77738" lon="5.85957">
        <ele>1899.4</ele>
        <time>2019-06-23T05:56:53Z</time>
      </trkpt>
      <trkpt lat="44.77737" lon="5.85953">
        <ele>1896.4</ele>
        <time>2019-06-23T05:56:58Z</time>
      </trkpt>
      <trkpt lat="44.77736" lon="5.85948">
        <ele>1899.4</ele>
        <time>2019-06-23T05:57:03Z</time>
      </trkpt>
      <trkpt lat="44.77738" lon="5.85944">
        <ele>1898.2</ele>
        <time>2019-06-23T05:57:08Z</time>
      </trkpt>
      <trkpt lat="44.77739" lon="5.85941">
        <ele>1898</ele>
        <time>2019-06-23T05:57:13Z</time>
      </trkpt>
      <trkpt lat="44.77739" lon="5.85938">
        <ele>1897.8</ele>
        <time>2019-06-23T05:57:18Z</time>
      </trkpt>
      <trkpt lat="44.7774" lon="5.85936">
        <ele>1897.4</ele>
        <time>2019-06-23T05:57:23Z</time>
      </trkpt>
      <trkpt lat="44.77742" lon="5.85932">
        <ele>1895.8</ele>
        <time>2019-06-23T05:57:33Z</time>
      </trkpt>
      <trkpt lat="44.77744" lon="5.85928">
        <ele>1892.6</ele>
        <time>2019-06-23T05:57:38Z</time>
      </trkpt>
      <trkpt lat="44.77746" lon="5.85925">
        <ele>1893.4</ele>
        <time>2019-06-23T05:57:43Z</time>
      </trkpt>
      <trkpt lat="44.77749" lon="5.85923">
        <ele>1890.4</ele>
        <time>2019-06-23T05:57:48Z</time>
      </trkpt>
      <trkpt lat="44.77751" lon="5.85919">
        <ele>1887.2</ele>
        <time>2019-06-23T05:57:53Z</time>
      </trkpt>
      <trkpt lat="44.77753" lon="5.85915">
        <ele>1889.6</ele>
        <time>2019-06-23T05:57:58Z</time>
      </trkpt>
      <trkpt lat="44.77754" lon="5.8591">
        <ele>1891.2</ele>
        <time>2019-06-23T05:58:03Z</time>
      </trkpt>
      <trkpt lat="44.77757" lon="5.85906">
        <ele>1890</ele>
        <time>2019-06-23T05:58:08Z</time>
      </trkpt>
      <trkpt lat="44.7776" lon="5.85902">
        <ele>1888.8</ele>
        <time>2019-06-23T05:58:13Z</time>
      </trkpt>
      <trkpt lat="44.77763" lon="5.85897">
        <ele>1884.6</ele>
        <time>2019-06-23T05:58:18Z</time>
      </trkpt>
      <trkpt lat="44.77766" lon="5.85893">
        <ele>1888</ele>
        <time>2019-06-23T05:58:23Z</time>
      </trkpt>
      <trkpt lat="44.7777" lon="5.85887">
        <ele>1887.6</ele>
        <time>2019-06-23T05:58:28Z</time>
      </trkpt>
      <trkpt lat="44.77773" lon="5.85882">
        <ele>1884.2</ele>
        <time>2019-06-23T05:58:33Z</time>
      </trkpt>
      <trkpt lat="44.77775" lon="5.85876">
        <ele>1885.6</ele>
        <time>2019-06-23T05:58:38Z</time>
      </trkpt>
      <trkpt lat="44.77778" lon="5.85871">
        <ele>1886.2</ele>
        <time>2019-06-23T05:58:43Z</time>
      </trkpt>
      <trkpt lat="44.7778" lon="5.85866">
        <ele>1885.8</ele>
        <time>2019-06-23T05:58:48Z</time>
      </trkpt>
      <trkpt lat="44.77782" lon="5.85862">
        <ele>1887.6</ele>
        <time>2019-06-23T05:58:53Z</time>
      </trkpt>
      <trkpt lat="44.77783" lon="5.85856">
        <ele>1889</ele>
        <time>2019-06-23T05:58:58Z</time>
      </trkpt>
      <trkpt lat="44.77784" lon="5.85849">
        <ele>1889.8</ele>
        <time>2019-06-23T05:59:03Z</time>
      </trkpt>
      <trkpt lat="44.77785" lon="5.85842">
        <ele>1890.6</ele>
        <time>2019-06-23T05:59:08Z</time>
      </trkpt>
      <trkpt lat="44.77784" lon="5.85837">
        <ele>1887.4</ele>
        <time>2019-06-23T05:59:13Z</time>
      </trkpt>
      <trkpt lat="44.77783" lon="5.85832">
        <ele>1889.8</ele>
        <time>2019-06-23T05:59:18Z</time>
      </trkpt>
      <trkpt lat="44.77781" lon="5.8583">
        <ele>1889.8</ele>
        <time>2019-06-23T05:59:23Z</time>
      </trkpt>
      <trkpt lat="44.77778" lon="5.85827">
        <ele>1892.2</ele>
        <time>2019-06-23T05:59:28Z</time>
      </trkpt>
      <trkpt lat="44.77777" lon="5.85822">
        <ele>1891.8</ele>
        <time>2019-06-23T05:59:33Z</time>
      </trkpt>
      <trkpt lat="44.77776" lon="5.85817">
        <ele>1894</ele>
        <time>2019-06-23T05:59:38Z</time>
      </trkpt>
      <trkpt lat="44.77777" lon="5.85811">
        <ele>1891.2</ele>
        <time>2019-06-23T05:59:43Z</time>
      </trkpt>
      <trkpt lat="44.77777" lon="5.85806">
        <ele>1892.2</ele>
        <time>2019-06-23T05:59:48Z</time>
      </trkpt>
      <trkpt lat="44.77777" lon="5.858">
        <ele>1893</ele>
        <time>2019-06-23T05:59:53Z</time>
      </trkpt>
      <trkpt lat="44.77777" lon="5.85793">
        <ele>1892.2</ele>
        <time>2019-06-23T05:59:58Z</time>
      </trkpt>
      <trkpt lat="44.77777" lon="5.85787">
        <ele>1892.2</ele>
        <time>2019-06-23T06:00:03Z</time>
      </trkpt>
      <trkpt lat="44.77777" lon="5.85782">
        <ele>1896.2</ele>
        <time>2019-06-23T06:00:08Z</time>
      </trkpt>
      <trkpt lat="44.77778" lon="5.85778">
        <ele>1894.8</ele>
        <time>2019-06-23T06:00:13Z</time>
      </trkpt>
      <trkpt lat="44.77778" lon="5.85774">
        <ele>1896</ele>
        <time>2019-06-23T06:00:18Z</time>
      </trkpt>
      <trkpt lat="44.77779" lon="5.85769">
        <ele>1896</ele>
        <time>2019-06-23T06:00:23Z</time>
      </trkpt>
      <trkpt lat="44.77779" lon="5.85763">
        <ele>1896.6</ele>
        <time>2019-06-23T06:00:29Z</time>
      </trkpt>
      <trkpt lat="44.77779" lon="5.85758">
        <ele>1900.2</ele>
        <time>2019-06-23T06:00:34Z</time>
      </trkpt>
      <trkpt lat="44.77779" lon="5.85753">
        <ele>1899.6</ele>
        <time>2019-06-23T06:00:39Z</time>
      </trkpt>
      <trkpt lat="44.77779" lon="5.85748">
        <ele>1899.2</ele>
        <time>2019-06-23T06:00:44Z</time>
      </trkpt>
      <trkpt lat="44.77781" lon="5.85742">
        <ele>1899.6</ele>
        <time>2019-06-23T06:00:49Z</time>
      </trkpt>
      <trkpt lat="44.77783" lon="5.85736">
        <ele>1899.8</ele>
        <time>2019-06-23T06:00:54Z</time>
      </trkpt>
      <trkpt lat="44.77785" lon="5.85732">
        <ele>1900.8</ele>
        <time>2019-06-23T06:00:59Z</time>
      </trkpt>
      <trkpt lat="44.77786" lon="5.85728">
        <ele>1899.6</ele>
        <time>2019-06-23T06:01:04Z</time>
      </trkpt>
      <trkpt lat="44.77788" lon="5.85724">
        <ele>1901.6</ele>
        <time>2019-06-23T06:01:09Z</time>
      </trkpt>
      <trkpt lat="44.77789" lon="5.8572">
        <ele>1902.6</ele>
        <time>2019-06-23T06:01:14Z</time>
      </trkpt>
      <trkpt lat="44.77793" lon="5.85716">
        <ele>1904.8</ele>
        <time>2019-06-23T06:01:19Z</time>
      </trkpt>
      <trkpt lat="44.77796" lon="5.85713">
        <ele>1900.6</ele>
        <time>2019-06-23T06:01:24Z</time>
      </trkpt>
      <trkpt lat="44.77799" lon="5.85709">
        <ele>1904.2</ele>
        <time>2019-06-23T06:01:29Z</time>
      </trkpt>
      <trkpt lat="44.77801" lon="5.85706">
        <ele>1905.4</ele>
        <time>2019-06-23T06:01:34Z</time>
      </trkpt>
      <trkpt lat="44.77803" lon="5.85702">
        <ele>1904.2</ele>
        <time>2019-06-23T06:01:39Z</time>
      </trkpt>
      <trkpt lat="44.77805" lon="5.85698">
        <ele>1905.4</ele>
        <time>2019-06-23T06:01:44Z</time>
      </trkpt>
      <trkpt lat="44.77807" lon="5.85694">
        <ele>1906.4</ele>
        <time>2019-06-23T06:01:49Z</time>
      </trkpt>
      <trkpt lat="44.77809" lon="5.8569">
        <ele>1908.2</ele>
        <time>2019-06-23T06:01:54Z</time>
      </trkpt>
      <trkpt lat="44.7781" lon="5.85686">
        <ele>1906.4</ele>
        <time>2019-06-23T06:01:59Z</time>
      </trkpt>
      <trkpt lat="44.77813" lon="5.85682">
        <ele>1908</ele>
        <time>2019-06-23T06:02:04Z</time>
      </trkpt>
      <trkpt lat="44.77814" lon="5.85678">
        <ele>1907.2</ele>
        <time>2019-06-23T06:02:09Z</time>
      </trkpt>
      <trkpt lat="44.77816" lon="5.85675">
        <ele>1911.2</ele>
        <time>2019-06-23T06:02:14Z</time>
      </trkpt>
      <trkpt lat="44.77818" lon="5.85671">
        <ele>1909.8</ele>
        <time>2019-06-23T06:02:19Z</time>
      </trkpt>
      <trkpt lat="44.77821" lon="5.85667">
        <ele>1910.8</ele>
        <time>2019-06-23T06:02:24Z</time>
      </trkpt>
      <trkpt lat="44.77823" lon="5.85663">
        <ele>1909.8</ele>
        <time>2019-06-23T06:02:29Z</time>
      </trkpt>
      <trkpt lat="44.77824" lon="5.85659">
        <ele>1913.4</ele>
        <time>2019-06-23T06:02:34Z</time>
      </trkpt>
      <trkpt lat="44.77825" lon="5.85655">
        <ele>1912.4</ele>
        <time>2019-06-23T06:02:39Z</time>
      </trkpt>
      <trkpt lat="44.77828" lon="5.85652">
        <ele>1913.6</ele>
        <time>2019-06-23T06:02:44Z</time>
      </trkpt>
      <trkpt lat="44.77831" lon="5.85649">
        <ele>1915.6</ele>
        <time>2019-06-23T06:02:49Z</time>
      </trkpt>
      <trkpt lat="44.77833" lon="5.85645">
        <ele>1914.2</ele>
        <time>2019-06-23T06:02:54Z</time>
      </trkpt>
      <trkpt lat="44.77834" lon="5.8564">
        <ele>1914</ele>
        <time>2019-06-23T06:02:59Z</time>
      </trkpt>
      <trkpt lat="44.77837" lon="5.85635">
        <ele>1915</ele>
        <time>2019-06-23T06:03:04Z</time>
      </trkpt>
      <trkpt lat="44.7784" lon="5.85632">
        <ele>1912</ele>
        <time>2019-06-23T06:03:09Z</time>
      </trkpt>
      <trkpt lat="44.77845" lon="5.8563">
        <ele>1914.8</ele>
        <time>2019-06-23T06:03:14Z</time>
      </trkpt>
      <trkpt lat="44.77849" lon="5.85627">
        <ele>1916.2</ele>
        <time>2019-06-23T06:03:19Z</time>
      </trkpt>
      <trkpt lat="44.77853" lon="5.85626">
        <ele>1914.4</ele>
        <time>2019-06-23T06:03:24Z</time>
      </trkpt>
      <trkpt lat="44.77857" lon="5.85626">
        <ele>1914.4</ele>
        <time>2019-06-23T06:03:29Z</time>
      </trkpt>
      <trkpt lat="44.77861" lon="5.85625">
        <ele>1916</ele>
        <time>2019-06-23T06:03:34Z</time>
      </trkpt>
      <trkpt lat="44.77864" lon="5.85626">
        <ele>1915.4</ele>
        <time>2019-06-23T06:03:39Z</time>
      </trkpt>
      <trkpt lat="44.77867" lon="5.85627">
        <ele>1915</ele>
        <time>2019-06-23T06:03:44Z</time>
      </trkpt>
      <trkpt lat="44.77871" lon="5.85628">
        <ele>1917.2</ele>
        <time>2019-06-23T06:03:49Z</time>
      </trkpt>
      <trkpt lat="44.77875" lon="5.85628">
        <ele>1917.6</ele>
        <time>2019-06-23T06:03:54Z</time>
      </trkpt>
      <trkpt lat="44.7788" lon="5.85628">
        <ele>1917.6</ele>
        <time>2019-06-23T06:03:59Z</time>
      </trkpt>
      <trkpt lat="44.77884" lon="5.85627">
        <ele>1921.8</ele>
        <time>2019-06-23T06:04:04Z</time>
      </trkpt>
      <trkpt lat="44.77887" lon="5.85626">
        <ele>1922.6</ele>
        <time>2019-06-23T06:04:09Z</time>
      </trkpt>
      <trkpt lat="44.7789" lon="5.85623">
        <ele>1921</ele>
        <time>2019-06-23T06:04:14Z</time>
      </trkpt>
      <trkpt lat="44.77893" lon="5.8562">
        <ele>1920.4</ele>
        <time>2019-06-23T06:04:19Z</time>
      </trkpt>
      <trkpt lat="44.77896" lon="5.85617">
        <ele>1921.2</ele>
        <time>2019-06-23T06:04:24Z</time>
      </trkpt>
      <trkpt lat="44.77898" lon="5.85615">
        <ele>1920.4</ele>
        <time>2019-06-23T06:04:29Z</time>
      </trkpt>
      <trkpt lat="44.77901" lon="5.85611">
        <ele>1923.6</ele>
        <time>2019-06-23T06:04:34Z</time>
      </trkpt>
      <trkpt lat="44.77904" lon="5.85607">
        <ele>1925.2</ele>
        <time>2019-06-23T06:04:39Z</time>
      </trkpt>
      <trkpt lat="44.77906" lon="5.85602">
        <ele>1923.8</ele>
        <time>2019-06-23T06:04:44Z</time>
      </trkpt>
      <trkpt lat="44.77907" lon="5.85597">
        <ele>1925.2</ele>
        <time>2019-06-23T06:04:49Z</time>
      </trkpt>
      <trkpt lat="44.77909" lon="5.85592">
        <ele>1925.8</ele>
        <time>2019-06-23T06:04:54Z</time>
      </trkpt>
      <trkpt lat="44.7791" lon="5.85588">
        <ele>1926.8</ele>
        <time>2019-06-23T06:04:59Z</time>
      </trkpt>
      <trkpt lat="44.77911" lon="5.85583">
        <ele>1928.2</ele>
        <time>2019-06-23T06:05:04Z</time>
      </trkpt>
      <trkpt lat="44.77911" lon="5.85579">
        <ele>1927</ele>
        <time>2019-06-23T06:05:09Z</time>
      </trkpt>
      <trkpt lat="44.77912" lon="5.85575">
        <ele>1928.8</ele>
        <time>2019-06-23T06:05:14Z</time>
      </trkpt>
      <trkpt lat="44.77914" lon="5.85571">
        <ele>1929.4</ele>
        <time>2019-06-23T06:05:19Z</time>
      </trkpt>
      <trkpt lat="44.77915" lon="5.85566">
        <ele>1930.8</ele>
        <time>2019-06-23T06:05:24Z</time>
      </trkpt>
      <trkpt lat="44.77917" lon="5.85562">
        <ele>1931.6</ele>
        <time>2019-06-23T06:05:29Z</time>
      </trkpt>
      <trkpt lat="44.77919" lon="5.85558">
        <ele>1933</ele>
        <time>2019-06-23T06:05:34Z</time>
      </trkpt>
      <trkpt lat="44.77922" lon="5.85554">
        <ele>1930</ele>
        <time>2019-06-23T06:05:39Z</time>
      </trkpt>
      <trkpt lat="44.77924" lon="5.8555">
        <ele>1932</ele>
        <time>2019-06-23T06:05:44Z</time>
      </trkpt>
      <trkpt lat="44.77926" lon="5.85546">
        <ele>1933.6</ele>
        <time>2019-06-23T06:05:49Z</time>
      </trkpt>
      <trkpt lat="44.77928" lon="5.85542">
        <ele>1932</ele>
        <time>2019-06-23T06:05:54Z</time>
      </trkpt>
      <trkpt lat="44.77931" lon="5.8554">
        <ele>1933.6</ele>
        <time>2019-06-23T06:05:59Z</time>
      </trkpt>
      <trkpt lat="44.77934" lon="5.85538">
        <ele>1933.8</ele>
        <time>2019-06-23T06:06:04Z</time>
      </trkpt>
      <trkpt lat="44.77937" lon="5.85536">
        <ele>1937</ele>
        <time>2019-06-23T06:06:09Z</time>
      </trkpt>
      <trkpt lat="44.77941" lon="5.85534">
        <ele>1935</ele>
        <time>2019-06-23T06:06:14Z</time>
      </trkpt>
      <trkpt lat="44.77944" lon="5.85532">
        <ele>1937.4</ele>
        <time>2019-06-23T06:06:19Z</time>
      </trkpt>
      <trkpt lat="44.77948" lon="5.85531">
        <ele>1936.4</ele>
        <time>2019-06-23T06:06:24Z</time>
      </trkpt>
      <trkpt lat="44.77951" lon="5.85529">
        <ele>1935.4</ele>
        <time>2019-06-23T06:06:29Z</time>
      </trkpt>
      <trkpt lat="44.77954" lon="5.85528">
        <ele>1938.2</ele>
        <time>2019-06-23T06:06:34Z</time>
      </trkpt>
      <trkpt lat="44.77957" lon="5.85525">
        <ele>1937.2</ele>
        <time>2019-06-23T06:06:39Z</time>
      </trkpt>
      <trkpt lat="44.7796" lon="5.85524">
        <ele>1937.8</ele>
        <time>2019-06-23T06:06:44Z</time>
      </trkpt>
      <trkpt lat="44.77964" lon="5.85522">
        <ele>1940.8</ele>
        <time>2019-06-23T06:06:49Z</time>
      </trkpt>
      <trkpt lat="44.77967" lon="5.85519">
        <ele>1940.6</ele>
        <time>2019-06-23T06:06:54Z</time>
      </trkpt>
      <trkpt lat="44.7797" lon="5.85515">
        <ele>1936.2</ele>
        <time>2019-06-23T06:06:59Z</time>
      </trkpt>
      <trkpt lat="44.77972" lon="5.85511">
        <ele>1941</ele>
        <time>2019-06-23T06:07:04Z</time>
      </trkpt>
      <trkpt lat="44.77973" lon="5.85506">
        <ele>1941.8</ele>
        <time>2019-06-23T06:07:09Z</time>
      </trkpt>
      <trkpt lat="44.77973" lon="5.855">
        <ele>1940.4</ele>
        <time>2019-06-23T06:07:14Z</time>
      </trkpt>
      <trkpt lat="44.77971" lon="5.85495">
        <ele>1940</ele>
        <time>2019-06-23T06:07:19Z</time>
      </trkpt>
      <trkpt lat="44.7797" lon="5.8549">
        <ele>1943</ele>
        <time>2019-06-23T06:07:24Z</time>
      </trkpt>
      <trkpt lat="44.77969" lon="5.85486">
        <ele>1944</ele>
        <time>2019-06-23T06:07:29Z</time>
      </trkpt>
      <trkpt lat="44.77968" lon="5.8548">
        <ele>1946.2</ele>
        <time>2019-06-23T06:07:34Z</time>
      </trkpt>
      <trkpt lat="44.77967" lon="5.85475">
        <ele>1945.6</ele>
        <time>2019-06-23T06:07:39Z</time>
      </trkpt>
      <trkpt lat="44.77965" lon="5.85471">
        <ele>1944.6</ele>
        <time>2019-06-23T06:07:44Z</time>
      </trkpt>
      <trkpt lat="44.77963" lon="5.85466">
        <ele>1945.6</ele>
        <time>2019-06-23T06:07:49Z</time>
      </trkpt>
      <trkpt lat="44.77962" lon="5.8546">
        <ele>1944.6</ele>
        <time>2019-06-23T06:07:54Z</time>
      </trkpt>
      <trkpt lat="44.77962" lon="5.85453">
        <ele>1948.4</ele>
        <time>2019-06-23T06:07:59Z</time>
      </trkpt>
      <trkpt lat="44.77962" lon="5.85448">
        <ele>1949.2</ele>
        <time>2019-06-23T06:08:04Z</time>
      </trkpt>
      <trkpt lat="44.77963" lon="5.85443">
        <ele>1947.2</ele>
        <time>2019-06-23T06:08:09Z</time>
      </trkpt>
      <trkpt lat="44.77965" lon="5.85437">
        <ele>1950</ele>
        <time>2019-06-23T06:08:14Z</time>
      </trkpt>
      <trkpt lat="44.77966" lon="5.8543">
        <ele>1949.2</ele>
        <time>2019-06-23T06:08:19Z</time>
      </trkpt>
      <trkpt lat="44.77967" lon="5.85424">
        <ele>1948</ele>
        <time>2019-06-23T06:08:24Z</time>
      </trkpt>
      <trkpt lat="44.77968" lon="5.85418">
        <ele>1949.8</ele>
        <time>2019-06-23T06:08:29Z</time>
      </trkpt>
      <trkpt lat="44.7797" lon="5.85413">
        <ele>1951.6</ele>
        <time>2019-06-23T06:08:34Z</time>
      </trkpt>
      <trkpt lat="44.77971" lon="5.85408">
        <ele>1952</ele>
        <time>2019-06-23T06:08:39Z</time>
      </trkpt>
      <trkpt lat="44.77972" lon="5.85403">
        <ele>1949.8</ele>
        <time>2019-06-23T06:08:44Z</time>
      </trkpt>
      <trkpt lat="44.77973" lon="5.85398">
        <ele>1951.8</ele>
        <time>2019-06-23T06:08:49Z</time>
      </trkpt>
      <trkpt lat="44.77974" lon="5.85392">
        <ele>1952.8</ele>
        <time>2019-06-23T06:08:54Z</time>
      </trkpt>
      <trkpt lat="44.77976" lon="5.85387">
        <ele>1953.2</ele>
        <time>2019-06-23T06:08:59Z</time>
      </trkpt>
      <trkpt lat="44.77979" lon="5.85383">
        <ele>1953.4</ele>
        <time>2019-06-23T06:09:04Z</time>
      </trkpt>
      <trkpt lat="44.77981" lon="5.8538">
        <ele>1957.2</ele>
        <time>2019-06-23T06:09:09Z</time>
      </trkpt>
      <trkpt lat="44.77984" lon="5.85377">
        <ele>1956</ele>
        <time>2019-06-23T06:09:14Z</time>
      </trkpt>
      <trkpt lat="44.77985" lon="5.85373">
        <ele>1957.2</ele>
        <time>2019-06-23T06:09:19Z</time>
      </trkpt>
      <trkpt lat="44.77987" lon="5.85369">
        <ele>1955.8</ele>
        <time>2019-06-23T06:09:24Z</time>
      </trkpt>
      <trkpt lat="44.77988" lon="5.85366">
        <ele>1957.2</ele>
        <time>2019-06-23T06:09:29Z</time>
      </trkpt>
      <trkpt lat="44.77989" lon="5.85362">
        <ele>1959.4</ele>
        <time>2019-06-23T06:09:34Z</time>
      </trkpt>
      <trkpt lat="44.77991" lon="5.85359">
        <ele>1959.6</ele>
        <time>2019-06-23T06:09:39Z</time>
      </trkpt>
      <trkpt lat="44.77993" lon="5.85357">
        <ele>1959.6</ele>
        <time>2019-06-23T06:09:44Z</time>
      </trkpt>
      <trkpt lat="44.77995" lon="5.85354">
        <ele>1957.6</ele>
        <time>2019-06-23T06:09:49Z</time>
      </trkpt>
      <trkpt lat="44.77998" lon="5.85352">
        <ele>1960.8</ele>
        <time>2019-06-23T06:09:54Z</time>
      </trkpt>
      <trkpt lat="44.78002" lon="5.85351">
        <ele>1959.6</ele>
        <time>2019-06-23T06:09:59Z</time>
      </trkpt>
      <trkpt lat="44.78006" lon="5.8535">
        <ele>1963.4</ele>
        <time>2019-06-23T06:10:04Z</time>
      </trkpt>
      <trkpt lat="44.78009" lon="5.85349">
        <ele>1960.6</ele>
        <time>2019-06-23T06:10:09Z</time>
      </trkpt>
      <trkpt lat="44.78013" lon="5.85348">
        <ele>1960.8</ele>
        <time>2019-06-23T06:10:14Z</time>
      </trkpt>
      <trkpt lat="44.78016" lon="5.85345">
        <ele>1963</ele>
        <time>2019-06-23T06:10:19Z</time>
      </trkpt>
      <trkpt lat="44.78019" lon="5.85343">
        <ele>1962.8</ele>
        <time>2019-06-23T06:10:24Z</time>
      </trkpt>
      <trkpt lat="44.78023" lon="5.85341">
        <ele>1964.8</ele>
        <time>2019-06-23T06:10:29Z</time>
      </trkpt>
      <trkpt lat="44.78028" lon="5.8534">
        <ele>1966</ele>
        <time>2019-06-23T06:10:34Z</time>
      </trkpt>
      <trkpt lat="44.78032" lon="5.85339">
        <ele>1960.4</ele>
        <time>2019-06-23T06:10:39Z</time>
      </trkpt>
      <trkpt lat="44.78036" lon="5.8534">
        <ele>1965.2</ele>
        <time>2019-06-23T06:10:44Z</time>
      </trkpt>
      <trkpt lat="44.78041" lon="5.85339">
        <ele>1962</ele>
        <time>2019-06-23T06:10:49Z</time>
      </trkpt>
      <trkpt lat="44.78045" lon="5.85336">
        <ele>1966.8</ele>
        <time>2019-06-23T06:10:54Z</time>
      </trkpt>
      <trkpt lat="44.78048" lon="5.85332">
        <ele>1967</ele>
        <time>2019-06-23T06:10:59Z</time>
      </trkpt>
      <trkpt lat="44.78053" lon="5.85328">
        <ele>1967.2</ele>
        <time>2019-06-23T06:11:04Z</time>
      </trkpt>
      <trkpt lat="44.78057" lon="5.85324">
        <ele>1964.6</ele>
        <time>2019-06-23T06:11:09Z</time>
      </trkpt>
      <trkpt lat="44.78062" lon="5.8532">
        <ele>1967.6</ele>
        <time>2019-06-23T06:11:15Z</time>
      </trkpt>
      <trkpt lat="44.78067" lon="5.85318">
        <ele>1965.6</ele>
        <time>2019-06-23T06:11:20Z</time>
      </trkpt>
      <trkpt lat="44.7807" lon="5.85315">
        <ele>1966.2</ele>
        <time>2019-06-23T06:11:25Z</time>
      </trkpt>
      <trkpt lat="44.78073" lon="5.85313">
        <ele>1968.8</ele>
        <time>2019-06-23T06:11:30Z</time>
      </trkpt>
      <trkpt lat="44.78077" lon="5.85312">
        <ele>1965.8</ele>
        <time>2019-06-23T06:11:35Z</time>
      </trkpt>
      <trkpt lat="44.78082" lon="5.8531">
        <ele>1967.2</ele>
        <time>2019-06-23T06:11:40Z</time>
      </trkpt>
      <trkpt lat="44.78085" lon="5.85308">
        <ele>1969.6</ele>
        <time>2019-06-23T06:11:45Z</time>
      </trkpt>
      <trkpt lat="44.78086" lon="5.85305">
        <ele>1966</ele>
        <time>2019-06-23T06:11:50Z</time>
      </trkpt>
      <trkpt lat="44.78089" lon="5.85302">
        <ele>1969.6</ele>
        <time>2019-06-23T06:11:55Z</time>
      </trkpt>
      <trkpt lat="44.78093" lon="5.85298">
        <ele>1968.8</ele>
        <time>2019-06-23T06:12:00Z</time>
      </trkpt>
      <trkpt lat="44.78096" lon="5.85296">
        <ele>1970.4</ele>
        <time>2019-06-23T06:12:05Z</time>
      </trkpt>
      <trkpt lat="44.78099" lon="5.85292">
        <ele>1970.2</ele>
        <time>2019-06-23T06:12:10Z</time>
      </trkpt>
      <trkpt lat="44.78102" lon="5.85287">
        <ele>1973</ele>
        <time>2019-06-23T06:12:15Z</time>
      </trkpt>
      <trkpt lat="44.78105" lon="5.85284">
        <ele>1971</ele>
        <time>2019-06-23T06:12:20Z</time>
      </trkpt>
      <trkpt lat="44.78109" lon="5.85282">
        <ele>1971</ele>
        <time>2019-06-23T06:12:25Z</time>
      </trkpt>
      <trkpt lat="44.78112" lon="5.85279">
        <ele>1973.8</ele>
        <time>2019-06-23T06:12:30Z</time>
      </trkpt>
      <trkpt lat="44.78116" lon="5.85275">
        <ele>1973.4</ele>
        <time>2019-06-23T06:12:35Z</time>
      </trkpt>
      <trkpt lat="44.7812" lon="5.85271">
        <ele>1974.4</ele>
        <time>2019-06-23T06:12:40Z</time>
      </trkpt>
      <trkpt lat="44.78124" lon="5.85267">
        <ele>1972.4</ele>
        <time>2019-06-23T06:12:45Z</time>
      </trkpt>
      <trkpt lat="44.78128" lon="5.85265">
        <ele>1975.8</ele>
        <time>2019-06-23T06:12:50Z</time>
      </trkpt>
      <trkpt lat="44.78132" lon="5.85262">
        <ele>1974.2</ele>
        <time>2019-06-23T06:12:55Z</time>
      </trkpt>
      <trkpt lat="44.78135" lon="5.85259">
        <ele>1974.6</ele>
        <time>2019-06-23T06:13:00Z</time>
      </trkpt>
      <trkpt lat="44.78139" lon="5.85255">
        <ele>1975.6</ele>
        <time>2019-06-23T06:13:05Z</time>
      </trkpt>
      <trkpt lat="44.78142" lon="5.85251">
        <ele>1974.6</ele>
        <time>2019-06-23T06:13:10Z</time>
      </trkpt>
      <trkpt lat="44.78145" lon="5.85249">
        <ele>1975.4</ele>
        <time>2019-06-23T06:13:15Z</time>
      </trkpt>
      <trkpt lat="44.78149" lon="5.85249">
        <ele>1978.6</ele>
        <time>2019-06-23T06:13:20Z</time>
      </trkpt>
      <trkpt lat="44.78152" lon="5.85249">
        <ele>1975.6</ele>
        <time>2019-06-23T06:13:25Z</time>
      </trkpt>
      <trkpt lat="44.78155" lon="5.85249">
        <ele>1980.8</ele>
        <time>2019-06-23T06:13:30Z</time>
      </trkpt>
      <trkpt lat="44.78158" lon="5.85248">
        <ele>1976.6</ele>
        <time>2019-06-23T06:13:35Z</time>
      </trkpt>
      <trkpt lat="44.7816" lon="5.85247">
        <ele>1978.4</ele>
        <time>2019-06-23T06:13:40Z</time>
      </trkpt>
      <trkpt lat="44.78163" lon="5.85244">
        <ele>1981.8</ele>
        <time>2019-06-23T06:13:45Z</time>
      </trkpt>
      <trkpt lat="44.78165" lon="5.8524">
        <ele>1982.2</ele>
        <time>2019-06-23T06:13:50Z</time>
      </trkpt>
      <trkpt lat="44.78168" lon="5.85236">
        <ele>1984</ele>
        <time>2019-06-23T06:13:55Z</time>
      </trkpt>
      <trkpt lat="44.78169" lon="5.85232">
        <ele>1983.4</ele>
        <time>2019-06-23T06:14:00Z</time>
      </trkpt>
      <trkpt lat="44.7817" lon="5.85229">
        <ele>1982</ele>
        <time>2019-06-23T06:14:05Z</time>
      </trkpt>
      <trkpt lat="44.78172" lon="5.85226">
        <ele>1983.8</ele>
        <time>2019-06-23T06:14:10Z</time>
      </trkpt>
      <trkpt lat="44.78173" lon="5.85223">
        <ele>1988</ele>
        <time>2019-06-23T06:14:15Z</time>
      </trkpt>
      <trkpt lat="44.78175" lon="5.8522">
        <ele>1987.2</ele>
        <time>2019-06-23T06:14:20Z</time>
      </trkpt>
      <trkpt lat="44.78177" lon="5.85217">
        <ele>1986.8</ele>
        <time>2019-06-23T06:14:25Z</time>
      </trkpt>
      <trkpt lat="44.78178" lon="5.85214">
        <ele>1987.8</ele>
        <time>2019-06-23T06:14:30Z</time>
      </trkpt>
      <trkpt lat="44.7818" lon="5.85211">
        <ele>1987.6</ele>
        <time>2019-06-23T06:14:35Z</time>
      </trkpt>
      <trkpt lat="44.78181" lon="5.85207">
        <ele>1990.2</ele>
        <time>2019-06-23T06:14:40Z</time>
      </trkpt>
      <trkpt lat="44.78182" lon="5.85204">
        <ele>1989.4</ele>
        <time>2019-06-23T06:14:45Z</time>
      </trkpt>
      <trkpt lat="44.78183" lon="5.852">
        <ele>1990</ele>
        <time>2019-06-23T06:14:50Z</time>
      </trkpt>
      <trkpt lat="44.78184" lon="5.85196">
        <ele>1992.2</ele>
        <time>2019-06-23T06:14:55Z</time>
      </trkpt>
      <trkpt lat="44.78186" lon="5.85192">
        <ele>1991.8</ele>
        <time>2019-06-23T06:15:00Z</time>
      </trkpt>
      <trkpt lat="44.78187" lon="5.85186">
        <ele>1994.6</ele>
        <time>2019-06-23T06:15:05Z</time>
      </trkpt>
      <trkpt lat="44.78189" lon="5.85181">
        <ele>1993.8</ele>
        <time>2019-06-23T06:15:10Z</time>
      </trkpt>
      <trkpt lat="44.78192" lon="5.85176">
        <ele>1994.4</ele>
        <time>2019-06-23T06:15:15Z</time>
      </trkpt>
      <trkpt lat="44.78196" lon="5.85172">
        <ele>1994.8</ele>
        <time>2019-06-23T06:15:20Z</time>
      </trkpt>
      <trkpt lat="44.782" lon="5.85166">
        <ele>1994.4</ele>
        <time>2019-06-23T06:15:25Z</time>
      </trkpt>
      <trkpt lat="44.78205" lon="5.85163">
        <ele>1994.4</ele>
        <time>2019-06-23T06:15:30Z</time>
      </trkpt>
      <trkpt lat="44.7821" lon="5.85163">
        <ele>1995</ele>
        <time>2019-06-23T06:15:35Z</time>
      </trkpt>
      <trkpt lat="44.78213" lon="5.85167">
        <ele>1995.6</ele>
        <time>2019-06-23T06:15:40Z</time>
      </trkpt>
      <trkpt lat="44.78218" lon="5.85166">
        <ele>1996.8</ele>
        <time>2019-06-23T06:15:45Z</time>
      </trkpt>
      <trkpt lat="44.78219" lon="5.8516">
        <ele>1995</ele>
        <time>2019-06-23T06:15:50Z</time>
      </trkpt>
      <trkpt lat="44.7822" lon="5.85153">
        <ele>1995.2</ele>
        <time>2019-06-23T06:15:55Z</time>
      </trkpt>
      <trkpt lat="44.7822" lon="5.85145">
        <ele>1994.2</ele>
        <time>2019-06-23T06:16:00Z</time>
      </trkpt>
      <trkpt lat="44.78221" lon="5.85138">
        <ele>1995.2</ele>
        <time>2019-06-23T06:16:05Z</time>
      </trkpt>
      <trkpt lat="44.78222" lon="5.85131">
        <ele>1995.6</ele>
        <time>2019-06-23T06:16:10Z</time>
      </trkpt>
      <trkpt lat="44.78223" lon="5.85125">
        <ele>1997</ele>
        <time>2019-06-23T06:16:15Z</time>
      </trkpt>
      <trkpt lat="44.78224" lon="5.85118">
        <ele>1994.8</ele>
        <time>2019-06-23T06:16:20Z</time>
      </trkpt>
      <trkpt lat="44.78224" lon="5.85112">
        <ele>1998</ele>
        <time>2019-06-23T06:16:25Z</time>
      </trkpt>
      <trkpt lat="44.78224" lon="5.85105">
        <ele>1998.4</ele>
        <time>2019-06-23T06:16:30Z</time>
      </trkpt>
      <trkpt lat="44.78223" lon="5.85099">
        <ele>1996.8</ele>
        <time>2019-06-23T06:16:35Z</time>
      </trkpt>
      <trkpt lat="44.78222" lon="5.85092">
        <ele>1996</ele>
        <time>2019-06-23T06:16:40Z</time>
      </trkpt>
      <trkpt lat="44.78221" lon="5.85086">
        <ele>1997</ele>
        <time>2019-06-23T06:16:45Z</time>
      </trkpt>
      <trkpt lat="44.7822" lon="5.85079">
        <ele>1998.8</ele>
        <time>2019-06-23T06:16:50Z</time>
      </trkpt>
      <trkpt lat="44.7822" lon="5.85072">
        <ele>1996.6</ele>
        <time>2019-06-23T06:16:55Z</time>
      </trkpt>
      <trkpt lat="44.78218" lon="5.85066">
        <ele>1995.6</ele>
        <time>2019-06-23T06:17:00Z</time>
      </trkpt>
      <trkpt lat="44.78218" lon="5.8506">
        <ele>1995.8</ele>
        <time>2019-06-23T06:17:05Z</time>
      </trkpt>
      <trkpt lat="44.78218" lon="5.85055">
        <ele>1999.4</ele>
        <time>2019-06-23T06:17:10Z</time>
      </trkpt>
      <trkpt lat="44.78218" lon="5.85049">
        <ele>1997.6</ele>
        <time>2019-06-23T06:17:15Z</time>
      </trkpt>
      <trkpt lat="44.78216" lon="5.85043">
        <ele>1998.4</ele>
        <time>2019-06-23T06:17:20Z</time>
      </trkpt>
      <trkpt lat="44.78214" lon="5.85038">
        <ele>1999</ele>
        <time>2019-06-23T06:17:25Z</time>
      </trkpt>
      <trkpt lat="44.78212" lon="5.85031">
        <ele>1997.2</ele>
        <time>2019-06-23T06:17:30Z</time>
      </trkpt>
      <trkpt lat="44.7821" lon="5.85026">
        <ele>1999.4</ele>
        <time>2019-06-23T06:17:35Z</time>
      </trkpt>
      <trkpt lat="44.78208" lon="5.8502">
        <ele>1995.8</ele>
        <time>2019-06-23T06:17:40Z</time>
      </trkpt>
      <trkpt lat="44.78207" lon="5.85014">
        <ele>1996</ele>
        <time>2019-06-23T06:17:45Z</time>
      </trkpt>
      <trkpt lat="44.78206" lon="5.85008">
        <ele>1998.4</ele>
        <time>2019-06-23T06:17:50Z</time>
      </trkpt>
      <trkpt lat="44.78205" lon="5.85002">
        <ele>1999</ele>
        <time>2019-06-23T06:17:55Z</time>
      </trkpt>
      <trkpt lat="44.78204" lon="5.84996">
        <ele>1998</ele>
        <time>2019-06-23T06:18:00Z</time>
      </trkpt>
      <trkpt lat="44.78203" lon="5.8499">
        <ele>1995.8</ele>
        <time>2019-06-23T06:18:05Z</time>
      </trkpt>
      <trkpt lat="44.782" lon="5.84984">
        <ele>1998.4</ele>
        <time>2019-06-23T06:18:10Z</time>
      </trkpt>
      <trkpt lat="44.78197" lon="5.84978">
        <ele>1999.4</ele>
        <time>2019-06-23T06:18:15Z</time>
      </trkpt>
      <trkpt lat="44.78196" lon="5.84972">
        <ele>1999.4</ele>
        <time>2019-06-23T06:18:20Z</time>
      </trkpt>
      <trkpt lat="44.78193" lon="5.84965">
        <ele>1999.2</ele>
        <time>2019-06-23T06:18:25Z</time>
      </trkpt>
      <trkpt lat="44.78191" lon="5.84958">
        <ele>2001</ele>
        <time>2019-06-23T06:18:30Z</time>
      </trkpt>
      <trkpt lat="44.78189" lon="5.84951">
        <ele>1999</ele>
        <time>2019-06-23T06:18:35Z</time>
      </trkpt>
      <trkpt lat="44.78187" lon="5.84944">
        <ele>1999.8</ele>
        <time>2019-06-23T06:18:40Z</time>
      </trkpt>
      <trkpt lat="44.78185" lon="5.84937">
        <ele>2000.4</ele>
        <time>2019-06-23T06:18:45Z</time>
      </trkpt>
      <trkpt lat="44.78184" lon="5.8493">
        <ele>2001</ele>
        <time>2019-06-23T06:18:50Z</time>
      </trkpt>
      <trkpt lat="44.78182" lon="5.84923">
        <ele>1998.4</ele>
        <time>2019-06-23T06:18:55Z</time>
      </trkpt>
      <trkpt lat="44.78178" lon="5.84919">
        <ele>2001</ele>
        <time>2019-06-23T06:19:00Z</time>
      </trkpt>
      <trkpt lat="44.78175" lon="5.84914">
        <ele>1999.6</ele>
        <time>2019-06-23T06:19:05Z</time>
      </trkpt>
      <trkpt lat="44.78172" lon="5.84908">
        <ele>1998.4</ele>
        <time>2019-06-23T06:19:10Z</time>
      </trkpt>
      <trkpt lat="44.78171" lon="5.84905">
        <ele>1999.4</ele>
        <time>2019-06-23T06:19:15Z</time>
      </trkpt>
      <trkpt lat="44.7817" lon="5.84904">
        <ele>2000.4</ele>
        <time>2019-06-23T06:19:35Z</time>
      </trkpt>
      <trkpt lat="44.78169" lon="5.849">
        <ele>2001.4</ele>
        <time>2019-06-23T06:19:40Z</time>
      </trkpt>
      <trkpt lat="44.78165" lon="5.84894">
        <ele>2004.4</ele>
        <time>2019-06-23T06:19:45Z</time>
      </trkpt>
      <trkpt lat="44.78163" lon="5.84888">
        <ele>2004.8</ele>
        <time>2019-06-23T06:19:50Z</time>
      </trkpt>
      <trkpt lat="44.7816" lon="5.84883">
        <ele>2003</ele>
        <time>2019-06-23T06:19:55Z</time>
      </trkpt>
      <trkpt lat="44.78158" lon="5.84878">
        <ele>2002.2</ele>
        <time>2019-06-23T06:20:00Z</time>
      </trkpt>
      <trkpt lat="44.78157" lon="5.84873">
        <ele>2002.2</ele>
        <time>2019-06-23T06:20:05Z</time>
      </trkpt>
      <trkpt lat="44.78155" lon="5.84869">
        <ele>2002.8</ele>
        <time>2019-06-23T06:20:10Z</time>
      </trkpt>
      <trkpt lat="44.78153" lon="5.84863">
        <ele>2004.4</ele>
        <time>2019-06-23T06:20:15Z</time>
      </trkpt>
      <trkpt lat="44.78151" lon="5.84858">
        <ele>2003.6</ele>
        <time>2019-06-23T06:20:20Z</time>
      </trkpt>
      <trkpt lat="44.7815" lon="5.84851">
        <ele>2005.2</ele>
        <time>2019-06-23T06:20:25Z</time>
      </trkpt>
      <trkpt lat="44.7815" lon="5.84844">
        <ele>2006</ele>
        <time>2019-06-23T06:20:30Z</time>
      </trkpt>
      <trkpt lat="44.78152" lon="5.84838">
        <ele>2005.2</ele>
        <time>2019-06-23T06:20:35Z</time>
      </trkpt>
      <trkpt lat="44.78155" lon="5.84832">
        <ele>2004.8</ele>
        <time>2019-06-23T06:20:40Z</time>
      </trkpt>
      <trkpt lat="44.78158" lon="5.84826">
        <ele>2005.8</ele>
        <time>2019-06-23T06:20:45Z</time>
      </trkpt>
      <trkpt lat="44.78161" lon="5.84821">
        <ele>2010</ele>
        <time>2019-06-23T06:20:50Z</time>
      </trkpt>
      <trkpt lat="44.78164" lon="5.84815">
        <ele>2008.2</ele>
        <time>2019-06-23T06:20:55Z</time>
      </trkpt>
      <trkpt lat="44.78166" lon="5.84808">
        <ele>2007.4</ele>
        <time>2019-06-23T06:21:00Z</time>
      </trkpt>
      <trkpt lat="44.78166" lon="5.84801">
        <ele>2007</ele>
        <time>2019-06-23T06:21:05Z</time>
      </trkpt>
      <trkpt lat="44.78162" lon="5.84795">
        <ele>2006.8</ele>
        <time>2019-06-23T06:21:10Z</time>
      </trkpt>
      <trkpt lat="44.78159" lon="5.8479">
        <ele>2006.4</ele>
        <time>2019-06-23T06:21:15Z</time>
      </trkpt>
      <trkpt lat="44.78158" lon="5.84784">
        <ele>2008.2</ele>
        <time>2019-06-23T06:21:20Z</time>
      </trkpt>
      <trkpt lat="44.78159" lon="5.84777">
        <ele>2007.4</ele>
        <time>2019-06-23T06:21:25Z</time>
      </trkpt>
      <trkpt lat="44.78161" lon="5.8477">
        <ele>2009.2</ele>
        <time>2019-06-23T06:21:30Z</time>
      </trkpt>
      <trkpt lat="44.78162" lon="5.84764">
        <ele>2007.8</ele>
        <time>2019-06-23T06:21:35Z</time>
      </trkpt>
      <trkpt lat="44.78164" lon="5.84758">
        <ele>2006.2</ele>
        <time>2019-06-23T06:21:40Z</time>
      </trkpt>
      <trkpt lat="44.78164" lon="5.84752">
        <ele>2008.6</ele>
        <time>2019-06-23T06:21:45Z</time>
      </trkpt>
      <trkpt lat="44.78159" lon="5.84752">
        <ele>2009</ele>
        <time>2019-06-23T06:21:50Z</time>
      </trkpt>
      <trkpt lat="44.78154" lon="5.8475">
        <ele>2011</ele>
        <time>2019-06-23T06:21:55Z</time>
      </trkpt>
      <trkpt lat="44.7815" lon="5.84746">
        <ele>2009.6</ele>
        <time>2019-06-23T06:22:00Z</time>
      </trkpt>
      <trkpt lat="44.78147" lon="5.84743">
        <ele>2013.4</ele>
        <time>2019-06-23T06:22:05Z</time>
      </trkpt>
      <trkpt lat="44.78143" lon="5.84743">
        <ele>2009.4</ele>
        <time>2019-06-23T06:22:10Z</time>
      </trkpt>
      <trkpt lat="44.78141" lon="5.84742">
        <ele>2010.6</ele>
        <time>2019-06-23T06:22:15Z</time>
      </trkpt>
      <trkpt lat="44.78138" lon="5.84742">
        <ele>2009.2</ele>
        <time>2019-06-23T06:22:20Z</time>
      </trkpt>
      <trkpt lat="44.78135" lon="5.8474">
        <ele>2013.8</ele>
        <time>2019-06-23T06:22:25Z</time>
      </trkpt>
      <trkpt lat="44.78133" lon="5.84739">
        <ele>2013</ele>
        <time>2019-06-23T06:22:30Z</time>
      </trkpt>
      <trkpt lat="44.78131" lon="5.84738">
        <ele>2011.8</ele>
        <time>2019-06-23T06:22:35Z</time>
      </trkpt>
      <trkpt lat="44.78129" lon="5.84741">
        <ele>2014.4</ele>
        <time>2019-06-23T06:22:40Z</time>
      </trkpt>
      <trkpt lat="44.78126" lon="5.84742">
        <ele>2016.4</ele>
        <time>2019-06-23T06:22:45Z</time>
      </trkpt>
      <trkpt lat="44.78123" lon="5.84744">
        <ele>2018.4</ele>
        <time>2019-06-23T06:22:51Z</time>
      </trkpt>
      <trkpt lat="44.78121" lon="5.84744">
        <ele>2016.8</ele>
        <time>2019-06-23T06:22:56Z</time>
      </trkpt>
      <trkpt lat="44.78119" lon="5.84746">
        <ele>2017.4</ele>
        <time>2019-06-23T06:23:01Z</time>
      </trkpt>
      <trkpt lat="44.78117" lon="5.84747">
        <ele>2016</ele>
        <time>2019-06-23T06:23:06Z</time>
      </trkpt>
      <trkpt lat="44.78115" lon="5.84747">
        <ele>2018.8</ele>
        <time>2019-06-23T06:23:11Z</time>
      </trkpt>
      <trkpt lat="44.78113" lon="5.84747">
        <ele>2018.2</ele>
        <time>2019-06-23T06:23:16Z</time>
      </trkpt>
      <trkpt lat="44.7811" lon="5.84747">
        <ele>2020.2</ele>
        <time>2019-06-23T06:23:21Z</time>
      </trkpt>
      <trkpt lat="44.78108" lon="5.84749">
        <ele>2019.2</ele>
        <time>2019-06-23T06:23:26Z</time>
      </trkpt>
      <trkpt lat="44.78106" lon="5.84751">
        <ele>2022.6</ele>
        <time>2019-06-23T06:23:31Z</time>
      </trkpt>
      <trkpt lat="44.78104" lon="5.84754">
        <ele>2023.6</ele>
        <time>2019-06-23T06:23:36Z</time>
      </trkpt>
      <trkpt lat="44.78102" lon="5.84758">
        <ele>2024.4</ele>
        <time>2019-06-23T06:23:41Z</time>
      </trkpt>
      <trkpt lat="44.78099" lon="5.84762">
        <ele>2024.8</ele>
        <time>2019-06-23T06:23:46Z</time>
      </trkpt>
      <trkpt lat="44.78097" lon="5.84766">
        <ele>2025.2</ele>
        <time>2019-06-23T06:23:51Z</time>
      </trkpt>
      <trkpt lat="44.78094" lon="5.84768">
        <ele>2024.6</ele>
        <time>2019-06-23T06:23:56Z</time>
      </trkpt>
      <trkpt lat="44.7809" lon="5.84769">
        <ele>2025.4</ele>
        <time>2019-06-23T06:24:01Z</time>
      </trkpt>
      <trkpt lat="44.78087" lon="5.84766">
        <ele>2027.4</ele>
        <time>2019-06-23T06:24:06Z</time>
      </trkpt>
      <trkpt lat="44.78084" lon="5.84765">
        <ele>2029.8</ele>
        <time>2019-06-23T06:24:11Z</time>
      </trkpt>
      <trkpt lat="44.7808" lon="5.84763">
        <ele>2029.6</ele>
        <time>2019-06-23T06:24:16Z</time>
      </trkpt>
      <trkpt lat="44.78076" lon="5.8476">
        <ele>2029.2</ele>
        <time>2019-06-23T06:24:21Z</time>
      </trkpt>
      <trkpt lat="44.78073" lon="5.84756">
        <ele>2030.2</ele>
        <time>2019-06-23T06:24:26Z</time>
      </trkpt>
      <trkpt lat="44.7807" lon="5.84753">
        <ele>2030</ele>
        <time>2019-06-23T06:24:31Z</time>
      </trkpt>
      <trkpt lat="44.78068" lon="5.84749">
        <ele>2030.4</ele>
        <time>2019-06-23T06:24:36Z</time>
      </trkpt>
      <trkpt lat="44.78064" lon="5.84746">
        <ele>2028.2</ele>
        <time>2019-06-23T06:24:41Z</time>
      </trkpt>
      <trkpt lat="44.78061" lon="5.84744">
        <ele>2031.6</ele>
        <time>2019-06-23T06:24:46Z</time>
      </trkpt>
      <trkpt lat="44.78059" lon="5.84742">
        <ele>2031.8</ele>
        <time>2019-06-23T06:24:51Z</time>
      </trkpt>
      <trkpt lat="44.78056" lon="5.8474">
        <ele>2032.8</ele>
        <time>2019-06-23T06:24:56Z</time>
      </trkpt>
      <trkpt lat="44.78053" lon="5.84737">
        <ele>2033.6</ele>
        <time>2019-06-23T06:25:01Z</time>
      </trkpt>
      <trkpt lat="44.7805" lon="5.84733">
        <ele>2035</ele>
        <time>2019-06-23T06:25:06Z</time>
      </trkpt>
      <trkpt lat="44.78047" lon="5.84729">
        <ele>2033.8</ele>
        <time>2019-06-23T06:25:11Z</time>
      </trkpt>
      <trkpt lat="44.78043" lon="5.84727">
        <ele>2033.8</ele>
        <time>2019-06-23T06:25:16Z</time>
      </trkpt>
      <trkpt lat="44.78039" lon="5.84724">
        <ele>2034.6</ele>
        <time>2019-06-23T06:25:21Z</time>
      </trkpt>
      <trkpt lat="44.78034" lon="5.8472">
        <ele>2033.4</ele>
        <time>2019-06-23T06:25:26Z</time>
      </trkpt>
      <trkpt lat="44.78031" lon="5.84718">
        <ele>2036.8</ele>
        <time>2019-06-23T06:25:31Z</time>
      </trkpt>
      <trkpt lat="44.78028" lon="5.84715">
        <ele>2037</ele>
        <time>2019-06-23T06:25:36Z</time>
      </trkpt>
      <trkpt lat="44.78026" lon="5.84712">
        <ele>2035.6</ele>
        <time>2019-06-23T06:25:41Z</time>
      </trkpt>
      <trkpt lat="44.78023" lon="5.84709">
        <ele>2038.4</ele>
        <time>2019-06-23T06:25:46Z</time>
      </trkpt>
      <trkpt lat="44.78021" lon="5.84706">
        <ele>2039.2</ele>
        <time>2019-06-23T06:25:51Z</time>
      </trkpt>
      <trkpt lat="44.7802" lon="5.84703">
        <ele>2040.4</ele>
        <time>2019-06-23T06:25:56Z</time>
      </trkpt>
      <trkpt lat="44.78019" lon="5.84701">
        <ele>2040</ele>
        <time>2019-06-23T06:26:01Z</time>
      </trkpt>
      <trkpt lat="44.78017" lon="5.84698">
        <ele>2042.6</ele>
        <time>2019-06-23T06:26:06Z</time>
      </trkpt>
      <trkpt lat="44.78015" lon="5.84696">
        <ele>2042.6</ele>
        <time>2019-06-23T06:26:11Z</time>
      </trkpt>
      <trkpt lat="44.78013" lon="5.84694">
        <ele>2042</ele>
        <time>2019-06-23T06:26:16Z</time>
      </trkpt>
      <trkpt lat="44.78013" lon="5.8469">
        <ele>2044.6</ele>
        <time>2019-06-23T06:26:21Z</time>
      </trkpt>
      <trkpt lat="44.78014" lon="5.84687">
        <ele>2042.8</ele>
        <time>2019-06-23T06:26:26Z</time>
      </trkpt>
      <trkpt lat="44.78013" lon="5.84684">
        <ele>2045</ele>
        <time>2019-06-23T06:26:31Z</time>
      </trkpt>
      <trkpt lat="44.78013" lon="5.84682">
        <ele>2048.6</ele>
        <time>2019-06-23T06:26:36Z</time>
      </trkpt>
      <trkpt lat="44.78011" lon="5.84681">
        <ele>2049.4</ele>
        <time>2019-06-23T06:26:41Z</time>
      </trkpt>
      <trkpt lat="44.78008" lon="5.8468">
        <ele>2051.6</ele>
        <time>2019-06-23T06:26:46Z</time>
      </trkpt>
      <trkpt lat="44.78006" lon="5.84679">
        <ele>2049.2</ele>
        <time>2019-06-23T06:26:51Z</time>
      </trkpt>
      <trkpt lat="44.78004" lon="5.84677">
        <ele>2051</ele>
        <time>2019-06-23T06:26:56Z</time>
      </trkpt>
      <trkpt lat="44.78003" lon="5.84674">
        <ele>2052.8</ele>
        <time>2019-06-23T06:27:01Z</time>
      </trkpt>
      <trkpt lat="44.78004" lon="5.8467">
        <ele>2050.4</ele>
        <time>2019-06-23T06:27:06Z</time>
      </trkpt>
      <trkpt lat="44.78005" lon="5.84665">
        <ele>2050</ele>
        <time>2019-06-23T06:27:11Z</time>
      </trkpt>
      <trkpt lat="44.78006" lon="5.84661">
        <ele>2053</ele>
        <time>2019-06-23T06:27:16Z</time>
      </trkpt>
      <trkpt lat="44.78006" lon="5.84657">
        <ele>2052.8</ele>
        <time>2019-06-23T06:27:21Z</time>
      </trkpt>
      <trkpt lat="44.78006" lon="5.84653">
        <ele>2054.8</ele>
        <time>2019-06-23T06:27:26Z</time>
      </trkpt>
      <trkpt lat="44.78006" lon="5.84649">
        <ele>2055.8</ele>
        <time>2019-06-23T06:27:31Z</time>
      </trkpt>
      <trkpt lat="44.78006" lon="5.84645">
        <ele>2056</ele>
        <time>2019-06-23T06:27:36Z</time>
      </trkpt>
      <trkpt lat="44.78006" lon="5.84641">
        <ele>2058</ele>
        <time>2019-06-23T06:27:41Z</time>
      </trkpt>
      <trkpt lat="44.78005" lon="5.84637">
        <ele>2055.4</ele>
        <time>2019-06-23T06:27:46Z</time>
      </trkpt>
      <trkpt lat="44.78005" lon="5.84634">
        <ele>2057.4</ele>
        <time>2019-06-23T06:27:51Z</time>
      </trkpt>
      <trkpt lat="44.78005" lon="5.8463">
        <ele>2060.4</ele>
        <time>2019-06-23T06:27:56Z</time>
      </trkpt>
      <trkpt lat="44.78004" lon="5.84626">
        <ele>2058.8</ele>
        <time>2019-06-23T06:28:01Z</time>
      </trkpt>
      <trkpt lat="44.78004" lon="5.84622">
        <ele>2059.8</ele>
        <time>2019-06-23T06:28:06Z</time>
      </trkpt>
      <trkpt lat="44.78004" lon="5.84617">
        <ele>2059.8</ele>
        <time>2019-06-23T06:28:11Z</time>
      </trkpt>
      <trkpt lat="44.78003" lon="5.84612">
        <ele>2061.8</ele>
        <time>2019-06-23T06:28:16Z</time>
      </trkpt>
      <trkpt lat="44.78002" lon="5.84608">
        <ele>2064</ele>
        <time>2019-06-23T06:28:21Z</time>
      </trkpt>
      <trkpt lat="44.78002" lon="5.84605">
        <ele>2063</ele>
        <time>2019-06-23T06:28:26Z</time>
      </trkpt>
      <trkpt lat="44.78" lon="5.84607">
        <ele>2066</ele>
        <time>2019-06-23T06:28:31Z</time>
      </trkpt>
      <trkpt lat="44.77999" lon="5.8461">
        <ele>2064.6</ele>
        <time>2019-06-23T06:28:36Z</time>
      </trkpt>
      <trkpt lat="44.77997" lon="5.84613">
        <ele>2065.6</ele>
        <time>2019-06-23T06:28:41Z</time>
      </trkpt>
      <trkpt lat="44.77996" lon="5.84617">
        <ele>2065.4</ele>
        <time>2019-06-23T06:28:46Z</time>
      </trkpt>
      <trkpt lat="44.77994" lon="5.8462">
        <ele>2065.6</ele>
        <time>2019-06-23T06:28:51Z</time>
      </trkpt>
      <trkpt lat="44.77991" lon="5.84623">
        <ele>2065.6</ele>
        <time>2019-06-23T06:28:56Z</time>
      </trkpt>
      <trkpt lat="44.77989" lon="5.84627">
        <ele>2068.8</ele>
        <time>2019-06-23T06:29:01Z</time>
      </trkpt>
      <trkpt lat="44.77986" lon="5.84629">
        <ele>2068.2</ele>
        <time>2019-06-23T06:29:06Z</time>
      </trkpt>
      <trkpt lat="44.77984" lon="5.84629">
        <ele>2065.4</ele>
        <time>2019-06-23T06:29:11Z</time>
      </trkpt>
      <trkpt lat="44.77982" lon="5.84629">
        <ele>2067.8</ele>
        <time>2019-06-23T06:29:16Z</time>
      </trkpt>
      <trkpt lat="44.77979" lon="5.84631">
        <ele>2066.4</ele>
        <time>2019-06-23T06:29:21Z</time>
      </trkpt>
      <trkpt lat="44.77977" lon="5.8463">
        <ele>2068.8</ele>
        <time>2019-06-23T06:29:26Z</time>
      </trkpt>
      <trkpt lat="44.77975" lon="5.84628">
        <ele>2067.2</ele>
        <time>2019-06-23T06:29:31Z</time>
      </trkpt>
      <trkpt lat="44.77975" lon="5.84624">
        <ele>2068.8</ele>
        <time>2019-06-23T06:29:36Z</time>
      </trkpt>
      <trkpt lat="44.77974" lon="5.8462">
        <ele>2069.2</ele>
        <time>2019-06-23T06:29:41Z</time>
      </trkpt>
      <trkpt lat="44.77973" lon="5.84617">
        <ele>2070.4</ele>
        <time>2019-06-23T06:29:46Z</time>
      </trkpt>
      <trkpt lat="44.77972" lon="5.84613">
        <ele>2072.4</ele>
        <time>2019-06-23T06:29:51Z</time>
      </trkpt>
      <trkpt lat="44.77972" lon="5.84609">
        <ele>2072.2</ele>
        <time>2019-06-23T06:29:56Z</time>
      </trkpt>
      <trkpt lat="44.77972" lon="5.84607">
        <ele>2071.8</ele>
        <time>2019-06-23T06:30:01Z</time>
      </trkpt>
      <trkpt lat="44.7797" lon="5.84607">
        <ele>2072.2</ele>
        <time>2019-06-23T06:30:06Z</time>
      </trkpt>
      <trkpt lat="44.7797" lon="5.84603">
        <ele>2071.8</ele>
        <time>2019-06-23T06:30:11Z</time>
      </trkpt>
      <trkpt lat="44.77969" lon="5.84601">
        <ele>2075.6</ele>
        <time>2019-06-23T06:30:16Z</time>
      </trkpt>
      <trkpt lat="44.77968" lon="5.84601">
        <ele>2075.2</ele>
        <time>2019-06-23T06:30:21Z</time>
      </trkpt>
      <trkpt lat="44.77966" lon="5.84601">
        <ele>2076.4</ele>
        <time>2019-06-23T06:30:26Z</time>
      </trkpt>
      <trkpt lat="44.77966" lon="5.84597">
        <ele>2078.8</ele>
        <time>2019-06-23T06:30:31Z</time>
      </trkpt>
      <trkpt lat="44.77967" lon="5.84596">
        <ele>2077.8</ele>
        <time>2019-06-23T06:30:36Z</time>
      </trkpt>
      <trkpt lat="44.77966" lon="5.84595">
        <ele>2075</ele>
        <time>2019-06-23T06:30:41Z</time>
      </trkpt>
      <trkpt lat="44.77966" lon="5.84594">
        <ele>2078.8</ele>
        <time>2019-06-23T06:31:11Z</time>
      </trkpt>
      <trkpt lat="44.77966" lon="5.84593">
        <ele>2077.8</ele>
        <time>2019-06-23T06:32:56Z</time>
      </trkpt>
      <trkpt lat="44.77965" lon="5.84591">
        <ele>2078.4</ele>
        <time>2019-06-23T06:33:46Z</time>
      </trkpt>
      <trkpt lat="44.77965" lon="5.84588">
        <ele>2079</ele>
        <time>2019-06-23T06:33:51Z</time>
      </trkpt>
      <trkpt lat="44.77964" lon="5.84585">
        <ele>2079.8</ele>
        <time>2019-06-23T06:33:56Z</time>
      </trkpt>
      <trkpt lat="44.77964" lon="5.84581">
        <ele>2080.6</ele>
        <time>2019-06-23T06:34:01Z</time>
      </trkpt>
      <trkpt lat="44.77963" lon="5.84577">
        <ele>2080.8</ele>
        <time>2019-06-23T06:34:06Z</time>
      </trkpt>
      <trkpt lat="44.77963" lon="5.84574">
        <ele>2082.2</ele>
        <time>2019-06-23T06:34:11Z</time>
      </trkpt>
      <trkpt lat="44.77964" lon="5.84571">
        <ele>2082.2</ele>
        <time>2019-06-23T06:34:16Z</time>
      </trkpt>
      <trkpt lat="44.77964" lon="5.84568">
        <ele>2084</ele>
        <time>2019-06-23T06:34:21Z</time>
      </trkpt>
      <trkpt lat="44.77965" lon="5.84563">
        <ele>2086</ele>
        <time>2019-06-23T06:34:26Z</time>
      </trkpt>
      <trkpt lat="44.77965" lon="5.84559">
        <ele>2083.8</ele>
        <time>2019-06-23T06:34:31Z</time>
      </trkpt>
      <trkpt lat="44.77966" lon="5.84555">
        <ele>2085.4</ele>
        <time>2019-06-23T06:34:36Z</time>
      </trkpt>
      <trkpt lat="44.77967" lon="5.84551">
        <ele>2087.4</ele>
        <time>2019-06-23T06:34:41Z</time>
      </trkpt>
      <trkpt lat="44.77968" lon="5.84548">
        <ele>2086.8</ele>
        <time>2019-06-23T06:34:46Z</time>
      </trkpt>
      <trkpt lat="44.7797" lon="5.84545">
        <ele>2090</ele>
        <time>2019-06-23T06:34:51Z</time>
      </trkpt>
      <trkpt lat="44.77971" lon="5.84542">
        <ele>2090</ele>
        <time>2019-06-23T06:34:56Z</time>
      </trkpt>
      <trkpt lat="44.77973" lon="5.84539">
        <ele>2090.2</ele>
        <time>2019-06-23T06:35:01Z</time>
      </trkpt>
      <trkpt lat="44.77974" lon="5.84536">
        <ele>2091.8</ele>
        <time>2019-06-23T06:35:06Z</time>
      </trkpt>
      <trkpt lat="44.77975" lon="5.84533">
        <ele>2091.8</ele>
        <time>2019-06-23T06:35:11Z</time>
      </trkpt>
      <trkpt lat="44.77975" lon="5.84529">
        <ele>2094</ele>
        <time>2019-06-23T06:35:16Z</time>
      </trkpt>
      <trkpt lat="44.77976" lon="5.84526">
        <ele>2095</ele>
        <time>2019-06-23T06:35:21Z</time>
      </trkpt>
      <trkpt lat="44.77976" lon="5.84523">
        <ele>2095</ele>
        <time>2019-06-23T06:35:26Z</time>
      </trkpt>
      <trkpt lat="44.77975" lon="5.8452">
        <ele>2093.6</ele>
        <time>2019-06-23T06:35:31Z</time>
      </trkpt>
      <trkpt lat="44.77975" lon="5.84517">
        <ele>2094</ele>
        <time>2019-06-23T06:35:36Z</time>
      </trkpt>
      <trkpt lat="44.77974" lon="5.84514">
        <ele>2094.8</ele>
        <time>2019-06-23T06:35:41Z</time>
      </trkpt>
      <trkpt lat="44.77974" lon="5.84511">
        <ele>2097.6</ele>
        <time>2019-06-23T06:35:46Z</time>
      </trkpt>
      <trkpt lat="44.77975" lon="5.8451">
        <ele>2097</ele>
        <time>2019-06-23T06:35:51Z</time>
      </trkpt>
      <trkpt lat="44.77976" lon="5.84507">
        <ele>2094.2</ele>
        <time>2019-06-23T06:35:56Z</time>
      </trkpt>
      <trkpt lat="44.77976" lon="5.84506">
        <ele>2096.6</ele>
        <time>2019-06-23T06:36:01Z</time>
      </trkpt>
      <trkpt lat="44.77977" lon="5.84503">
        <ele>2095</ele>
        <time>2019-06-23T06:36:06Z</time>
      </trkpt>
      <trkpt lat="44.77979" lon="5.845">
        <ele>2096.8</ele>
        <time>2019-06-23T06:36:11Z</time>
      </trkpt>
      <trkpt lat="44.77981" lon="5.84497">
        <ele>2096.2</ele>
        <time>2019-06-23T06:36:16Z</time>
      </trkpt>
      <trkpt lat="44.77982" lon="5.84495">
        <ele>2098.6</ele>
        <time>2019-06-23T06:36:21Z</time>
      </trkpt>
      <trkpt lat="44.77984" lon="5.84491">
        <ele>2099</ele>
        <time>2019-06-23T06:36:26Z</time>
      </trkpt>
      <trkpt lat="44.77985" lon="5.84487">
        <ele>2102</ele>
        <time>2019-06-23T06:36:31Z</time>
      </trkpt>
      <trkpt lat="44.77987" lon="5.84483">
        <ele>2103.2</ele>
        <time>2019-06-23T06:36:36Z</time>
      </trkpt>
      <trkpt lat="44.77989" lon="5.84479">
        <ele>2103.4</ele>
        <time>2019-06-23T06:36:41Z</time>
      </trkpt>
      <trkpt lat="44.77991" lon="5.84475">
        <ele>2100.2</ele>
        <time>2019-06-23T06:36:46Z</time>
      </trkpt>
      <trkpt lat="44.77993" lon="5.84471">
        <ele>2101.2</ele>
        <time>2019-06-23T06:36:51Z</time>
      </trkpt>
      <trkpt lat="44.77994" lon="5.84468">
        <ele>2102.4</ele>
        <time>2019-06-23T06:36:56Z</time>
      </trkpt>
      <trkpt lat="44.77995" lon="5.84465">
        <ele>2101.6</ele>
        <time>2019-06-23T06:37:01Z</time>
      </trkpt>
      <trkpt lat="44.77996" lon="5.84461">
        <ele>2101.8</ele>
        <time>2019-06-23T06:37:06Z</time>
      </trkpt>
      <trkpt lat="44.77997" lon="5.84458">
        <ele>2105.6</ele>
        <time>2019-06-23T06:37:11Z</time>
      </trkpt>
      <trkpt lat="44.77997" lon="5.84455">
        <ele>2105</ele>
        <time>2019-06-23T06:37:16Z</time>
      </trkpt>
      <trkpt lat="44.77997" lon="5.84451">
        <ele>2107.6</ele>
        <time>2019-06-23T06:37:21Z</time>
      </trkpt>
      <trkpt lat="44.77997" lon="5.84448">
        <ele>2110.4</ele>
        <time>2019-06-23T06:37:26Z</time>
      </trkpt>
      <trkpt lat="44.77998" lon="5.84445">
        <ele>2108.2</ele>
        <time>2019-06-23T06:37:31Z</time>
      </trkpt>
      <trkpt lat="44.77998" lon="5.84442">
        <ele>2106.2</ele>
        <time>2019-06-23T06:37:36Z</time>
      </trkpt>
      <trkpt lat="44.77998" lon="5.8444">
        <ele>2106.2</ele>
        <time>2019-06-23T06:37:41Z</time>
      </trkpt>
      <trkpt lat="44.77998" lon="5.84437">
        <ele>2112.4</ele>
        <time>2019-06-23T06:37:46Z</time>
      </trkpt>
      <trkpt lat="44.77998" lon="5.84434">
        <ele>2107.6</ele>
        <time>2019-06-23T06:37:51Z</time>
      </trkpt>
      <trkpt lat="44.77998" lon="5.84431">
        <ele>2105.4</ele>
        <time>2019-06-23T06:37:56Z</time>
      </trkpt>
      <trkpt lat="44.77998" lon="5.84427">
        <ele>2104.8</ele>
        <time>2019-06-23T06:38:01Z</time>
      </trkpt>
      <trkpt lat="44.77998" lon="5.84424">
        <ele>2110.6</ele>
        <time>2019-06-23T06:38:06Z</time>
      </trkpt>
      <trkpt lat="44.77999" lon="5.84421">
        <ele>2109.2</ele>
        <time>2019-06-23T06:38:11Z</time>
      </trkpt>
      <trkpt lat="44.77997" lon="5.84417">
        <ele>2108.6</ele>
        <time>2019-06-23T06:38:16Z</time>
      </trkpt>
      <trkpt lat="44.77996" lon="5.84414">
        <ele>2111.4</ele>
        <time>2019-06-23T06:38:21Z</time>
      </trkpt>
      <trkpt lat="44.77995" lon="5.84411">
        <ele>2110.2</ele>
        <time>2019-06-23T06:38:26Z</time>
      </trkpt>
      <trkpt lat="44.77995" lon="5.84408">
        <ele>2115</ele>
        <time>2019-06-23T06:38:31Z</time>
      </trkpt>
      <trkpt lat="44.77995" lon="5.84406">
        <ele>2114.2</ele>
        <time>2019-06-23T06:38:36Z</time>
      </trkpt>
      <trkpt lat="44.77994" lon="5.84402">
        <ele>2114</ele>
        <time>2019-06-23T06:38:41Z</time>
      </trkpt>
      <trkpt lat="44.77996" lon="5.84399">
        <ele>2116.4</ele>
        <time>2019-06-23T06:38:46Z</time>
      </trkpt>
      <trkpt lat="44.77996" lon="5.84396">
        <ele>2115</ele>
        <time>2019-06-23T06:38:51Z</time>
      </trkpt>
      <trkpt lat="44.77997" lon="5.84391">
        <ele>2114</ele>
        <time>2019-06-23T06:38:56Z</time>
      </trkpt>
      <trkpt lat="44.77998" lon="5.84387">
        <ele>2114</ele>
        <time>2019-06-23T06:39:01Z</time>
      </trkpt>
      <trkpt lat="44.77997" lon="5.84384">
        <ele>2113.8</ele>
        <time>2019-06-23T06:39:06Z</time>
      </trkpt>
      <trkpt lat="44.77998" lon="5.8438">
        <ele>2116.2</ele>
        <time>2019-06-23T06:39:11Z</time>
      </trkpt>
      <trkpt lat="44.77999" lon="5.84376">
        <ele>2115.8</ele>
        <time>2019-06-23T06:39:16Z</time>
      </trkpt>
      <trkpt lat="44.77998" lon="5.84375">
        <ele>2115.6</ele>
        <time>2019-06-23T06:39:21Z</time>
      </trkpt>
      <trkpt lat="44.77997" lon="5.84373">
        <ele>2118</ele>
        <time>2019-06-23T06:39:26Z</time>
      </trkpt>
      <trkpt lat="44.77995" lon="5.8437">
        <ele>2118.4</ele>
        <time>2019-06-23T06:39:31Z</time>
      </trkpt>
      <trkpt lat="44.77993" lon="5.84367">
        <ele>2120.8</ele>
        <time>2019-06-23T06:39:36Z</time>
      </trkpt>
      <trkpt lat="44.77994" lon="5.84363">
        <ele>2118</ele>
        <time>2019-06-23T06:39:41Z</time>
      </trkpt>
      <trkpt lat="44.77994" lon="5.84361">
        <ele>2117.6</ele>
        <time>2019-06-23T06:39:46Z</time>
      </trkpt>
      <trkpt lat="44.77993" lon="5.84359">
        <ele>2116.2</ele>
        <time>2019-06-23T06:39:51Z</time>
      </trkpt>
      <trkpt lat="44.77992" lon="5.84358">
        <ele>2115.6</ele>
        <time>2019-06-23T06:39:56Z</time>
      </trkpt>
      <trkpt lat="44.77991" lon="5.84355">
        <ele>2118.2</ele>
        <time>2019-06-23T06:40:01Z</time>
      </trkpt>
      <trkpt lat="44.77992" lon="5.84352">
        <ele>2122.6</ele>
        <time>2019-06-23T06:40:06Z</time>
      </trkpt>
      <trkpt lat="44.77993" lon="5.8435">
        <ele>2124.2</ele>
        <time>2019-06-23T06:40:11Z</time>
      </trkpt>
      <trkpt lat="44.77993" lon="5.84347">
        <ele>2128</ele>
        <time>2019-06-23T06:40:16Z</time>
      </trkpt>
      <trkpt lat="44.77994" lon="5.84343">
        <ele>2125.6</ele>
        <time>2019-06-23T06:40:21Z</time>
      </trkpt>
      <trkpt lat="44.77992" lon="5.8434">
        <ele>2127.4</ele>
        <time>2019-06-23T06:40:26Z</time>
      </trkpt>
      <trkpt lat="44.77993" lon="5.84337">
        <ele>2128</ele>
        <time>2019-06-23T06:40:31Z</time>
      </trkpt>
      <trkpt lat="44.77996" lon="5.84332">
        <ele>2128.8</ele>
        <time>2019-06-23T06:40:36Z</time>
      </trkpt>
      <trkpt lat="44.77997" lon="5.84328">
        <ele>2131.8</ele>
        <time>2019-06-23T06:40:41Z</time>
      </trkpt>
      <trkpt lat="44.77997" lon="5.84323">
        <ele>2130</ele>
        <time>2019-06-23T06:40:46Z</time>
      </trkpt>
      <trkpt lat="44.77996" lon="5.84319">
        <ele>2131.8</ele>
        <time>2019-06-23T06:40:51Z</time>
      </trkpt>
      <trkpt lat="44.77996" lon="5.84316">
        <ele>2135.8</ele>
        <time>2019-06-23T06:40:56Z</time>
      </trkpt>
      <trkpt lat="44.77997" lon="5.84311">
        <ele>2135</ele>
        <time>2019-06-23T06:41:01Z</time>
      </trkpt>
      <trkpt lat="44.77999" lon="5.84307">
        <ele>2136</ele>
        <time>2019-06-23T06:41:06Z</time>
      </trkpt>
      <trkpt lat="44.77998" lon="5.84303">
        <ele>2136.4</ele>
        <time>2019-06-23T06:41:11Z</time>
      </trkpt>
      <trkpt lat="44.77996" lon="5.84296">
        <ele>2136.4</ele>
        <time>2019-06-23T06:41:16Z</time>
      </trkpt>
      <trkpt lat="44.77996" lon="5.84291">
        <ele>2134.2</ele>
        <time>2019-06-23T06:41:21Z</time>
      </trkpt>
      <trkpt lat="44.77995" lon="5.84287">
        <ele>2137.4</ele>
        <time>2019-06-23T06:41:26Z</time>
      </trkpt>
      <trkpt lat="44.77997" lon="5.84283">
        <ele>2136.2</ele>
        <time>2019-06-23T06:41:31Z</time>
      </trkpt>
      <trkpt lat="44.77999" lon="5.8428">
        <ele>2136.2</ele>
        <time>2019-06-23T06:41:36Z</time>
      </trkpt>
      <trkpt lat="44.78" lon="5.84276">
        <ele>2137</ele>
        <time>2019-06-23T06:41:41Z</time>
      </trkpt>
      <trkpt lat="44.78" lon="5.84271">
        <ele>2139.6</ele>
        <time>2019-06-23T06:41:46Z</time>
      </trkpt>
      <trkpt lat="44.78001" lon="5.84267">
        <ele>2139.2</ele>
        <time>2019-06-23T06:41:51Z</time>
      </trkpt>
      <trkpt lat="44.78002" lon="5.84263">
        <ele>2139</ele>
        <time>2019-06-23T06:41:56Z</time>
      </trkpt>
      <trkpt lat="44.78004" lon="5.8426">
        <ele>2140.2</ele>
        <time>2019-06-23T06:42:01Z</time>
      </trkpt>
      <trkpt lat="44.78005" lon="5.84256">
        <ele>2141</ele>
        <time>2019-06-23T06:42:06Z</time>
      </trkpt>
      <trkpt lat="44.78008" lon="5.84253">
        <ele>2140.8</ele>
        <time>2019-06-23T06:42:11Z</time>
      </trkpt>
      <trkpt lat="44.7801" lon="5.84252">
        <ele>2142.6</ele>
        <time>2019-06-23T06:42:16Z</time>
      </trkpt>
      <trkpt lat="44.78012" lon="5.84249">
        <ele>2141.6</ele>
        <time>2019-06-23T06:42:21Z</time>
      </trkpt>
      <trkpt lat="44.78013" lon="5.84246">
        <ele>2145</ele>
        <time>2019-06-23T06:42:26Z</time>
      </trkpt>
      <trkpt lat="44.78015" lon="5.84243">
        <ele>2142.8</ele>
        <time>2019-06-23T06:42:31Z</time>
      </trkpt>
      <trkpt lat="44.78015" lon="5.8424">
        <ele>2143.4</ele>
        <time>2019-06-23T06:42:36Z</time>
      </trkpt>
      <trkpt lat="44.78017" lon="5.84237">
        <ele>2146.6</ele>
        <time>2019-06-23T06:42:41Z</time>
      </trkpt>
      <trkpt lat="44.78019" lon="5.84236">
        <ele>2147.2</ele>
        <time>2019-06-23T06:42:46Z</time>
      </trkpt>
      <trkpt lat="44.78021" lon="5.84239">
        <ele>2148</ele>
        <time>2019-06-23T06:42:51Z</time>
      </trkpt>
      <trkpt lat="44.78023" lon="5.84241">
        <ele>2146.2</ele>
        <time>2019-06-23T06:42:56Z</time>
      </trkpt>
      <trkpt lat="44.78023" lon="5.84241">
        <ele>2146.8</ele>
        <time>2019-06-23T06:43:01Z</time>
      </trkpt>
      <trkpt lat="44.78025" lon="5.84238">
        <ele>2151</ele>
        <time>2019-06-23T06:43:06Z</time>
      </trkpt>
      <trkpt lat="44.78027" lon="5.84238">
        <ele>2151.2</ele>
        <time>2019-06-23T06:43:11Z</time>
      </trkpt>
      <trkpt lat="44.78028" lon="5.84237">
        <ele>2152.6</ele>
        <time>2019-06-23T06:43:16Z</time>
      </trkpt>
      <trkpt lat="44.7803" lon="5.84238">
        <ele>2154.8</ele>
        <time>2019-06-23T06:43:21Z</time>
      </trkpt>
      <trkpt lat="44.78032" lon="5.84238">
        <ele>2153.4</ele>
        <time>2019-06-23T06:43:26Z</time>
      </trkpt>
      <trkpt lat="44.78033" lon="5.84237">
        <ele>2153.4</ele>
        <time>2019-06-23T06:43:31Z</time>
      </trkpt>
      <trkpt lat="44.78033" lon="5.84232">
        <ele>2151.8</ele>
        <time>2019-06-23T06:43:36Z</time>
      </trkpt>
      <trkpt lat="44.78034" lon="5.84228">
        <ele>2153.6</ele>
        <time>2019-06-23T06:43:41Z</time>
      </trkpt>
      <trkpt lat="44.78035" lon="5.84227">
        <ele>2152.6</ele>
        <time>2019-06-23T06:43:46Z</time>
      </trkpt>
      <trkpt lat="44.78036" lon="5.84228">
        <ele>2152.8</ele>
        <time>2019-06-23T06:43:51Z</time>
      </trkpt>
      <trkpt lat="44.78039" lon="5.84231">
        <ele>2154.2</ele>
        <time>2019-06-23T06:43:56Z</time>
      </trkpt>
      <trkpt lat="44.78041" lon="5.84231">
        <ele>2153.6</ele>
        <time>2019-06-23T06:44:01Z</time>
      </trkpt>
      <trkpt lat="44.78043" lon="5.84231">
        <ele>2152.4</ele>
        <time>2019-06-23T06:44:11Z</time>
      </trkpt>
      <trkpt lat="44.78047" lon="5.84233">
        <ele>2154.2</ele>
        <time>2019-06-23T06:44:26Z</time>
      </trkpt>
      <trkpt lat="44.78048" lon="5.84234">
        <ele>2153.8</ele>
        <time>2019-06-23T06:44:31Z</time>
      </trkpt>
      <trkpt lat="44.7805" lon="5.84234">
        <ele>2155.8</ele>
        <time>2019-06-23T06:44:36Z</time>
      </trkpt>
      <trkpt lat="44.78052" lon="5.84236">
        <ele>2159.6</ele>
        <time>2019-06-23T06:44:41Z</time>
      </trkpt>
      <trkpt lat="44.78054" lon="5.84237">
        <ele>2161.4</ele>
        <time>2019-06-23T06:44:46Z</time>
      </trkpt>
      <trkpt lat="44.78055" lon="5.84238">
        <ele>2163.6</ele>
        <time>2019-06-23T06:44:51Z</time>
      </trkpt>
      <trkpt lat="44.78057" lon="5.8424">
        <ele>2164.8</ele>
        <time>2019-06-23T06:44:56Z</time>
      </trkpt>
      <trkpt lat="44.78059" lon="5.84239">
        <ele>2165.2</ele>
        <time>2019-06-23T06:45:01Z</time>
      </trkpt>
      <trkpt lat="44.7806" lon="5.84237">
        <ele>2163.8</ele>
        <time>2019-06-23T06:45:06Z</time>
      </trkpt>
      <trkpt lat="44.7806" lon="5.84234">
        <ele>2165.6</ele>
        <time>2019-06-23T06:45:11Z</time>
      </trkpt>
      <trkpt lat="44.7806" lon="5.84232">
        <ele>2166</ele>
        <time>2019-06-23T06:45:16Z</time>
      </trkpt>
      <trkpt lat="44.78061" lon="5.8423">
        <ele>2166.8</ele>
        <time>2019-06-23T06:45:21Z</time>
      </trkpt>
      <trkpt lat="44.78061" lon="5.84229">
        <ele>2169.2</ele>
        <time>2019-06-23T06:45:31Z</time>
      </trkpt>
      <trkpt lat="44.78059" lon="5.84228">
        <ele>2170.8</ele>
        <time>2019-06-23T06:45:36Z</time>
      </trkpt>
      <trkpt lat="44.78058" lon="5.84226">
        <ele>2170.6</ele>
        <time>2019-06-23T06:45:41Z</time>
      </trkpt>
      <trkpt lat="44.78058" lon="5.84223">
        <ele>2173.6</ele>
        <time>2019-06-23T06:45:51Z</time>
      </trkpt>
      <trkpt lat="44.78059" lon="5.84223">
        <ele>2178</ele>
        <time>2019-06-23T06:46:06Z</time>
      </trkpt>
      <trkpt lat="44.78058" lon="5.8422">
        <ele>2177.8</ele>
        <time>2019-06-23T06:46:21Z</time>
      </trkpt>
      <trkpt lat="44.78058" lon="5.84218">
        <ele>2178.2</ele>
        <time>2019-06-23T06:46:31Z</time>
      </trkpt>
      <trkpt lat="44.78058" lon="5.84217">
        <ele>2179.4</ele>
        <time>2019-06-23T06:46:36Z</time>
      </trkpt>
      <trkpt lat="44.78058" lon="5.84216">
        <ele>2180.8</ele>
        <time>2019-06-23T06:46:41Z</time>
      </trkpt>
      <trkpt lat="44.78056" lon="5.84214">
        <ele>2183.4</ele>
        <time>2019-06-23T06:46:46Z</time>
      </trkpt>
      <trkpt lat="44.78055" lon="5.84213">
        <ele>2184.2</ele>
        <time>2019-06-23T06:46:51Z</time>
      </trkpt>
      <trkpt lat="44.78055" lon="5.8421">
        <ele>2185.2</ele>
        <time>2019-06-23T06:46:56Z</time>
      </trkpt>
      <trkpt lat="44.78054" lon="5.84209">
        <ele>2185.6</ele>
        <time>2019-06-23T06:47:01Z</time>
      </trkpt>
      <trkpt lat="44.78054" lon="5.84206">
        <ele>2188.2</ele>
        <time>2019-06-23T06:47:26Z</time>
      </trkpt>
      <trkpt lat="44.78055" lon="5.84204">
        <ele>2186.4</ele>
        <time>2019-06-23T06:47:31Z</time>
      </trkpt>
      <trkpt lat="44.78054" lon="5.84202">
        <ele>2189.8</ele>
        <time>2019-06-23T06:47:36Z</time>
      </trkpt>
      <trkpt lat="44.78056" lon="5.84201">
        <ele>2191.4</ele>
        <time>2019-06-23T06:47:41Z</time>
      </trkpt>
      <trkpt lat="44.78057" lon="5.84202">
        <ele>2192.8</ele>
        <time>2019-06-23T06:47:46Z</time>
      </trkpt>
      <trkpt lat="44.7806" lon="5.84203">
        <ele>2192.6</ele>
        <time>2019-06-23T06:47:51Z</time>
      </trkpt>
      <trkpt lat="44.78061" lon="5.84204">
        <ele>2191.2</ele>
        <time>2019-06-23T06:47:56Z</time>
      </trkpt>
      <trkpt lat="44.78063" lon="5.84204">
        <ele>2194.4</ele>
        <time>2019-06-23T06:48:01Z</time>
      </trkpt>
      <trkpt lat="44.78065" lon="5.84203">
        <ele>2195.4</ele>
        <time>2019-06-23T06:48:06Z</time>
      </trkpt>
      <trkpt lat="44.78065" lon="5.84204">
        <ele>2196.8</ele>
        <time>2019-06-23T06:48:16Z</time>
      </trkpt>
      <trkpt lat="44.78066" lon="5.84204">
        <ele>2192.6</ele>
        <time>2019-06-23T06:48:21Z</time>
      </trkpt>
      <trkpt lat="44.78069" lon="5.84205">
        <ele>2196.2</ele>
        <time>2019-06-23T06:48:26Z</time>
      </trkpt>
      <trkpt lat="44.78072" lon="5.84204">
        <ele>2200.2</ele>
        <time>2019-06-23T06:48:31Z</time>
      </trkpt>
      <trkpt lat="44.78075" lon="5.84204">
        <ele>2196.2</ele>
        <time>2019-06-23T06:48:36Z</time>
      </trkpt>
      <trkpt lat="44.78076" lon="5.84203">
        <ele>2198.4</ele>
        <time>2019-06-23T06:48:41Z</time>
      </trkpt>
      <trkpt lat="44.78075" lon="5.842">
        <ele>2200.4</ele>
        <time>2019-06-23T06:48:46Z</time>
      </trkpt>
      <trkpt lat="44.78075" lon="5.84198">
        <ele>2201.8</ele>
        <time>2019-06-23T06:48:51Z</time>
      </trkpt>
      <trkpt lat="44.78077" lon="5.84197">
        <ele>2200.4</ele>
        <time>2019-06-23T06:48:56Z</time>
      </trkpt>
      <trkpt lat="44.78079" lon="5.84195">
        <ele>2201.6</ele>
        <time>2019-06-23T06:49:01Z</time>
      </trkpt>
      <trkpt lat="44.78081" lon="5.84194">
        <ele>2204.4</ele>
        <time>2019-06-23T06:49:06Z</time>
      </trkpt>
      <trkpt lat="44.7808" lon="5.84191">
        <ele>2207.6</ele>
        <time>2019-06-23T06:49:11Z</time>
      </trkpt>
      <trkpt lat="44.7808" lon="5.84188">
        <ele>2207.2</ele>
        <time>2019-06-23T06:49:16Z</time>
      </trkpt>
      <trkpt lat="44.7808" lon="5.84186">
        <ele>2208.2</ele>
        <time>2019-06-23T06:49:21Z</time>
      </trkpt>
      <trkpt lat="44.7808" lon="5.84184">
        <ele>2207.6</ele>
        <time>2019-06-23T06:49:26Z</time>
      </trkpt>
      <trkpt lat="44.78081" lon="5.84183">
        <ele>2207.4</ele>
        <time>2019-06-23T06:49:31Z</time>
      </trkpt>
      <trkpt lat="44.78082" lon="5.84181">
        <ele>2209</ele>
        <time>2019-06-23T06:49:36Z</time>
      </trkpt>
      <trkpt lat="44.78083" lon="5.84181">
        <ele>2208.4</ele>
        <time>2019-06-23T06:49:41Z</time>
      </trkpt>
      <trkpt lat="44.78085" lon="5.84179">
        <ele>2210.8</ele>
        <time>2019-06-23T06:49:46Z</time>
      </trkpt>
      <trkpt lat="44.78085" lon="5.84177">
        <ele>2210.8</ele>
        <time>2019-06-23T06:49:51Z</time>
      </trkpt>
      <trkpt lat="44.78085" lon="5.84175">
        <ele>2211</ele>
        <time>2019-06-23T06:49:56Z</time>
      </trkpt>
      <trkpt lat="44.78085" lon="5.84172">
        <ele>2213</ele>
        <time>2019-06-23T06:50:01Z</time>
      </trkpt>
      <trkpt lat="44.78086" lon="5.8417">
        <ele>2214.4</ele>
        <time>2019-06-23T06:50:06Z</time>
      </trkpt>
      <trkpt lat="44.78086" lon="5.84169">
        <ele>2214.4</ele>
        <time>2019-06-23T06:50:11Z</time>
      </trkpt>
      <trkpt lat="44.78086" lon="5.84167">
        <ele>2214.2</ele>
        <time>2019-06-23T06:50:16Z</time>
      </trkpt>
      <trkpt lat="44.78087" lon="5.84166">
        <ele>2213.4</ele>
        <time>2019-06-23T06:50:21Z</time>
      </trkpt>
      <trkpt lat="44.78089" lon="5.84164">
        <ele>2217.4</ele>
        <time>2019-06-23T06:50:26Z</time>
      </trkpt>
      <trkpt lat="44.78089" lon="5.84163">
        <ele>2217.4</ele>
        <time>2019-06-23T06:50:31Z</time>
      </trkpt>
      <trkpt lat="44.78089" lon="5.84161">
        <ele>2217.4</ele>
        <time>2019-06-23T06:50:36Z</time>
      </trkpt>
      <trkpt lat="44.78088" lon="5.84159">
        <ele>2219.2</ele>
        <time>2019-06-23T06:50:41Z</time>
      </trkpt>
      <trkpt lat="44.78086" lon="5.84158">
        <ele>2222.2</ele>
        <time>2019-06-23T06:50:46Z</time>
      </trkpt>
      <trkpt lat="44.78085" lon="5.84157">
        <ele>2220.4</ele>
        <time>2019-06-23T06:50:51Z</time>
      </trkpt>
      <trkpt lat="44.78084" lon="5.84156">
        <ele>2221.4</ele>
        <time>2019-06-23T06:50:56Z</time>
      </trkpt>
      <trkpt lat="44.78086" lon="5.84153">
        <ele>2220.8</ele>
        <time>2019-06-23T06:51:01Z</time>
      </trkpt>
      <trkpt lat="44.78086" lon="5.84152">
        <ele>2220.8</ele>
        <time>2019-06-23T06:51:06Z</time>
      </trkpt>
      <trkpt lat="44.78086" lon="5.84151">
        <ele>2221</ele>
        <time>2019-06-23T06:51:11Z</time>
      </trkpt>
      <trkpt lat="44.78088" lon="5.84149">
        <ele>2225</ele>
        <time>2019-06-23T06:51:16Z</time>
      </trkpt>
      <trkpt lat="44.78089" lon="5.84147">
        <ele>2221.2</ele>
        <time>2019-06-23T06:51:21Z</time>
      </trkpt>
      <trkpt lat="44.7809" lon="5.84146">
        <ele>2222</ele>
        <time>2019-06-23T06:51:26Z</time>
      </trkpt>
      <trkpt lat="44.78092" lon="5.84144">
        <ele>2224.2</ele>
        <time>2019-06-23T06:51:31Z</time>
      </trkpt>
      <trkpt lat="44.78092" lon="5.84142">
        <ele>2224.2</ele>
        <time>2019-06-23T06:51:36Z</time>
      </trkpt>
      <trkpt lat="44.78094" lon="5.8414">
        <ele>2223.8</ele>
        <time>2019-06-23T06:51:41Z</time>
      </trkpt>
      <trkpt lat="44.78094" lon="5.84138">
        <ele>2224.6</ele>
        <time>2019-06-23T06:51:46Z</time>
      </trkpt>
      <trkpt lat="44.78093" lon="5.84137">
        <ele>2224.2</ele>
        <time>2019-06-23T06:51:51Z</time>
      </trkpt>
      <trkpt lat="44.78094" lon="5.84134">
        <ele>2225</ele>
        <time>2019-06-23T06:51:56Z</time>
      </trkpt>
      <trkpt lat="44.78094" lon="5.84132">
        <ele>2226.2</ele>
        <time>2019-06-23T06:52:01Z</time>
      </trkpt>
      <trkpt lat="44.78093" lon="5.8413">
        <ele>2228.8</ele>
        <time>2019-06-23T06:52:06Z</time>
      </trkpt>
      <trkpt lat="44.78093" lon="5.84128">
        <ele>2229.2</ele>
        <time>2019-06-23T06:52:11Z</time>
      </trkpt>
      <trkpt lat="44.78092" lon="5.84126">
        <ele>2229.8</ele>
        <time>2019-06-23T06:52:16Z</time>
      </trkpt>
      <trkpt lat="44.7809" lon="5.84125">
        <ele>2229.8</ele>
        <time>2019-06-23T06:52:21Z</time>
      </trkpt>
      <trkpt lat="44.7809" lon="5.84123">
        <ele>2230.4</ele>
        <time>2019-06-23T06:52:26Z</time>
      </trkpt>
      <trkpt lat="44.78087" lon="5.84122">
        <ele>2232.6</ele>
        <time>2019-06-23T06:52:31Z</time>
      </trkpt>
      <trkpt lat="44.78086" lon="5.8412">
        <ele>2229</ele>
        <time>2019-06-23T06:52:36Z</time>
      </trkpt>
      <trkpt lat="44.78087" lon="5.84118">
        <ele>2232.6</ele>
        <time>2019-06-23T06:52:41Z</time>
      </trkpt>
      <trkpt lat="44.78086" lon="5.84114">
        <ele>2232.6</ele>
        <time>2019-06-23T06:52:46Z</time>
      </trkpt>
      <trkpt lat="44.78085" lon="5.8411">
        <ele>2235.8</ele>
        <time>2019-06-23T06:52:51Z</time>
      </trkpt>
      <trkpt lat="44.78084" lon="5.84105">
        <ele>2233.8</ele>
        <time>2019-06-23T06:52:56Z</time>
      </trkpt>
      <trkpt lat="44.78085" lon="5.84101">
        <ele>2235.8</ele>
        <time>2019-06-23T06:53:01Z</time>
      </trkpt>
      <trkpt lat="44.78084" lon="5.84098">
        <ele>2234.8</ele>
        <time>2019-06-23T06:53:06Z</time>
      </trkpt>
      <trkpt lat="44.78083" lon="5.84094">
        <ele>2236.4</ele>
        <time>2019-06-23T06:53:11Z</time>
      </trkpt>
      <trkpt lat="44.78081" lon="5.8409">
        <ele>2234.6</ele>
        <time>2019-06-23T06:53:16Z</time>
      </trkpt>
      <trkpt lat="44.78081" lon="5.84086">
        <ele>2237.2</ele>
        <time>2019-06-23T06:53:21Z</time>
      </trkpt>
      <trkpt lat="44.78079" lon="5.84083">
        <ele>2236.4</ele>
        <time>2019-06-23T06:53:26Z</time>
      </trkpt>
      <trkpt lat="44.78079" lon="5.84082">
        <ele>2237</ele>
        <time>2019-06-23T06:53:41Z</time>
      </trkpt>
      <trkpt lat="44.78078" lon="5.8408">
        <ele>2236.8</ele>
        <time>2019-06-23T06:53:46Z</time>
      </trkpt>
      <trkpt lat="44.78076" lon="5.8408">
        <ele>2238.4</ele>
        <time>2019-06-23T06:53:51Z</time>
      </trkpt>
      <trkpt lat="44.78073" lon="5.8408">
        <ele>2240.4</ele>
        <time>2019-06-23T06:53:56Z</time>
      </trkpt>
      <trkpt lat="44.7807" lon="5.84081">
        <ele>2236.8</ele>
        <time>2019-06-23T06:54:01Z</time>
      </trkpt>
      <trkpt lat="44.78068" lon="5.84084">
        <ele>2239</ele>
        <time>2019-06-23T06:54:06Z</time>
      </trkpt>
      <trkpt lat="44.78066" lon="5.84087">
        <ele>2242.2</ele>
        <time>2019-06-23T06:54:11Z</time>
      </trkpt>
      <trkpt lat="44.78065" lon="5.84086">
        <ele>2244.8</ele>
        <time>2019-06-23T06:54:16Z</time>
      </trkpt>
      <trkpt lat="44.78063" lon="5.84087">
        <ele>2245.4</ele>
        <time>2019-06-23T06:54:21Z</time>
      </trkpt>
      <trkpt lat="44.78061" lon="5.84089">
        <ele>2246</ele>
        <time>2019-06-23T06:54:26Z</time>
      </trkpt>
      <trkpt lat="44.78059" lon="5.84091">
        <ele>2245.2</ele>
        <time>2019-06-23T06:54:31Z</time>
      </trkpt>
      <trkpt lat="44.78057" lon="5.84093">
        <ele>2246.6</ele>
        <time>2019-06-23T06:54:36Z</time>
      </trkpt>
      <trkpt lat="44.78055" lon="5.84094">
        <ele>2244.8</ele>
        <time>2019-06-23T06:55:47Z</time>
      </trkpt>
      <trkpt lat="44.78055" lon="5.84094">
        <ele>2244.8</ele>
        <time>2019-06-23T06:55:52Z</time>
      </trkpt>
      <trkpt lat="44.78054" lon="5.84095">
        <ele>2243.6</ele>
        <time>2019-06-23T07:01:07Z</time>
      </trkpt>
      <trkpt lat="44.78054" lon="5.84092">
        <ele>2242.8</ele>
        <time>2019-06-23T07:03:32Z</time>
      </trkpt>
      <trkpt lat="44.78053" lon="5.84089">
        <ele>2240.2</ele>
        <time>2019-06-23T07:03:37Z</time>
      </trkpt>
      <trkpt lat="44.78052" lon="5.84089">
        <ele>2241.2</ele>
        <time>2019-06-23T07:03:42Z</time>
      </trkpt>
      <trkpt lat="44.7805" lon="5.8409">
        <ele>2244.2</ele>
        <time>2019-06-23T07:03:47Z</time>
      </trkpt>
      <trkpt lat="44.78048" lon="5.8409">
        <ele>2244.4</ele>
        <time>2019-06-23T07:03:52Z</time>
      </trkpt>
      <trkpt lat="44.78046" lon="5.8409">
        <ele>2246</ele>
        <time>2019-06-23T07:03:57Z</time>
      </trkpt>
      <trkpt lat="44.78044" lon="5.8409">
        <ele>2246.4</ele>
        <time>2019-06-23T07:04:02Z</time>
      </trkpt>
      <trkpt lat="44.78043" lon="5.84087">
        <ele>2248</ele>
        <time>2019-06-23T07:04:07Z</time>
      </trkpt>
      <trkpt lat="44.78042" lon="5.84086">
        <ele>2248.8</ele>
        <time>2019-06-23T07:04:12Z</time>
      </trkpt>
      <trkpt lat="44.78041" lon="5.84085">
        <ele>2250.6</ele>
        <time>2019-06-23T07:04:17Z</time>
      </trkpt>
      <trkpt lat="44.7804" lon="5.84083">
        <ele>2250</ele>
        <time>2019-06-23T07:04:22Z</time>
      </trkpt>
      <trkpt lat="44.78039" lon="5.84082">
        <ele>2251</ele>
        <time>2019-06-23T07:04:27Z</time>
      </trkpt>
      <trkpt lat="44.78038" lon="5.84082">
        <ele>2253</ele>
        <time>2019-06-23T07:04:32Z</time>
      </trkpt>
      <trkpt lat="44.78037" lon="5.84081">
        <ele>2253.4</ele>
        <time>2019-06-23T07:04:37Z</time>
      </trkpt>
      <trkpt lat="44.78036" lon="5.8408">
        <ele>2253.8</ele>
        <time>2019-06-23T07:04:42Z</time>
      </trkpt>
      <trkpt lat="44.78035" lon="5.84079">
        <ele>2256.2</ele>
        <time>2019-06-23T07:04:47Z</time>
      </trkpt>
      <trkpt lat="44.78035" lon="5.84077">
        <ele>2255</ele>
        <time>2019-06-23T07:04:52Z</time>
      </trkpt>
      <trkpt lat="44.78033" lon="5.84075">
        <ele>2255.6</ele>
        <time>2019-06-23T07:04:57Z</time>
      </trkpt>
      <trkpt lat="44.78033" lon="5.84074">
        <ele>2255.6</ele>
        <time>2019-06-23T07:05:02Z</time>
      </trkpt>
      <trkpt lat="44.78032" lon="5.84073">
        <ele>2252.6</ele>
        <time>2019-06-23T07:05:07Z</time>
      </trkpt>
      <trkpt lat="44.78031" lon="5.84072">
        <ele>2254.2</ele>
        <time>2019-06-23T07:05:12Z</time>
      </trkpt>
      <trkpt lat="44.7803" lon="5.8407">
        <ele>2257.6</ele>
        <time>2019-06-23T07:05:17Z</time>
      </trkpt>
      <trkpt lat="44.78029" lon="5.84068">
        <ele>2256.4</ele>
        <time>2019-06-23T07:05:22Z</time>
      </trkpt>
      <trkpt lat="44.78028" lon="5.84066">
        <ele>2257.4</ele>
        <time>2019-06-23T07:05:27Z</time>
      </trkpt>
      <trkpt lat="44.78027" lon="5.84064">
        <ele>2258.4</ele>
        <time>2019-06-23T07:05:32Z</time>
      </trkpt>
      <trkpt lat="44.78026" lon="5.84063">
        <ele>2258</ele>
        <time>2019-06-23T07:05:37Z</time>
      </trkpt>
      <trkpt lat="44.78025" lon="5.84062">
        <ele>2262.2</ele>
        <time>2019-06-23T07:05:42Z</time>
      </trkpt>
      <trkpt lat="44.78024" lon="5.84059">
        <ele>2265.4</ele>
        <time>2019-06-23T07:05:47Z</time>
      </trkpt>
      <trkpt lat="44.78023" lon="5.84057">
        <ele>2266</ele>
        <time>2019-06-23T07:05:52Z</time>
      </trkpt>
      <trkpt lat="44.78021" lon="5.84057">
        <ele>2267</ele>
        <time>2019-06-23T07:05:57Z</time>
      </trkpt>
      <trkpt lat="44.78021" lon="5.84054">
        <ele>2266.8</ele>
        <time>2019-06-23T07:06:02Z</time>
      </trkpt>
      <trkpt lat="44.7802" lon="5.84052">
        <ele>2267.2</ele>
        <time>2019-06-23T07:06:07Z</time>
      </trkpt>
      <trkpt lat="44.78019" lon="5.84053">
        <ele>2266.6</ele>
        <time>2019-06-23T07:06:12Z</time>
      </trkpt>
      <trkpt lat="44.78018" lon="5.84054">
        <ele>2266.8</ele>
        <time>2019-06-23T07:06:17Z</time>
      </trkpt>
      <trkpt lat="44.78017" lon="5.84056">
        <ele>2269.4</ele>
        <time>2019-06-23T07:06:22Z</time>
      </trkpt>
      <trkpt lat="44.78017" lon="5.84054">
        <ele>2268.6</ele>
        <time>2019-06-23T07:06:27Z</time>
      </trkpt>
      <trkpt lat="44.78016" lon="5.84053">
        <ele>2270.8</ele>
        <time>2019-06-23T07:06:32Z</time>
      </trkpt>
      <trkpt lat="44.78015" lon="5.84052">
        <ele>2270.2</ele>
        <time>2019-06-23T07:06:37Z</time>
      </trkpt>
      <trkpt lat="44.78014" lon="5.8405">
        <ele>2270</ele>
        <time>2019-06-23T07:06:42Z</time>
      </trkpt>
      <trkpt lat="44.78013" lon="5.84048">
        <ele>2269.6</ele>
        <time>2019-06-23T07:06:47Z</time>
      </trkpt>
      <trkpt lat="44.78011" lon="5.84046">
        <ele>2274.4</ele>
        <time>2019-06-23T07:06:52Z</time>
      </trkpt>
      <trkpt lat="44.78009" lon="5.84045">
        <ele>2274.4</ele>
        <time>2019-06-23T07:06:57Z</time>
      </trkpt>
      <trkpt lat="44.78008" lon="5.84045">
        <ele>2274.6</ele>
        <time>2019-06-23T07:07:02Z</time>
      </trkpt>
      <trkpt lat="44.78007" lon="5.84044">
        <ele>2273.4</ele>
        <time>2019-06-23T07:07:07Z</time>
      </trkpt>
      <trkpt lat="44.78006" lon="5.84042">
        <ele>2274.8</ele>
        <time>2019-06-23T07:07:12Z</time>
      </trkpt>
      <trkpt lat="44.78004" lon="5.84039">
        <ele>2275.6</ele>
        <time>2019-06-23T07:07:17Z</time>
      </trkpt>
      <trkpt lat="44.78004" lon="5.84039">
        <ele>2274</ele>
        <time>2019-06-23T07:07:22Z</time>
      </trkpt>
      <trkpt lat="44.78002" lon="5.84036">
        <ele>2277.6</ele>
        <time>2019-06-23T07:07:27Z</time>
      </trkpt>
      <trkpt lat="44.78001" lon="5.84034">
        <ele>2279.2</ele>
        <time>2019-06-23T07:07:32Z</time>
      </trkpt>
      <trkpt lat="44.78" lon="5.84033">
        <ele>2278.8</ele>
        <time>2019-06-23T07:07:37Z</time>
      </trkpt>
      <trkpt lat="44.77999" lon="5.84032">
        <ele>2280</ele>
        <time>2019-06-23T07:07:42Z</time>
      </trkpt>
      <trkpt lat="44.77999" lon="5.84031">
        <ele>2279.6</ele>
        <time>2019-06-23T07:07:47Z</time>
      </trkpt>
      <trkpt lat="44.77998" lon="5.8403">
        <ele>2279.2</ele>
        <time>2019-06-23T07:07:52Z</time>
      </trkpt>
      <trkpt lat="44.77998" lon="5.84029">
        <ele>2279</ele>
        <time>2019-06-23T07:08:02Z</time>
      </trkpt>
      <trkpt lat="44.77997" lon="5.84028">
        <ele>2276.6</ele>
        <time>2019-06-23T07:08:07Z</time>
      </trkpt>
      <trkpt lat="44.77997" lon="5.84028">
        <ele>2278.4</ele>
        <time>2019-06-23T07:08:27Z</time>
      </trkpt>
      <trkpt lat="44.77996" lon="5.84027">
        <ele>2278.4</ele>
        <time>2019-06-23T07:08:32Z</time>
      </trkpt>
      <trkpt lat="44.77995" lon="5.84027">
        <ele>2278.8</ele>
        <time>2019-06-23T07:08:37Z</time>
      </trkpt>
      <trkpt lat="44.77994" lon="5.84026">
        <ele>2278.2</ele>
        <time>2019-06-23T07:08:47Z</time>
      </trkpt>
      <trkpt lat="44.77993" lon="5.84026">
        <ele>2277.6</ele>
        <time>2019-06-23T07:08:52Z</time>
      </trkpt>
      <trkpt lat="44.77993" lon="5.84025">
        <ele>2280.6</ele>
        <time>2019-06-23T07:08:57Z</time>
      </trkpt>
      <trkpt lat="44.77992" lon="5.84024">
        <ele>2278.6</ele>
        <time>2019-06-23T07:09:02Z</time>
      </trkpt>
      <trkpt lat="44.77991" lon="5.84025">
        <ele>2280</ele>
        <time>2019-06-23T07:09:12Z</time>
      </trkpt>
      <trkpt lat="44.7799" lon="5.84025">
        <ele>2280.8</ele>
        <time>2019-06-23T07:09:27Z</time>
      </trkpt>
      <trkpt lat="44.77989" lon="5.84025">
        <ele>2282.4</ele>
        <time>2019-06-23T07:09:37Z</time>
      </trkpt>
      <trkpt lat="44.77989" lon="5.84024">
        <ele>2284.6</ele>
        <time>2019-06-23T07:09:47Z</time>
      </trkpt>
      <trkpt lat="44.77988" lon="5.84024">
        <ele>2281.4</ele>
        <time>2019-06-23T07:09:52Z</time>
      </trkpt>
      <trkpt lat="44.77986" lon="5.84023">
        <ele>2282.6</ele>
        <time>2019-06-23T07:09:57Z</time>
      </trkpt>
      <trkpt lat="44.77986" lon="5.84022">
        <ele>2283.8</ele>
        <time>2019-06-23T07:10:02Z</time>
      </trkpt>
      <trkpt lat="44.77986" lon="5.84022">
        <ele>2285.4</ele>
        <time>2019-06-23T07:10:12Z</time>
      </trkpt>
      <trkpt lat="44.77986" lon="5.84021">
        <ele>2288.6</ele>
        <time>2019-06-23T07:10:17Z</time>
      </trkpt>
      <trkpt lat="44.77985" lon="5.8402">
        <ele>2288.2</ele>
        <time>2019-06-23T07:10:22Z</time>
      </trkpt>
      <trkpt lat="44.77984" lon="5.84019">
        <ele>2288</ele>
        <time>2019-06-23T07:10:27Z</time>
      </trkpt>
      <trkpt lat="44.77984" lon="5.84019">
        <ele>2287.8</ele>
        <time>2019-06-23T07:10:32Z</time>
      </trkpt>
      <trkpt lat="44.77983" lon="5.84018">
        <ele>2287.4</ele>
        <time>2019-06-23T07:10:37Z</time>
      </trkpt>
      <trkpt lat="44.77982" lon="5.84018">
        <ele>2290.4</ele>
        <time>2019-06-23T07:10:42Z</time>
      </trkpt>
      <trkpt lat="44.77981" lon="5.84019">
        <ele>2289.6</ele>
        <time>2019-06-23T07:10:47Z</time>
      </trkpt>
      <trkpt lat="44.7798" lon="5.84019">
        <ele>2290</ele>
        <time>2019-06-23T07:10:52Z</time>
      </trkpt>
      <trkpt lat="44.7798" lon="5.84019">
        <ele>2289.6</ele>
        <time>2019-06-23T07:10:57Z</time>
      </trkpt>
      <trkpt lat="44.77979" lon="5.8402">
        <ele>2290.2</ele>
        <time>2019-06-23T07:11:02Z</time>
      </trkpt>
      <trkpt lat="44.77978" lon="5.8402">
        <ele>2289.4</ele>
        <time>2019-06-23T07:11:07Z</time>
      </trkpt>
      <trkpt lat="44.77977" lon="5.8402">
        <ele>2291.8</ele>
        <time>2019-06-23T07:11:12Z</time>
      </trkpt>
      <trkpt lat="44.77977" lon="5.8402">
        <ele>2292.6</ele>
        <time>2019-06-23T07:11:17Z</time>
      </trkpt>
      <trkpt lat="44.77976" lon="5.84017">
        <ele>2291.2</ele>
        <time>2019-06-23T07:11:22Z</time>
      </trkpt>
      <trkpt lat="44.77976" lon="5.84016">
        <ele>2292.4</ele>
        <time>2019-06-23T07:11:27Z</time>
      </trkpt>
      <trkpt lat="44.77975" lon="5.84016">
        <ele>2291.6</ele>
        <time>2019-06-23T07:11:32Z</time>
      </trkpt>
      <trkpt lat="44.77974" lon="5.84016">
        <ele>2290.6</ele>
        <time>2019-06-23T07:11:37Z</time>
      </trkpt>
      <trkpt lat="44.77973" lon="5.84016">
        <ele>2293</ele>
        <time>2019-06-23T07:11:42Z</time>
      </trkpt>
      <trkpt lat="44.77973" lon="5.84016">
        <ele>2295</ele>
        <time>2019-06-23T07:11:47Z</time>
      </trkpt>
      <trkpt lat="44.77971" lon="5.84017">
        <ele>2295</ele>
        <time>2019-06-23T07:11:57Z</time>
      </trkpt>
      <trkpt lat="44.77971" lon="5.84017">
        <ele>2294.8</ele>
        <time>2019-06-23T07:12:02Z</time>
      </trkpt>
      <trkpt lat="44.7797" lon="5.84018">
        <ele>2294.8</ele>
        <time>2019-06-23T07:12:07Z</time>
      </trkpt>
      <trkpt lat="44.77969" lon="5.84018">
        <ele>2294.8</ele>
        <time>2019-06-23T07:12:12Z</time>
      </trkpt>
      <trkpt lat="44.77967" lon="5.84017">
        <ele>2294.6</ele>
        <time>2019-06-23T07:12:27Z</time>
      </trkpt>
      <trkpt lat="44.77966" lon="5.84016">
        <ele>2296.2</ele>
        <time>2019-06-23T07:12:32Z</time>
      </trkpt>
      <trkpt lat="44.77965" lon="5.84015">
        <ele>2296.2</ele>
        <time>2019-06-23T07:12:37Z</time>
      </trkpt>
      <trkpt lat="44.77965" lon="5.84014">
        <ele>2296.6</ele>
        <time>2019-06-23T07:12:47Z</time>
      </trkpt>
      <trkpt lat="44.77965" lon="5.84013">
        <ele>2294.6</ele>
        <time>2019-06-23T07:12:52Z</time>
      </trkpt>
      <trkpt lat="44.77964" lon="5.84012">
        <ele>2296</ele>
        <time>2019-06-23T07:12:57Z</time>
      </trkpt>
      <trkpt lat="44.77963" lon="5.84012">
        <ele>2297.4</ele>
        <time>2019-06-23T07:13:02Z</time>
      </trkpt>
      <trkpt lat="44.77963" lon="5.84011">
        <ele>2298.2</ele>
        <time>2019-06-23T07:13:07Z</time>
      </trkpt>
      <trkpt lat="44.77962" lon="5.84011">
        <ele>2298.8</ele>
        <time>2019-06-23T07:13:12Z</time>
      </trkpt>
      <trkpt lat="44.7796" lon="5.8401">
        <ele>2302.2</ele>
        <time>2019-06-23T07:13:17Z</time>
      </trkpt>
      <trkpt lat="44.77958" lon="5.84009">
        <ele>2308</ele>
        <time>2019-06-23T07:14:12Z</time>
      </trkpt>
      <trkpt lat="44.77957" lon="5.84009">
        <ele>2309</ele>
        <time>2019-06-23T07:16:27Z</time>
      </trkpt>
      <trkpt lat="44.77957" lon="5.8401">
        <ele>2307.8</ele>
        <time>2019-06-23T07:16:37Z</time>
      </trkpt>
      <trkpt lat="44.77955" lon="5.8401">
        <ele>2311.6</ele>
        <time>2019-06-23T07:17:27Z</time>
      </trkpt>
      <trkpt lat="44.77954" lon="5.84009">
        <ele>2311</ele>
        <time>2019-06-23T07:17:32Z</time>
      </trkpt>
      <trkpt lat="44.77952" lon="5.8401">
        <ele>2315.8</ele>
        <time>2019-06-23T07:18:12Z</time>
      </trkpt>
      <trkpt lat="44.77952" lon="5.84011">
        <ele>2315.4</ele>
        <time>2019-06-23T07:18:17Z</time>
      </trkpt>
      <trkpt lat="44.77951" lon="5.84012">
        <ele>2317</ele>
        <time>2019-06-23T07:18:22Z</time>
      </trkpt>
      <trkpt lat="44.7795" lon="5.84013">
        <ele>2316</ele>
        <time>2019-06-23T07:18:32Z</time>
      </trkpt>
      <trkpt lat="44.77948" lon="5.84013">
        <ele>2319</ele>
        <time>2019-06-23T07:18:37Z</time>
      </trkpt>
      <trkpt lat="44.77947" lon="5.84015">
        <ele>2320</ele>
        <time>2019-06-23T07:18:42Z</time>
      </trkpt>
      <trkpt lat="44.77946" lon="5.84016">
        <ele>2318.4</ele>
        <time>2019-06-23T07:18:47Z</time>
      </trkpt>
      <trkpt lat="44.77946" lon="5.84016">
        <ele>2316.6</ele>
        <time>2019-06-23T07:18:57Z</time>
      </trkpt>
      <trkpt lat="44.77944" lon="5.84016">
        <ele>2315.8</ele>
        <time>2019-06-23T07:19:07Z</time>
      </trkpt>
      <trkpt lat="44.77943" lon="5.84015">
        <ele>2315.8</ele>
        <time>2019-06-23T07:19:12Z</time>
      </trkpt>
      <trkpt lat="44.77943" lon="5.84015">
        <ele>2316.6</ele>
        <time>2019-06-23T07:19:32Z</time>
      </trkpt>
      <trkpt lat="44.77942" lon="5.84015">
        <ele>2317.4</ele>
        <time>2019-06-23T07:19:37Z</time>
      </trkpt>
      <trkpt lat="44.77942" lon="5.84013">
        <ele>2320.8</ele>
        <time>2019-06-23T07:19:52Z</time>
      </trkpt>
      <trkpt lat="44.77942" lon="5.84012">
        <ele>2321.6</ele>
        <time>2019-06-23T07:19:57Z</time>
      </trkpt>
      <trkpt lat="44.77942" lon="5.84011">
        <ele>2322.8</ele>
        <time>2019-06-23T07:20:02Z</time>
      </trkpt>
      <trkpt lat="44.77942" lon="5.8401">
        <ele>2323.8</ele>
        <time>2019-06-23T07:20:07Z</time>
      </trkpt>
      <trkpt lat="44.77942" lon="5.84008">
        <ele>2324</ele>
        <time>2019-06-23T07:20:22Z</time>
      </trkpt>
      <trkpt lat="44.7794" lon="5.84009">
        <ele>2330.6</ele>
        <time>2019-06-23T07:20:37Z</time>
      </trkpt>
      <trkpt lat="44.77939" lon="5.84009">
        <ele>2330.8</ele>
        <time>2019-06-23T07:20:42Z</time>
      </trkpt>
      <trkpt lat="44.77938" lon="5.84009">
        <ele>2331.8</ele>
        <time>2019-06-23T07:20:52Z</time>
      </trkpt>
      <trkpt lat="44.77938" lon="5.84009">
        <ele>2332</ele>
        <time>2019-06-23T07:20:57Z</time>
      </trkpt>
      <trkpt lat="44.77937" lon="5.84012">
        <ele>2335.4</ele>
        <time>2019-06-23T07:21:02Z</time>
      </trkpt>
      <trkpt lat="44.77933" lon="5.84016">
        <ele>2334.2</ele>
        <time>2019-06-23T07:21:07Z</time>
      </trkpt>
      <trkpt lat="44.77929" lon="5.84019">
        <ele>2332.2</ele>
        <time>2019-06-23T07:21:12Z</time>
      </trkpt>
      <trkpt lat="44.77927" lon="5.84021">
        <ele>2331.4</ele>
        <time>2019-06-23T07:21:17Z</time>
      </trkpt>
      <trkpt lat="44.77925" lon="5.84021">
        <ele>2330.4</ele>
        <time>2019-06-23T07:21:22Z</time>
      </trkpt>
      <trkpt lat="44.77924" lon="5.8402">
        <ele>2332.4</ele>
        <time>2019-06-23T07:21:27Z</time>
      </trkpt>
      <trkpt lat="44.77923" lon="5.84018">
        <ele>2330.4</ele>
        <time>2019-06-23T07:21:32Z</time>
      </trkpt>
      <trkpt lat="44.77922" lon="5.84016">
        <ele>2328.6</ele>
        <time>2019-06-23T07:21:37Z</time>
      </trkpt>
      <trkpt lat="44.77921" lon="5.84015">
        <ele>2329.4</ele>
        <time>2019-06-23T07:21:42Z</time>
      </trkpt>
      <trkpt lat="44.77921" lon="5.84013">
        <ele>2330.6</ele>
        <time>2019-06-23T07:21:47Z</time>
      </trkpt>
      <trkpt lat="44.7792" lon="5.8401">
        <ele>2331.4</ele>
        <time>2019-06-23T07:21:52Z</time>
      </trkpt>
      <trkpt lat="44.77918" lon="5.84008">
        <ele>2331.6</ele>
        <time>2019-06-23T07:21:57Z</time>
      </trkpt>
      <trkpt lat="44.77917" lon="5.84006">
        <ele>2333.2</ele>
        <time>2019-06-23T07:22:07Z</time>
      </trkpt>
      <trkpt lat="44.77918" lon="5.84006">
        <ele>2334.2</ele>
        <time>2019-06-23T07:22:17Z</time>
      </trkpt>
      <trkpt lat="44.77914" lon="5.84008">
        <ele>2335</ele>
        <time>2019-06-23T07:23:02Z</time>
      </trkpt>
      <trkpt lat="44.77913" lon="5.84008">
        <ele>2335.2</ele>
        <time>2019-06-23T07:23:07Z</time>
      </trkpt>
      <trkpt lat="44.77913" lon="5.84008">
        <ele>2335.6</ele>
        <time>2019-06-23T07:23:17Z</time>
      </trkpt>
      <trkpt lat="44.77912" lon="5.84008">
        <ele>2335.8</ele>
        <time>2019-06-23T07:23:22Z</time>
      </trkpt>
      <trkpt lat="44.77912" lon="5.84009">
        <ele>2336</ele>
        <time>2019-06-23T07:23:27Z</time>
      </trkpt>
      <trkpt lat="44.7791" lon="5.84009">
        <ele>2336.2</ele>
        <time>2019-06-23T07:23:32Z</time>
      </trkpt>
      <trkpt lat="44.7791" lon="5.84009">
        <ele>2336.4</ele>
        <time>2019-06-23T07:23:37Z</time>
      </trkpt>
      <trkpt lat="44.7791" lon="5.8401">
        <ele>2333.8</ele>
        <time>2019-06-23T07:23:47Z</time>
      </trkpt>
      <trkpt lat="44.77908" lon="5.8401">
        <ele>2335.4</ele>
        <time>2019-06-23T07:23:57Z</time>
      </trkpt>
      <trkpt lat="44.77906" lon="5.84011">
        <ele>2334.2</ele>
        <time>2019-06-23T07:24:02Z</time>
      </trkpt>
      <trkpt lat="44.77904" lon="5.84011">
        <ele>2332.4</ele>
        <time>2019-06-23T07:24:07Z</time>
      </trkpt>
      <trkpt lat="44.77903" lon="5.84009">
        <ele>2328.6</ele>
        <time>2019-06-23T07:24:17Z</time>
      </trkpt>
      <trkpt lat="44.77906" lon="5.84005">
        <ele>2325.2</ele>
        <time>2019-06-23T07:24:22Z</time>
      </trkpt>
      <trkpt lat="44.77907" lon="5.84002">
        <ele>2324.2</ele>
        <time>2019-06-23T07:24:27Z</time>
      </trkpt>
      <trkpt lat="44.77912" lon="5.83999">
        <ele>2324.4</ele>
        <time>2019-06-23T07:24:37Z</time>
      </trkpt>
      <trkpt lat="44.7791" lon="5.83999">
        <ele>2323.2</ele>
        <time>2019-06-23T07:24:47Z</time>
      </trkpt>
      <trkpt lat="44.77907" lon="5.84">
        <ele>2323.6</ele>
        <time>2019-06-23T07:24:57Z</time>
      </trkpt>
      <trkpt lat="44.77902" lon="5.84001">
        <ele>2322.8</ele>
        <time>2019-06-23T07:25:02Z</time>
      </trkpt>
      <trkpt lat="44.77899" lon="5.84002">
        <ele>2319</ele>
        <time>2019-06-23T07:25:22Z</time>
      </trkpt>
      <trkpt lat="44.77899" lon="5.84001">
        <ele>2315.2</ele>
        <time>2019-06-23T07:25:42Z</time>
      </trkpt>
      <trkpt lat="44.77903" lon="5.83996">
        <ele>2314.8</ele>
        <time>2019-06-23T07:25:47Z</time>
      </trkpt>
      <trkpt lat="44.77905" lon="5.83991">
        <ele>2317.8</ele>
        <time>2019-06-23T07:25:52Z</time>
      </trkpt>
      <trkpt lat="44.77907" lon="5.83988">
        <ele>2321</ele>
        <time>2019-06-23T07:25:57Z</time>
      </trkpt>
      <trkpt lat="44.7791" lon="5.83986">
        <ele>2324</ele>
        <time>2019-06-23T07:26:02Z</time>
      </trkpt>
      <trkpt lat="44.77913" lon="5.83985">
        <ele>2329.2</ele>
        <time>2019-06-23T07:26:12Z</time>
      </trkpt>
      <trkpt lat="44.7791" lon="5.83983">
        <ele>2332.2</ele>
        <time>2019-06-23T07:26:22Z</time>
      </trkpt>
      <trkpt lat="44.77908" lon="5.83983">
        <ele>2332.2</ele>
        <time>2019-06-23T07:26:27Z</time>
      </trkpt>
      <trkpt lat="44.77907" lon="5.83981">
        <ele>2330.6</ele>
        <time>2019-06-23T07:26:32Z</time>
      </trkpt>
      <trkpt lat="44.77905" lon="5.83979">
        <ele>2332.6</ele>
        <time>2019-06-23T07:26:37Z</time>
      </trkpt>
      <trkpt lat="44.77904" lon="5.83977">
        <ele>2334.6</ele>
        <time>2019-06-23T07:26:42Z</time>
      </trkpt>
      <trkpt lat="44.77902" lon="5.83976">
        <ele>2335</ele>
        <time>2019-06-23T07:26:47Z</time>
      </trkpt>
      <trkpt lat="44.77902" lon="5.83977">
        <ele>2337</ele>
        <time>2019-06-23T07:26:52Z</time>
      </trkpt>
      <trkpt lat="44.77901" lon="5.83977">
        <ele>2334.6</ele>
        <time>2019-06-23T07:26:57Z</time>
      </trkpt>
      <trkpt lat="44.779" lon="5.83976">
        <ele>2335.8</ele>
        <time>2019-06-23T07:27:02Z</time>
      </trkpt>
      <trkpt lat="44.77899" lon="5.83975">
        <ele>2336.6</ele>
        <time>2019-06-23T07:27:07Z</time>
      </trkpt>
      <trkpt lat="44.77899" lon="5.83974">
        <ele>2336.8</ele>
        <time>2019-06-23T07:27:12Z</time>
      </trkpt>
      <trkpt lat="44.77898" lon="5.83974">
        <ele>2337.4</ele>
        <time>2019-06-23T07:27:22Z</time>
      </trkpt>
      <trkpt lat="44.77897" lon="5.83973">
        <ele>2337.2</ele>
        <time>2019-06-23T07:27:27Z</time>
      </trkpt>
      <trkpt lat="44.77895" lon="5.83972">
        <ele>2338.4</ele>
        <time>2019-06-23T07:27:37Z</time>
      </trkpt>
      <trkpt lat="44.77894" lon="5.8397">
        <ele>2342.2</ele>
        <time>2019-06-23T07:27:42Z</time>
      </trkpt>
      <trkpt lat="44.77892" lon="5.83968">
        <ele>2339.8</ele>
        <time>2019-06-23T07:28:12Z</time>
      </trkpt>
      <trkpt lat="44.77889" lon="5.83967">
        <ele>2341.8</ele>
        <time>2019-06-23T07:28:37Z</time>
      </trkpt>
      <trkpt lat="44.77889" lon="5.83966">
        <ele>2342.2</ele>
        <time>2019-06-23T07:28:42Z</time>
      </trkpt>
      <trkpt lat="44.77888" lon="5.83965">
        <ele>2342</ele>
        <time>2019-06-23T07:28:47Z</time>
      </trkpt>
      <trkpt lat="44.77887" lon="5.83963">
        <ele>2339</ele>
        <time>2019-06-23T07:28:52Z</time>
      </trkpt>
      <trkpt lat="44.77886" lon="5.83962">
        <ele>2345</ele>
        <time>2019-06-23T07:29:07Z</time>
      </trkpt>
      <trkpt lat="44.77885" lon="5.83961">
        <ele>2343</ele>
        <time>2019-06-23T07:29:12Z</time>
      </trkpt>
      <trkpt lat="44.77884" lon="5.83961">
        <ele>2344.6</ele>
        <time>2019-06-23T07:29:17Z</time>
      </trkpt>
      <trkpt lat="44.77883" lon="5.83959">
        <ele>2344.4</ele>
        <time>2019-06-23T07:29:22Z</time>
      </trkpt>
      <trkpt lat="44.77881" lon="5.83959">
        <ele>2347</ele>
        <time>2019-06-23T07:29:27Z</time>
      </trkpt>
      <trkpt lat="44.77879" lon="5.83959">
        <ele>2346.4</ele>
        <time>2019-06-23T07:29:32Z</time>
      </trkpt>
      <trkpt lat="44.77877" lon="5.83958">
        <ele>2345</ele>
        <time>2019-06-23T07:29:37Z</time>
      </trkpt>
      <trkpt lat="44.77875" lon="5.83957">
        <ele>2346.2</ele>
        <time>2019-06-23T07:29:42Z</time>
      </trkpt>
      <trkpt lat="44.77873" lon="5.83956">
        <ele>2346</ele>
        <time>2019-06-23T07:29:47Z</time>
      </trkpt>
      <trkpt lat="44.77872" lon="5.83955">
        <ele>2345.4</ele>
        <time>2019-06-23T07:29:52Z</time>
      </trkpt>
      <trkpt lat="44.77869" lon="5.83954">
        <ele>2346.4</ele>
        <time>2019-06-23T07:29:57Z</time>
      </trkpt>
      <trkpt lat="44.77868" lon="5.83952">
        <ele>2343.8</ele>
        <time>2019-06-23T07:30:12Z</time>
      </trkpt>
      <trkpt lat="44.77866" lon="5.83951">
        <ele>2345.2</ele>
        <time>2019-06-23T07:30:17Z</time>
      </trkpt>
      <trkpt lat="44.77864" lon="5.83951">
        <ele>2348.6</ele>
        <time>2019-06-23T07:30:22Z</time>
      </trkpt>
      <trkpt lat="44.77863" lon="5.83951">
        <ele>2349</ele>
        <time>2019-06-23T07:30:27Z</time>
      </trkpt>
      <trkpt lat="44.77862" lon="5.83951">
        <ele>2348.2</ele>
        <time>2019-06-23T07:30:32Z</time>
      </trkpt>
      <trkpt lat="44.7786" lon="5.8395">
        <ele>2348.6</ele>
        <time>2019-06-23T07:30:37Z</time>
      </trkpt>
      <trkpt lat="44.77859" lon="5.8395">
        <ele>2348.8</ele>
        <time>2019-06-23T07:30:42Z</time>
      </trkpt>
      <trkpt lat="44.77855" lon="5.83944">
        <ele>2344.8</ele>
        <time>2019-06-23T07:31:12Z</time>
      </trkpt>
      <trkpt lat="44.77856" lon="5.83943">
        <ele>2346.4</ele>
        <time>2019-06-23T07:31:17Z</time>
      </trkpt>
      <trkpt lat="44.77856" lon="5.83942">
        <ele>2348</ele>
        <time>2019-06-23T07:31:22Z</time>
      </trkpt>
      <trkpt lat="44.77856" lon="5.83941">
        <ele>2349.4</ele>
        <time>2019-06-23T07:31:27Z</time>
      </trkpt>
      <trkpt lat="44.77857" lon="5.83941">
        <ele>2352.4</ele>
        <time>2019-06-23T07:31:37Z</time>
      </trkpt>
      <trkpt lat="44.77856" lon="5.83941">
        <ele>2357.8</ele>
        <time>2019-06-23T07:32:22Z</time>
      </trkpt>
      <trkpt lat="44.77855" lon="5.83943">
        <ele>2356.8</ele>
        <time>2019-06-23T07:32:27Z</time>
      </trkpt>
      <trkpt lat="44.77853" lon="5.83945">
        <ele>2357.2</ele>
        <time>2019-06-23T07:32:32Z</time>
      </trkpt>
      <trkpt lat="44.77851" lon="5.83945">
        <ele>2355.4</ele>
        <time>2019-06-23T07:32:37Z</time>
      </trkpt>
      <trkpt lat="44.7785" lon="5.83947">
        <ele>2356.4</ele>
        <time>2019-06-23T07:32:42Z</time>
      </trkpt>
      <trkpt lat="44.77849" lon="5.8395">
        <ele>2356.8</ele>
        <time>2019-06-23T07:32:47Z</time>
      </trkpt>
      <trkpt lat="44.77848" lon="5.83951">
        <ele>2356.4</ele>
        <time>2019-06-23T07:32:52Z</time>
      </trkpt>
      <trkpt lat="44.77845" lon="5.83951">
        <ele>2352</ele>
        <time>2019-06-23T07:32:57Z</time>
      </trkpt>
      <trkpt lat="44.77843" lon="5.8395">
        <ele>2355.6</ele>
        <time>2019-06-23T07:33:02Z</time>
      </trkpt>
      <trkpt lat="44.77843" lon="5.83949">
        <ele>2354.2</ele>
        <time>2019-06-23T07:33:07Z</time>
      </trkpt>
      <trkpt lat="44.77841" lon="5.83947">
        <ele>2356.6</ele>
        <time>2019-06-23T07:34:12Z</time>
      </trkpt>
      <trkpt lat="44.77841" lon="5.83949">
        <ele>2357.2</ele>
        <time>2019-06-23T07:34:27Z</time>
      </trkpt>
      <trkpt lat="44.7784" lon="5.8395">
        <ele>2355.6</ele>
        <time>2019-06-23T07:34:32Z</time>
      </trkpt>
      <trkpt lat="44.7784" lon="5.83951">
        <ele>2359.4</ele>
        <time>2019-06-23T07:34:37Z</time>
      </trkpt>
      <trkpt lat="44.77837" lon="5.83953">
        <ele>2358</ele>
        <time>2019-06-23T07:34:52Z</time>
      </trkpt>
      <trkpt lat="44.77835" lon="5.83954">
        <ele>2357.8</ele>
        <time>2019-06-23T07:34:57Z</time>
      </trkpt>
      <trkpt lat="44.77833" lon="5.83956">
        <ele>2362.8</ele>
        <time>2019-06-23T07:35:02Z</time>
      </trkpt>
      <trkpt lat="44.77832" lon="5.83956">
        <ele>2363.6</ele>
        <time>2019-06-23T07:35:07Z</time>
      </trkpt>
      <trkpt lat="44.7783" lon="5.83956">
        <ele>2359.6</ele>
        <time>2019-06-23T07:35:12Z</time>
      </trkpt>
      <trkpt lat="44.77829" lon="5.83955">
        <ele>2359.6</ele>
        <time>2019-06-23T07:35:17Z</time>
      </trkpt>
      <trkpt lat="44.77828" lon="5.83955">
        <ele>2360</ele>
        <time>2019-06-23T07:35:22Z</time>
      </trkpt>
      <trkpt lat="44.77827" lon="5.83954">
        <ele>2361.4</ele>
        <time>2019-06-23T07:35:27Z</time>
      </trkpt>
      <trkpt lat="44.77825" lon="5.83954">
        <ele>2363</ele>
        <time>2019-06-23T07:35:32Z</time>
      </trkpt>
      <trkpt lat="44.77824" lon="5.83956">
        <ele>2373</ele>
        <time>2019-06-23T07:36:47Z</time>
      </trkpt>
      <trkpt lat="44.77824" lon="5.83957">
        <ele>2375.8</ele>
        <time>2019-06-23T07:36:57Z</time>
      </trkpt>
      <trkpt lat="44.77823" lon="5.83957">
        <ele>2380.2</ele>
        <time>2019-06-23T07:37:27Z</time>
      </trkpt>
      <trkpt lat="44.77823" lon="5.83958">
        <ele>2380.2</ele>
        <time>2019-06-23T07:37:32Z</time>
      </trkpt>
      <trkpt lat="44.7782" lon="5.83959">
        <ele>2382</ele>
        <time>2019-06-23T07:37:47Z</time>
      </trkpt>
      <trkpt lat="44.77819" lon="5.83958">
        <ele>2382.8</ele>
        <time>2019-06-23T07:37:52Z</time>
      </trkpt>
      <trkpt lat="44.77818" lon="5.83958">
        <ele>2383.4</ele>
        <time>2019-06-23T07:37:57Z</time>
      </trkpt>
      <trkpt lat="44.77817" lon="5.83956">
        <ele>2384.2</ele>
        <time>2019-06-23T07:38:02Z</time>
      </trkpt>
      <trkpt lat="44.77814" lon="5.83954">
        <ele>2385</ele>
        <time>2019-06-23T07:38:07Z</time>
      </trkpt>
      <trkpt lat="44.77812" lon="5.83954">
        <ele>2384</ele>
        <time>2019-06-23T07:38:12Z</time>
      </trkpt>
      <trkpt lat="44.77809" lon="5.83954">
        <ele>2384.2</ele>
        <time>2019-06-23T07:38:17Z</time>
      </trkpt>
      <trkpt lat="44.77808" lon="5.83954">
        <ele>2384</ele>
        <time>2019-06-23T07:38:22Z</time>
      </trkpt>
      <trkpt lat="44.77806" lon="5.83955">
        <ele>2385.2</ele>
        <time>2019-06-23T07:38:27Z</time>
      </trkpt>
      <trkpt lat="44.77806" lon="5.83955">
        <ele>2386.6</ele>
        <time>2019-06-23T07:38:32Z</time>
      </trkpt>
      <trkpt lat="44.77803" lon="5.83953">
        <ele>2389.2</ele>
        <time>2019-06-23T07:38:37Z</time>
      </trkpt>
      <trkpt lat="44.77801" lon="5.8395">
        <ele>2387.2</ele>
        <time>2019-06-23T07:38:42Z</time>
      </trkpt>
      <trkpt lat="44.77799" lon="5.83948">
        <ele>2388</ele>
        <time>2019-06-23T07:38:47Z</time>
      </trkpt>
      <trkpt lat="44.77796" lon="5.83948">
        <ele>2390.4</ele>
        <time>2019-06-23T07:38:52Z</time>
      </trkpt>
      <trkpt lat="44.77795" lon="5.83948">
        <ele>2390</ele>
        <time>2019-06-23T07:38:57Z</time>
      </trkpt>
      <trkpt lat="44.77793" lon="5.83948">
        <ele>2390.2</ele>
        <time>2019-06-23T07:39:02Z</time>
      </trkpt>
      <trkpt lat="44.77793" lon="5.83947">
        <ele>2393.6</ele>
        <time>2019-06-23T07:39:07Z</time>
      </trkpt>
      <trkpt lat="44.77791" lon="5.83946">
        <ele>2395</ele>
        <time>2019-06-23T07:39:12Z</time>
      </trkpt>
      <trkpt lat="44.77789" lon="5.83946">
        <ele>2394.4</ele>
        <time>2019-06-23T07:39:17Z</time>
      </trkpt>
      <trkpt lat="44.77788" lon="5.83945">
        <ele>2397.6</ele>
        <time>2019-06-23T07:39:22Z</time>
      </trkpt>
      <trkpt lat="44.77788" lon="5.83944">
        <ele>2391.6</ele>
        <time>2019-06-23T07:39:42Z</time>
      </trkpt>
      <trkpt lat="44.77785" lon="5.83945">
        <ele>2391.4</ele>
        <time>2019-06-23T07:39:57Z</time>
      </trkpt>
      <trkpt lat="44.77783" lon="5.83943">
        <ele>2391.8</ele>
        <time>2019-06-23T07:48:32Z</time>
      </trkpt>
      <trkpt lat="44.77782" lon="5.83943">
        <ele>2392</ele>
        <time>2019-06-23T07:48:37Z</time>
      </trkpt>
      <trkpt lat="44.77781" lon="5.83942">
        <ele>2392.4</ele>
        <time>2019-06-23T07:48:42Z</time>
      </trkpt>
      <trkpt lat="44.77781" lon="5.8394">
        <ele>2393.2</ele>
        <time>2019-06-23T07:48:47Z</time>
      </trkpt>
      <trkpt lat="44.7778" lon="5.8394">
        <ele>2394</ele>
        <time>2019-06-23T07:48:52Z</time>
      </trkpt>
      <trkpt lat="44.77779" lon="5.83939">
        <ele>2394.8</ele>
        <time>2019-06-23T07:48:57Z</time>
      </trkpt>
      <trkpt lat="44.77777" lon="5.83939">
        <ele>2395.4</ele>
        <time>2019-06-23T07:49:02Z</time>
      </trkpt>
      <trkpt lat="44.77777" lon="5.8394">
        <ele>2397</ele>
        <time>2019-06-23T07:49:07Z</time>
      </trkpt>
      <trkpt lat="44.77776" lon="5.83939">
        <ele>2397.2</ele>
        <time>2019-06-23T07:49:12Z</time>
      </trkpt>
      <trkpt lat="44.77775" lon="5.83939">
        <ele>2397.4</ele>
        <time>2019-06-23T07:49:17Z</time>
      </trkpt>
      <trkpt lat="44.77774" lon="5.8394">
        <ele>2397.6</ele>
        <time>2019-06-23T07:49:22Z</time>
      </trkpt>
      <trkpt lat="44.77773" lon="5.8394">
        <ele>2396.6</ele>
        <time>2019-06-23T07:49:27Z</time>
      </trkpt>
      <trkpt lat="44.77772" lon="5.8394">
        <ele>2399</ele>
        <time>2019-06-23T07:49:37Z</time>
      </trkpt>
      <trkpt lat="44.77766" lon="5.83941">
        <ele>2417.2</ele>
        <time>2019-06-23T07:52:23Z</time>
      </trkpt>
      <trkpt lat="44.77761" lon="5.83942">
        <ele>2415.6</ele>
        <time>2019-06-23T07:52:28Z</time>
      </trkpt>
      <trkpt lat="44.77758" lon="5.83942">
        <ele>2413.8</ele>
        <time>2019-06-23T07:52:33Z</time>
      </trkpt>
      <trkpt lat="44.77755" lon="5.83942">
        <ele>2412</ele>
        <time>2019-06-23T07:52:38Z</time>
      </trkpt>
      <trkpt lat="44.77754" lon="5.83943">
        <ele>2410</ele>
        <time>2019-06-23T07:52:43Z</time>
      </trkpt>
      <trkpt lat="44.77753" lon="5.83943">
        <ele>2408.4</ele>
        <time>2019-06-23T07:52:48Z</time>
      </trkpt>
      <trkpt lat="44.77752" lon="5.83943">
        <ele>2407.2</ele>
        <time>2019-06-23T07:52:53Z</time>
      </trkpt>
      <trkpt lat="44.77751" lon="5.83944">
        <ele>2406</ele>
        <time>2019-06-23T07:52:58Z</time>
      </trkpt>
      <trkpt lat="44.7775" lon="5.83944">
        <ele>2404.8</ele>
        <time>2019-06-23T07:53:03Z</time>
      </trkpt>
      <trkpt lat="44.77748" lon="5.83944">
        <ele>2402.2</ele>
        <time>2019-06-23T07:53:28Z</time>
      </trkpt>
      <trkpt lat="44.77748" lon="5.83944">
        <ele>2401.8</ele>
        <time>2019-06-23T07:53:33Z</time>
      </trkpt>
      <trkpt lat="44.77747" lon="5.83944">
        <ele>2400.4</ele>
        <time>2019-06-23T07:53:43Z</time>
      </trkpt>
      <trkpt lat="44.77746" lon="5.83945">
        <ele>2398</ele>
        <time>2019-06-23T07:53:58Z</time>
      </trkpt>
      <trkpt lat="44.77746" lon="5.83945">
        <ele>2397.4</ele>
        <time>2019-06-23T07:54:08Z</time>
      </trkpt>
      <trkpt lat="44.77745" lon="5.83944">
        <ele>2397.8</ele>
        <time>2019-06-23T07:54:13Z</time>
      </trkpt>
      <trkpt lat="44.77745" lon="5.83944">
        <ele>2398.6</ele>
        <time>2019-06-23T07:54:18Z</time>
      </trkpt>
      <trkpt lat="44.77744" lon="5.83945">
        <ele>2399</ele>
        <time>2019-06-23T07:54:23Z</time>
      </trkpt>
      <trkpt lat="44.77742" lon="5.83948">
        <ele>2399.4</ele>
        <time>2019-06-23T07:54:28Z</time>
      </trkpt>
      <trkpt lat="44.77741" lon="5.8395">
        <ele>2398.8</ele>
        <time>2019-06-23T07:54:33Z</time>
      </trkpt>
      <trkpt lat="44.7774" lon="5.83949">
        <ele>2399</ele>
        <time>2019-06-23T07:54:38Z</time>
      </trkpt>
      <trkpt lat="44.77739" lon="5.83948">
        <ele>2403</ele>
        <time>2019-06-23T07:54:48Z</time>
      </trkpt>
      <trkpt lat="44.77737" lon="5.83946">
        <ele>2410.6</ele>
        <time>2019-06-23T07:55:08Z</time>
      </trkpt>
      <trkpt lat="44.77737" lon="5.83946">
        <ele>2413.4</ele>
        <time>2019-06-23T07:55:13Z</time>
      </trkpt>
      <trkpt lat="44.77736" lon="5.83944">
        <ele>2418.4</ele>
        <time>2019-06-23T07:55:23Z</time>
      </trkpt>
      <trkpt lat="44.77736" lon="5.83943">
        <ele>2418</ele>
        <time>2019-06-23T07:55:28Z</time>
      </trkpt>
      <trkpt lat="44.77734" lon="5.8394">
        <ele>2421.8</ele>
        <time>2019-06-23T07:55:38Z</time>
      </trkpt>
      <trkpt lat="44.77733" lon="5.83939">
        <ele>2418</ele>
        <time>2019-06-23T07:56:23Z</time>
      </trkpt>
      <trkpt lat="44.77734" lon="5.83938">
        <ele>2417.8</ele>
        <time>2019-06-23T07:56:38Z</time>
      </trkpt>
      <trkpt lat="44.77734" lon="5.83937">
        <ele>2418.2</ele>
        <time>2019-06-23T07:56:43Z</time>
      </trkpt>
      <trkpt lat="44.77734" lon="5.83936">
        <ele>2418.6</ele>
        <time>2019-06-23T07:56:48Z</time>
      </trkpt>
      <trkpt lat="44.77735" lon="5.83934">
        <ele>2419.4</ele>
        <time>2019-06-23T07:56:53Z</time>
      </trkpt>
      <trkpt lat="44.77735" lon="5.83932">
        <ele>2421.4</ele>
        <time>2019-06-23T07:57:18Z</time>
      </trkpt>
      <trkpt lat="44.77735" lon="5.83932">
        <ele>2422</ele>
        <time>2019-06-23T07:57:53Z</time>
      </trkpt>
      <trkpt lat="44.77734" lon="5.83931">
        <ele>2422.4</ele>
        <time>2019-06-23T07:57:58Z</time>
      </trkpt>
      <trkpt lat="44.77734" lon="5.83931">
        <ele>2423</ele>
        <time>2019-06-23T07:58:03Z</time>
      </trkpt>
      <trkpt lat="44.77733" lon="5.83931">
        <ele>2424.2</ele>
        <time>2019-06-23T07:58:13Z</time>
      </trkpt>
      <trkpt lat="44.77733" lon="5.83931">
        <ele>2425.6</ele>
        <time>2019-06-23T07:58:23Z</time>
      </trkpt>
      <trkpt lat="44.77732" lon="5.83932">
        <ele>2426.4</ele>
        <time>2019-06-23T07:58:28Z</time>
      </trkpt>
      <trkpt lat="44.77731" lon="5.83932">
        <ele>2427.2</ele>
        <time>2019-06-23T07:58:33Z</time>
      </trkpt>
      <trkpt lat="44.77731" lon="5.83931">
        <ele>2428.4</ele>
        <time>2019-06-23T07:58:38Z</time>
      </trkpt>
      <trkpt lat="44.77731" lon="5.83931">
        <ele>2429.6</ele>
        <time>2019-06-23T07:58:48Z</time>
      </trkpt>
      <trkpt lat="44.7773" lon="5.83929">
        <ele>2431.4</ele>
        <time>2019-06-23T07:58:53Z</time>
      </trkpt>
      <trkpt lat="44.7773" lon="5.83929">
        <ele>2431</ele>
        <time>2019-06-23T07:59:03Z</time>
      </trkpt>
      <trkpt lat="44.7773" lon="5.83928">
        <ele>2431</ele>
        <time>2019-06-23T07:59:08Z</time>
      </trkpt>
      <trkpt lat="44.77728" lon="5.83926">
        <ele>2431.2</ele>
        <time>2019-06-23T07:59:13Z</time>
      </trkpt>
      <trkpt lat="44.77726" lon="5.83927">
        <ele>2431.4</ele>
        <time>2019-06-23T07:59:18Z</time>
      </trkpt>
      <trkpt lat="44.77725" lon="5.83929">
        <ele>2431.4</ele>
        <time>2019-06-23T07:59:24Z</time>
      </trkpt>
      <trkpt lat="44.77723" lon="5.8393">
        <ele>2428.8</ele>
        <time>2019-06-23T07:59:29Z</time>
      </trkpt>
      <trkpt lat="44.77721" lon="5.8393">
        <ele>2426</ele>
        <time>2019-06-23T07:59:44Z</time>
      </trkpt>
      <trkpt lat="44.7772" lon="5.83928">
        <ele>2419.8</ele>
        <time>2019-06-23T08:00:09Z</time>
      </trkpt>
      <trkpt lat="44.77718" lon="5.83926">
        <ele>2421.6</ele>
        <time>2019-06-23T08:00:14Z</time>
      </trkpt>
      <trkpt lat="44.77717" lon="5.83926">
        <ele>2422.8</ele>
        <time>2019-06-23T08:00:19Z</time>
      </trkpt>
      <trkpt lat="44.77716" lon="5.83925">
        <ele>2423.2</ele>
        <time>2019-06-23T08:00:24Z</time>
      </trkpt>
      <trkpt lat="44.77716" lon="5.83924">
        <ele>2423.4</ele>
        <time>2019-06-23T08:00:29Z</time>
      </trkpt>
      <trkpt lat="44.77716" lon="5.83923">
        <ele>2425.4</ele>
        <time>2019-06-23T08:00:34Z</time>
      </trkpt>
      <trkpt lat="44.77714" lon="5.83924">
        <ele>2426.8</ele>
        <time>2019-06-23T08:00:39Z</time>
      </trkpt>
      <trkpt lat="44.77714" lon="5.83925">
        <ele>2427.2</ele>
        <time>2019-06-23T08:00:44Z</time>
      </trkpt>
      <trkpt lat="44.77712" lon="5.83926">
        <ele>2427.2</ele>
        <time>2019-06-23T08:00:49Z</time>
      </trkpt>
      <trkpt lat="44.77711" lon="5.83927">
        <ele>2426.4</ele>
        <time>2019-06-23T08:00:54Z</time>
      </trkpt>
      <trkpt lat="44.7771" lon="5.83928">
        <ele>2425.4</ele>
        <time>2019-06-23T08:00:59Z</time>
      </trkpt>
      <trkpt lat="44.7771" lon="5.83927">
        <ele>2424.6</ele>
        <time>2019-06-23T08:01:15Z</time>
      </trkpt>
      <trkpt lat="44.7771" lon="5.83926">
        <ele>2425</ele>
        <time>2019-06-23T08:01:20Z</time>
      </trkpt>
      <trkpt lat="44.77709" lon="5.83926">
        <ele>2425.8</ele>
        <time>2019-06-23T08:01:25Z</time>
      </trkpt>
      <trkpt lat="44.77707" lon="5.83924">
        <ele>2433.2</ele>
        <time>2019-06-23T08:01:45Z</time>
      </trkpt>
      <trkpt lat="44.77707" lon="5.83923">
        <ele>2438.6</ele>
        <time>2019-06-23T08:01:55Z</time>
      </trkpt>
      <trkpt lat="44.77707" lon="5.83922">
        <ele>2440.2</ele>
        <time>2019-06-23T08:02:05Z</time>
      </trkpt>
      <trkpt lat="44.77707" lon="5.8392">
        <ele>2441.6</ele>
        <time>2019-06-23T08:02:15Z</time>
      </trkpt>
      <trkpt lat="44.77706" lon="5.8392">
        <ele>2442</ele>
        <time>2019-06-23T08:02:20Z</time>
      </trkpt>
      <trkpt lat="44.77706" lon="5.83919">
        <ele>2442.8</ele>
        <time>2019-06-23T08:02:25Z</time>
      </trkpt>
      <trkpt lat="44.77705" lon="5.83919">
        <ele>2443.6</ele>
        <time>2019-06-23T08:02:30Z</time>
      </trkpt>
      <trkpt lat="44.77704" lon="5.83918">
        <ele>2444.2</ele>
        <time>2019-06-23T08:03:00Z</time>
      </trkpt>
      <trkpt lat="44.77704" lon="5.83918">
        <ele>2444.8</ele>
        <time>2019-06-23T08:03:10Z</time>
      </trkpt>
      <trkpt lat="44.77703" lon="5.83918">
        <ele>2445</ele>
        <time>2019-06-23T08:03:15Z</time>
      </trkpt>
      <trkpt lat="44.77701" lon="5.83917">
        <ele>2444.6</ele>
        <time>2019-06-23T08:03:20Z</time>
      </trkpt>
      <trkpt lat="44.77701" lon="5.83917">
        <ele>2442.8</ele>
        <time>2019-06-23T08:03:35Z</time>
      </trkpt>
      <trkpt lat="44.777" lon="5.83917">
        <ele>2447</ele>
        <time>2019-06-23T08:04:20Z</time>
      </trkpt>
      <trkpt lat="44.77697" lon="5.83916">
        <ele>2456.8</ele>
        <time>2019-06-23T08:05:30Z</time>
      </trkpt>
      <trkpt lat="44.77697" lon="5.83916">
        <ele>2457.2</ele>
        <time>2019-06-23T08:05:35Z</time>
      </trkpt>
      <trkpt lat="44.77696" lon="5.83916">
        <ele>2457.6</ele>
        <time>2019-06-23T08:05:40Z</time>
      </trkpt>
      <trkpt lat="44.77696" lon="5.83915">
        <ele>2458.2</ele>
        <time>2019-06-23T08:05:55Z</time>
      </trkpt>
      <trkpt lat="44.77695" lon="5.83915">
        <ele>2458.6</ele>
        <time>2019-06-23T08:06:00Z</time>
      </trkpt>
      <trkpt lat="44.77694" lon="5.83914">
        <ele>2458.8</ele>
        <time>2019-06-23T08:06:05Z</time>
      </trkpt>
      <trkpt lat="44.77693" lon="5.83913">
        <ele>2461.2</ele>
        <time>2019-06-23T08:07:00Z</time>
      </trkpt>
      <trkpt lat="44.77692" lon="5.83913">
        <ele>2461.2</ele>
        <time>2019-06-23T08:07:05Z</time>
      </trkpt>
      <trkpt lat="44.77691" lon="5.83912">
        <ele>2461.4</ele>
        <time>2019-06-23T08:07:10Z</time>
      </trkpt>
      <trkpt lat="44.77689" lon="5.83912">
        <ele>2460.6</ele>
        <time>2019-06-23T08:07:15Z</time>
      </trkpt>
      <trkpt lat="44.77687" lon="5.8391">
        <ele>2463.4</ele>
        <time>2019-06-23T08:07:20Z</time>
      </trkpt>
      <trkpt lat="44.77686" lon="5.8391">
        <ele>2462.4</ele>
        <time>2019-06-23T08:07:25Z</time>
      </trkpt>
      <trkpt lat="44.77685" lon="5.8391">
        <ele>2462.2</ele>
        <time>2019-06-23T08:07:30Z</time>
      </trkpt>
      <trkpt lat="44.77684" lon="5.8391">
        <ele>2461.8</ele>
        <time>2019-06-23T08:07:50Z</time>
      </trkpt>
      <trkpt lat="44.77684" lon="5.83909">
        <ele>2462.6</ele>
        <time>2019-06-23T08:08:10Z</time>
      </trkpt>
      <trkpt lat="44.77683" lon="5.83909">
        <ele>2462.8</ele>
        <time>2019-06-23T08:08:15Z</time>
      </trkpt>
      <trkpt lat="44.77683" lon="5.83909">
        <ele>2463</ele>
        <time>2019-06-23T08:08:20Z</time>
      </trkpt>
      <trkpt lat="44.77682" lon="5.83909">
        <ele>2463.2</ele>
        <time>2019-06-23T08:08:25Z</time>
      </trkpt>
      <trkpt lat="44.77681" lon="5.8391">
        <ele>2463.6</ele>
        <time>2019-06-23T08:08:30Z</time>
      </trkpt>
      <trkpt lat="44.77681" lon="5.8391">
        <ele>2464</ele>
        <time>2019-06-23T08:08:35Z</time>
      </trkpt>
      <trkpt lat="44.77679" lon="5.8391">
        <ele>2464</ele>
        <time>2019-06-23T08:08:40Z</time>
      </trkpt>
      <trkpt lat="44.77678" lon="5.8391">
        <ele>2464.4</ele>
        <time>2019-06-23T08:08:45Z</time>
      </trkpt>
      <trkpt lat="44.77676" lon="5.8391">
        <ele>2466.8</ele>
        <time>2019-06-23T08:09:16Z</time>
      </trkpt>
      <trkpt lat="44.77675" lon="5.83909">
        <ele>2466.2</ele>
        <time>2019-06-23T08:09:46Z</time>
      </trkpt>
      <trkpt lat="44.77674" lon="5.83908">
        <ele>2466.2</ele>
        <time>2019-06-23T08:10:01Z</time>
      </trkpt>
      <trkpt lat="44.77674" lon="5.83907">
        <ele>2466.2</ele>
        <time>2019-06-23T08:10:06Z</time>
      </trkpt>
      <trkpt lat="44.77673" lon="5.83906">
        <ele>2466.4</ele>
        <time>2019-06-23T08:10:16Z</time>
      </trkpt>
      <trkpt lat="44.77673" lon="5.83907">
        <ele>2475</ele>
        <time>2019-06-23T08:11:21Z</time>
      </trkpt>
      <trkpt lat="44.77672" lon="5.83907">
        <ele>2472.2</ele>
        <time>2019-06-23T08:11:26Z</time>
      </trkpt>
      <trkpt lat="44.77671" lon="5.83908">
        <ele>2472.6</ele>
        <time>2019-06-23T08:11:31Z</time>
      </trkpt>
      <trkpt lat="44.7767" lon="5.83908">
        <ele>2473.2</ele>
        <time>2019-06-23T08:11:56Z</time>
      </trkpt>
      <trkpt lat="44.7767" lon="5.83907">
        <ele>2474.8</ele>
        <time>2019-06-23T08:12:01Z</time>
      </trkpt>
      <trkpt lat="44.77669" lon="5.83907">
        <ele>2476.8</ele>
        <time>2019-06-23T08:12:06Z</time>
      </trkpt>
      <trkpt lat="44.77668" lon="5.83907">
        <ele>2474.4</ele>
        <time>2019-06-23T08:12:26Z</time>
      </trkpt>
      <trkpt lat="44.77667" lon="5.83906">
        <ele>2475.2</ele>
        <time>2019-06-23T08:13:06Z</time>
      </trkpt>
      <trkpt lat="44.77667" lon="5.83906">
        <ele>2475.4</ele>
        <time>2019-06-23T08:13:11Z</time>
      </trkpt>
      <trkpt lat="44.77667" lon="5.83905">
        <ele>2475</ele>
        <time>2019-06-23T08:13:16Z</time>
      </trkpt>
      <trkpt lat="44.77666" lon="5.83905">
        <ele>2476</ele>
        <time>2019-06-23T08:13:26Z</time>
      </trkpt>
      <trkpt lat="44.77665" lon="5.83904">
        <ele>2476.2</ele>
        <time>2019-06-23T08:13:36Z</time>
      </trkpt>
      <trkpt lat="44.77665" lon="5.83904">
        <ele>2476.4</ele>
        <time>2019-06-23T08:13:46Z</time>
      </trkpt>
      <trkpt lat="44.77665" lon="5.83902">
        <ele>2476.6</ele>
        <time>2019-06-23T08:13:56Z</time>
      </trkpt>
      <trkpt lat="44.77665" lon="5.83902">
        <ele>2476.6</ele>
        <time>2019-06-23T08:14:01Z</time>
      </trkpt>
      <trkpt lat="44.77664" lon="5.83901">
        <ele>2476.6</ele>
        <time>2019-06-23T08:14:06Z</time>
      </trkpt>
      <trkpt lat="44.77663" lon="5.839">
        <ele>2476</ele>
        <time>2019-06-23T08:14:16Z</time>
      </trkpt>
      <trkpt lat="44.77662" lon="5.839">
        <ele>2476.2</ele>
        <time>2019-06-23T08:14:21Z</time>
      </trkpt>
      <trkpt lat="44.77661" lon="5.839">
        <ele>2476.2</ele>
        <time>2019-06-23T08:14:26Z</time>
      </trkpt>
      <trkpt lat="44.7766" lon="5.83899">
        <ele>2476</ele>
        <time>2019-06-23T08:14:46Z</time>
      </trkpt>
      <trkpt lat="44.7766" lon="5.83899">
        <ele>2475.8</ele>
        <time>2019-06-23T08:14:56Z</time>
      </trkpt>
      <trkpt lat="44.7766" lon="5.83898">
        <ele>2476.2</ele>
        <time>2019-06-23T08:15:01Z</time>
      </trkpt>
      <trkpt lat="44.7766" lon="5.83897">
        <ele>2476.2</ele>
        <time>2019-06-23T08:15:06Z</time>
      </trkpt>
      <trkpt lat="44.7766" lon="5.83895">
        <ele>2476.2</ele>
        <time>2019-06-23T08:15:11Z</time>
      </trkpt>
      <trkpt lat="44.77662" lon="5.83893">
        <ele>2474.2</ele>
        <time>2019-06-23T08:15:21Z</time>
      </trkpt>
      <trkpt lat="44.77662" lon="5.83892">
        <ele>2474.6</ele>
        <time>2019-06-23T08:15:26Z</time>
      </trkpt>
      <trkpt lat="44.77662" lon="5.83891">
        <ele>2476.6</ele>
        <time>2019-06-23T08:15:31Z</time>
      </trkpt>
      <trkpt lat="44.77662" lon="5.8389">
        <ele>2478.4</ele>
        <time>2019-06-23T08:15:51Z</time>
      </trkpt>
      <trkpt lat="44.77661" lon="5.8389">
        <ele>2479.2</ele>
        <time>2019-06-23T08:15:56Z</time>
      </trkpt>
      <trkpt lat="44.7766" lon="5.83889">
        <ele>2480</ele>
        <time>2019-06-23T08:16:01Z</time>
      </trkpt>
      <trkpt lat="44.77659" lon="5.83888">
        <ele>2478.4</ele>
        <time>2019-06-23T08:16:06Z</time>
      </trkpt>
      <trkpt lat="44.77658" lon="5.83889">
        <ele>2477.6</ele>
        <time>2019-06-23T08:16:11Z</time>
      </trkpt>
      <trkpt lat="44.77657" lon="5.8389">
        <ele>2478.2</ele>
        <time>2019-06-23T08:16:16Z</time>
      </trkpt>
      <trkpt lat="44.77656" lon="5.83891">
        <ele>2478.2</ele>
        <time>2019-06-23T08:16:21Z</time>
      </trkpt>
      <trkpt lat="44.77655" lon="5.8389">
        <ele>2480.6</ele>
        <time>2019-06-23T08:16:26Z</time>
      </trkpt>
      <trkpt lat="44.77653" lon="5.83891">
        <ele>2479.6</ele>
        <time>2019-06-23T08:16:31Z</time>
      </trkpt>
      <trkpt lat="44.7765" lon="5.83892">
        <ele>2478.4</ele>
        <time>2019-06-23T08:16:36Z</time>
      </trkpt>
      <trkpt lat="44.77647" lon="5.83891">
        <ele>2476</ele>
        <time>2019-06-23T08:16:41Z</time>
      </trkpt>
      <trkpt lat="44.77645" lon="5.83893">
        <ele>2474.6</ele>
        <time>2019-06-23T08:16:51Z</time>
      </trkpt>
      <trkpt lat="44.77645" lon="5.83892">
        <ele>2473.4</ele>
        <time>2019-06-23T08:16:56Z</time>
      </trkpt>
      <trkpt lat="44.77646" lon="5.8389">
        <ele>2473.6</ele>
        <time>2019-06-23T08:17:06Z</time>
      </trkpt>
      <trkpt lat="44.77646" lon="5.83888">
        <ele>2476.4</ele>
        <time>2019-06-23T08:17:11Z</time>
      </trkpt>
      <trkpt lat="44.77646" lon="5.83887">
        <ele>2476.6</ele>
        <time>2019-06-23T08:17:16Z</time>
      </trkpt>
      <trkpt lat="44.77645" lon="5.83885">
        <ele>2476.8</ele>
        <time>2019-06-23T08:17:21Z</time>
      </trkpt>
      <trkpt lat="44.77645" lon="5.83884">
        <ele>2479.8</ele>
        <time>2019-06-23T08:17:31Z</time>
      </trkpt>
      <trkpt lat="44.77644" lon="5.83883">
        <ele>2484.4</ele>
        <time>2019-06-23T08:17:41Z</time>
      </trkpt>
      <trkpt lat="44.77643" lon="5.83883">
        <ele>2484.4</ele>
        <time>2019-06-23T08:17:46Z</time>
      </trkpt>
      <trkpt lat="44.77642" lon="5.83881">
        <ele>2484.6</ele>
        <time>2019-06-23T08:17:51Z</time>
      </trkpt>
      <trkpt lat="44.77641" lon="5.8388">
        <ele>2484.2</ele>
        <time>2019-06-23T08:17:56Z</time>
      </trkpt>
      <trkpt lat="44.77641" lon="5.8388">
        <ele>2485</ele>
        <time>2019-06-23T08:18:01Z</time>
      </trkpt>
      <trkpt lat="44.7764" lon="5.83879">
        <ele>2485</ele>
        <time>2019-06-23T08:18:11Z</time>
      </trkpt>
      <trkpt lat="44.7764" lon="5.83878">
        <ele>2485.8</ele>
        <time>2019-06-23T08:18:16Z</time>
      </trkpt>
      <trkpt lat="44.7764" lon="5.83878">
        <ele>2486.6</ele>
        <time>2019-06-23T08:18:21Z</time>
      </trkpt>
      <trkpt lat="44.77639" lon="5.83877">
        <ele>2487.4</ele>
        <time>2019-06-23T08:18:31Z</time>
      </trkpt>
      <trkpt lat="44.77638" lon="5.83877">
        <ele>2490</ele>
        <time>2019-06-23T08:18:51Z</time>
      </trkpt>
      <trkpt lat="44.77638" lon="5.83876">
        <ele>2491.4</ele>
        <time>2019-06-23T08:19:06Z</time>
      </trkpt>
      <trkpt lat="44.77637" lon="5.83876">
        <ele>2492.2</ele>
        <time>2019-06-23T08:19:16Z</time>
      </trkpt>
      <trkpt lat="44.77636" lon="5.83877">
        <ele>2492.6</ele>
        <time>2019-06-23T08:19:26Z</time>
      </trkpt>
      <trkpt lat="44.77636" lon="5.83877">
        <ele>2492.8</ele>
        <time>2019-06-23T08:19:31Z</time>
      </trkpt>
      <trkpt lat="44.77635" lon="5.83878">
        <ele>2494.8</ele>
        <time>2019-06-23T08:19:36Z</time>
      </trkpt>
      <trkpt lat="44.77634" lon="5.83878">
        <ele>2494.4</ele>
        <time>2019-06-23T08:19:41Z</time>
      </trkpt>
      <trkpt lat="44.77634" lon="5.83878">
        <ele>2495.2</ele>
        <time>2019-06-23T08:20:01Z</time>
      </trkpt>
      <trkpt lat="44.77633" lon="5.83877">
        <ele>2496.6</ele>
        <time>2019-06-23T08:20:31Z</time>
      </trkpt>
      <trkpt lat="44.77633" lon="5.83876">
        <ele>2498.2</ele>
        <time>2019-06-23T08:20:56Z</time>
      </trkpt>
      <trkpt lat="44.77632" lon="5.83876">
        <ele>2498.6</ele>
        <time>2019-06-23T08:21:01Z</time>
      </trkpt>
      <trkpt lat="44.77632" lon="5.83877">
        <ele>2499</ele>
        <time>2019-06-23T08:21:06Z</time>
      </trkpt>
      <trkpt lat="44.77631" lon="5.83877">
        <ele>2499.6</ele>
        <time>2019-06-23T08:21:11Z</time>
      </trkpt>
      <trkpt lat="44.7763" lon="5.83877">
        <ele>2500.6</ele>
        <time>2019-06-23T08:21:26Z</time>
      </trkpt>
      <trkpt lat="44.77629" lon="5.83876">
        <ele>2501.4</ele>
        <time>2019-06-23T08:21:36Z</time>
      </trkpt>
      <trkpt lat="44.77629" lon="5.83875">
        <ele>2501.6</ele>
        <time>2019-06-23T08:21:46Z</time>
      </trkpt>
      <trkpt lat="44.77628" lon="5.83875">
        <ele>2502</ele>
        <time>2019-06-23T08:21:56Z</time>
      </trkpt>
      <trkpt lat="44.77627" lon="5.83875">
        <ele>2502.6</ele>
        <time>2019-06-23T08:22:01Z</time>
      </trkpt>
      <trkpt lat="44.77627" lon="5.83875">
        <ele>2503.2</ele>
        <time>2019-06-23T08:22:11Z</time>
      </trkpt>
      <trkpt lat="44.77626" lon="5.83874">
        <ele>2503.6</ele>
        <time>2019-06-23T08:22:21Z</time>
      </trkpt>
      <trkpt lat="44.77626" lon="5.83874">
        <ele>2503.8</ele>
        <time>2019-06-23T08:22:26Z</time>
      </trkpt>
      <trkpt lat="44.77626" lon="5.83873">
        <ele>2503.8</ele>
        <time>2019-06-23T08:22:31Z</time>
      </trkpt>
      <trkpt lat="44.77625" lon="5.83872">
        <ele>2504</ele>
        <time>2019-06-23T08:22:36Z</time>
      </trkpt>
      <trkpt lat="44.77624" lon="5.83871">
        <ele>2504.2</ele>
        <time>2019-06-23T08:22:41Z</time>
      </trkpt>
      <trkpt lat="44.77622" lon="5.83869">
        <ele>2506.6</ele>
        <time>2019-06-23T08:22:56Z</time>
      </trkpt>
      <trkpt lat="44.77622" lon="5.83869">
        <ele>2506.4</ele>
        <time>2019-06-23T08:23:01Z</time>
      </trkpt>
      <trkpt lat="44.7762" lon="5.83868">
        <ele>2507.2</ele>
        <time>2019-06-23T08:23:06Z</time>
      </trkpt>
      <trkpt lat="44.77618" lon="5.83867">
        <ele>2506.4</ele>
        <time>2019-06-23T08:23:11Z</time>
      </trkpt>
      <trkpt lat="44.77617" lon="5.83866">
        <ele>2507.4</ele>
        <time>2019-06-23T08:23:16Z</time>
      </trkpt>
      <trkpt lat="44.77616" lon="5.83866">
        <ele>2507.6</ele>
        <time>2019-06-23T08:23:31Z</time>
      </trkpt>
      <trkpt lat="44.77616" lon="5.83866">
        <ele>2507.4</ele>
        <time>2019-06-23T08:23:36Z</time>
      </trkpt>
      <trkpt lat="44.77615" lon="5.83866">
        <ele>2507</ele>
        <time>2019-06-23T08:23:46Z</time>
      </trkpt>
      <trkpt lat="44.77614" lon="5.83866">
        <ele>2507.4</ele>
        <time>2019-06-23T08:23:56Z</time>
      </trkpt>
      <trkpt lat="44.77614" lon="5.83866">
        <ele>2508.2</ele>
        <time>2019-06-23T08:24:11Z</time>
      </trkpt>
      <trkpt lat="44.77613" lon="5.83866">
        <ele>2508.8</ele>
        <time>2019-06-23T08:24:21Z</time>
      </trkpt>
      <trkpt lat="44.77612" lon="5.83867">
        <ele>2510.4</ele>
        <time>2019-06-23T08:24:41Z</time>
      </trkpt>
      <trkpt lat="44.77612" lon="5.83867">
        <ele>2511.6</ele>
        <time>2019-06-23T08:24:51Z</time>
      </trkpt>
      <trkpt lat="44.77611" lon="5.83866">
        <ele>2515.2</ele>
        <time>2019-06-23T08:25:26Z</time>
      </trkpt>
      <trkpt lat="44.77611" lon="5.83865">
        <ele>2516.4</ele>
        <time>2019-06-23T08:25:41Z</time>
      </trkpt>
      <trkpt lat="44.77611" lon="5.83864">
        <ele>2516.8</ele>
        <time>2019-06-23T08:25:46Z</time>
      </trkpt>
      <trkpt lat="44.77606" lon="5.83856">
        <ele>2528.6</ele>
        <time>2019-06-23T08:29:26Z</time>
      </trkpt>
      <trkpt lat="44.77606" lon="5.83855">
        <ele>2528.4</ele>
        <time>2019-06-23T08:29:31Z</time>
      </trkpt>
      <trkpt lat="44.77606" lon="5.83853">
        <ele>2527.4</ele>
        <time>2019-06-23T08:30:11Z</time>
      </trkpt>
      <trkpt lat="44.77606" lon="5.83852">
        <ele>2527.8</ele>
        <time>2019-06-23T08:30:21Z</time>
      </trkpt>
      <trkpt lat="44.77607" lon="5.83852">
        <ele>2531.4</ele>
        <time>2019-06-23T08:30:46Z</time>
      </trkpt>
      <trkpt lat="44.77607" lon="5.83851">
        <ele>2533.4</ele>
        <time>2019-06-23T08:30:56Z</time>
      </trkpt>
      <trkpt lat="44.77607" lon="5.8385">
        <ele>2533.2</ele>
        <time>2019-06-23T08:31:06Z</time>
      </trkpt>
      <trkpt lat="44.77607" lon="5.8385">
        <ele>2534.8</ele>
        <time>2019-06-23T08:31:11Z</time>
      </trkpt>
      <trkpt lat="44.77606" lon="5.8385">
        <ele>2534.2</ele>
        <time>2019-06-23T08:31:16Z</time>
      </trkpt>
      <trkpt lat="44.77606" lon="5.8385">
        <ele>2534</ele>
        <time>2019-06-23T08:31:21Z</time>
      </trkpt>
      <trkpt lat="44.77605" lon="5.8385">
        <ele>2533.6</ele>
        <time>2019-06-23T08:31:31Z</time>
      </trkpt>
      <trkpt lat="44.77604" lon="5.83849">
        <ele>2533.6</ele>
        <time>2019-06-23T08:31:36Z</time>
      </trkpt>
      <trkpt lat="44.77604" lon="5.83849">
        <ele>2533.2</ele>
        <time>2019-06-23T08:31:41Z</time>
      </trkpt>
      <trkpt lat="44.77603" lon="5.83849">
        <ele>2533.8</ele>
        <time>2019-06-23T08:31:46Z</time>
      </trkpt>
      <trkpt lat="44.77602" lon="5.8385">
        <ele>2533.6</ele>
        <time>2019-06-23T08:31:51Z</time>
      </trkpt>
      <trkpt lat="44.77602" lon="5.83849">
        <ele>2534.4</ele>
        <time>2019-06-23T08:32:01Z</time>
      </trkpt>
      <trkpt lat="44.77601" lon="5.8385">
        <ele>2534.4</ele>
        <time>2019-06-23T08:32:06Z</time>
      </trkpt>
      <trkpt lat="44.776" lon="5.83851">
        <ele>2534.4</ele>
        <time>2019-06-23T08:32:11Z</time>
      </trkpt>
      <trkpt lat="44.77598" lon="5.83851">
        <ele>2534.2</ele>
        <time>2019-06-23T08:32:46Z</time>
      </trkpt>
      <trkpt lat="44.77597" lon="5.83851">
        <ele>2534.8</ele>
        <time>2019-06-23T08:33:36Z</time>
      </trkpt>
      <trkpt lat="44.77596" lon="5.8385">
        <ele>2535</ele>
        <time>2019-06-23T08:33:56Z</time>
      </trkpt>
      <trkpt lat="44.77596" lon="5.83849">
        <ele>2535.2</ele>
        <time>2019-06-23T08:34:06Z</time>
      </trkpt>
      <trkpt lat="44.77596" lon="5.83848">
        <ele>2535.2</ele>
        <time>2019-06-23T08:34:17Z</time>
      </trkpt>
      <trkpt lat="44.77595" lon="5.83848">
        <ele>2535.6</ele>
        <time>2019-06-23T08:34:32Z</time>
      </trkpt>
      <trkpt lat="44.77594" lon="5.83847">
        <ele>2536</ele>
        <time>2019-06-23T08:34:47Z</time>
      </trkpt>
      <trkpt lat="44.77594" lon="5.83847">
        <ele>2536.4</ele>
        <time>2019-06-23T08:34:52Z</time>
      </trkpt>
      <trkpt lat="44.77593" lon="5.83847">
        <ele>2536.8</ele>
        <time>2019-06-23T08:34:57Z</time>
      </trkpt>
      <trkpt lat="44.77593" lon="5.83847">
        <ele>2537</ele>
        <time>2019-06-23T08:35:02Z</time>
      </trkpt>
      <trkpt lat="44.77592" lon="5.83847">
        <ele>2537.2</ele>
        <time>2019-06-23T08:35:07Z</time>
      </trkpt>
      <trkpt lat="44.77592" lon="5.83846">
        <ele>2537.6</ele>
        <time>2019-06-23T08:35:12Z</time>
      </trkpt>
      <trkpt lat="44.77591" lon="5.83847">
        <ele>2537.8</ele>
        <time>2019-06-23T08:35:17Z</time>
      </trkpt>
      <trkpt lat="44.77591" lon="5.83846">
        <ele>2540.2</ele>
        <time>2019-06-23T08:35:27Z</time>
      </trkpt>
      <trkpt lat="44.7759" lon="5.83845">
        <ele>2540</ele>
        <time>2019-06-23T08:35:37Z</time>
      </trkpt>
      <trkpt lat="44.7759" lon="5.83844">
        <ele>2540</ele>
        <time>2019-06-23T08:35:42Z</time>
      </trkpt>
      <trkpt lat="44.7759" lon="5.83843">
        <ele>2540.2</ele>
        <time>2019-06-23T08:35:47Z</time>
      </trkpt>
      <trkpt lat="44.77589" lon="5.83842">
        <ele>2540.2</ele>
        <time>2019-06-23T08:35:52Z</time>
      </trkpt>
      <trkpt lat="44.77589" lon="5.83841">
        <ele>2540.2</ele>
        <time>2019-06-23T08:35:57Z</time>
      </trkpt>
      <trkpt lat="44.77587" lon="5.83842">
        <ele>2540.2</ele>
        <time>2019-06-23T08:36:02Z</time>
      </trkpt>
      <trkpt lat="44.77587" lon="5.83842">
        <ele>2540.2</ele>
        <time>2019-06-23T08:36:07Z</time>
      </trkpt>
      <trkpt lat="44.77586" lon="5.83842">
        <ele>2540.2</ele>
        <time>2019-06-23T08:36:17Z</time>
      </trkpt>
      <trkpt lat="44.77585" lon="5.83842">
        <ele>2540.6</ele>
        <time>2019-06-23T08:36:22Z</time>
      </trkpt>
      <trkpt lat="44.77584" lon="5.8384">
        <ele>2547</ele>
        <time>2019-06-23T08:42:57Z</time>
      </trkpt>
      <trkpt lat="44.77583" lon="5.8384">
        <ele>2547.2</ele>
        <time>2019-06-23T08:43:07Z</time>
      </trkpt>
      <trkpt lat="44.77583" lon="5.8384">
        <ele>2547.4</ele>
        <time>2019-06-23T08:43:12Z</time>
      </trkpt>
      <trkpt lat="44.77582" lon="5.8384">
        <ele>2548</ele>
        <time>2019-06-23T08:43:17Z</time>
      </trkpt>
      <trkpt lat="44.77582" lon="5.8384">
        <ele>2548.2</ele>
        <time>2019-06-23T08:43:22Z</time>
      </trkpt>
      <trkpt lat="44.77581" lon="5.8384">
        <ele>2548.6</ele>
        <time>2019-06-23T08:43:32Z</time>
      </trkpt>
      <trkpt lat="44.7758" lon="5.83838">
        <ele>2551.4</ele>
        <time>2019-06-23T08:43:57Z</time>
      </trkpt>
      <trkpt lat="44.7758" lon="5.83837">
        <ele>2552.2</ele>
        <time>2019-06-23T08:44:12Z</time>
      </trkpt>
      <trkpt lat="44.7758" lon="5.83837">
        <ele>2552</ele>
        <time>2019-06-23T08:44:22Z</time>
      </trkpt>
      <trkpt lat="44.77579" lon="5.83836">
        <ele>2553</ele>
        <time>2019-06-23T08:44:37Z</time>
      </trkpt>
      <trkpt lat="44.77579" lon="5.83837">
        <ele>2552.8</ele>
        <time>2019-06-23T08:44:42Z</time>
      </trkpt>
      <trkpt lat="44.77578" lon="5.83837">
        <ele>2553</ele>
        <time>2019-06-23T08:44:52Z</time>
      </trkpt>
      <trkpt lat="44.77577" lon="5.83836">
        <ele>2551.8</ele>
        <time>2019-06-23T08:45:12Z</time>
      </trkpt>
      <trkpt lat="44.77577" lon="5.83836">
        <ele>2551.8</ele>
        <time>2019-06-23T08:45:22Z</time>
      </trkpt>
      <trkpt lat="44.77577" lon="5.83835">
        <ele>2551</ele>
        <time>2019-06-23T08:46:02Z</time>
      </trkpt>
      <trkpt lat="44.77576" lon="5.83834">
        <ele>2551.2</ele>
        <time>2019-06-23T08:46:07Z</time>
      </trkpt>
      <trkpt lat="44.77575" lon="5.83832">
        <ele>2550.6</ele>
        <time>2019-06-23T08:46:42Z</time>
      </trkpt>
      <trkpt lat="44.77575" lon="5.83832">
        <ele>2551</ele>
        <time>2019-06-23T08:46:52Z</time>
      </trkpt>
      <trkpt lat="44.77574" lon="5.83832">
        <ele>2551.6</ele>
        <time>2019-06-23T08:47:02Z</time>
      </trkpt>
      <trkpt lat="44.77573" lon="5.83833">
        <ele>2551.2</ele>
        <time>2019-06-23T08:47:07Z</time>
      </trkpt>
      <trkpt lat="44.77571" lon="5.83831">
        <ele>2552</ele>
        <time>2019-06-23T08:47:37Z</time>
      </trkpt>
      <trkpt lat="44.77571" lon="5.83831">
        <ele>2552.4</ele>
        <time>2019-06-23T08:47:42Z</time>
      </trkpt>
      <trkpt lat="44.77571" lon="5.83831">
        <ele>2552.6</ele>
        <time>2019-06-23T08:47:47Z</time>
      </trkpt>
      <trkpt lat="44.7757" lon="5.83831">
        <ele>2553</ele>
        <time>2019-06-23T08:47:52Z</time>
      </trkpt>
      <trkpt lat="44.77569" lon="5.83831">
        <ele>2553.8</ele>
        <time>2019-06-23T08:48:02Z</time>
      </trkpt>
      <trkpt lat="44.77568" lon="5.83832">
        <ele>2554.8</ele>
        <time>2019-06-23T08:48:17Z</time>
      </trkpt>
      <trkpt lat="44.77568" lon="5.83832">
        <ele>2555</ele>
        <time>2019-06-23T08:48:22Z</time>
      </trkpt>
      <trkpt lat="44.77567" lon="5.83832">
        <ele>2555.4</ele>
        <time>2019-06-23T08:48:32Z</time>
      </trkpt>
      <trkpt lat="44.77566" lon="5.83832">
        <ele>2555.8</ele>
        <time>2019-06-23T08:48:37Z</time>
      </trkpt>
      <trkpt lat="44.77566" lon="5.83832">
        <ele>2556.8</ele>
        <time>2019-06-23T08:48:42Z</time>
      </trkpt>
      <trkpt lat="44.77565" lon="5.83832">
        <ele>2559.6</ele>
        <time>2019-06-23T08:48:47Z</time>
      </trkpt>
      <trkpt lat="44.77564" lon="5.83832">
        <ele>2559.2</ele>
        <time>2019-06-23T08:48:52Z</time>
      </trkpt>
      <trkpt lat="44.77564" lon="5.83831">
        <ele>2560.2</ele>
        <time>2019-06-23T08:49:07Z</time>
      </trkpt>
      <trkpt lat="44.77564" lon="5.8383">
        <ele>2561.2</ele>
        <time>2019-06-23T08:49:12Z</time>
      </trkpt>
      <trkpt lat="44.77563" lon="5.8383">
        <ele>2561.2</ele>
        <time>2019-06-23T08:49:17Z</time>
      </trkpt>
      <trkpt lat="44.77562" lon="5.8383">
        <ele>2561.4</ele>
        <time>2019-06-23T08:49:22Z</time>
      </trkpt>
      <trkpt lat="44.77562" lon="5.83829">
        <ele>2561.8</ele>
        <time>2019-06-23T08:49:32Z</time>
      </trkpt>
      <trkpt lat="44.77561" lon="5.83829">
        <ele>2561.4</ele>
        <time>2019-06-23T08:49:37Z</time>
      </trkpt>
      <trkpt lat="44.7756" lon="5.83829">
        <ele>2561.8</ele>
        <time>2019-06-23T08:49:42Z</time>
      </trkpt>
      <trkpt lat="44.7756" lon="5.83829">
        <ele>2563.2</ele>
        <time>2019-06-23T08:49:52Z</time>
      </trkpt>
      <trkpt lat="44.77559" lon="5.83829">
        <ele>2563.4</ele>
        <time>2019-06-23T08:49:57Z</time>
      </trkpt>
      <trkpt lat="44.77558" lon="5.83829">
        <ele>2563.8</ele>
        <time>2019-06-23T08:50:02Z</time>
      </trkpt>
      <trkpt lat="44.77558" lon="5.83829">
        <ele>2563.8</ele>
        <time>2019-06-23T08:50:12Z</time>
      </trkpt>
      <trkpt lat="44.77557" lon="5.83829">
        <ele>2565.6</ele>
        <time>2019-06-23T08:50:32Z</time>
      </trkpt>
      <trkpt lat="44.77556" lon="5.83831">
        <ele>2565.4</ele>
        <time>2019-06-23T08:50:42Z</time>
      </trkpt>
      <trkpt lat="44.77555" lon="5.83832">
        <ele>2563</ele>
        <time>2019-06-23T08:50:47Z</time>
      </trkpt>
      <trkpt lat="44.77554" lon="5.83832">
        <ele>2565.6</ele>
        <time>2019-06-23T08:50:57Z</time>
      </trkpt>
      <trkpt lat="44.77554" lon="5.8383">
        <ele>2571.4</ele>
        <time>2019-06-23T08:51:32Z</time>
      </trkpt>
      <trkpt lat="44.77553" lon="5.83829">
        <ele>2572.2</ele>
        <time>2019-06-23T08:51:37Z</time>
      </trkpt>
      <trkpt lat="44.77553" lon="5.83829">
        <ele>2573</ele>
        <time>2019-06-23T08:51:42Z</time>
      </trkpt>
      <trkpt lat="44.77553" lon="5.83828">
        <ele>2574.4</ele>
        <time>2019-06-23T08:51:52Z</time>
      </trkpt>
      <trkpt lat="44.77552" lon="5.83827">
        <ele>2574.4</ele>
        <time>2019-06-23T08:51:57Z</time>
      </trkpt>
      <trkpt lat="44.77552" lon="5.83827">
        <ele>2575</ele>
        <time>2019-06-23T08:52:02Z</time>
      </trkpt>
      <trkpt lat="44.77552" lon="5.83827">
        <ele>2575.8</ele>
        <time>2019-06-23T08:52:07Z</time>
      </trkpt>
      <trkpt lat="44.77551" lon="5.83826">
        <ele>2576.2</ele>
        <time>2019-06-23T08:52:12Z</time>
      </trkpt>
      <trkpt lat="44.7755" lon="5.83826">
        <ele>2576.6</ele>
        <time>2019-06-23T08:52:17Z</time>
      </trkpt>
      <trkpt lat="44.7755" lon="5.83824">
        <ele>2577.2</ele>
        <time>2019-06-23T08:52:22Z</time>
      </trkpt>
      <trkpt lat="44.7755" lon="5.83823">
        <ele>2579.8</ele>
        <time>2019-06-23T08:52:37Z</time>
      </trkpt>
      <trkpt lat="44.77549" lon="5.83823">
        <ele>2579.4</ele>
        <time>2019-06-23T08:52:42Z</time>
      </trkpt>
      <trkpt lat="44.77548" lon="5.83822">
        <ele>2579.8</ele>
        <time>2019-06-23T08:52:47Z</time>
      </trkpt>
      <trkpt lat="44.77548" lon="5.83821">
        <ele>2581.4</ele>
        <time>2019-06-23T08:52:52Z</time>
      </trkpt>
      <trkpt lat="44.77547" lon="5.83819">
        <ele>2582.2</ele>
        <time>2019-06-23T08:52:57Z</time>
      </trkpt>
      <trkpt lat="44.77546" lon="5.83817">
        <ele>2582.4</ele>
        <time>2019-06-23T08:53:02Z</time>
      </trkpt>
      <trkpt lat="44.77544" lon="5.83816">
        <ele>2585.6</ele>
        <time>2019-06-23T08:53:07Z</time>
      </trkpt>
      <trkpt lat="44.77542" lon="5.83817">
        <ele>2587.2</ele>
        <time>2019-06-23T08:53:12Z</time>
      </trkpt>
      <trkpt lat="44.77541" lon="5.83817">
        <ele>2587.4</ele>
        <time>2019-06-23T08:53:27Z</time>
      </trkpt>
      <trkpt lat="44.77541" lon="5.83818">
        <ele>2587.2</ele>
        <time>2019-06-23T08:53:32Z</time>
      </trkpt>
      <trkpt lat="44.77539" lon="5.83819">
        <ele>2588.6</ele>
        <time>2019-06-23T08:53:57Z</time>
      </trkpt>
      <trkpt lat="44.77539" lon="5.83818">
        <ele>2588.6</ele>
        <time>2019-06-23T08:54:07Z</time>
      </trkpt>
      <trkpt lat="44.77539" lon="5.83818">
        <ele>2589</ele>
        <time>2019-06-23T08:54:12Z</time>
      </trkpt>
      <trkpt lat="44.77539" lon="5.83817">
        <ele>2589.6</ele>
        <time>2019-06-23T08:54:17Z</time>
      </trkpt>
      <trkpt lat="44.77539" lon="5.83816">
        <ele>2590.8</ele>
        <time>2019-06-23T08:54:27Z</time>
      </trkpt>
      <trkpt lat="44.77538" lon="5.83815">
        <ele>2592.4</ele>
        <time>2019-06-23T08:54:37Z</time>
      </trkpt>
      <trkpt lat="44.77538" lon="5.83814">
        <ele>2594</ele>
        <time>2019-06-23T08:56:17Z</time>
      </trkpt>
      <trkpt lat="44.77537" lon="5.83814">
        <ele>2593.8</ele>
        <time>2019-06-23T08:56:27Z</time>
      </trkpt>
      <trkpt lat="44.77536" lon="5.83814">
        <ele>2596</ele>
        <time>2019-06-23T08:56:47Z</time>
      </trkpt>
      <trkpt lat="44.77535" lon="5.83815">
        <ele>2598.6</ele>
        <time>2019-06-23T08:56:52Z</time>
      </trkpt>
      <trkpt lat="44.77534" lon="5.83816">
        <ele>2598.8</ele>
        <time>2019-06-23T08:56:57Z</time>
      </trkpt>
      <trkpt lat="44.77533" lon="5.83816">
        <ele>2598.6</ele>
        <time>2019-06-23T08:57:02Z</time>
      </trkpt>
      <trkpt lat="44.77532" lon="5.83816">
        <ele>2598.6</ele>
        <time>2019-06-23T08:57:07Z</time>
      </trkpt>
      <trkpt lat="44.77532" lon="5.83817">
        <ele>2600.8</ele>
        <time>2019-06-23T08:57:12Z</time>
      </trkpt>
      <trkpt lat="44.7753" lon="5.83817">
        <ele>2603.2</ele>
        <time>2019-06-23T08:57:17Z</time>
      </trkpt>
      <trkpt lat="44.77529" lon="5.83816">
        <ele>2600.2</ele>
        <time>2019-06-23T08:57:22Z</time>
      </trkpt>
      <trkpt lat="44.77528" lon="5.83815">
        <ele>2599.4</ele>
        <time>2019-06-23T08:57:27Z</time>
      </trkpt>
      <trkpt lat="44.77526" lon="5.83815">
        <ele>2599.6</ele>
        <time>2019-06-23T08:57:32Z</time>
      </trkpt>
      <trkpt lat="44.77525" lon="5.83813">
        <ele>2600.2</ele>
        <time>2019-06-23T08:57:37Z</time>
      </trkpt>
      <trkpt lat="44.77525" lon="5.83813">
        <ele>2600</ele>
        <time>2019-06-23T08:57:47Z</time>
      </trkpt>
      <trkpt lat="44.77522" lon="5.83814">
        <ele>2601.6</ele>
        <time>2019-06-23T08:57:57Z</time>
      </trkpt>
      <trkpt lat="44.77521" lon="5.83814">
        <ele>2604.2</ele>
        <time>2019-06-23T08:58:02Z</time>
      </trkpt>
      <trkpt lat="44.77519" lon="5.83813">
        <ele>2605.8</ele>
        <time>2019-06-23T08:58:32Z</time>
      </trkpt>
      <trkpt lat="44.77519" lon="5.83812">
        <ele>2606</ele>
        <time>2019-06-23T08:58:42Z</time>
      </trkpt>
      <trkpt lat="44.77519" lon="5.83811">
        <ele>2605</ele>
        <time>2019-06-23T08:59:27Z</time>
      </trkpt>
      <trkpt lat="44.77518" lon="5.83811">
        <ele>2604.4</ele>
        <time>2019-06-23T08:59:32Z</time>
      </trkpt>
      <trkpt lat="44.77518" lon="5.83812">
        <ele>2604</ele>
        <time>2019-06-23T08:59:37Z</time>
      </trkpt>
      <trkpt lat="44.77517" lon="5.83812">
        <ele>2603.4</ele>
        <time>2019-06-23T08:59:42Z</time>
      </trkpt>
      <trkpt lat="44.77516" lon="5.83813">
        <ele>2603.2</ele>
        <time>2019-06-23T08:59:47Z</time>
      </trkpt>
      <trkpt lat="44.77515" lon="5.83813">
        <ele>2603</ele>
        <time>2019-06-23T08:59:52Z</time>
      </trkpt>
      <trkpt lat="44.77515" lon="5.83813">
        <ele>2602.4</ele>
        <time>2019-06-23T09:00:12Z</time>
      </trkpt>
      <trkpt lat="44.77514" lon="5.83812">
        <ele>2602.8</ele>
        <time>2019-06-23T09:00:17Z</time>
      </trkpt>
      <trkpt lat="44.77513" lon="5.83812">
        <ele>2605.4</ele>
        <time>2019-06-23T09:00:22Z</time>
      </trkpt>
      <trkpt lat="44.77511" lon="5.83811">
        <ele>2601.4</ele>
        <time>2019-06-23T09:00:27Z</time>
      </trkpt>
      <trkpt lat="44.7751" lon="5.83811">
        <ele>2603.4</ele>
        <time>2019-06-23T09:00:42Z</time>
      </trkpt>
      <trkpt lat="44.7751" lon="5.83812">
        <ele>2605</ele>
        <time>2019-06-23T09:00:47Z</time>
      </trkpt>
      <trkpt lat="44.7751" lon="5.83812">
        <ele>2605</ele>
        <time>2019-06-23T09:00:52Z</time>
      </trkpt>
      <trkpt lat="44.77509" lon="5.83813">
        <ele>2607</ele>
        <time>2019-06-23T09:00:57Z</time>
      </trkpt>
      <trkpt lat="44.77508" lon="5.83813">
        <ele>2606.8</ele>
        <time>2019-06-23T09:01:07Z</time>
      </trkpt>
      <trkpt lat="44.77508" lon="5.83813">
        <ele>2608</ele>
        <time>2019-06-23T09:01:17Z</time>
      </trkpt>
      <trkpt lat="44.77508" lon="5.83814">
        <ele>2608.2</ele>
        <time>2019-06-23T09:01:23Z</time>
      </trkpt>
      <trkpt lat="44.77507" lon="5.83815">
        <ele>2608.6</ele>
        <time>2019-06-23T09:01:33Z</time>
      </trkpt>
      <trkpt lat="44.77507" lon="5.83816">
        <ele>2620.2</ele>
        <time>2019-06-23T09:03:33Z</time>
      </trkpt>
      <trkpt lat="44.77507" lon="5.83817">
        <ele>2619.2</ele>
        <time>2019-06-23T09:03:43Z</time>
      </trkpt>
      <trkpt lat="44.77506" lon="5.83818">
        <ele>2621</ele>
        <time>2019-06-23T09:04:08Z</time>
      </trkpt>
      <trkpt lat="44.77505" lon="5.83818">
        <ele>2621.4</ele>
        <time>2019-06-23T09:04:13Z</time>
      </trkpt>
      <trkpt lat="44.77504" lon="5.83819">
        <ele>2622.4</ele>
        <time>2019-06-23T09:04:33Z</time>
      </trkpt>
      <trkpt lat="44.77503" lon="5.8382">
        <ele>2624.2</ele>
        <time>2019-06-23T09:04:38Z</time>
      </trkpt>
      <trkpt lat="44.77503" lon="5.83821">
        <ele>2627.2</ele>
        <time>2019-06-23T09:04:43Z</time>
      </trkpt>
      <trkpt lat="44.77503" lon="5.83822">
        <ele>2626.8</ele>
        <time>2019-06-23T09:04:48Z</time>
      </trkpt>
      <trkpt lat="44.77502" lon="5.83822">
        <ele>2626</ele>
        <time>2019-06-23T09:05:18Z</time>
      </trkpt>
      <trkpt lat="44.77502" lon="5.83823">
        <ele>2626.2</ele>
        <time>2019-06-23T09:05:23Z</time>
      </trkpt>
      <trkpt lat="44.775" lon="5.83824">
        <ele>2630</ele>
        <time>2019-06-23T09:10:43Z</time>
      </trkpt>
      <trkpt lat="44.775" lon="5.83825">
        <ele>2629.8</ele>
        <time>2019-06-23T09:11:43Z</time>
      </trkpt>
      <trkpt lat="44.775" lon="5.83826">
        <ele>2629.8</ele>
        <time>2019-06-23T09:12:08Z</time>
      </trkpt>
      <trkpt lat="44.775" lon="5.83828">
        <ele>2629.8</ele>
        <time>2019-06-23T09:12:23Z</time>
      </trkpt>
      <trkpt lat="44.775" lon="5.83829">
        <ele>2629.8</ele>
        <time>2019-06-23T09:12:28Z</time>
      </trkpt>
      <trkpt lat="44.77501" lon="5.8383">
        <ele>2630.2</ele>
        <time>2019-06-23T09:12:33Z</time>
      </trkpt>
      <trkpt lat="44.77501" lon="5.83831">
        <ele>2630.6</ele>
        <time>2019-06-23T09:12:43Z</time>
      </trkpt>
      <trkpt lat="44.77501" lon="5.83832">
        <ele>2630.8</ele>
        <time>2019-06-23T09:12:48Z</time>
      </trkpt>
      <trkpt lat="44.77501" lon="5.83832">
        <ele>2632.4</ele>
        <time>2019-06-23T09:13:13Z</time>
      </trkpt>
      <trkpt lat="44.77501" lon="5.83833">
        <ele>2632.6</ele>
        <time>2019-06-23T09:13:23Z</time>
      </trkpt>
      <trkpt lat="44.77501" lon="5.83835">
        <ele>2638.6</ele>
        <time>2019-06-23T09:14:38Z</time>
      </trkpt>
      <trkpt lat="44.775" lon="5.83836">
        <ele>2643.4</ele>
        <time>2019-06-23T09:15:58Z</time>
      </trkpt>
      <trkpt lat="44.77499" lon="5.83837">
        <ele>2646</ele>
        <time>2019-06-23T09:16:03Z</time>
      </trkpt>
      <trkpt lat="44.77499" lon="5.83838">
        <ele>2646.8</ele>
        <time>2019-06-23T09:16:18Z</time>
      </trkpt>
      <trkpt lat="44.77499" lon="5.83838">
        <ele>2647</ele>
        <time>2019-06-23T09:16:23Z</time>
      </trkpt>
      <trkpt lat="44.77498" lon="5.83839">
        <ele>2647</ele>
        <time>2019-06-23T09:16:29Z</time>
      </trkpt>
      <trkpt lat="44.77497" lon="5.8384">
        <ele>2652.4</ele>
        <time>2019-06-23T09:17:09Z</time>
      </trkpt>
      <trkpt lat="44.77498" lon="5.8384">
        <ele>2656.8</ele>
        <time>2019-06-23T09:17:59Z</time>
      </trkpt>
      <trkpt lat="44.77499" lon="5.83841">
        <ele>2657</ele>
        <time>2019-06-23T09:18:04Z</time>
      </trkpt>
      <trkpt lat="44.775" lon="5.83842">
        <ele>2657</ele>
        <time>2019-06-23T09:18:14Z</time>
      </trkpt>
      <trkpt lat="44.77501" lon="5.83843">
        <ele>2656.8</ele>
        <time>2019-06-23T09:18:19Z</time>
      </trkpt>
      <trkpt lat="44.77501" lon="5.83844">
        <ele>2656.4</ele>
        <time>2019-06-23T09:18:24Z</time>
      </trkpt>
      <trkpt lat="44.77501" lon="5.83845">
        <ele>2657</ele>
        <time>2019-06-23T09:18:34Z</time>
      </trkpt>
      <trkpt lat="44.77501" lon="5.83846">
        <ele>2657.2</ele>
        <time>2019-06-23T09:18:44Z</time>
      </trkpt>
      <trkpt lat="44.77501" lon="5.83847">
        <ele>2665</ele>
        <time>2019-06-23T09:20:24Z</time>
      </trkpt>
      <trkpt lat="44.77501" lon="5.83847">
        <ele>2665.8</ele>
        <time>2019-06-23T09:20:29Z</time>
      </trkpt>
      <trkpt lat="44.775" lon="5.83849">
        <ele>2666.6</ele>
        <time>2019-06-23T09:20:34Z</time>
      </trkpt>
      <trkpt lat="44.775" lon="5.8385">
        <ele>2668.6</ele>
        <time>2019-06-23T09:20:49Z</time>
      </trkpt>
      <trkpt lat="44.77499" lon="5.83851">
        <ele>2670.4</ele>
        <time>2019-06-23T09:20:54Z</time>
      </trkpt>
      <trkpt lat="44.77498" lon="5.83851">
        <ele>2670.4</ele>
        <time>2019-06-23T09:20:59Z</time>
      </trkpt>
      <trkpt lat="44.77497" lon="5.83852">
        <ele>2671.4</ele>
        <time>2019-06-23T09:21:09Z</time>
      </trkpt>
      <trkpt lat="44.77496" lon="5.83852">
        <ele>2671</ele>
        <time>2019-06-23T09:21:14Z</time>
      </trkpt>
      <trkpt lat="44.77497" lon="5.83854">
        <ele>2669.4</ele>
        <time>2019-06-23T09:21:25Z</time>
      </trkpt>
      <trkpt lat="44.77497" lon="5.83855">
        <ele>2669.2</ele>
        <time>2019-06-23T09:21:35Z</time>
      </trkpt>
      <trkpt lat="44.77497" lon="5.83856">
        <ele>2668.8</ele>
        <time>2019-06-23T09:21:40Z</time>
      </trkpt>
      <trkpt lat="44.77498" lon="5.83857">
        <ele>2668.2</ele>
        <time>2019-06-23T09:21:50Z</time>
      </trkpt>
      <trkpt lat="44.77498" lon="5.83858">
        <ele>2667</ele>
        <time>2019-06-23T09:21:55Z</time>
      </trkpt>
      <trkpt lat="44.77499" lon="5.83858">
        <ele>2667</ele>
        <time>2019-06-23T09:23:00Z</time>
      </trkpt>
      <trkpt lat="44.775" lon="5.83858">
        <ele>2667.6</ele>
        <time>2019-06-23T09:23:35Z</time>
      </trkpt>
      <trkpt lat="44.77501" lon="5.83858">
        <ele>2669.2</ele>
        <time>2019-06-23T09:24:35Z</time>
      </trkpt>
      <trkpt lat="44.77502" lon="5.83858">
        <ele>2670.6</ele>
        <time>2019-06-23T09:24:45Z</time>
      </trkpt>
      <trkpt lat="44.77502" lon="5.83865">
        <ele>2667</ele>
        <time>2019-06-23T09:25:15Z</time>
      </trkpt>
      <trkpt lat="44.77502" lon="5.83867">
        <ele>2666.4</ele>
        <time>2019-06-23T09:25:20Z</time>
      </trkpt>
      <trkpt lat="44.77502" lon="5.83868">
        <ele>2666.2</ele>
        <time>2019-06-23T09:25:25Z</time>
      </trkpt>
      <trkpt lat="44.77502" lon="5.83869">
        <ele>2668.2</ele>
        <time>2019-06-23T09:25:30Z</time>
      </trkpt>
      <trkpt lat="44.77501" lon="5.8387">
        <ele>2667.4</ele>
        <time>2019-06-23T09:25:35Z</time>
      </trkpt>
      <trkpt lat="44.775" lon="5.83871">
        <ele>2666.8</ele>
        <time>2019-06-23T09:25:45Z</time>
      </trkpt>
      <trkpt lat="44.77499" lon="5.83871">
        <ele>2679</ele>
        <time>2019-06-23T09:28:05Z</time>
      </trkpt>
      <trkpt lat="44.775" lon="5.83876">
        <ele>2679.6</ele>
        <time>2019-06-23T09:31:05Z</time>
      </trkpt>
      <trkpt lat="44.77501" lon="5.83877">
        <ele>2677.4</ele>
        <time>2019-06-23T09:31:10Z</time>
      </trkpt>
      <trkpt lat="44.77502" lon="5.83879">
        <ele>2677.6</ele>
        <time>2019-06-23T09:31:15Z</time>
      </trkpt>
      <trkpt lat="44.77502" lon="5.8388">
        <ele>2678</ele>
        <time>2019-06-23T09:31:20Z</time>
      </trkpt>
      <trkpt lat="44.77503" lon="5.83881">
        <ele>2677.8</ele>
        <time>2019-06-23T09:31:25Z</time>
      </trkpt>
      <trkpt lat="44.77505" lon="5.83884">
        <ele>2676.8</ele>
        <time>2019-06-23T09:31:30Z</time>
      </trkpt>
      <trkpt lat="44.77505" lon="5.83885">
        <ele>2677</ele>
        <time>2019-06-23T09:31:40Z</time>
      </trkpt>
      <trkpt lat="44.77505" lon="5.83886">
        <ele>2676.4</ele>
        <time>2019-06-23T09:32:00Z</time>
      </trkpt>
      <trkpt lat="44.77506" lon="5.83887">
        <ele>2676.6</ele>
        <time>2019-06-23T09:32:05Z</time>
      </trkpt>
      <trkpt lat="44.77508" lon="5.83886">
        <ele>2676.2</ele>
        <time>2019-06-23T09:32:10Z</time>
      </trkpt>
      <trkpt lat="44.7751" lon="5.83886">
        <ele>2675.6</ele>
        <time>2019-06-23T09:32:15Z</time>
      </trkpt>
      <trkpt lat="44.77511" lon="5.83887">
        <ele>2674.6</ele>
        <time>2019-06-23T09:32:25Z</time>
      </trkpt>
      <trkpt lat="44.77511" lon="5.83887">
        <ele>2673.8</ele>
        <time>2019-06-23T09:32:30Z</time>
      </trkpt>
      <trkpt lat="44.77513" lon="5.83887">
        <ele>2673.4</ele>
        <time>2019-06-23T09:32:35Z</time>
      </trkpt>
      <trkpt lat="44.77513" lon="5.83888">
        <ele>2672.8</ele>
        <time>2019-06-23T09:32:40Z</time>
      </trkpt>
      <trkpt lat="44.77514" lon="5.8389">
        <ele>2670.6</ele>
        <time>2019-06-23T09:32:45Z</time>
      </trkpt>
      <trkpt lat="44.77515" lon="5.83891">
        <ele>2670.4</ele>
        <time>2019-06-23T09:32:50Z</time>
      </trkpt>
      <trkpt lat="44.77516" lon="5.83892">
        <ele>2670.4</ele>
        <time>2019-06-23T09:32:55Z</time>
      </trkpt>
      <trkpt lat="44.77517" lon="5.83891">
        <ele>2670.2</ele>
        <time>2019-06-23T09:33:00Z</time>
      </trkpt>
      <trkpt lat="44.77519" lon="5.8389">
        <ele>2671.4</ele>
        <time>2019-06-23T09:33:05Z</time>
      </trkpt>
      <trkpt lat="44.77521" lon="5.8389">
        <ele>2673</ele>
        <time>2019-06-23T09:33:10Z</time>
      </trkpt>
      <trkpt lat="44.77521" lon="5.83889">
        <ele>2674.8</ele>
        <time>2019-06-23T09:33:15Z</time>
      </trkpt>
      <trkpt lat="44.77523" lon="5.83886">
        <ele>2678.4</ele>
        <time>2019-06-23T09:33:20Z</time>
      </trkpt>
      <trkpt lat="44.77525" lon="5.83885">
        <ele>2679.4</ele>
        <time>2019-06-23T09:33:25Z</time>
      </trkpt>
      <trkpt lat="44.77526" lon="5.83884">
        <ele>2682.2</ele>
        <time>2019-06-23T09:33:30Z</time>
      </trkpt>
      <trkpt lat="44.77527" lon="5.8388">
        <ele>2682.8</ele>
        <time>2019-06-23T09:33:35Z</time>
      </trkpt>
      <trkpt lat="44.77529" lon="5.83877">
        <ele>2681.2</ele>
        <time>2019-06-23T09:33:40Z</time>
      </trkpt>
      <trkpt lat="44.77531" lon="5.83872">
        <ele>2683</ele>
        <time>2019-06-23T09:33:45Z</time>
      </trkpt>
      <trkpt lat="44.77534" lon="5.83871">
        <ele>2686.2</ele>
        <time>2019-06-23T09:33:55Z</time>
      </trkpt>
      <trkpt lat="44.77535" lon="5.83872">
        <ele>2690</ele>
        <time>2019-06-23T09:34:00Z</time>
      </trkpt>
      <trkpt lat="44.77536" lon="5.83873">
        <ele>2691.8</ele>
        <time>2019-06-23T09:34:05Z</time>
      </trkpt>
      <trkpt lat="44.77536" lon="5.83876">
        <ele>2694</ele>
        <time>2019-06-23T09:34:15Z</time>
      </trkpt>
      <trkpt lat="44.77537" lon="5.83877">
        <ele>2696</ele>
        <time>2019-06-23T09:34:45Z</time>
      </trkpt>
      <trkpt lat="44.77538" lon="5.83877">
        <ele>2696.2</ele>
        <time>2019-06-23T09:34:50Z</time>
      </trkpt>
      <trkpt lat="44.77539" lon="5.83879">
        <ele>2696.4</ele>
        <time>2019-06-23T09:34:55Z</time>
      </trkpt>
      <trkpt lat="44.7754" lon="5.8388">
        <ele>2698.4</ele>
        <time>2019-06-23T09:35:00Z</time>
      </trkpt>
      <trkpt lat="44.77542" lon="5.83885">
        <ele>2698.2</ele>
        <time>2019-06-23T09:35:05Z</time>
      </trkpt>
      <trkpt lat="44.77544" lon="5.83888">
        <ele>2699.4</ele>
        <time>2019-06-23T09:35:10Z</time>
      </trkpt>
      <trkpt lat="44.77546" lon="5.8389">
        <ele>2699.4</ele>
        <time>2019-06-23T09:35:15Z</time>
      </trkpt>
      <trkpt lat="44.77547" lon="5.83892">
        <ele>2702</ele>
        <time>2019-06-23T09:35:20Z</time>
      </trkpt>
      <trkpt lat="44.77548" lon="5.83893">
        <ele>2702.2</ele>
        <time>2019-06-23T09:35:25Z</time>
      </trkpt>
      <trkpt lat="44.7755" lon="5.83898">
        <ele>2702.4</ele>
        <time>2019-06-23T09:35:40Z</time>
      </trkpt>
      <trkpt lat="44.77551" lon="5.839">
        <ele>2701.4</ele>
        <time>2019-06-23T09:35:45Z</time>
      </trkpt>
      <trkpt lat="44.77552" lon="5.83901">
        <ele>2699.8</ele>
        <time>2019-06-23T09:35:50Z</time>
      </trkpt>
      <trkpt lat="44.77554" lon="5.83901">
        <ele>2699.2</ele>
        <time>2019-06-23T09:35:55Z</time>
      </trkpt>
      <trkpt lat="44.77556" lon="5.83903">
        <ele>2698.2</ele>
        <time>2019-06-23T09:36:00Z</time>
      </trkpt>
      <trkpt lat="44.77557" lon="5.83904">
        <ele>2698.4</ele>
        <time>2019-06-23T09:36:10Z</time>
      </trkpt>
      <trkpt lat="44.77557" lon="5.83905">
        <ele>2697.8</ele>
        <time>2019-06-23T09:36:45Z</time>
      </trkpt>
      <trkpt lat="44.77558" lon="5.83906">
        <ele>2697.6</ele>
        <time>2019-06-23T09:36:50Z</time>
      </trkpt>
      <trkpt lat="44.77559" lon="5.83907">
        <ele>2697.6</ele>
        <time>2019-06-23T09:36:55Z</time>
      </trkpt>
      <trkpt lat="44.77561" lon="5.83908">
        <ele>2698.2</ele>
        <time>2019-06-23T09:37:00Z</time>
      </trkpt>
      <trkpt lat="44.77562" lon="5.83909">
        <ele>2697.6</ele>
        <time>2019-06-23T09:37:05Z</time>
      </trkpt>
      <trkpt lat="44.77563" lon="5.8391">
        <ele>2697.4</ele>
        <time>2019-06-23T09:37:10Z</time>
      </trkpt>
      <trkpt lat="44.77565" lon="5.83913">
        <ele>2699.6</ele>
        <time>2019-06-23T09:37:15Z</time>
      </trkpt>
      <trkpt lat="44.77568" lon="5.83916">
        <ele>2699.2</ele>
        <time>2019-06-23T09:37:20Z</time>
      </trkpt>
      <trkpt lat="44.7757" lon="5.83918">
        <ele>2696.8</ele>
        <time>2019-06-23T09:37:25Z</time>
      </trkpt>
      <trkpt lat="44.7757" lon="5.83919">
        <ele>2695.6</ele>
        <time>2019-06-23T09:37:45Z</time>
      </trkpt>
      <trkpt lat="44.77571" lon="5.8392">
        <ele>2695.6</ele>
        <time>2019-06-23T09:37:50Z</time>
      </trkpt>
      <trkpt lat="44.77572" lon="5.8392">
        <ele>2695.4</ele>
        <time>2019-06-23T09:37:55Z</time>
      </trkpt>
      <trkpt lat="44.77572" lon="5.83921">
        <ele>2695.4</ele>
        <time>2019-06-23T09:38:25Z</time>
      </trkpt>
      <trkpt lat="44.77572" lon="5.83921">
        <ele>2695.4</ele>
        <time>2019-06-23T09:39:00Z</time>
      </trkpt>
      <trkpt lat="44.77572" lon="5.83922">
        <ele>2695.4</ele>
        <time>2019-06-23T09:39:05Z</time>
      </trkpt>
      <trkpt lat="44.77572" lon="5.83923">
        <ele>2695.2</ele>
        <time>2019-06-23T09:39:15Z</time>
      </trkpt>
      <trkpt lat="44.77572" lon="5.83924">
        <ele>2694</ele>
        <time>2019-06-23T09:39:20Z</time>
      </trkpt>
      <trkpt lat="44.77573" lon="5.83926">
        <ele>2694.6</ele>
        <time>2019-06-23T09:39:25Z</time>
      </trkpt>
      <trkpt lat="44.77574" lon="5.83928">
        <ele>2692.8</ele>
        <time>2019-06-23T09:39:30Z</time>
      </trkpt>
      <trkpt lat="44.77575" lon="5.83929">
        <ele>2693.6</ele>
        <time>2019-06-23T09:39:35Z</time>
      </trkpt>
      <trkpt lat="44.77575" lon="5.8393">
        <ele>2695.2</ele>
        <time>2019-06-23T09:39:40Z</time>
      </trkpt>
      <trkpt lat="44.77573" lon="5.83933">
        <ele>2719.4</ele>
        <time>2019-06-23T09:49:27Z</time>
      </trkpt>
      <trkpt lat="44.7757" lon="5.83932">
        <ele>2719.4</ele>
        <time>2019-06-23T09:49:32Z</time>
      </trkpt>
      <trkpt lat="44.77567" lon="5.83933">
        <ele>2717.6</ele>
        <time>2019-06-23T09:49:42Z</time>
      </trkpt>
      <trkpt lat="44.77567" lon="5.83934">
        <ele>2717.6</ele>
        <time>2019-06-23T09:49:52Z</time>
      </trkpt>
      <trkpt lat="44.77566" lon="5.83935">
        <ele>2719</ele>
        <time>2019-06-23T09:49:57Z</time>
      </trkpt>
      <trkpt lat="44.77566" lon="5.83937">
        <ele>2717.6</ele>
        <time>2019-06-23T09:50:07Z</time>
      </trkpt>
      <trkpt lat="44.77566" lon="5.83937">
        <ele>2718</ele>
        <time>2019-06-23T09:50:12Z</time>
      </trkpt>
      <trkpt lat="44.77563" lon="5.83937">
        <ele>2717.8</ele>
        <time>2019-06-23T09:50:17Z</time>
      </trkpt>
      <trkpt lat="44.7756" lon="5.83937">
        <ele>2719.4</ele>
        <time>2019-06-23T09:50:22Z</time>
      </trkpt>
      <trkpt lat="44.7756" lon="5.83937">
        <ele>2719.2</ele>
        <time>2019-06-23T09:50:27Z</time>
      </trkpt>
      <trkpt lat="44.77559" lon="5.83938">
        <ele>2719.2</ele>
        <time>2019-06-23T09:50:42Z</time>
      </trkpt>
      <trkpt lat="44.77557" lon="5.83942">
        <ele>2720.2</ele>
        <time>2019-06-23T09:53:12Z</time>
      </trkpt>
      <trkpt lat="44.77557" lon="5.83943">
        <ele>2719</ele>
        <time>2019-06-23T09:53:52Z</time>
      </trkpt>
      <trkpt lat="44.77557" lon="5.83944">
        <ele>2718.4</ele>
        <time>2019-06-23T09:54:07Z</time>
      </trkpt>
      <trkpt lat="44.77559" lon="5.83946">
        <ele>2723.4</ele>
        <time>2019-06-23T09:55:28Z</time>
      </trkpt>
      <trkpt lat="44.77565" lon="5.83948">
        <ele>2723.4</ele>
        <time>2019-06-23T09:55:33Z</time>
      </trkpt>
      <trkpt lat="44.77565" lon="5.8395">
        <ele>2723.4</ele>
        <time>2019-06-23T09:55:38Z</time>
      </trkpt>
      <trkpt lat="44.77567" lon="5.83952">
        <ele>2723.4</ele>
        <time>2019-06-23T09:55:43Z</time>
      </trkpt>
      <trkpt lat="44.77565" lon="5.83956">
        <ele>2723.6</ele>
        <time>2019-06-23T09:58:39Z</time>
      </trkpt>
      <trkpt lat="44.77563" lon="5.83956">
        <ele>2725.4</ele>
        <time>2019-06-23T09:58:44Z</time>
      </trkpt>
      <trkpt lat="44.77557" lon="5.83955">
        <ele>2725.4</ele>
        <time>2019-06-23T09:58:49Z</time>
      </trkpt>
      <trkpt lat="44.77556" lon="5.83954">
        <ele>2725.4</ele>
        <time>2019-06-23T09:58:54Z</time>
      </trkpt>
      <trkpt lat="44.77549" lon="5.83955">
        <ele>2714.6</ele>
        <time>2019-06-23T10:02:01Z</time>
      </trkpt>
      <trkpt lat="44.77539" lon="5.83957">
        <ele>2783.2</ele>
        <time>2019-06-23T10:56:57Z</time>
      </trkpt>
      <trkpt lat="44.77539" lon="5.83957">
        <ele>2784.8</ele>
        <time>2019-06-23T10:57:02Z</time>
      </trkpt>
      <trkpt lat="44.77538" lon="5.83956">
        <ele>2785.2</ele>
        <time>2019-06-23T10:57:07Z</time>
      </trkpt>
      <trkpt lat="44.77535" lon="5.83956">
        <ele>2791.4</ele>
        <time>2019-06-23T10:57:32Z</time>
      </trkpt>
      <trkpt lat="44.77533" lon="5.83956">
        <ele>2790.8</ele>
        <time>2019-06-23T10:57:37Z</time>
      </trkpt>
      <trkpt lat="44.77532" lon="5.83955">
        <ele>2791.6</ele>
        <time>2019-06-23T10:58:27Z</time>
      </trkpt>
      <trkpt lat="44.77531" lon="5.83953">
        <ele>2791.4</ele>
        <time>2019-06-23T10:58:32Z</time>
      </trkpt>
      <trkpt lat="44.7753" lon="5.83952">
        <ele>2792</ele>
        <time>2019-06-23T10:58:42Z</time>
      </trkpt>
      <trkpt lat="44.7753" lon="5.83951">
        <ele>2792.4</ele>
        <time>2019-06-23T10:59:27Z</time>
      </trkpt>
      <trkpt lat="44.77531" lon="5.83951">
        <ele>2792</ele>
        <time>2019-06-23T11:00:22Z</time>
      </trkpt>
      <trkpt lat="44.77531" lon="5.83951">
        <ele>2792</ele>
        <time>2019-06-23T11:00:27Z</time>
      </trkpt>
      <trkpt lat="44.7753" lon="5.83946">
        <ele>2796.2</ele>
        <time>2019-06-23T11:15:37Z</time>
      </trkpt>
      <trkpt lat="44.77528" lon="5.83945">
        <ele>2795.2</ele>
        <time>2019-06-23T11:43:57Z</time>
      </trkpt>
      <trkpt lat="44.77528" lon="5.83944">
        <ele>2794.8</ele>
        <time>2019-06-23T11:44:12Z</time>
      </trkpt>
      <trkpt lat="44.77528" lon="5.83942">
        <ele>2792.6</ele>
        <time>2019-06-23T11:44:17Z</time>
      </trkpt>
      <trkpt lat="44.77526" lon="5.83943">
        <ele>2793.6</ele>
        <time>2019-06-23T11:44:27Z</time>
      </trkpt>
      <trkpt lat="44.77519" lon="5.83947">
        <ele>2794</ele>
        <time>2019-06-23T11:44:37Z</time>
      </trkpt>
      <trkpt lat="44.77515" lon="5.83949">
        <ele>2793.2</ele>
        <time>2019-06-23T11:44:42Z</time>
      </trkpt>
      <trkpt lat="44.77511" lon="5.83947">
        <ele>2791.4</ele>
        <time>2019-06-23T11:44:47Z</time>
      </trkpt>
      <trkpt lat="44.77508" lon="5.83942">
        <ele>2791.2</ele>
        <time>2019-06-23T11:44:52Z</time>
      </trkpt>
      <trkpt lat="44.77506" lon="5.83939">
        <ele>2794.6</ele>
        <time>2019-06-23T11:44:57Z</time>
      </trkpt>
      <trkpt lat="44.77503" lon="5.83938">
        <ele>2790.2</ele>
        <time>2019-06-23T11:45:02Z</time>
      </trkpt>
      <trkpt lat="44.775" lon="5.8394">
        <ele>2789.4</ele>
        <time>2019-06-23T11:45:07Z</time>
      </trkpt>
      <trkpt lat="44.77498" lon="5.83938">
        <ele>2789</ele>
        <time>2019-06-23T11:45:12Z</time>
      </trkpt>
      <trkpt lat="44.77495" lon="5.83939">
        <ele>2789.2</ele>
        <time>2019-06-23T11:45:17Z</time>
      </trkpt>
      <trkpt lat="44.77492" lon="5.83939">
        <ele>2788.4</ele>
        <time>2019-06-23T11:45:22Z</time>
      </trkpt>
      <trkpt lat="44.77489" lon="5.83939">
        <ele>2786.4</ele>
        <time>2019-06-23T11:45:27Z</time>
      </trkpt>
      <trkpt lat="44.77486" lon="5.83938">
        <ele>2784.2</ele>
        <time>2019-06-23T11:45:32Z</time>
      </trkpt>
      <trkpt lat="44.77482" lon="5.83937">
        <ele>2784.8</ele>
        <time>2019-06-23T11:45:37Z</time>
      </trkpt>
      <trkpt lat="44.77479" lon="5.83935">
        <ele>2786</ele>
        <time>2019-06-23T11:45:42Z</time>
      </trkpt>
      <trkpt lat="44.77477" lon="5.83934">
        <ele>2783.2</ele>
        <time>2019-06-23T11:45:47Z</time>
      </trkpt>
      <trkpt lat="44.77469" lon="5.83929">
        <ele>2783.2</ele>
        <time>2019-06-23T11:46:02Z</time>
      </trkpt>
      <trkpt lat="44.77466" lon="5.83925">
        <ele>2782</ele>
        <time>2019-06-23T11:46:07Z</time>
      </trkpt>
      <trkpt lat="44.77463" lon="5.83923">
        <ele>2778</ele>
        <time>2019-06-23T11:46:12Z</time>
      </trkpt>
      <trkpt lat="44.77461" lon="5.83922">
        <ele>2780</ele>
        <time>2019-06-23T11:46:17Z</time>
      </trkpt>
      <trkpt lat="44.77461" lon="5.83921">
        <ele>2770.8</ele>
        <time>2019-06-23T11:46:22Z</time>
      </trkpt>
      <trkpt lat="44.77458" lon="5.83921">
        <ele>2775.6</ele>
        <time>2019-06-23T11:47:12Z</time>
      </trkpt>
      <trkpt lat="44.77455" lon="5.83921">
        <ele>2775.4</ele>
        <time>2019-06-23T11:47:17Z</time>
      </trkpt>
      <trkpt lat="44.77453" lon="5.83917">
        <ele>2774.8</ele>
        <time>2019-06-23T11:47:22Z</time>
      </trkpt>
      <trkpt lat="44.77451" lon="5.83913">
        <ele>2772.8</ele>
        <time>2019-06-23T11:47:27Z</time>
      </trkpt>
      <trkpt lat="44.77446" lon="5.8391">
        <ele>2770</ele>
        <time>2019-06-23T11:47:37Z</time>
      </trkpt>
      <trkpt lat="44.77445" lon="5.83903">
        <ele>2770</ele>
        <time>2019-06-23T11:47:42Z</time>
      </trkpt>
      <trkpt lat="44.77443" lon="5.839">
        <ele>2768.2</ele>
        <time>2019-06-23T11:47:47Z</time>
      </trkpt>
      <trkpt lat="44.77442" lon="5.83895">
        <ele>2769.2</ele>
        <time>2019-06-23T11:47:52Z</time>
      </trkpt>
      <trkpt lat="44.77439" lon="5.83891">
        <ele>2768.4</ele>
        <time>2019-06-23T11:47:57Z</time>
      </trkpt>
      <trkpt lat="44.77431" lon="5.8389">
        <ele>2762.8</ele>
        <time>2019-06-23T11:48:17Z</time>
      </trkpt>
      <trkpt lat="44.77428" lon="5.83893">
        <ele>2762.2</ele>
        <time>2019-06-23T11:48:22Z</time>
      </trkpt>
      <trkpt lat="44.77424" lon="5.83891">
        <ele>2758.2</ele>
        <time>2019-06-23T11:48:27Z</time>
      </trkpt>
      <trkpt lat="44.77422" lon="5.83887">
        <ele>2761.2</ele>
        <time>2019-06-23T11:48:32Z</time>
      </trkpt>
      <trkpt lat="44.77419" lon="5.83885">
        <ele>2756.2</ele>
        <time>2019-06-23T11:48:42Z</time>
      </trkpt>
      <trkpt lat="44.77417" lon="5.83885">
        <ele>2753.2</ele>
        <time>2019-06-23T11:48:47Z</time>
      </trkpt>
      <trkpt lat="44.77412" lon="5.83885">
        <ele>2749.2</ele>
        <time>2019-06-23T11:49:02Z</time>
      </trkpt>
      <trkpt lat="44.77411" lon="5.83889">
        <ele>2750</ele>
        <time>2019-06-23T11:49:07Z</time>
      </trkpt>
      <trkpt lat="44.77409" lon="5.83892">
        <ele>2753.8</ele>
        <time>2019-06-23T11:49:12Z</time>
      </trkpt>
      <trkpt lat="44.77407" lon="5.83891">
        <ele>2748</ele>
        <time>2019-06-23T11:49:22Z</time>
      </trkpt>
      <trkpt lat="44.77404" lon="5.83888">
        <ele>2744</ele>
        <time>2019-06-23T11:49:32Z</time>
      </trkpt>
      <trkpt lat="44.77404" lon="5.83883">
        <ele>2745.2</ele>
        <time>2019-06-23T11:49:37Z</time>
      </trkpt>
      <trkpt lat="44.77402" lon="5.83879">
        <ele>2744.8</ele>
        <time>2019-06-23T11:49:42Z</time>
      </trkpt>
      <trkpt lat="44.774" lon="5.83875">
        <ele>2742</ele>
        <time>2019-06-23T11:49:47Z</time>
      </trkpt>
      <trkpt lat="44.77399" lon="5.83871">
        <ele>2742.8</ele>
        <time>2019-06-23T11:49:52Z</time>
      </trkpt>
      <trkpt lat="44.77398" lon="5.83866">
        <ele>2742</ele>
        <time>2019-06-23T11:49:57Z</time>
      </trkpt>
      <trkpt lat="44.77398" lon="5.83861">
        <ele>2738</ele>
        <time>2019-06-23T11:50:02Z</time>
      </trkpt>
      <trkpt lat="44.77396" lon="5.83858">
        <ele>2741.4</ele>
        <time>2019-06-23T11:50:07Z</time>
      </trkpt>
      <trkpt lat="44.77395" lon="5.83855">
        <ele>2735</ele>
        <time>2019-06-23T11:50:12Z</time>
      </trkpt>
      <trkpt lat="44.77394" lon="5.83852">
        <ele>2735.4</ele>
        <time>2019-06-23T11:50:17Z</time>
      </trkpt>
      <trkpt lat="44.77396" lon="5.83848">
        <ele>2735.2</ele>
        <time>2019-06-23T11:50:22Z</time>
      </trkpt>
      <trkpt lat="44.77396" lon="5.83845">
        <ele>2735.4</ele>
        <time>2019-06-23T11:50:27Z</time>
      </trkpt>
      <trkpt lat="44.77394" lon="5.83842">
        <ele>2736</ele>
        <time>2019-06-23T11:50:32Z</time>
      </trkpt>
      <trkpt lat="44.77392" lon="5.8384">
        <ele>2733.8</ele>
        <time>2019-06-23T11:50:37Z</time>
      </trkpt>
      <trkpt lat="44.7739" lon="5.83838">
        <ele>2733.8</ele>
        <time>2019-06-23T11:50:42Z</time>
      </trkpt>
      <trkpt lat="44.77389" lon="5.83834">
        <ele>2732.6</ele>
        <time>2019-06-23T11:50:47Z</time>
      </trkpt>
      <trkpt lat="44.77388" lon="5.83832">
        <ele>2731.4</ele>
        <time>2019-06-23T11:50:52Z</time>
      </trkpt>
      <trkpt lat="44.77387" lon="5.83831">
        <ele>2730.4</ele>
        <time>2019-06-23T11:50:57Z</time>
      </trkpt>
      <trkpt lat="44.77386" lon="5.8383">
        <ele>2729</ele>
        <time>2019-06-23T11:51:02Z</time>
      </trkpt>
      <trkpt lat="44.77385" lon="5.83828">
        <ele>2730.8</ele>
        <time>2019-06-23T11:51:07Z</time>
      </trkpt>
      <trkpt lat="44.77383" lon="5.83824">
        <ele>2726.8</ele>
        <time>2019-06-23T11:51:12Z</time>
      </trkpt>
      <trkpt lat="44.77383" lon="5.83823">
        <ele>2725.2</ele>
        <time>2019-06-23T11:51:17Z</time>
      </trkpt>
      <trkpt lat="44.77382" lon="5.83822">
        <ele>2723.8</ele>
        <time>2019-06-23T11:51:22Z</time>
      </trkpt>
      <trkpt lat="44.77381" lon="5.83819">
        <ele>2723</ele>
        <time>2019-06-23T11:51:28Z</time>
      </trkpt>
      <trkpt lat="44.77381" lon="5.83819">
        <ele>2723.2</ele>
        <time>2019-06-23T11:51:33Z</time>
      </trkpt>
      <trkpt lat="44.77379" lon="5.83815">
        <ele>2724.8</ele>
        <time>2019-06-23T11:51:43Z</time>
      </trkpt>
      <trkpt lat="44.77377" lon="5.83809">
        <ele>2717.8</ele>
        <time>2019-06-23T11:51:53Z</time>
      </trkpt>
      <trkpt lat="44.77375" lon="5.83807">
        <ele>2719.2</ele>
        <time>2019-06-23T11:51:58Z</time>
      </trkpt>
      <trkpt lat="44.77372" lon="5.83805">
        <ele>2715</ele>
        <time>2019-06-23T11:52:08Z</time>
      </trkpt>
      <trkpt lat="44.77369" lon="5.83803">
        <ele>2714.4</ele>
        <time>2019-06-23T11:52:18Z</time>
      </trkpt>
      <trkpt lat="44.77369" lon="5.83803">
        <ele>2713</ele>
        <time>2019-06-23T11:52:23Z</time>
      </trkpt>
      <trkpt lat="44.77369" lon="5.83801">
        <ele>2713.2</ele>
        <time>2019-06-23T11:52:28Z</time>
      </trkpt>
      <trkpt lat="44.7737" lon="5.83801">
        <ele>2713.6</ele>
        <time>2019-06-23T11:52:33Z</time>
      </trkpt>
      <trkpt lat="44.77371" lon="5.838">
        <ele>2715.4</ele>
        <time>2019-06-23T11:52:38Z</time>
      </trkpt>
      <trkpt lat="44.77372" lon="5.83798">
        <ele>2714.2</ele>
        <time>2019-06-23T11:52:43Z</time>
      </trkpt>
      <trkpt lat="44.77372" lon="5.83797">
        <ele>2714</ele>
        <time>2019-06-23T11:52:48Z</time>
      </trkpt>
      <trkpt lat="44.77372" lon="5.83796">
        <ele>2713.8</ele>
        <time>2019-06-23T11:52:53Z</time>
      </trkpt>
      <trkpt lat="44.77372" lon="5.83794">
        <ele>2713.6</ele>
        <time>2019-06-23T11:52:58Z</time>
      </trkpt>
      <trkpt lat="44.77373" lon="5.83792">
        <ele>2713.4</ele>
        <time>2019-06-23T11:53:03Z</time>
      </trkpt>
      <trkpt lat="44.77373" lon="5.8379">
        <ele>2713</ele>
        <time>2019-06-23T11:53:08Z</time>
      </trkpt>
      <trkpt lat="44.77374" lon="5.83788">
        <ele>2713</ele>
        <time>2019-06-23T11:53:13Z</time>
      </trkpt>
      <trkpt lat="44.77374" lon="5.83786">
        <ele>2713.8</ele>
        <time>2019-06-23T11:53:18Z</time>
      </trkpt>
      <trkpt lat="44.77374" lon="5.83783">
        <ele>2710.6</ele>
        <time>2019-06-23T11:53:23Z</time>
      </trkpt>
      <trkpt lat="44.77373" lon="5.83779">
        <ele>2711</ele>
        <time>2019-06-23T11:53:28Z</time>
      </trkpt>
      <trkpt lat="44.77372" lon="5.83775">
        <ele>2709.4</ele>
        <time>2019-06-23T11:53:33Z</time>
      </trkpt>
      <trkpt lat="44.77371" lon="5.83773">
        <ele>2708</ele>
        <time>2019-06-23T11:53:38Z</time>
      </trkpt>
      <trkpt lat="44.7737" lon="5.83771">
        <ele>2710.2</ele>
        <time>2019-06-23T11:53:43Z</time>
      </trkpt>
      <trkpt lat="44.77368" lon="5.8377">
        <ele>2709.8</ele>
        <time>2019-06-23T11:53:48Z</time>
      </trkpt>
      <trkpt lat="44.77367" lon="5.83769">
        <ele>2707.6</ele>
        <time>2019-06-23T11:53:53Z</time>
      </trkpt>
      <trkpt lat="44.77366" lon="5.83768">
        <ele>2705.8</ele>
        <time>2019-06-23T11:54:08Z</time>
      </trkpt>
      <trkpt lat="44.77365" lon="5.83771">
        <ele>2702.4</ele>
        <time>2019-06-23T11:55:03Z</time>
      </trkpt>
      <trkpt lat="44.77362" lon="5.83773">
        <ele>2701</ele>
        <time>2019-06-23T11:55:13Z</time>
      </trkpt>
      <trkpt lat="44.77361" lon="5.83772">
        <ele>2697</ele>
        <time>2019-06-23T11:55:18Z</time>
      </trkpt>
      <trkpt lat="44.7736" lon="5.83772">
        <ele>2696.6</ele>
        <time>2019-06-23T11:55:23Z</time>
      </trkpt>
      <trkpt lat="44.77358" lon="5.83772">
        <ele>2697.4</ele>
        <time>2019-06-23T11:55:28Z</time>
      </trkpt>
      <trkpt lat="44.77357" lon="5.83771">
        <ele>2695.4</ele>
        <time>2019-06-23T11:55:33Z</time>
      </trkpt>
      <trkpt lat="44.77356" lon="5.8377">
        <ele>2695.6</ele>
        <time>2019-06-23T11:55:38Z</time>
      </trkpt>
      <trkpt lat="44.77354" lon="5.83767">
        <ele>2698</ele>
        <time>2019-06-23T11:55:43Z</time>
      </trkpt>
      <trkpt lat="44.77352" lon="5.83766">
        <ele>2696.4</ele>
        <time>2019-06-23T11:55:48Z</time>
      </trkpt>
      <trkpt lat="44.77351" lon="5.83767">
        <ele>2693.4</ele>
        <time>2019-06-23T11:56:08Z</time>
      </trkpt>
      <trkpt lat="44.77351" lon="5.83768">
        <ele>2690.8</ele>
        <time>2019-06-23T11:56:13Z</time>
      </trkpt>
      <trkpt lat="44.77351" lon="5.8377">
        <ele>2689.6</ele>
        <time>2019-06-23T11:56:18Z</time>
      </trkpt>
      <trkpt lat="44.77351" lon="5.83772">
        <ele>2689.8</ele>
        <time>2019-06-23T11:56:23Z</time>
      </trkpt>
      <trkpt lat="44.77351" lon="5.83774">
        <ele>2690.8</ele>
        <time>2019-06-23T11:56:28Z</time>
      </trkpt>
      <trkpt lat="44.77349" lon="5.83775">
        <ele>2692.2</ele>
        <time>2019-06-23T11:56:33Z</time>
      </trkpt>
      <trkpt lat="44.77347" lon="5.83775">
        <ele>2689.4</ele>
        <time>2019-06-23T11:56:38Z</time>
      </trkpt>
      <trkpt lat="44.77346" lon="5.83775">
        <ele>2688</ele>
        <time>2019-06-23T11:56:43Z</time>
      </trkpt>
      <trkpt lat="44.77344" lon="5.83776">
        <ele>2688</ele>
        <time>2019-06-23T11:56:48Z</time>
      </trkpt>
      <trkpt lat="44.77343" lon="5.83773">
        <ele>2688.4</ele>
        <time>2019-06-23T11:56:53Z</time>
      </trkpt>
      <trkpt lat="44.77342" lon="5.83773">
        <ele>2688.4</ele>
        <time>2019-06-23T11:57:03Z</time>
      </trkpt>
      <trkpt lat="44.77341" lon="5.83772">
        <ele>2686.6</ele>
        <time>2019-06-23T11:57:08Z</time>
      </trkpt>
      <trkpt lat="44.77339" lon="5.83772">
        <ele>2687.6</ele>
        <time>2019-06-23T11:57:13Z</time>
      </trkpt>
      <trkpt lat="44.77337" lon="5.83775">
        <ele>2680.4</ele>
        <time>2019-06-23T11:57:40Z</time>
      </trkpt>
      <trkpt lat="44.77335" lon="5.83776">
        <ele>2676.8</ele>
        <time>2019-06-23T11:57:45Z</time>
      </trkpt>
      <trkpt lat="44.77334" lon="5.83778">
        <ele>2674</ele>
        <time>2019-06-23T11:57:50Z</time>
      </trkpt>
      <trkpt lat="44.77333" lon="5.83779">
        <ele>2674</ele>
        <time>2019-06-23T11:57:55Z</time>
      </trkpt>
      <trkpt lat="44.77332" lon="5.83779">
        <ele>2670.2</ele>
        <time>2019-06-23T11:58:00Z</time>
      </trkpt>
      <trkpt lat="44.77331" lon="5.83779">
        <ele>2670.6</ele>
        <time>2019-06-23T11:58:05Z</time>
      </trkpt>
      <trkpt lat="44.7733" lon="5.8378">
        <ele>2670.8</ele>
        <time>2019-06-23T11:58:20Z</time>
      </trkpt>
      <trkpt lat="44.7733" lon="5.8378">
        <ele>2670.6</ele>
        <time>2019-06-23T11:58:25Z</time>
      </trkpt>
      <trkpt lat="44.77326" lon="5.83779">
        <ele>2670.4</ele>
        <time>2019-06-23T11:59:00Z</time>
      </trkpt>
      <trkpt lat="44.77326" lon="5.83778">
        <ele>2665.6</ele>
        <time>2019-06-23T11:59:20Z</time>
      </trkpt>
      <trkpt lat="44.77325" lon="5.83777">
        <ele>2664.4</ele>
        <time>2019-06-23T11:59:25Z</time>
      </trkpt>
      <trkpt lat="44.77325" lon="5.83776">
        <ele>2664.6</ele>
        <time>2019-06-23T11:59:30Z</time>
      </trkpt>
      <trkpt lat="44.77324" lon="5.83776">
        <ele>2664.6</ele>
        <time>2019-06-23T11:59:35Z</time>
      </trkpt>
      <trkpt lat="44.77324" lon="5.83775">
        <ele>2662.2</ele>
        <time>2019-06-23T11:59:40Z</time>
      </trkpt>
      <trkpt lat="44.77323" lon="5.83775">
        <ele>2663</ele>
        <time>2019-06-23T11:59:45Z</time>
      </trkpt>
      <trkpt lat="44.77322" lon="5.83779">
        <ele>2659.6</ele>
        <time>2019-06-23T11:59:50Z</time>
      </trkpt>
      <trkpt lat="44.7732" lon="5.83785">
        <ele>2661.2</ele>
        <time>2019-06-23T11:59:55Z</time>
      </trkpt>
      <trkpt lat="44.77319" lon="5.83791">
        <ele>2660.6</ele>
        <time>2019-06-23T12:00:00Z</time>
      </trkpt>
      <trkpt lat="44.77319" lon="5.83796">
        <ele>2660.4</ele>
        <time>2019-06-23T12:00:05Z</time>
      </trkpt>
      <trkpt lat="44.77316" lon="5.83801">
        <ele>2658.4</ele>
        <time>2019-06-23T12:00:10Z</time>
      </trkpt>
      <trkpt lat="44.77314" lon="5.83806">
        <ele>2660.8</ele>
        <time>2019-06-23T12:00:30Z</time>
      </trkpt>
      <trkpt lat="44.77314" lon="5.83809">
        <ele>2661.6</ele>
        <time>2019-06-23T12:00:35Z</time>
      </trkpt>
      <trkpt lat="44.77314" lon="5.83814">
        <ele>2660.8</ele>
        <time>2019-06-23T12:00:40Z</time>
      </trkpt>
      <trkpt lat="44.77314" lon="5.83819">
        <ele>2662</ele>
        <time>2019-06-23T12:00:45Z</time>
      </trkpt>
      <trkpt lat="44.77314" lon="5.83822">
        <ele>2663.2</ele>
        <time>2019-06-23T12:00:50Z</time>
      </trkpt>
      <trkpt lat="44.77313" lon="5.83825">
        <ele>2658.4</ele>
        <time>2019-06-23T12:00:55Z</time>
      </trkpt>
      <trkpt lat="44.77314" lon="5.83829">
        <ele>2661</ele>
        <time>2019-06-23T12:01:00Z</time>
      </trkpt>
      <trkpt lat="44.77315" lon="5.83833">
        <ele>2657.4</ele>
        <time>2019-06-23T12:01:05Z</time>
      </trkpt>
      <trkpt lat="44.77313" lon="5.83838">
        <ele>2653</ele>
        <time>2019-06-23T12:01:15Z</time>
      </trkpt>
      <trkpt lat="44.7731" lon="5.83843">
        <ele>2654</ele>
        <time>2019-06-23T12:01:25Z</time>
      </trkpt>
      <trkpt lat="44.77309" lon="5.83844">
        <ele>2654.4</ele>
        <time>2019-06-23T12:01:30Z</time>
      </trkpt>
      <trkpt lat="44.77309" lon="5.83845">
        <ele>2654.4</ele>
        <time>2019-06-23T12:01:35Z</time>
      </trkpt>
      <trkpt lat="44.7731" lon="5.83846">
        <ele>2655.8</ele>
        <time>2019-06-23T12:01:40Z</time>
      </trkpt>
      <trkpt lat="44.77311" lon="5.83849">
        <ele>2652.8</ele>
        <time>2019-06-23T12:01:50Z</time>
      </trkpt>
      <trkpt lat="44.77313" lon="5.83851">
        <ele>2656.6</ele>
        <time>2019-06-23T12:01:55Z</time>
      </trkpt>
      <trkpt lat="44.77312" lon="5.83854">
        <ele>2654.8</ele>
        <time>2019-06-23T12:02:00Z</time>
      </trkpt>
      <trkpt lat="44.77311" lon="5.83855">
        <ele>2654.2</ele>
        <time>2019-06-23T12:02:05Z</time>
      </trkpt>
      <trkpt lat="44.7731" lon="5.83855">
        <ele>2654</ele>
        <time>2019-06-23T12:02:10Z</time>
      </trkpt>
      <trkpt lat="44.77308" lon="5.83858">
        <ele>2655</ele>
        <time>2019-06-23T12:02:15Z</time>
      </trkpt>
      <trkpt lat="44.77307" lon="5.83859">
        <ele>2651.4</ele>
        <time>2019-06-23T12:02:20Z</time>
      </trkpt>
      <trkpt lat="44.77307" lon="5.83863">
        <ele>2655.2</ele>
        <time>2019-06-23T12:02:40Z</time>
      </trkpt>
      <trkpt lat="44.77308" lon="5.83864">
        <ele>2655</ele>
        <time>2019-06-23T12:02:45Z</time>
      </trkpt>
      <trkpt lat="44.77309" lon="5.83865">
        <ele>2654.8</ele>
        <time>2019-06-23T12:02:50Z</time>
      </trkpt>
      <trkpt lat="44.77309" lon="5.83866">
        <ele>2654.8</ele>
        <time>2019-06-23T12:02:55Z</time>
      </trkpt>
      <trkpt lat="44.77311" lon="5.83867">
        <ele>2654</ele>
        <time>2019-06-23T12:03:00Z</time>
      </trkpt>
      <trkpt lat="44.77313" lon="5.83867">
        <ele>2654.2</ele>
        <time>2019-06-23T12:03:05Z</time>
      </trkpt>
      <trkpt lat="44.77314" lon="5.83868">
        <ele>2654.4</ele>
        <time>2019-06-23T12:03:10Z</time>
      </trkpt>
      <trkpt lat="44.77315" lon="5.83869">
        <ele>2653.8</ele>
        <time>2019-06-23T12:03:15Z</time>
      </trkpt>
      <trkpt lat="44.77317" lon="5.83871">
        <ele>2654.6</ele>
        <time>2019-06-23T12:03:20Z</time>
      </trkpt>
      <trkpt lat="44.77317" lon="5.83872">
        <ele>2656.4</ele>
        <time>2019-06-23T12:03:25Z</time>
      </trkpt>
      <trkpt lat="44.77318" lon="5.83873">
        <ele>2655.8</ele>
        <time>2019-06-23T12:03:30Z</time>
      </trkpt>
      <trkpt lat="44.77319" lon="5.83873">
        <ele>2655.8</ele>
        <time>2019-06-23T12:03:40Z</time>
      </trkpt>
      <trkpt lat="44.7732" lon="5.83874">
        <ele>2657.6</ele>
        <time>2019-06-23T12:03:45Z</time>
      </trkpt>
      <trkpt lat="44.77322" lon="5.83875">
        <ele>2659.6</ele>
        <time>2019-06-23T12:03:50Z</time>
      </trkpt>
      <trkpt lat="44.77324" lon="5.83875">
        <ele>2660.8</ele>
        <time>2019-06-23T12:03:55Z</time>
      </trkpt>
      <trkpt lat="44.77325" lon="5.83876">
        <ele>2662.4</ele>
        <time>2019-06-23T12:04:00Z</time>
      </trkpt>
      <trkpt lat="44.77325" lon="5.83876">
        <ele>2662.6</ele>
        <time>2019-06-23T12:04:05Z</time>
      </trkpt>
      <trkpt lat="44.77328" lon="5.83875">
        <ele>2664</ele>
        <time>2019-06-23T12:04:25Z</time>
      </trkpt>
      <trkpt lat="44.77329" lon="5.83874">
        <ele>2665.6</ele>
        <time>2019-06-23T12:04:35Z</time>
      </trkpt>
      <trkpt lat="44.7733" lon="5.83875">
        <ele>2667.4</ele>
        <time>2019-06-23T12:04:40Z</time>
      </trkpt>
      <trkpt lat="44.77331" lon="5.83876">
        <ele>2666.4</ele>
        <time>2019-06-23T12:04:45Z</time>
      </trkpt>
      <trkpt lat="44.77331" lon="5.83878">
        <ele>2666.2</ele>
        <time>2019-06-23T12:04:50Z</time>
      </trkpt>
      <trkpt lat="44.77331" lon="5.83881">
        <ele>2663.6</ele>
        <time>2019-06-23T12:05:00Z</time>
      </trkpt>
      <trkpt lat="44.77332" lon="5.83884">
        <ele>2665.4</ele>
        <time>2019-06-23T12:05:05Z</time>
      </trkpt>
      <trkpt lat="44.77332" lon="5.83888">
        <ele>2664.6</ele>
        <time>2019-06-23T12:05:10Z</time>
      </trkpt>
      <trkpt lat="44.77331" lon="5.83893">
        <ele>2664</ele>
        <time>2019-06-23T12:05:15Z</time>
      </trkpt>
      <trkpt lat="44.77331" lon="5.83896">
        <ele>2662.6</ele>
        <time>2019-06-23T12:05:20Z</time>
      </trkpt>
      <trkpt lat="44.77331" lon="5.83899">
        <ele>2664.8</ele>
        <time>2019-06-23T12:05:25Z</time>
      </trkpt>
      <trkpt lat="44.77334" lon="5.83902">
        <ele>2661.4</ele>
        <time>2019-06-23T12:05:30Z</time>
      </trkpt>
      <trkpt lat="44.77337" lon="5.83902">
        <ele>2666</ele>
        <time>2019-06-23T12:05:35Z</time>
      </trkpt>
      <trkpt lat="44.7734" lon="5.839">
        <ele>2665.2</ele>
        <time>2019-06-23T12:05:40Z</time>
      </trkpt>
      <trkpt lat="44.77341" lon="5.83899">
        <ele>2665</ele>
        <time>2019-06-23T12:05:45Z</time>
      </trkpt>
      <trkpt lat="44.77342" lon="5.83898">
        <ele>2668</ele>
        <time>2019-06-23T12:05:50Z</time>
      </trkpt>
      <trkpt lat="44.77343" lon="5.83897">
        <ele>2668.2</ele>
        <time>2019-06-23T12:05:55Z</time>
      </trkpt>
      <trkpt lat="44.77344" lon="5.83897">
        <ele>2668.4</ele>
        <time>2019-06-23T12:06:00Z</time>
      </trkpt>
      <trkpt lat="44.77346" lon="5.83898">
        <ele>2672.2</ele>
        <time>2019-06-23T12:06:05Z</time>
      </trkpt>
      <trkpt lat="44.77347" lon="5.83898">
        <ele>2668.4</ele>
        <time>2019-06-23T12:06:10Z</time>
      </trkpt>
      <trkpt lat="44.77348" lon="5.83899">
        <ele>2668.6</ele>
        <time>2019-06-23T12:06:15Z</time>
      </trkpt>
      <trkpt lat="44.77349" lon="5.83901">
        <ele>2666</ele>
        <time>2019-06-23T12:06:20Z</time>
      </trkpt>
      <trkpt lat="44.77348" lon="5.83903">
        <ele>2669.2</ele>
        <time>2019-06-23T12:06:25Z</time>
      </trkpt>
      <trkpt lat="44.77346" lon="5.83905">
        <ele>2669.4</ele>
        <time>2019-06-23T12:06:30Z</time>
      </trkpt>
      <trkpt lat="44.77346" lon="5.83908">
        <ele>2667.6</ele>
        <time>2019-06-23T12:06:35Z</time>
      </trkpt>
      <trkpt lat="44.77347" lon="5.8391">
        <ele>2668.8</ele>
        <time>2019-06-23T12:07:45Z</time>
      </trkpt>
      <trkpt lat="44.77346" lon="5.83914">
        <ele>2669.8</ele>
        <time>2019-06-23T12:07:55Z</time>
      </trkpt>
      <trkpt lat="44.77344" lon="5.83914">
        <ele>2669.4</ele>
        <time>2019-06-23T12:08:00Z</time>
      </trkpt>
      <trkpt lat="44.77343" lon="5.83917">
        <ele>2662.4</ele>
        <time>2019-06-23T12:08:10Z</time>
      </trkpt>
      <trkpt lat="44.77341" lon="5.8392">
        <ele>2665</ele>
        <time>2019-06-23T12:08:15Z</time>
      </trkpt>
      <trkpt lat="44.7734" lon="5.83922">
        <ele>2666.6</ele>
        <time>2019-06-23T12:08:20Z</time>
      </trkpt>
      <trkpt lat="44.7734" lon="5.83928">
        <ele>2667.2</ele>
        <time>2019-06-23T12:08:25Z</time>
      </trkpt>
      <trkpt lat="44.7734" lon="5.83934">
        <ele>2667.4</ele>
        <time>2019-06-23T12:08:30Z</time>
      </trkpt>
      <trkpt lat="44.77338" lon="5.83937">
        <ele>2666</ele>
        <time>2019-06-23T12:08:35Z</time>
      </trkpt>
      <trkpt lat="44.77337" lon="5.83939">
        <ele>2665.6</ele>
        <time>2019-06-23T12:08:40Z</time>
      </trkpt>
      <trkpt lat="44.77336" lon="5.8394">
        <ele>2664.8</ele>
        <time>2019-06-23T12:08:45Z</time>
      </trkpt>
      <trkpt lat="44.77334" lon="5.83941">
        <ele>2664.2</ele>
        <time>2019-06-23T12:08:50Z</time>
      </trkpt>
      <trkpt lat="44.77331" lon="5.83943">
        <ele>2665.6</ele>
        <time>2019-06-23T12:08:55Z</time>
      </trkpt>
      <trkpt lat="44.77327" lon="5.83946">
        <ele>2661.8</ele>
        <time>2019-06-23T12:09:00Z</time>
      </trkpt>
      <trkpt lat="44.77323" lon="5.83947">
        <ele>2662.6</ele>
        <time>2019-06-23T12:09:05Z</time>
      </trkpt>
      <trkpt lat="44.77323" lon="5.8395">
        <ele>2659</ele>
        <time>2019-06-23T12:09:10Z</time>
      </trkpt>
      <trkpt lat="44.77323" lon="5.83961">
        <ele>2656.4</ele>
        <time>2019-06-23T12:09:20Z</time>
      </trkpt>
      <trkpt lat="44.77327" lon="5.83965">
        <ele>2664</ele>
        <time>2019-06-23T12:09:25Z</time>
      </trkpt>
      <trkpt lat="44.77328" lon="5.83967">
        <ele>2663.8</ele>
        <time>2019-06-23T12:09:30Z</time>
      </trkpt>
      <trkpt lat="44.77331" lon="5.83971">
        <ele>2664.2</ele>
        <time>2019-06-23T12:09:35Z</time>
      </trkpt>
      <trkpt lat="44.77337" lon="5.83978">
        <ele>2660.4</ele>
        <time>2019-06-23T12:09:45Z</time>
      </trkpt>
      <trkpt lat="44.77338" lon="5.83979">
        <ele>2660.4</ele>
        <time>2019-06-23T12:09:50Z</time>
      </trkpt>
      <trkpt lat="44.77338" lon="5.83981">
        <ele>2659</ele>
        <time>2019-06-23T12:10:00Z</time>
      </trkpt>
      <trkpt lat="44.77337" lon="5.83982">
        <ele>2659</ele>
        <time>2019-06-23T12:10:05Z</time>
      </trkpt>
      <trkpt lat="44.77337" lon="5.83984">
        <ele>2657.8</ele>
        <time>2019-06-23T12:10:10Z</time>
      </trkpt>
      <trkpt lat="44.77339" lon="5.83987">
        <ele>2658</ele>
        <time>2019-06-23T12:10:15Z</time>
      </trkpt>
      <trkpt lat="44.77339" lon="5.8399">
        <ele>2653.6</ele>
        <time>2019-06-23T12:10:30Z</time>
      </trkpt>
      <trkpt lat="44.77339" lon="5.83995">
        <ele>2654.8</ele>
        <time>2019-06-23T12:10:40Z</time>
      </trkpt>
      <trkpt lat="44.77339" lon="5.83996">
        <ele>2655.6</ele>
        <time>2019-06-23T12:10:45Z</time>
      </trkpt>
      <trkpt lat="44.77339" lon="5.83998">
        <ele>2655</ele>
        <time>2019-06-23T12:10:50Z</time>
      </trkpt>
      <trkpt lat="44.77338" lon="5.83998">
        <ele>2651</ele>
        <time>2019-06-23T12:11:10Z</time>
      </trkpt>
      <trkpt lat="44.77337" lon="5.84">
        <ele>2647.6</ele>
        <time>2019-06-23T12:11:35Z</time>
      </trkpt>
      <trkpt lat="44.77336" lon="5.84001">
        <ele>2645.2</ele>
        <time>2019-06-23T12:12:10Z</time>
      </trkpt>
      <trkpt lat="44.77335" lon="5.84003">
        <ele>2644.4</ele>
        <time>2019-06-23T12:12:20Z</time>
      </trkpt>
      <trkpt lat="44.77335" lon="5.84004">
        <ele>2644.4</ele>
        <time>2019-06-23T12:12:25Z</time>
      </trkpt>
      <trkpt lat="44.77334" lon="5.84004">
        <ele>2644.2</ele>
        <time>2019-06-23T12:12:30Z</time>
      </trkpt>
      <trkpt lat="44.77334" lon="5.84005">
        <ele>2644</ele>
        <time>2019-06-23T12:12:35Z</time>
      </trkpt>
      <trkpt lat="44.77334" lon="5.84007">
        <ele>2641.6</ele>
        <time>2019-06-23T12:12:40Z</time>
      </trkpt>
      <trkpt lat="44.77334" lon="5.84008">
        <ele>2640.8</ele>
        <time>2019-06-23T12:12:45Z</time>
      </trkpt>
      <trkpt lat="44.77333" lon="5.8401">
        <ele>2639</ele>
        <time>2019-06-23T12:12:55Z</time>
      </trkpt>
      <trkpt lat="44.77332" lon="5.84011">
        <ele>2639</ele>
        <time>2019-06-23T12:13:00Z</time>
      </trkpt>
      <trkpt lat="44.77331" lon="5.84012">
        <ele>2636.2</ele>
        <time>2019-06-23T12:13:05Z</time>
      </trkpt>
      <trkpt lat="44.7733" lon="5.84014">
        <ele>2632.2</ele>
        <time>2019-06-23T12:13:10Z</time>
      </trkpt>
      <trkpt lat="44.77329" lon="5.84015">
        <ele>2633</ele>
        <time>2019-06-23T12:13:15Z</time>
      </trkpt>
      <trkpt lat="44.77329" lon="5.84017">
        <ele>2636.4</ele>
        <time>2019-06-23T12:13:20Z</time>
      </trkpt>
      <trkpt lat="44.77329" lon="5.84019">
        <ele>2635.8</ele>
        <time>2019-06-23T12:13:25Z</time>
      </trkpt>
      <trkpt lat="44.77329" lon="5.84021">
        <ele>2636.8</ele>
        <time>2019-06-23T12:13:30Z</time>
      </trkpt>
      <trkpt lat="44.77329" lon="5.84024">
        <ele>2633.2</ele>
        <time>2019-06-23T12:13:35Z</time>
      </trkpt>
      <trkpt lat="44.77329" lon="5.84026">
        <ele>2632.4</ele>
        <time>2019-06-23T12:13:40Z</time>
      </trkpt>
      <trkpt lat="44.77329" lon="5.84027">
        <ele>2630.6</ele>
        <time>2019-06-23T12:13:50Z</time>
      </trkpt>
      <trkpt lat="44.77327" lon="5.84028">
        <ele>2629.4</ele>
        <time>2019-06-23T12:14:00Z</time>
      </trkpt>
      <trkpt lat="44.77327" lon="5.84029">
        <ele>2629.2</ele>
        <time>2019-06-23T12:14:05Z</time>
      </trkpt>
      <trkpt lat="44.77325" lon="5.84032">
        <ele>2628.8</ele>
        <time>2019-06-23T12:14:10Z</time>
      </trkpt>
      <trkpt lat="44.77323" lon="5.84033">
        <ele>2628.2</ele>
        <time>2019-06-23T12:14:15Z</time>
      </trkpt>
      <trkpt lat="44.77323" lon="5.84035">
        <ele>2625.4</ele>
        <time>2019-06-23T12:14:20Z</time>
      </trkpt>
      <trkpt lat="44.77323" lon="5.84035">
        <ele>2626.6</ele>
        <time>2019-06-23T12:14:25Z</time>
      </trkpt>
      <trkpt lat="44.77321" lon="5.84037">
        <ele>2626.4</ele>
        <time>2019-06-23T12:14:30Z</time>
      </trkpt>
      <trkpt lat="44.7732" lon="5.84037">
        <ele>2626.8</ele>
        <time>2019-06-23T12:14:35Z</time>
      </trkpt>
      <trkpt lat="44.77318" lon="5.84038">
        <ele>2626.2</ele>
        <time>2019-06-23T12:14:40Z</time>
      </trkpt>
      <trkpt lat="44.77317" lon="5.8404">
        <ele>2625</ele>
        <time>2019-06-23T12:14:45Z</time>
      </trkpt>
      <trkpt lat="44.77316" lon="5.8404">
        <ele>2624.2</ele>
        <time>2019-06-23T12:14:50Z</time>
      </trkpt>
      <trkpt lat="44.77314" lon="5.84037">
        <ele>2621.2</ele>
        <time>2019-06-23T12:14:55Z</time>
      </trkpt>
      <trkpt lat="44.77312" lon="5.84035">
        <ele>2622.8</ele>
        <time>2019-06-23T12:15:00Z</time>
      </trkpt>
      <trkpt lat="44.7731" lon="5.84034">
        <ele>2619.6</ele>
        <time>2019-06-23T12:15:05Z</time>
      </trkpt>
      <trkpt lat="44.77309" lon="5.84034">
        <ele>2616.4</ele>
        <time>2019-06-23T12:15:25Z</time>
      </trkpt>
      <trkpt lat="44.77308" lon="5.84034">
        <ele>2616.4</ele>
        <time>2019-06-23T12:15:35Z</time>
      </trkpt>
      <trkpt lat="44.77308" lon="5.84035">
        <ele>2616</ele>
        <time>2019-06-23T12:15:45Z</time>
      </trkpt>
      <trkpt lat="44.77308" lon="5.84037">
        <ele>2613.6</ele>
        <time>2019-06-23T12:15:50Z</time>
      </trkpt>
      <trkpt lat="44.77308" lon="5.84038">
        <ele>2614.6</ele>
        <time>2019-06-23T12:15:55Z</time>
      </trkpt>
      <trkpt lat="44.77304" lon="5.8404">
        <ele>2612.4</ele>
        <time>2019-06-23T12:16:25Z</time>
      </trkpt>
      <trkpt lat="44.77303" lon="5.84041">
        <ele>2612</ele>
        <time>2019-06-23T12:16:30Z</time>
      </trkpt>
      <trkpt lat="44.77302" lon="5.84041">
        <ele>2611.8</ele>
        <time>2019-06-23T12:16:35Z</time>
      </trkpt>
      <trkpt lat="44.77302" lon="5.84043">
        <ele>2604</ele>
        <time>2019-06-23T12:16:45Z</time>
      </trkpt>
      <trkpt lat="44.77301" lon="5.84044">
        <ele>2601.8</ele>
        <time>2019-06-23T12:16:50Z</time>
      </trkpt>
      <trkpt lat="44.77301" lon="5.84045">
        <ele>2601.2</ele>
        <time>2019-06-23T12:16:55Z</time>
      </trkpt>
      <trkpt lat="44.77302" lon="5.84047">
        <ele>2599.4</ele>
        <time>2019-06-23T12:17:00Z</time>
      </trkpt>
      <trkpt lat="44.77303" lon="5.84048">
        <ele>2599.8</ele>
        <time>2019-06-23T12:17:05Z</time>
      </trkpt>
      <trkpt lat="44.77305" lon="5.8405">
        <ele>2596.4</ele>
        <time>2019-06-23T12:17:10Z</time>
      </trkpt>
      <trkpt lat="44.77309" lon="5.84051">
        <ele>2597.4</ele>
        <time>2019-06-23T12:17:15Z</time>
      </trkpt>
      <trkpt lat="44.77313" lon="5.84053">
        <ele>2597.6</ele>
        <time>2019-06-23T12:17:20Z</time>
      </trkpt>
      <trkpt lat="44.77318" lon="5.84054">
        <ele>2595.4</ele>
        <time>2019-06-23T12:17:25Z</time>
      </trkpt>
      <trkpt lat="44.7732" lon="5.84054">
        <ele>2595.2</ele>
        <time>2019-06-23T12:17:30Z</time>
      </trkpt>
      <trkpt lat="44.77323" lon="5.84053">
        <ele>2596.4</ele>
        <time>2019-06-23T12:17:35Z</time>
      </trkpt>
      <trkpt lat="44.77324" lon="5.84054">
        <ele>2595</ele>
        <time>2019-06-23T12:17:40Z</time>
      </trkpt>
      <trkpt lat="44.77327" lon="5.84055">
        <ele>2595.6</ele>
        <time>2019-06-23T12:17:45Z</time>
      </trkpt>
      <trkpt lat="44.7733" lon="5.84057">
        <ele>2592</ele>
        <time>2019-06-23T12:17:55Z</time>
      </trkpt>
      <trkpt lat="44.77333" lon="5.84058">
        <ele>2591</ele>
        <time>2019-06-23T12:18:00Z</time>
      </trkpt>
      <trkpt lat="44.77334" lon="5.84059">
        <ele>2594.8</ele>
        <time>2019-06-23T12:18:05Z</time>
      </trkpt>
      <trkpt lat="44.77335" lon="5.8406">
        <ele>2593.6</ele>
        <time>2019-06-23T12:18:10Z</time>
      </trkpt>
      <trkpt lat="44.77335" lon="5.84063">
        <ele>2594.4</ele>
        <time>2019-06-23T12:18:15Z</time>
      </trkpt>
      <trkpt lat="44.77336" lon="5.84065">
        <ele>2596.2</ele>
        <time>2019-06-23T12:18:20Z</time>
      </trkpt>
      <trkpt lat="44.77336" lon="5.84068">
        <ele>2595.4</ele>
        <time>2019-06-23T12:18:25Z</time>
      </trkpt>
      <trkpt lat="44.77337" lon="5.84072">
        <ele>2595.4</ele>
        <time>2019-06-23T12:18:30Z</time>
      </trkpt>
      <trkpt lat="44.7734" lon="5.84075">
        <ele>2595</ele>
        <time>2019-06-23T12:18:35Z</time>
      </trkpt>
      <trkpt lat="44.77342" lon="5.84078">
        <ele>2594.8</ele>
        <time>2019-06-23T12:18:40Z</time>
      </trkpt>
      <trkpt lat="44.77344" lon="5.8408">
        <ele>2597</ele>
        <time>2019-06-23T12:18:45Z</time>
      </trkpt>
      <trkpt lat="44.77344" lon="5.8408">
        <ele>2595.4</ele>
        <time>2019-06-23T12:18:50Z</time>
      </trkpt>
      <trkpt lat="44.77346" lon="5.84081">
        <ele>2594.2</ele>
        <time>2019-06-23T12:18:55Z</time>
      </trkpt>
      <trkpt lat="44.77348" lon="5.84081">
        <ele>2592.6</ele>
        <time>2019-06-23T12:19:00Z</time>
      </trkpt>
      <trkpt lat="44.77349" lon="5.84081">
        <ele>2591</ele>
        <time>2019-06-23T12:19:05Z</time>
      </trkpt>
      <trkpt lat="44.7735" lon="5.84081">
        <ele>2589.8</ele>
        <time>2019-06-23T12:19:10Z</time>
      </trkpt>
      <trkpt lat="44.77349" lon="5.84082">
        <ele>2587.6</ele>
        <time>2019-06-23T12:19:40Z</time>
      </trkpt>
      <trkpt lat="44.77347" lon="5.84084">
        <ele>2588</ele>
        <time>2019-06-23T12:19:45Z</time>
      </trkpt>
      <trkpt lat="44.77347" lon="5.84084">
        <ele>2588.6</ele>
        <time>2019-06-23T12:19:50Z</time>
      </trkpt>
      <trkpt lat="44.77347" lon="5.84085">
        <ele>2589</ele>
        <time>2019-06-23T12:19:55Z</time>
      </trkpt>
      <trkpt lat="44.77344" lon="5.84089">
        <ele>2591.4</ele>
        <time>2019-06-23T12:20:00Z</time>
      </trkpt>
      <trkpt lat="44.77347" lon="5.84088">
        <ele>2589.8</ele>
        <time>2019-06-23T12:20:25Z</time>
      </trkpt>
      <trkpt lat="44.7735" lon="5.84088">
        <ele>2590.6</ele>
        <time>2019-06-23T12:20:30Z</time>
      </trkpt>
      <trkpt lat="44.77352" lon="5.84089">
        <ele>2590.6</ele>
        <time>2019-06-23T12:20:35Z</time>
      </trkpt>
      <trkpt lat="44.77355" lon="5.8409">
        <ele>2589.4</ele>
        <time>2019-06-23T12:20:40Z</time>
      </trkpt>
      <trkpt lat="44.77358" lon="5.84094">
        <ele>2593.6</ele>
        <time>2019-06-23T12:20:45Z</time>
      </trkpt>
      <trkpt lat="44.77359" lon="5.84099">
        <ele>2592.2</ele>
        <time>2019-06-23T12:20:50Z</time>
      </trkpt>
      <trkpt lat="44.77359" lon="5.84104">
        <ele>2588</ele>
        <time>2019-06-23T12:20:55Z</time>
      </trkpt>
      <trkpt lat="44.7736" lon="5.84106">
        <ele>2589.2</ele>
        <time>2019-06-23T12:21:00Z</time>
      </trkpt>
      <trkpt lat="44.7736" lon="5.8411">
        <ele>2591.6</ele>
        <time>2019-06-23T12:21:05Z</time>
      </trkpt>
      <trkpt lat="44.77363" lon="5.84112">
        <ele>2587.8</ele>
        <time>2019-06-23T12:21:10Z</time>
      </trkpt>
      <trkpt lat="44.77364" lon="5.84116">
        <ele>2586.8</ele>
        <time>2019-06-23T12:21:15Z</time>
      </trkpt>
      <trkpt lat="44.77365" lon="5.84121">
        <ele>2582.6</ele>
        <time>2019-06-23T12:21:20Z</time>
      </trkpt>
      <trkpt lat="44.77366" lon="5.84125">
        <ele>2583.4</ele>
        <time>2019-06-23T12:21:25Z</time>
      </trkpt>
      <trkpt lat="44.77367" lon="5.84128">
        <ele>2586.2</ele>
        <time>2019-06-23T12:21:30Z</time>
      </trkpt>
      <trkpt lat="44.77368" lon="5.84131">
        <ele>2583.8</ele>
        <time>2019-06-23T12:21:35Z</time>
      </trkpt>
      <trkpt lat="44.7737" lon="5.84135">
        <ele>2579.8</ele>
        <time>2019-06-23T12:21:40Z</time>
      </trkpt>
      <trkpt lat="44.77372" lon="5.84139">
        <ele>2579.2</ele>
        <time>2019-06-23T12:21:45Z</time>
      </trkpt>
      <trkpt lat="44.77374" lon="5.84143">
        <ele>2580.4</ele>
        <time>2019-06-23T12:21:50Z</time>
      </trkpt>
      <trkpt lat="44.77375" lon="5.84148">
        <ele>2577.8</ele>
        <time>2019-06-23T12:21:55Z</time>
      </trkpt>
      <trkpt lat="44.77376" lon="5.84154">
        <ele>2576</ele>
        <time>2019-06-23T12:22:00Z</time>
      </trkpt>
      <trkpt lat="44.77376" lon="5.84159">
        <ele>2576</ele>
        <time>2019-06-23T12:22:05Z</time>
      </trkpt>
      <trkpt lat="44.77376" lon="5.84164">
        <ele>2576</ele>
        <time>2019-06-23T12:22:10Z</time>
      </trkpt>
      <trkpt lat="44.77377" lon="5.84169">
        <ele>2574</ele>
        <time>2019-06-23T12:22:15Z</time>
      </trkpt>
      <trkpt lat="44.77377" lon="5.84174">
        <ele>2568.4</ele>
        <time>2019-06-23T12:22:20Z</time>
      </trkpt>
      <trkpt lat="44.77377" lon="5.84177">
        <ele>2568.4</ele>
        <time>2019-06-23T12:22:25Z</time>
      </trkpt>
      <trkpt lat="44.77377" lon="5.8418">
        <ele>2566.8</ele>
        <time>2019-06-23T12:22:30Z</time>
      </trkpt>
      <trkpt lat="44.77379" lon="5.84183">
        <ele>2564.4</ele>
        <time>2019-06-23T12:22:35Z</time>
      </trkpt>
      <trkpt lat="44.77379" lon="5.84185">
        <ele>2562.6</ele>
        <time>2019-06-23T12:22:40Z</time>
      </trkpt>
      <trkpt lat="44.7738" lon="5.84189">
        <ele>2561.4</ele>
        <time>2019-06-23T12:22:45Z</time>
      </trkpt>
      <trkpt lat="44.77378" lon="5.84193">
        <ele>2560</ele>
        <time>2019-06-23T12:22:50Z</time>
      </trkpt>
      <trkpt lat="44.77376" lon="5.84195">
        <ele>2556.8</ele>
        <time>2019-06-23T12:22:55Z</time>
      </trkpt>
      <trkpt lat="44.77369" lon="5.84197">
        <ele>2553.4</ele>
        <time>2019-06-23T12:23:10Z</time>
      </trkpt>
      <trkpt lat="44.77366" lon="5.84198">
        <ele>2549.4</ele>
        <time>2019-06-23T12:23:25Z</time>
      </trkpt>
      <trkpt lat="44.77364" lon="5.84202">
        <ele>2546.6</ele>
        <time>2019-06-23T12:23:30Z</time>
      </trkpt>
      <trkpt lat="44.77364" lon="5.84207">
        <ele>2546</ele>
        <time>2019-06-23T12:23:35Z</time>
      </trkpt>
      <trkpt lat="44.77365" lon="5.84209">
        <ele>2544.8</ele>
        <time>2019-06-23T12:23:40Z</time>
      </trkpt>
      <trkpt lat="44.77364" lon="5.84214">
        <ele>2543</ele>
        <time>2019-06-23T12:23:45Z</time>
      </trkpt>
      <trkpt lat="44.77365" lon="5.84218">
        <ele>2544.2</ele>
        <time>2019-06-23T12:23:50Z</time>
      </trkpt>
      <trkpt lat="44.77364" lon="5.84222">
        <ele>2541.8</ele>
        <time>2019-06-23T12:23:55Z</time>
      </trkpt>
      <trkpt lat="44.77362" lon="5.84225">
        <ele>2540.8</ele>
        <time>2019-06-23T12:24:00Z</time>
      </trkpt>
      <trkpt lat="44.7736" lon="5.84226">
        <ele>2538.6</ele>
        <time>2019-06-23T12:24:05Z</time>
      </trkpt>
      <trkpt lat="44.77356" lon="5.84225">
        <ele>2535.2</ele>
        <time>2019-06-23T12:24:10Z</time>
      </trkpt>
      <trkpt lat="44.77353" lon="5.84226">
        <ele>2536.4</ele>
        <time>2019-06-23T12:24:15Z</time>
      </trkpt>
      <trkpt lat="44.7735" lon="5.8423">
        <ele>2532.8</ele>
        <time>2019-06-23T12:24:25Z</time>
      </trkpt>
      <trkpt lat="44.7735" lon="5.84236">
        <ele>2532.2</ele>
        <time>2019-06-23T12:24:30Z</time>
      </trkpt>
      <trkpt lat="44.77351" lon="5.84241">
        <ele>2530.8</ele>
        <time>2019-06-23T12:24:35Z</time>
      </trkpt>
      <trkpt lat="44.77351" lon="5.84246">
        <ele>2529.4</ele>
        <time>2019-06-23T12:24:40Z</time>
      </trkpt>
      <trkpt lat="44.7735" lon="5.84249">
        <ele>2526.6</ele>
        <time>2019-06-23T12:24:45Z</time>
      </trkpt>
      <trkpt lat="44.7735" lon="5.84254">
        <ele>2527.2</ele>
        <time>2019-06-23T12:24:50Z</time>
      </trkpt>
      <trkpt lat="44.77348" lon="5.84258">
        <ele>2525.4</ele>
        <time>2019-06-23T12:24:55Z</time>
      </trkpt>
      <trkpt lat="44.77349" lon="5.84264">
        <ele>2524.4</ele>
        <time>2019-06-23T12:25:00Z</time>
      </trkpt>
      <trkpt lat="44.7735" lon="5.84269">
        <ele>2523</ele>
        <time>2019-06-23T12:25:05Z</time>
      </trkpt>
      <trkpt lat="44.77352" lon="5.84273">
        <ele>2523</ele>
        <time>2019-06-23T12:25:10Z</time>
      </trkpt>
      <trkpt lat="44.77352" lon="5.84278">
        <ele>2521.8</ele>
        <time>2019-06-23T12:25:15Z</time>
      </trkpt>
      <trkpt lat="44.77351" lon="5.84283">
        <ele>2517.4</ele>
        <time>2019-06-23T12:25:20Z</time>
      </trkpt>
      <trkpt lat="44.77348" lon="5.84287">
        <ele>2514.8</ele>
        <time>2019-06-23T12:25:25Z</time>
      </trkpt>
      <trkpt lat="44.77349" lon="5.84291">
        <ele>2514.4</ele>
        <time>2019-06-23T12:25:30Z</time>
      </trkpt>
      <trkpt lat="44.77348" lon="5.84296">
        <ele>2510.2</ele>
        <time>2019-06-23T12:25:35Z</time>
      </trkpt>
      <trkpt lat="44.7735" lon="5.843">
        <ele>2511.4</ele>
        <time>2019-06-23T12:25:40Z</time>
      </trkpt>
      <trkpt lat="44.77348" lon="5.84304">
        <ele>2509</ele>
        <time>2019-06-23T12:25:45Z</time>
      </trkpt>
      <trkpt lat="44.77347" lon="5.84309">
        <ele>2507.4</ele>
        <time>2019-06-23T12:25:50Z</time>
      </trkpt>
      <trkpt lat="44.77345" lon="5.84314">
        <ele>2509.2</ele>
        <time>2019-06-23T12:25:55Z</time>
      </trkpt>
      <trkpt lat="44.77344" lon="5.8432">
        <ele>2503.6</ele>
        <time>2019-06-23T12:26:00Z</time>
      </trkpt>
      <trkpt lat="44.77341" lon="5.84324">
        <ele>2502.8</ele>
        <time>2019-06-23T12:26:05Z</time>
      </trkpt>
      <trkpt lat="44.77338" lon="5.84329">
        <ele>2500.8</ele>
        <time>2019-06-23T12:26:10Z</time>
      </trkpt>
      <trkpt lat="44.77338" lon="5.84333">
        <ele>2500.6</ele>
        <time>2019-06-23T12:26:15Z</time>
      </trkpt>
      <trkpt lat="44.77334" lon="5.84336">
        <ele>2494.4</ele>
        <time>2019-06-23T12:26:20Z</time>
      </trkpt>
      <trkpt lat="44.77333" lon="5.8434">
        <ele>2497.2</ele>
        <time>2019-06-23T12:26:25Z</time>
      </trkpt>
      <trkpt lat="44.7733" lon="5.84344">
        <ele>2494.2</ele>
        <time>2019-06-23T12:26:30Z</time>
      </trkpt>
      <trkpt lat="44.77327" lon="5.84349">
        <ele>2495</ele>
        <time>2019-06-23T12:26:35Z</time>
      </trkpt>
      <trkpt lat="44.77326" lon="5.84354">
        <ele>2492.8</ele>
        <time>2019-06-23T12:26:40Z</time>
      </trkpt>
      <trkpt lat="44.77323" lon="5.84358">
        <ele>2488.4</ele>
        <time>2019-06-23T12:26:45Z</time>
      </trkpt>
      <trkpt lat="44.7732" lon="5.84364">
        <ele>2487.8</ele>
        <time>2019-06-23T12:26:50Z</time>
      </trkpt>
      <trkpt lat="44.77317" lon="5.84369">
        <ele>2483.4</ele>
        <time>2019-06-23T12:26:55Z</time>
      </trkpt>
      <trkpt lat="44.77316" lon="5.84373">
        <ele>2484.8</ele>
        <time>2019-06-23T12:27:30Z</time>
      </trkpt>
      <trkpt lat="44.77316" lon="5.84372">
        <ele>2485.2</ele>
        <time>2019-06-23T12:28:15Z</time>
      </trkpt>
      <trkpt lat="44.77318" lon="5.84374">
        <ele>2485.8</ele>
        <time>2019-06-23T12:28:20Z</time>
      </trkpt>
      <trkpt lat="44.7732" lon="5.84374">
        <ele>2482.6</ele>
        <time>2019-06-23T12:28:25Z</time>
      </trkpt>
      <trkpt lat="44.77324" lon="5.84374">
        <ele>2483.4</ele>
        <time>2019-06-23T12:28:30Z</time>
      </trkpt>
      <trkpt lat="44.77329" lon="5.84375">
        <ele>2482.4</ele>
        <time>2019-06-23T12:28:40Z</time>
      </trkpt>
      <trkpt lat="44.77329" lon="5.84379">
        <ele>2480.2</ele>
        <time>2019-06-23T12:28:45Z</time>
      </trkpt>
      <trkpt lat="44.77328" lon="5.84384">
        <ele>2480.8</ele>
        <time>2019-06-23T12:28:50Z</time>
      </trkpt>
      <trkpt lat="44.77326" lon="5.84388">
        <ele>2478.6</ele>
        <time>2019-06-23T12:28:55Z</time>
      </trkpt>
      <trkpt lat="44.77326" lon="5.84391">
        <ele>2479</ele>
        <time>2019-06-23T12:29:00Z</time>
      </trkpt>
      <trkpt lat="44.77327" lon="5.84394">
        <ele>2478.6</ele>
        <time>2019-06-23T12:29:05Z</time>
      </trkpt>
      <trkpt lat="44.77327" lon="5.84401">
        <ele>2477.8</ele>
        <time>2019-06-23T12:29:10Z</time>
      </trkpt>
      <trkpt lat="44.77329" lon="5.84406">
        <ele>2474.2</ele>
        <time>2019-06-23T12:29:15Z</time>
      </trkpt>
      <trkpt lat="44.77328" lon="5.84412">
        <ele>2471.2</ele>
        <time>2019-06-23T12:29:20Z</time>
      </trkpt>
      <trkpt lat="44.77327" lon="5.84418">
        <ele>2473.6</ele>
        <time>2019-06-23T12:29:25Z</time>
      </trkpt>
      <trkpt lat="44.77331" lon="5.84422">
        <ele>2469.8</ele>
        <time>2019-06-23T12:29:30Z</time>
      </trkpt>
      <trkpt lat="44.77332" lon="5.84427">
        <ele>2469.8</ele>
        <time>2019-06-23T12:29:35Z</time>
      </trkpt>
      <trkpt lat="44.77332" lon="5.84431">
        <ele>2471.6</ele>
        <time>2019-06-23T12:30:20Z</time>
      </trkpt>
      <trkpt lat="44.77332" lon="5.84434">
        <ele>2471.2</ele>
        <time>2019-06-23T12:30:25Z</time>
      </trkpt>
      <trkpt lat="44.77331" lon="5.84442">
        <ele>2467.2</ele>
        <time>2019-06-23T12:31:20Z</time>
      </trkpt>
      <trkpt lat="44.7733" lon="5.84442">
        <ele>2464.6</ele>
        <time>2019-06-23T12:31:25Z</time>
      </trkpt>
      <trkpt lat="44.77331" lon="5.84444">
        <ele>2462</ele>
        <time>2019-06-23T12:32:15Z</time>
      </trkpt>
      <trkpt lat="44.77333" lon="5.84444">
        <ele>2459.8</ele>
        <time>2019-06-23T12:32:20Z</time>
      </trkpt>
      <trkpt lat="44.77335" lon="5.84443">
        <ele>2461.4</ele>
        <time>2019-06-23T12:32:25Z</time>
      </trkpt>
      <trkpt lat="44.77336" lon="5.84442">
        <ele>2461.2</ele>
        <time>2019-06-23T12:32:30Z</time>
      </trkpt>
      <trkpt lat="44.77337" lon="5.84441">
        <ele>2460.4</ele>
        <time>2019-06-23T12:32:35Z</time>
      </trkpt>
      <trkpt lat="44.77338" lon="5.84442">
        <ele>2458.4</ele>
        <time>2019-06-23T12:32:40Z</time>
      </trkpt>
      <trkpt lat="44.77339" lon="5.84442">
        <ele>2459</ele>
        <time>2019-06-23T12:32:45Z</time>
      </trkpt>
      <trkpt lat="44.7734" lon="5.84438">
        <ele>2460.8</ele>
        <time>2019-06-23T12:32:50Z</time>
      </trkpt>
      <trkpt lat="44.77343" lon="5.84433">
        <ele>2459.6</ele>
        <time>2019-06-23T12:32:55Z</time>
      </trkpt>
      <trkpt lat="44.77343" lon="5.8443">
        <ele>2457.8</ele>
        <time>2019-06-23T12:33:00Z</time>
      </trkpt>
      <trkpt lat="44.77343" lon="5.84429">
        <ele>2457.6</ele>
        <time>2019-06-23T12:33:15Z</time>
      </trkpt>
      <trkpt lat="44.77342" lon="5.84426">
        <ele>2455.8</ele>
        <time>2019-06-23T12:33:20Z</time>
      </trkpt>
      <trkpt lat="44.77342" lon="5.84426">
        <ele>2455.8</ele>
        <time>2019-06-23T12:33:25Z</time>
      </trkpt>
      <trkpt lat="44.77342" lon="5.84423">
        <ele>2454.6</ele>
        <time>2019-06-23T12:33:30Z</time>
      </trkpt>
      <trkpt lat="44.77343" lon="5.84419">
        <ele>2455.2</ele>
        <time>2019-06-23T12:33:35Z</time>
      </trkpt>
      <trkpt lat="44.77343" lon="5.84416">
        <ele>2454.6</ele>
        <time>2019-06-23T12:33:40Z</time>
      </trkpt>
      <trkpt lat="44.77343" lon="5.84416">
        <ele>2454</ele>
        <time>2019-06-23T12:33:55Z</time>
      </trkpt>
      <trkpt lat="44.77344" lon="5.84414">
        <ele>2454</ele>
        <time>2019-06-23T12:34:00Z</time>
      </trkpt>
      <trkpt lat="44.77344" lon="5.84413">
        <ele>2454.2</ele>
        <time>2019-06-23T12:34:05Z</time>
      </trkpt>
      <trkpt lat="44.77345" lon="5.84411">
        <ele>2457</ele>
        <time>2019-06-23T12:34:10Z</time>
      </trkpt>
      <trkpt lat="44.77346" lon="5.84411">
        <ele>2456.2</ele>
        <time>2019-06-23T12:34:25Z</time>
      </trkpt>
      <trkpt lat="44.77346" lon="5.84412">
        <ele>2456</ele>
        <time>2019-06-23T12:34:30Z</time>
      </trkpt>
      <trkpt lat="44.77346" lon="5.84415">
        <ele>2455.2</ele>
        <time>2019-06-23T12:34:35Z</time>
      </trkpt>
      <trkpt lat="44.77346" lon="5.84416">
        <ele>2456.2</ele>
        <time>2019-06-23T12:34:40Z</time>
      </trkpt>
      <trkpt lat="44.77345" lon="5.84419">
        <ele>2456.4</ele>
        <time>2019-06-23T12:34:45Z</time>
      </trkpt>
      <trkpt lat="44.77345" lon="5.84423">
        <ele>2455</ele>
        <time>2019-06-23T12:34:50Z</time>
      </trkpt>
      <trkpt lat="44.77346" lon="5.84427">
        <ele>2455.2</ele>
        <time>2019-06-23T12:34:55Z</time>
      </trkpt>
      <trkpt lat="44.7735" lon="5.84429">
        <ele>2458</ele>
        <time>2019-06-23T12:35:00Z</time>
      </trkpt>
      <trkpt lat="44.77351" lon="5.8443">
        <ele>2459.6</ele>
        <time>2019-06-23T12:35:05Z</time>
      </trkpt>
      <trkpt lat="44.77351" lon="5.84431">
        <ele>2462.6</ele>
        <time>2019-06-23T12:35:25Z</time>
      </trkpt>
      <trkpt lat="44.7735" lon="5.84429">
        <ele>2462.8</ele>
        <time>2019-06-23T12:35:30Z</time>
      </trkpt>
      <trkpt lat="44.7735" lon="5.84426">
        <ele>2458.8</ele>
        <time>2019-06-23T12:35:35Z</time>
      </trkpt>
      <trkpt lat="44.7735" lon="5.84425">
        <ele>2457.4</ele>
        <time>2019-06-23T12:35:40Z</time>
      </trkpt>
      <trkpt lat="44.7735" lon="5.84424">
        <ele>2455</ele>
        <time>2019-06-23T12:35:45Z</time>
      </trkpt>
      <trkpt lat="44.7735" lon="5.84422">
        <ele>2453.6</ele>
        <time>2019-06-23T12:35:50Z</time>
      </trkpt>
      <trkpt lat="44.77351" lon="5.8442">
        <ele>2450.4</ele>
        <time>2019-06-23T12:35:55Z</time>
      </trkpt>
      <trkpt lat="44.77352" lon="5.84419">
        <ele>2448.2</ele>
        <time>2019-06-23T12:36:10Z</time>
      </trkpt>
      <trkpt lat="44.77353" lon="5.84419">
        <ele>2446.2</ele>
        <time>2019-06-23T12:36:15Z</time>
      </trkpt>
      <trkpt lat="44.77354" lon="5.84419">
        <ele>2445.6</ele>
        <time>2019-06-23T12:36:25Z</time>
      </trkpt>
      <trkpt lat="44.77355" lon="5.84419">
        <ele>2445.6</ele>
        <time>2019-06-23T12:36:31Z</time>
      </trkpt>
      <trkpt lat="44.77355" lon="5.84419">
        <ele>2444.6</ele>
        <time>2019-06-23T12:36:36Z</time>
      </trkpt>
      <trkpt lat="44.77356" lon="5.84418">
        <ele>2443.8</ele>
        <time>2019-06-23T12:36:41Z</time>
      </trkpt>
      <trkpt lat="44.77356" lon="5.84419">
        <ele>2443</ele>
        <time>2019-06-23T12:36:51Z</time>
      </trkpt>
      <trkpt lat="44.77357" lon="5.84418">
        <ele>2442.2</ele>
        <time>2019-06-23T12:37:06Z</time>
      </trkpt>
      <trkpt lat="44.77358" lon="5.84418">
        <ele>2441.2</ele>
        <time>2019-06-23T12:37:16Z</time>
      </trkpt>
      <trkpt lat="44.77358" lon="5.84418">
        <ele>2439.8</ele>
        <time>2019-06-23T12:37:26Z</time>
      </trkpt>
      <trkpt lat="44.77359" lon="5.84418">
        <ele>2440</ele>
        <time>2019-06-23T12:37:31Z</time>
      </trkpt>
      <trkpt lat="44.7736" lon="5.84419">
        <ele>2440.2</ele>
        <time>2019-06-23T12:37:36Z</time>
      </trkpt>
      <trkpt lat="44.77361" lon="5.8442">
        <ele>2442.4</ele>
        <time>2019-06-23T12:37:41Z</time>
      </trkpt>
      <trkpt lat="44.77361" lon="5.84423">
        <ele>2441.4</ele>
        <time>2019-06-23T12:37:51Z</time>
      </trkpt>
      <trkpt lat="44.77358" lon="5.84428">
        <ele>2441.8</ele>
        <time>2019-06-23T12:37:56Z</time>
      </trkpt>
      <trkpt lat="44.77358" lon="5.84433">
        <ele>2442</ele>
        <time>2019-06-23T12:38:01Z</time>
      </trkpt>
      <trkpt lat="44.77358" lon="5.84437">
        <ele>2442</ele>
        <time>2019-06-23T12:38:06Z</time>
      </trkpt>
      <trkpt lat="44.77361" lon="5.84444">
        <ele>2449.8</ele>
        <time>2019-06-23T12:38:41Z</time>
      </trkpt>
      <trkpt lat="44.77361" lon="5.84446">
        <ele>2452.2</ele>
        <time>2019-06-23T12:38:46Z</time>
      </trkpt>
      <trkpt lat="44.77361" lon="5.84447">
        <ele>2454</ele>
        <time>2019-06-23T12:38:51Z</time>
      </trkpt>
      <trkpt lat="44.77362" lon="5.84447">
        <ele>2456</ele>
        <time>2019-06-23T12:38:56Z</time>
      </trkpt>
      <trkpt lat="44.77362" lon="5.84448">
        <ele>2458.4</ele>
        <time>2019-06-23T12:39:06Z</time>
      </trkpt>
      <trkpt lat="44.77363" lon="5.84448">
        <ele>2458.2</ele>
        <time>2019-06-23T12:39:11Z</time>
      </trkpt>
      <trkpt lat="44.77364" lon="5.84448">
        <ele>2460.4</ele>
        <time>2019-06-23T12:39:16Z</time>
      </trkpt>
      <trkpt lat="44.77364" lon="5.8445">
        <ele>2464.2</ele>
        <time>2019-06-23T12:39:26Z</time>
      </trkpt>
      <trkpt lat="44.77364" lon="5.8445">
        <ele>2468.8</ele>
        <time>2019-06-23T12:39:41Z</time>
      </trkpt>
      <trkpt lat="44.77364" lon="5.84451">
        <ele>2469.2</ele>
        <time>2019-06-23T12:39:46Z</time>
      </trkpt>
      <trkpt lat="44.77365" lon="5.84453">
        <ele>2470.2</ele>
        <time>2019-06-23T12:39:51Z</time>
      </trkpt>
      <trkpt lat="44.77366" lon="5.84455">
        <ele>2471.6</ele>
        <time>2019-06-23T12:39:56Z</time>
      </trkpt>
      <trkpt lat="44.77367" lon="5.84457">
        <ele>2472.8</ele>
        <time>2019-06-23T12:40:01Z</time>
      </trkpt>
      <trkpt lat="44.77368" lon="5.8446">
        <ele>2471.8</ele>
        <time>2019-06-23T12:40:06Z</time>
      </trkpt>
      <trkpt lat="44.77368" lon="5.84461">
        <ele>2472.6</ele>
        <time>2019-06-23T12:40:11Z</time>
      </trkpt>
      <trkpt lat="44.77368" lon="5.84465">
        <ele>2473.4</ele>
        <time>2019-06-23T12:40:16Z</time>
      </trkpt>
      <trkpt lat="44.77368" lon="5.84468">
        <ele>2474.6</ele>
        <time>2019-06-23T12:40:21Z</time>
      </trkpt>
      <trkpt lat="44.7737" lon="5.84473">
        <ele>2477.6</ele>
        <time>2019-06-23T12:40:31Z</time>
      </trkpt>
      <trkpt lat="44.77373" lon="5.84479">
        <ele>2486.4</ele>
        <time>2019-06-23T12:40:56Z</time>
      </trkpt>
      <trkpt lat="44.77373" lon="5.84477">
        <ele>2486.6</ele>
        <time>2019-06-23T12:41:01Z</time>
      </trkpt>
      <trkpt lat="44.77373" lon="5.84471">
        <ele>2481.2</ele>
        <time>2019-06-23T12:41:16Z</time>
      </trkpt>
      <trkpt lat="44.77374" lon="5.8447">
        <ele>2478</ele>
        <time>2019-06-23T12:41:21Z</time>
      </trkpt>
      <trkpt lat="44.77375" lon="5.84468">
        <ele>2475.2</ele>
        <time>2019-06-23T12:41:26Z</time>
      </trkpt>
      <trkpt lat="44.77375" lon="5.84466">
        <ele>2472.2</ele>
        <time>2019-06-23T12:41:31Z</time>
      </trkpt>
      <trkpt lat="44.77375" lon="5.84465">
        <ele>2469.4</ele>
        <time>2019-06-23T12:41:36Z</time>
      </trkpt>
      <trkpt lat="44.77376" lon="5.84464">
        <ele>2467.6</ele>
        <time>2019-06-23T12:41:41Z</time>
      </trkpt>
      <trkpt lat="44.77378" lon="5.84464">
        <ele>2453.8</ele>
        <time>2019-06-23T12:42:11Z</time>
      </trkpt>
      <trkpt lat="44.7738" lon="5.84466">
        <ele>2445.2</ele>
        <time>2019-06-23T12:42:26Z</time>
      </trkpt>
      <trkpt lat="44.7738" lon="5.84468">
        <ele>2443.2</ele>
        <time>2019-06-23T12:42:31Z</time>
      </trkpt>
      <trkpt lat="44.77382" lon="5.84471">
        <ele>2438.8</ele>
        <time>2019-06-23T12:42:36Z</time>
      </trkpt>
      <trkpt lat="44.77382" lon="5.84473">
        <ele>2440.2</ele>
        <time>2019-06-23T12:42:41Z</time>
      </trkpt>
      <trkpt lat="44.77385" lon="5.84473">
        <ele>2439.4</ele>
        <time>2019-06-23T12:42:56Z</time>
      </trkpt>
      <trkpt lat="44.77386" lon="5.84475">
        <ele>2440.8</ele>
        <time>2019-06-23T12:43:01Z</time>
      </trkpt>
      <trkpt lat="44.77386" lon="5.84478">
        <ele>2440.8</ele>
        <time>2019-06-23T12:43:06Z</time>
      </trkpt>
      <trkpt lat="44.77388" lon="5.84482">
        <ele>2446.2</ele>
        <time>2019-06-23T12:43:12Z</time>
      </trkpt>
      <trkpt lat="44.77391" lon="5.84486">
        <ele>2447.6</ele>
        <time>2019-06-23T12:43:17Z</time>
      </trkpt>
      <trkpt lat="44.77392" lon="5.84489">
        <ele>2453</ele>
        <time>2019-06-23T12:43:22Z</time>
      </trkpt>
      <trkpt lat="44.77392" lon="5.84495">
        <ele>2455.4</ele>
        <time>2019-06-23T12:43:27Z</time>
      </trkpt>
      <trkpt lat="44.77393" lon="5.84499">
        <ele>2457.6</ele>
        <time>2019-06-23T12:43:32Z</time>
      </trkpt>
      <trkpt lat="44.77394" lon="5.84502">
        <ele>2464.8</ele>
        <time>2019-06-23T12:43:37Z</time>
      </trkpt>
      <trkpt lat="44.77396" lon="5.84506">
        <ele>2467.6</ele>
        <time>2019-06-23T12:43:42Z</time>
      </trkpt>
      <trkpt lat="44.77395" lon="5.84507">
        <ele>2474.4</ele>
        <time>2019-06-23T12:43:47Z</time>
      </trkpt>
      <trkpt lat="44.77396" lon="5.84509">
        <ele>2476.2</ele>
        <time>2019-06-23T12:43:52Z</time>
      </trkpt>
      <trkpt lat="44.77397" lon="5.84512">
        <ele>2479</ele>
        <time>2019-06-23T12:43:57Z</time>
      </trkpt>
      <trkpt lat="44.77401" lon="5.84513">
        <ele>2484</ele>
        <time>2019-06-23T12:44:02Z</time>
      </trkpt>
      <trkpt lat="44.77402" lon="5.84513">
        <ele>2486.4</ele>
        <time>2019-06-23T12:44:07Z</time>
      </trkpt>
      <trkpt lat="44.77404" lon="5.84515">
        <ele>2498.8</ele>
        <time>2019-06-23T12:44:22Z</time>
      </trkpt>
      <trkpt lat="44.77406" lon="5.84514">
        <ele>2501.8</ele>
        <time>2019-06-23T12:44:27Z</time>
      </trkpt>
      <trkpt lat="44.77407" lon="5.84509">
        <ele>2511.8</ele>
        <time>2019-06-23T12:44:42Z</time>
      </trkpt>
      <trkpt lat="44.77411" lon="5.84505">
        <ele>2520.4</ele>
        <time>2019-06-23T12:44:52Z</time>
      </trkpt>
      <trkpt lat="44.77412" lon="5.84505">
        <ele>2534.8</ele>
        <time>2019-06-23T12:45:07Z</time>
      </trkpt>
      <trkpt lat="44.77415" lon="5.84503">
        <ele>2538</ele>
        <time>2019-06-23T12:45:12Z</time>
      </trkpt>
      <trkpt lat="44.77417" lon="5.84502">
        <ele>2543.4</ele>
        <time>2019-06-23T12:45:17Z</time>
      </trkpt>
      <trkpt lat="44.77418" lon="5.845">
        <ele>2550</ele>
        <time>2019-06-23T12:45:22Z</time>
      </trkpt>
      <trkpt lat="44.77419" lon="5.84498">
        <ele>2547.6</ele>
        <time>2019-06-23T12:45:32Z</time>
      </trkpt>
      <trkpt lat="44.77419" lon="5.84498">
        <ele>2549</ele>
        <time>2019-06-23T12:46:32Z</time>
      </trkpt>
      <trkpt lat="44.7742" lon="5.84493">
        <ele>2543.8</ele>
        <time>2019-06-23T12:46:37Z</time>
      </trkpt>
      <trkpt lat="44.77424" lon="5.84488">
        <ele>2516.6</ele>
        <time>2019-06-23T12:46:57Z</time>
      </trkpt>
      <trkpt lat="44.77427" lon="5.84487">
        <ele>2505.4</ele>
        <time>2019-06-23T12:47:02Z</time>
      </trkpt>
      <trkpt lat="44.77428" lon="5.84488">
        <ele>2496.8</ele>
        <time>2019-06-23T12:47:07Z</time>
      </trkpt>
      <trkpt lat="44.77429" lon="5.84488">
        <ele>2488.4</ele>
        <time>2019-06-23T12:47:12Z</time>
      </trkpt>
      <trkpt lat="44.77433" lon="5.84484">
        <ele>2480.4</ele>
        <time>2019-06-23T12:47:17Z</time>
      </trkpt>
      <trkpt lat="44.77437" lon="5.84482">
        <ele>2473.2</ele>
        <time>2019-06-23T12:47:22Z</time>
      </trkpt>
      <trkpt lat="44.77443" lon="5.84478">
        <ele>2466</ele>
        <time>2019-06-23T12:47:27Z</time>
      </trkpt>
      <trkpt lat="44.77447" lon="5.84474">
        <ele>2459.2</ele>
        <time>2019-06-23T12:47:32Z</time>
      </trkpt>
      <trkpt lat="44.77452" lon="5.84472">
        <ele>2454</ele>
        <time>2019-06-23T12:47:37Z</time>
      </trkpt>
      <trkpt lat="44.77454" lon="5.8447">
        <ele>2446.6</ele>
        <time>2019-06-23T12:47:42Z</time>
      </trkpt>
      <trkpt lat="44.77457" lon="5.84468">
        <ele>2440.6</ele>
        <time>2019-06-23T12:47:47Z</time>
      </trkpt>
      <trkpt lat="44.77461" lon="5.84464">
        <ele>2435</ele>
        <time>2019-06-23T12:47:52Z</time>
      </trkpt>
      <trkpt lat="44.77466" lon="5.84463">
        <ele>2426.8</ele>
        <time>2019-06-23T12:47:57Z</time>
      </trkpt>
      <trkpt lat="44.77469" lon="5.84462">
        <ele>2423.8</ele>
        <time>2019-06-23T12:48:02Z</time>
      </trkpt>
      <trkpt lat="44.77472" lon="5.8446">
        <ele>2418</ele>
        <time>2019-06-23T12:48:07Z</time>
      </trkpt>
      <trkpt lat="44.77479" lon="5.84457">
        <ele>2412.2</ele>
        <time>2019-06-23T12:48:12Z</time>
      </trkpt>
      <trkpt lat="44.77483" lon="5.84454">
        <ele>2408.6</ele>
        <time>2019-06-23T12:48:17Z</time>
      </trkpt>
      <trkpt lat="44.77486" lon="5.84455">
        <ele>2405</ele>
        <time>2019-06-23T12:48:22Z</time>
      </trkpt>
      <trkpt lat="44.7749" lon="5.84456">
        <ele>2404</ele>
        <time>2019-06-23T12:48:27Z</time>
      </trkpt>
      <trkpt lat="44.77493" lon="5.84455">
        <ele>2400.6</ele>
        <time>2019-06-23T12:48:32Z</time>
      </trkpt>
      <trkpt lat="44.77495" lon="5.84454">
        <ele>2401.6</ele>
        <time>2019-06-23T12:48:37Z</time>
      </trkpt>
      <trkpt lat="44.77497" lon="5.84455">
        <ele>2400.4</ele>
        <time>2019-06-23T12:48:42Z</time>
      </trkpt>
      <trkpt lat="44.775" lon="5.84456">
        <ele>2389.6</ele>
        <time>2019-06-23T12:48:57Z</time>
      </trkpt>
      <trkpt lat="44.77504" lon="5.84459">
        <ele>2385.6</ele>
        <time>2019-06-23T12:49:02Z</time>
      </trkpt>
      <trkpt lat="44.77507" lon="5.84461">
        <ele>2385.4</ele>
        <time>2019-06-23T12:49:07Z</time>
      </trkpt>
      <trkpt lat="44.7751" lon="5.84462">
        <ele>2383.8</ele>
        <time>2019-06-23T12:49:12Z</time>
      </trkpt>
      <trkpt lat="44.77513" lon="5.84464">
        <ele>2381.8</ele>
        <time>2019-06-23T12:49:17Z</time>
      </trkpt>
      <trkpt lat="44.77518" lon="5.84464">
        <ele>2385</ele>
        <time>2019-06-23T12:49:22Z</time>
      </trkpt>
      <trkpt lat="44.77522" lon="5.84463">
        <ele>2380</ele>
        <time>2019-06-23T12:49:27Z</time>
      </trkpt>
      <trkpt lat="44.77526" lon="5.84464">
        <ele>2379.6</ele>
        <time>2019-06-23T12:49:32Z</time>
      </trkpt>
      <trkpt lat="44.77529" lon="5.84466">
        <ele>2379.8</ele>
        <time>2019-06-23T12:49:38Z</time>
      </trkpt>
      <trkpt lat="44.77535" lon="5.84472">
        <ele>2377.6</ele>
        <time>2019-06-23T12:49:43Z</time>
      </trkpt>
      <trkpt lat="44.77539" lon="5.84473">
        <ele>2373.4</ele>
        <time>2019-06-23T12:49:48Z</time>
      </trkpt>
      <trkpt lat="44.77542" lon="5.84472">
        <ele>2371.4</ele>
        <time>2019-06-23T12:49:53Z</time>
      </trkpt>
      <trkpt lat="44.77546" lon="5.84474">
        <ele>2368</ele>
        <time>2019-06-23T12:49:58Z</time>
      </trkpt>
      <trkpt lat="44.77549" lon="5.84475">
        <ele>2365</ele>
        <time>2019-06-23T12:50:03Z</time>
      </trkpt>
      <trkpt lat="44.77551" lon="5.84474">
        <ele>2363.6</ele>
        <time>2019-06-23T12:50:08Z</time>
      </trkpt>
      <trkpt lat="44.77554" lon="5.84475">
        <ele>2362.8</ele>
        <time>2019-06-23T12:50:13Z</time>
      </trkpt>
      <trkpt lat="44.77557" lon="5.84479">
        <ele>2364.8</ele>
        <time>2019-06-23T12:50:18Z</time>
      </trkpt>
      <trkpt lat="44.77561" lon="5.84479">
        <ele>2361.6</ele>
        <time>2019-06-23T12:50:23Z</time>
      </trkpt>
      <trkpt lat="44.77565" lon="5.84472">
        <ele>2357</ele>
        <time>2019-06-23T12:50:28Z</time>
      </trkpt>
      <trkpt lat="44.77571" lon="5.84462">
        <ele>2342.2</ele>
        <time>2019-06-23T12:50:43Z</time>
      </trkpt>
      <trkpt lat="44.77572" lon="5.84462">
        <ele>2338</ele>
        <time>2019-06-23T12:50:48Z</time>
      </trkpt>
      <trkpt lat="44.77574" lon="5.84458">
        <ele>2327.4</ele>
        <time>2019-06-23T12:51:03Z</time>
      </trkpt>
      <trkpt lat="44.77579" lon="5.84454">
        <ele>2323</ele>
        <time>2019-06-23T12:51:08Z</time>
      </trkpt>
      <trkpt lat="44.77581" lon="5.84452">
        <ele>2321.2</ele>
        <time>2019-06-23T12:51:13Z</time>
      </trkpt>
      <trkpt lat="44.77582" lon="5.84452">
        <ele>2318.8</ele>
        <time>2019-06-23T12:51:18Z</time>
      </trkpt>
      <trkpt lat="44.77585" lon="5.84451">
        <ele>2313.6</ele>
        <time>2019-06-23T12:51:23Z</time>
      </trkpt>
      <trkpt lat="44.77586" lon="5.84448">
        <ele>2312.2</ele>
        <time>2019-06-23T12:51:28Z</time>
      </trkpt>
      <trkpt lat="44.77587" lon="5.84447">
        <ele>2313</ele>
        <time>2019-06-23T12:51:33Z</time>
      </trkpt>
      <trkpt lat="44.77587" lon="5.84447">
        <ele>2311.8</ele>
        <time>2019-06-23T12:51:38Z</time>
      </trkpt>
      <trkpt lat="44.77589" lon="5.84441">
        <ele>2311.4</ele>
        <time>2019-06-23T12:51:43Z</time>
      </trkpt>
      <trkpt lat="44.77593" lon="5.84437">
        <ele>2308.4</ele>
        <time>2019-06-23T12:51:48Z</time>
      </trkpt>
      <trkpt lat="44.77597" lon="5.84433">
        <ele>2308.4</ele>
        <time>2019-06-23T12:51:53Z</time>
      </trkpt>
      <trkpt lat="44.776" lon="5.84432">
        <ele>2307</ele>
        <time>2019-06-23T12:51:58Z</time>
      </trkpt>
      <trkpt lat="44.77604" lon="5.8443">
        <ele>2309.8</ele>
        <time>2019-06-23T12:52:03Z</time>
      </trkpt>
      <trkpt lat="44.77607" lon="5.84426">
        <ele>2307</ele>
        <time>2019-06-23T12:52:08Z</time>
      </trkpt>
      <trkpt lat="44.7761" lon="5.84424">
        <ele>2308.4</ele>
        <time>2019-06-23T12:52:13Z</time>
      </trkpt>
      <trkpt lat="44.77613" lon="5.84425">
        <ele>2306.2</ele>
        <time>2019-06-23T12:52:18Z</time>
      </trkpt>
      <trkpt lat="44.77615" lon="5.84424">
        <ele>2306.2</ele>
        <time>2019-06-23T12:52:23Z</time>
      </trkpt>
      <trkpt lat="44.77617" lon="5.84425">
        <ele>2305.2</ele>
        <time>2019-06-23T12:52:28Z</time>
      </trkpt>
      <trkpt lat="44.77619" lon="5.84425">
        <ele>2305.8</ele>
        <time>2019-06-23T12:52:33Z</time>
      </trkpt>
      <trkpt lat="44.77621" lon="5.84428">
        <ele>2306.2</ele>
        <time>2019-06-23T12:52:38Z</time>
      </trkpt>
      <trkpt lat="44.77624" lon="5.84428">
        <ele>2306.4</ele>
        <time>2019-06-23T12:52:43Z</time>
      </trkpt>
      <trkpt lat="44.77628" lon="5.84428">
        <ele>2307</ele>
        <time>2019-06-23T12:52:48Z</time>
      </trkpt>
      <trkpt lat="44.7763" lon="5.8443">
        <ele>2308.6</ele>
        <time>2019-06-23T12:52:53Z</time>
      </trkpt>
      <trkpt lat="44.77633" lon="5.84431">
        <ele>2307.6</ele>
        <time>2019-06-23T12:52:58Z</time>
      </trkpt>
      <trkpt lat="44.77634" lon="5.84433">
        <ele>2309.2</ele>
        <time>2019-06-23T12:53:03Z</time>
      </trkpt>
      <trkpt lat="44.77635" lon="5.84434">
        <ele>2307.4</ele>
        <time>2019-06-23T12:53:18Z</time>
      </trkpt>
      <trkpt lat="44.77636" lon="5.84436">
        <ele>2304.4</ele>
        <time>2019-06-23T12:53:23Z</time>
      </trkpt>
      <trkpt lat="44.7764" lon="5.84436">
        <ele>2304.4</ele>
        <time>2019-06-23T12:53:28Z</time>
      </trkpt>
      <trkpt lat="44.77641" lon="5.84436">
        <ele>2305.4</ele>
        <time>2019-06-23T12:53:33Z</time>
      </trkpt>
      <trkpt lat="44.77644" lon="5.84435">
        <ele>2301.8</ele>
        <time>2019-06-23T12:53:38Z</time>
      </trkpt>
      <trkpt lat="44.77648" lon="5.84433">
        <ele>2305.6</ele>
        <time>2019-06-23T12:53:43Z</time>
      </trkpt>
      <trkpt lat="44.77651" lon="5.84432">
        <ele>2304.4</ele>
        <time>2019-06-23T12:53:48Z</time>
      </trkpt>
      <trkpt lat="44.77652" lon="5.84432">
        <ele>2302.6</ele>
        <time>2019-06-23T12:53:53Z</time>
      </trkpt>
      <trkpt lat="44.77654" lon="5.84433">
        <ele>2298.4</ele>
        <time>2019-06-23T12:53:58Z</time>
      </trkpt>
      <trkpt lat="44.77658" lon="5.84431">
        <ele>2299.4</ele>
        <time>2019-06-23T12:54:03Z</time>
      </trkpt>
      <trkpt lat="44.77661" lon="5.8443">
        <ele>2295.6</ele>
        <time>2019-06-23T12:54:08Z</time>
      </trkpt>
      <trkpt lat="44.77664" lon="5.84429">
        <ele>2296.2</ele>
        <time>2019-06-23T12:54:13Z</time>
      </trkpt>
      <trkpt lat="44.77665" lon="5.84428">
        <ele>2297</ele>
        <time>2019-06-23T12:54:18Z</time>
      </trkpt>
      <trkpt lat="44.77667" lon="5.84428">
        <ele>2294</ele>
        <time>2019-06-23T12:54:23Z</time>
      </trkpt>
      <trkpt lat="44.77671" lon="5.84426">
        <ele>2293</ele>
        <time>2019-06-23T12:54:28Z</time>
      </trkpt>
      <trkpt lat="44.77674" lon="5.84425">
        <ele>2294</ele>
        <time>2019-06-23T12:54:33Z</time>
      </trkpt>
      <trkpt lat="44.77675" lon="5.84425">
        <ele>2292.4</ele>
        <time>2019-06-23T12:54:38Z</time>
      </trkpt>
      <trkpt lat="44.77677" lon="5.84424">
        <ele>2291</ele>
        <time>2019-06-23T12:54:43Z</time>
      </trkpt>
      <trkpt lat="44.77678" lon="5.84424">
        <ele>2291</ele>
        <time>2019-06-23T12:54:48Z</time>
      </trkpt>
      <trkpt lat="44.7768" lon="5.84423">
        <ele>2289.2</ele>
        <time>2019-06-23T12:54:53Z</time>
      </trkpt>
      <trkpt lat="44.77682" lon="5.84424">
        <ele>2291</ele>
        <time>2019-06-23T12:54:58Z</time>
      </trkpt>
      <trkpt lat="44.77682" lon="5.84423">
        <ele>2287.6</ele>
        <time>2019-06-23T12:55:03Z</time>
      </trkpt>
      <trkpt lat="44.77683" lon="5.84423">
        <ele>2285.8</ele>
        <time>2019-06-23T12:55:08Z</time>
      </trkpt>
      <trkpt lat="44.77685" lon="5.84424">
        <ele>2286.4</ele>
        <time>2019-06-23T12:55:13Z</time>
      </trkpt>
      <trkpt lat="44.77688" lon="5.84424">
        <ele>2282</ele>
        <time>2019-06-23T12:55:18Z</time>
      </trkpt>
      <trkpt lat="44.77691" lon="5.84423">
        <ele>2284.8</ele>
        <time>2019-06-23T12:55:23Z</time>
      </trkpt>
      <trkpt lat="44.77693" lon="5.84422">
        <ele>2282.4</ele>
        <time>2019-06-23T12:55:28Z</time>
      </trkpt>
      <trkpt lat="44.77694" lon="5.84424">
        <ele>2283.4</ele>
        <time>2019-06-23T12:55:33Z</time>
      </trkpt>
      <trkpt lat="44.77696" lon="5.84424">
        <ele>2282.8</ele>
        <time>2019-06-23T12:55:38Z</time>
      </trkpt>
      <trkpt lat="44.77699" lon="5.84422">
        <ele>2282</ele>
        <time>2019-06-23T12:55:43Z</time>
      </trkpt>
      <trkpt lat="44.777" lon="5.84424">
        <ele>2284</ele>
        <time>2019-06-23T12:55:48Z</time>
      </trkpt>
      <trkpt lat="44.77702" lon="5.84425">
        <ele>2282.2</ele>
        <time>2019-06-23T12:55:53Z</time>
      </trkpt>
      <trkpt lat="44.77704" lon="5.84425">
        <ele>2281.6</ele>
        <time>2019-06-23T12:55:58Z</time>
      </trkpt>
      <trkpt lat="44.77706" lon="5.84426">
        <ele>2280</ele>
        <time>2019-06-23T12:56:03Z</time>
      </trkpt>
      <trkpt lat="44.77708" lon="5.84427">
        <ele>2281.8</ele>
        <time>2019-06-23T12:56:08Z</time>
      </trkpt>
      <trkpt lat="44.77711" lon="5.84429">
        <ele>2280.2</ele>
        <time>2019-06-23T12:56:13Z</time>
      </trkpt>
      <trkpt lat="44.77712" lon="5.8443">
        <ele>2281</ele>
        <time>2019-06-23T12:56:18Z</time>
      </trkpt>
      <trkpt lat="44.77714" lon="5.84432">
        <ele>2276.6</ele>
        <time>2019-06-23T12:56:24Z</time>
      </trkpt>
      <trkpt lat="44.77716" lon="5.84434">
        <ele>2275.8</ele>
        <time>2019-06-23T12:56:29Z</time>
      </trkpt>
      <trkpt lat="44.77718" lon="5.84435">
        <ele>2275.4</ele>
        <time>2019-06-23T12:56:34Z</time>
      </trkpt>
      <trkpt lat="44.77721" lon="5.84436">
        <ele>2276.4</ele>
        <time>2019-06-23T12:56:39Z</time>
      </trkpt>
      <trkpt lat="44.77722" lon="5.84438">
        <ele>2273.2</ele>
        <time>2019-06-23T12:56:44Z</time>
      </trkpt>
      <trkpt lat="44.77725" lon="5.84439">
        <ele>2275.6</ele>
        <time>2019-06-23T12:56:49Z</time>
      </trkpt>
      <trkpt lat="44.77728" lon="5.8444">
        <ele>2275.4</ele>
        <time>2019-06-23T12:56:54Z</time>
      </trkpt>
      <trkpt lat="44.77731" lon="5.84442">
        <ele>2276.6</ele>
        <time>2019-06-23T12:56:59Z</time>
      </trkpt>
      <trkpt lat="44.77734" lon="5.84445">
        <ele>2272.2</ele>
        <time>2019-06-23T12:57:04Z</time>
      </trkpt>
      <trkpt lat="44.77736" lon="5.84447">
        <ele>2268</ele>
        <time>2019-06-23T12:57:09Z</time>
      </trkpt>
      <trkpt lat="44.77739" lon="5.84449">
        <ele>2268.2</ele>
        <time>2019-06-23T12:57:14Z</time>
      </trkpt>
      <trkpt lat="44.7774" lon="5.84449">
        <ele>2268</ele>
        <time>2019-06-23T12:57:19Z</time>
      </trkpt>
      <trkpt lat="44.77742" lon="5.8445">
        <ele>2266</ele>
        <time>2019-06-23T12:57:24Z</time>
      </trkpt>
      <trkpt lat="44.77744" lon="5.84451">
        <ele>2266</ele>
        <time>2019-06-23T12:57:29Z</time>
      </trkpt>
      <trkpt lat="44.77746" lon="5.84452">
        <ele>2264.2</ele>
        <time>2019-06-23T12:57:34Z</time>
      </trkpt>
      <trkpt lat="44.77749" lon="5.84451">
        <ele>2261.4</ele>
        <time>2019-06-23T12:57:39Z</time>
      </trkpt>
      <trkpt lat="44.77751" lon="5.84453">
        <ele>2259.6</ele>
        <time>2019-06-23T12:57:44Z</time>
      </trkpt>
      <trkpt lat="44.77752" lon="5.84455">
        <ele>2257.6</ele>
        <time>2019-06-23T12:57:49Z</time>
      </trkpt>
      <trkpt lat="44.77754" lon="5.84455">
        <ele>2256.8</ele>
        <time>2019-06-23T12:57:54Z</time>
      </trkpt>
      <trkpt lat="44.77756" lon="5.84456">
        <ele>2256.4</ele>
        <time>2019-06-23T12:57:59Z</time>
      </trkpt>
      <trkpt lat="44.77759" lon="5.84456">
        <ele>2252.8</ele>
        <time>2019-06-23T12:58:04Z</time>
      </trkpt>
      <trkpt lat="44.77761" lon="5.84458">
        <ele>2253.6</ele>
        <time>2019-06-23T12:58:09Z</time>
      </trkpt>
      <trkpt lat="44.77762" lon="5.8446">
        <ele>2251.6</ele>
        <time>2019-06-23T12:58:14Z</time>
      </trkpt>
      <trkpt lat="44.77764" lon="5.84462">
        <ele>2251.4</ele>
        <time>2019-06-23T12:58:19Z</time>
      </trkpt>
      <trkpt lat="44.77767" lon="5.84464">
        <ele>2247.6</ele>
        <time>2019-06-23T12:58:24Z</time>
      </trkpt>
      <trkpt lat="44.7777" lon="5.84465">
        <ele>2245.6</ele>
        <time>2019-06-23T12:58:29Z</time>
      </trkpt>
      <trkpt lat="44.77774" lon="5.84467">
        <ele>2245</ele>
        <time>2019-06-23T12:58:34Z</time>
      </trkpt>
      <trkpt lat="44.77778" lon="5.84468">
        <ele>2244</ele>
        <time>2019-06-23T12:58:39Z</time>
      </trkpt>
      <trkpt lat="44.77781" lon="5.84469">
        <ele>2245.6</ele>
        <time>2019-06-23T12:58:44Z</time>
      </trkpt>
      <trkpt lat="44.77783" lon="5.84471">
        <ele>2244.6</ele>
        <time>2019-06-23T12:58:49Z</time>
      </trkpt>
      <trkpt lat="44.77786" lon="5.84473">
        <ele>2243</ele>
        <time>2019-06-23T12:58:54Z</time>
      </trkpt>
      <trkpt lat="44.77789" lon="5.84476">
        <ele>2242.4</ele>
        <time>2019-06-23T12:58:59Z</time>
      </trkpt>
      <trkpt lat="44.77791" lon="5.84479">
        <ele>2240.4</ele>
        <time>2019-06-23T12:59:04Z</time>
      </trkpt>
      <trkpt lat="44.77793" lon="5.8448">
        <ele>2241</ele>
        <time>2019-06-23T12:59:09Z</time>
      </trkpt>
      <trkpt lat="44.77794" lon="5.84483">
        <ele>2239.8</ele>
        <time>2019-06-23T12:59:19Z</time>
      </trkpt>
      <trkpt lat="44.77794" lon="5.84484">
        <ele>2240.2</ele>
        <time>2019-06-23T12:59:24Z</time>
      </trkpt>
      <trkpt lat="44.77794" lon="5.84487">
        <ele>2238.8</ele>
        <time>2019-06-23T12:59:29Z</time>
      </trkpt>
      <trkpt lat="44.77798" lon="5.8449">
        <ele>2236.6</ele>
        <time>2019-06-23T12:59:39Z</time>
      </trkpt>
      <trkpt lat="44.77806" lon="5.84502">
        <ele>2226.2</ele>
        <time>2019-06-23T13:00:39Z</time>
      </trkpt>
      <trkpt lat="44.77809" lon="5.84502">
        <ele>2224</ele>
        <time>2019-06-23T13:00:44Z</time>
      </trkpt>
      <trkpt lat="44.77811" lon="5.84507">
        <ele>2223</ele>
        <time>2019-06-23T13:00:49Z</time>
      </trkpt>
      <trkpt lat="44.77813" lon="5.84513">
        <ele>2223</ele>
        <time>2019-06-23T13:00:54Z</time>
      </trkpt>
      <trkpt lat="44.77815" lon="5.84517">
        <ele>2223</ele>
        <time>2019-06-23T13:00:59Z</time>
      </trkpt>
      <trkpt lat="44.77813" lon="5.8452">
        <ele>2223.6</ele>
        <time>2019-06-23T13:01:04Z</time>
      </trkpt>
      <trkpt lat="44.77812" lon="5.84522">
        <ele>2221.6</ele>
        <time>2019-06-23T13:01:09Z</time>
      </trkpt>
      <trkpt lat="44.7781" lon="5.84528">
        <ele>2217.8</ele>
        <time>2019-06-23T13:01:24Z</time>
      </trkpt>
      <trkpt lat="44.77808" lon="5.84531">
        <ele>2216.2</ele>
        <time>2019-06-23T13:01:29Z</time>
      </trkpt>
      <trkpt lat="44.77808" lon="5.84534">
        <ele>2218</ele>
        <time>2019-06-23T13:01:34Z</time>
      </trkpt>
      <trkpt lat="44.77807" lon="5.84535">
        <ele>2215.8</ele>
        <time>2019-06-23T13:01:39Z</time>
      </trkpt>
      <trkpt lat="44.77807" lon="5.84535">
        <ele>2215.2</ele>
        <time>2019-06-23T13:01:44Z</time>
      </trkpt>
      <trkpt lat="44.77806" lon="5.84536">
        <ele>2214.8</ele>
        <time>2019-06-23T13:01:49Z</time>
      </trkpt>
      <trkpt lat="44.77802" lon="5.84538">
        <ele>2212.2</ele>
        <time>2019-06-23T13:01:54Z</time>
      </trkpt>
      <trkpt lat="44.77801" lon="5.8454">
        <ele>2211.4</ele>
        <time>2019-06-23T13:01:59Z</time>
      </trkpt>
      <trkpt lat="44.77798" lon="5.84542">
        <ele>2211.4</ele>
        <time>2019-06-23T13:02:04Z</time>
      </trkpt>
      <trkpt lat="44.77795" lon="5.84544">
        <ele>2209.2</ele>
        <time>2019-06-23T13:02:09Z</time>
      </trkpt>
      <trkpt lat="44.77794" lon="5.84545">
        <ele>2207.6</ele>
        <time>2019-06-23T13:02:14Z</time>
      </trkpt>
      <trkpt lat="44.77793" lon="5.84546">
        <ele>2208.8</ele>
        <time>2019-06-23T13:02:19Z</time>
      </trkpt>
      <trkpt lat="44.77791" lon="5.84548">
        <ele>2211.2</ele>
        <time>2019-06-23T13:02:24Z</time>
      </trkpt>
      <trkpt lat="44.77788" lon="5.84549">
        <ele>2208.8</ele>
        <time>2019-06-23T13:02:29Z</time>
      </trkpt>
      <trkpt lat="44.77784" lon="5.84551">
        <ele>2206.8</ele>
        <time>2019-06-23T13:02:34Z</time>
      </trkpt>
      <trkpt lat="44.7778" lon="5.84553">
        <ele>2203</ele>
        <time>2019-06-23T13:02:39Z</time>
      </trkpt>
      <trkpt lat="44.77778" lon="5.84555">
        <ele>2206</ele>
        <time>2019-06-23T13:02:44Z</time>
      </trkpt>
      <trkpt lat="44.77775" lon="5.84558">
        <ele>2203.8</ele>
        <time>2019-06-23T13:02:49Z</time>
      </trkpt>
      <trkpt lat="44.77772" lon="5.8456">
        <ele>2202.8</ele>
        <time>2019-06-23T13:02:54Z</time>
      </trkpt>
      <trkpt lat="44.77769" lon="5.8456">
        <ele>2200.4</ele>
        <time>2019-06-23T13:02:59Z</time>
      </trkpt>
      <trkpt lat="44.77767" lon="5.84561">
        <ele>2201.2</ele>
        <time>2019-06-23T13:03:04Z</time>
      </trkpt>
      <trkpt lat="44.77763" lon="5.84562">
        <ele>2200.2</ele>
        <time>2019-06-23T13:03:09Z</time>
      </trkpt>
      <trkpt lat="44.7776" lon="5.84562">
        <ele>2197.4</ele>
        <time>2019-06-23T13:03:14Z</time>
      </trkpt>
      <trkpt lat="44.77759" lon="5.84563">
        <ele>2196.4</ele>
        <time>2019-06-23T13:03:19Z</time>
      </trkpt>
      <trkpt lat="44.77757" lon="5.84565">
        <ele>2196.4</ele>
        <time>2019-06-23T13:03:24Z</time>
      </trkpt>
      <trkpt lat="44.77757" lon="5.84566">
        <ele>2193.4</ele>
        <time>2019-06-23T13:03:29Z</time>
      </trkpt>
      <trkpt lat="44.77754" lon="5.84568">
        <ele>2193.8</ele>
        <time>2019-06-23T13:03:34Z</time>
      </trkpt>
      <trkpt lat="44.77751" lon="5.84569">
        <ele>2191</ele>
        <time>2019-06-23T13:03:39Z</time>
      </trkpt>
      <trkpt lat="44.77749" lon="5.8457">
        <ele>2190</ele>
        <time>2019-06-23T13:03:44Z</time>
      </trkpt>
      <trkpt lat="44.77747" lon="5.84573">
        <ele>2186.6</ele>
        <time>2019-06-23T13:03:49Z</time>
      </trkpt>
      <trkpt lat="44.77745" lon="5.84574">
        <ele>2188.8</ele>
        <time>2019-06-23T13:03:54Z</time>
      </trkpt>
      <trkpt lat="44.77742" lon="5.84575">
        <ele>2187.6</ele>
        <time>2019-06-23T13:03:59Z</time>
      </trkpt>
      <trkpt lat="44.77739" lon="5.84575">
        <ele>2188.4</ele>
        <time>2019-06-23T13:04:04Z</time>
      </trkpt>
      <trkpt lat="44.77737" lon="5.84577">
        <ele>2186.2</ele>
        <time>2019-06-23T13:04:09Z</time>
      </trkpt>
      <trkpt lat="44.77735" lon="5.84578">
        <ele>2184.2</ele>
        <time>2019-06-23T13:04:14Z</time>
      </trkpt>
      <trkpt lat="44.77732" lon="5.84578">
        <ele>2189</ele>
        <time>2019-06-23T13:04:19Z</time>
      </trkpt>
      <trkpt lat="44.7773" lon="5.8458">
        <ele>2182</ele>
        <time>2019-06-23T13:04:24Z</time>
      </trkpt>
      <trkpt lat="44.77728" lon="5.84581">
        <ele>2183.8</ele>
        <time>2019-06-23T13:04:29Z</time>
      </trkpt>
      <trkpt lat="44.77729" lon="5.84584">
        <ele>2181.8</ele>
        <time>2019-06-23T13:04:34Z</time>
      </trkpt>
      <trkpt lat="44.77728" lon="5.84587">
        <ele>2180.4</ele>
        <time>2019-06-23T13:04:39Z</time>
      </trkpt>
      <trkpt lat="44.77727" lon="5.8459">
        <ele>2175.4</ele>
        <time>2019-06-23T13:04:44Z</time>
      </trkpt>
      <trkpt lat="44.77725" lon="5.84593">
        <ele>2175</ele>
        <time>2019-06-23T13:04:49Z</time>
      </trkpt>
      <trkpt lat="44.77724" lon="5.84596">
        <ele>2172.2</ele>
        <time>2019-06-23T13:04:54Z</time>
      </trkpt>
      <trkpt lat="44.77722" lon="5.84599">
        <ele>2174.8</ele>
        <time>2019-06-23T13:04:59Z</time>
      </trkpt>
      <trkpt lat="44.77719" lon="5.84602">
        <ele>2171.6</ele>
        <time>2019-06-23T13:05:04Z</time>
      </trkpt>
      <trkpt lat="44.77718" lon="5.84605">
        <ele>2171.6</ele>
        <time>2019-06-23T13:05:09Z</time>
      </trkpt>
      <trkpt lat="44.77716" lon="5.84608">
        <ele>2168.8</ele>
        <time>2019-06-23T13:05:14Z</time>
      </trkpt>
      <trkpt lat="44.77714" lon="5.84612">
        <ele>2169.2</ele>
        <time>2019-06-23T13:05:19Z</time>
      </trkpt>
      <trkpt lat="44.77712" lon="5.84615">
        <ele>2168.6</ele>
        <time>2019-06-23T13:05:24Z</time>
      </trkpt>
      <trkpt lat="44.77709" lon="5.84617">
        <ele>2165.2</ele>
        <time>2019-06-23T13:05:29Z</time>
      </trkpt>
      <trkpt lat="44.77706" lon="5.84619">
        <ele>2164.2</ele>
        <time>2019-06-23T13:05:34Z</time>
      </trkpt>
      <trkpt lat="44.77704" lon="5.84622">
        <ele>2164.4</ele>
        <time>2019-06-23T13:05:39Z</time>
      </trkpt>
      <trkpt lat="44.77702" lon="5.84625">
        <ele>2159</ele>
        <time>2019-06-23T13:05:44Z</time>
      </trkpt>
      <trkpt lat="44.77699" lon="5.84626">
        <ele>2162.4</ele>
        <time>2019-06-23T13:05:49Z</time>
      </trkpt>
      <trkpt lat="44.77698" lon="5.8463">
        <ele>2161.6</ele>
        <time>2019-06-23T13:05:54Z</time>
      </trkpt>
      <trkpt lat="44.77696" lon="5.84633">
        <ele>2156.8</ele>
        <time>2019-06-23T13:05:59Z</time>
      </trkpt>
      <trkpt lat="44.77693" lon="5.84637">
        <ele>2159.6</ele>
        <time>2019-06-23T13:06:04Z</time>
      </trkpt>
      <trkpt lat="44.77691" lon="5.84641">
        <ele>2156.4</ele>
        <time>2019-06-23T13:06:09Z</time>
      </trkpt>
      <trkpt lat="44.77687" lon="5.84645">
        <ele>2156.6</ele>
        <time>2019-06-23T13:06:14Z</time>
      </trkpt>
      <trkpt lat="44.77684" lon="5.84647">
        <ele>2155.2</ele>
        <time>2019-06-23T13:06:19Z</time>
      </trkpt>
      <trkpt lat="44.7768" lon="5.84648">
        <ele>2153.4</ele>
        <time>2019-06-23T13:06:24Z</time>
      </trkpt>
      <trkpt lat="44.77677" lon="5.84651">
        <ele>2154.8</ele>
        <time>2019-06-23T13:06:29Z</time>
      </trkpt>
      <trkpt lat="44.77674" lon="5.84655">
        <ele>2152.4</ele>
        <time>2019-06-23T13:06:34Z</time>
      </trkpt>
      <trkpt lat="44.77672" lon="5.84657">
        <ele>2151.4</ele>
        <time>2019-06-23T13:06:39Z</time>
      </trkpt>
      <trkpt lat="44.77671" lon="5.84663">
        <ele>2149.6</ele>
        <time>2019-06-23T13:06:44Z</time>
      </trkpt>
      <trkpt lat="44.77671" lon="5.8467">
        <ele>2148.2</ele>
        <time>2019-06-23T13:06:49Z</time>
      </trkpt>
      <trkpt lat="44.77671" lon="5.84675">
        <ele>2143.2</ele>
        <time>2019-06-23T13:06:54Z</time>
      </trkpt>
      <trkpt lat="44.7767" lon="5.8468">
        <ele>2144.8</ele>
        <time>2019-06-23T13:06:59Z</time>
      </trkpt>
      <trkpt lat="44.77667" lon="5.84685">
        <ele>2142</ele>
        <time>2019-06-23T13:07:04Z</time>
      </trkpt>
      <trkpt lat="44.77665" lon="5.84688">
        <ele>2143</ele>
        <time>2019-06-23T13:07:09Z</time>
      </trkpt>
      <trkpt lat="44.77662" lon="5.84692">
        <ele>2138.2</ele>
        <time>2019-06-23T13:07:14Z</time>
      </trkpt>
      <trkpt lat="44.7766" lon="5.84694">
        <ele>2139.4</ele>
        <time>2019-06-23T13:07:19Z</time>
      </trkpt>
      <trkpt lat="44.7766" lon="5.84695">
        <ele>2134</ele>
        <time>2019-06-23T13:07:24Z</time>
      </trkpt>
      <trkpt lat="44.7766" lon="5.847">
        <ele>2131.4</ele>
        <time>2019-06-23T13:07:29Z</time>
      </trkpt>
      <trkpt lat="44.7766" lon="5.84706">
        <ele>2130.2</ele>
        <time>2019-06-23T13:07:34Z</time>
      </trkpt>
      <trkpt lat="44.77659" lon="5.84712">
        <ele>2129.4</ele>
        <time>2019-06-23T13:07:39Z</time>
      </trkpt>
      <trkpt lat="44.77659" lon="5.84718">
        <ele>2129.8</ele>
        <time>2019-06-23T13:07:44Z</time>
      </trkpt>
      <trkpt lat="44.77657" lon="5.84723">
        <ele>2130.2</ele>
        <time>2019-06-23T13:07:49Z</time>
      </trkpt>
      <trkpt lat="44.77656" lon="5.84728">
        <ele>2128</ele>
        <time>2019-06-23T13:07:54Z</time>
      </trkpt>
      <trkpt lat="44.77655" lon="5.84734">
        <ele>2127.2</ele>
        <time>2019-06-23T13:07:59Z</time>
      </trkpt>
      <trkpt lat="44.77654" lon="5.84741">
        <ele>2126.6</ele>
        <time>2019-06-23T13:08:04Z</time>
      </trkpt>
      <trkpt lat="44.77653" lon="5.84746">
        <ele>2126.6</ele>
        <time>2019-06-23T13:08:09Z</time>
      </trkpt>
      <trkpt lat="44.77651" lon="5.8475">
        <ele>2124.2</ele>
        <time>2019-06-23T13:08:14Z</time>
      </trkpt>
      <trkpt lat="44.7765" lon="5.84754">
        <ele>2125.6</ele>
        <time>2019-06-23T13:08:19Z</time>
      </trkpt>
      <trkpt lat="44.77649" lon="5.84759">
        <ele>2124.4</ele>
        <time>2019-06-23T13:08:24Z</time>
      </trkpt>
      <trkpt lat="44.77648" lon="5.84762">
        <ele>2123.2</ele>
        <time>2019-06-23T13:08:29Z</time>
      </trkpt>
      <trkpt lat="44.77647" lon="5.84765">
        <ele>2124.6</ele>
        <time>2019-06-23T13:08:34Z</time>
      </trkpt>
      <trkpt lat="44.77646" lon="5.84769">
        <ele>2121</ele>
        <time>2019-06-23T13:08:39Z</time>
      </trkpt>
      <trkpt lat="44.77645" lon="5.84773">
        <ele>2123</ele>
        <time>2019-06-23T13:08:44Z</time>
      </trkpt>
      <trkpt lat="44.77646" lon="5.84779">
        <ele>2119.8</ele>
        <time>2019-06-23T13:08:49Z</time>
      </trkpt>
      <trkpt lat="44.77644" lon="5.8479">
        <ele>2120.2</ele>
        <time>2019-06-23T13:09:04Z</time>
      </trkpt>
      <trkpt lat="44.77647" lon="5.84799">
        <ele>2118.8</ele>
        <time>2019-06-23T13:09:09Z</time>
      </trkpt>
      <trkpt lat="44.7765" lon="5.84802">
        <ele>2114.2</ele>
        <time>2019-06-23T13:09:14Z</time>
      </trkpt>
      <trkpt lat="44.77652" lon="5.84808">
        <ele>2117.2</ele>
        <time>2019-06-23T13:09:19Z</time>
      </trkpt>
      <trkpt lat="44.77656" lon="5.84818">
        <ele>2112.6</ele>
        <time>2019-06-23T13:09:24Z</time>
      </trkpt>
      <trkpt lat="44.77662" lon="5.84826">
        <ele>2113.4</ele>
        <time>2019-06-23T13:09:29Z</time>
      </trkpt>
      <trkpt lat="44.77666" lon="5.84832">
        <ele>2108.6</ele>
        <time>2019-06-23T13:09:34Z</time>
      </trkpt>
      <trkpt lat="44.7767" lon="5.84837">
        <ele>2108</ele>
        <time>2019-06-23T13:09:39Z</time>
      </trkpt>
      <trkpt lat="44.77673" lon="5.84843">
        <ele>2105.8</ele>
        <time>2019-06-23T13:09:44Z</time>
      </trkpt>
      <trkpt lat="44.77675" lon="5.84851">
        <ele>2103.6</ele>
        <time>2019-06-23T13:09:49Z</time>
      </trkpt>
      <trkpt lat="44.77677" lon="5.84857">
        <ele>2098.2</ele>
        <time>2019-06-23T13:09:54Z</time>
      </trkpt>
      <trkpt lat="44.7768" lon="5.84858">
        <ele>2097.6</ele>
        <time>2019-06-23T13:09:59Z</time>
      </trkpt>
      <trkpt lat="44.77681" lon="5.84864">
        <ele>2097.2</ele>
        <time>2019-06-23T13:10:04Z</time>
      </trkpt>
      <trkpt lat="44.77686" lon="5.84868">
        <ele>2092.8</ele>
        <time>2019-06-23T13:10:09Z</time>
      </trkpt>
      <trkpt lat="44.77691" lon="5.84873">
        <ele>2090.6</ele>
        <time>2019-06-23T13:10:14Z</time>
      </trkpt>
      <trkpt lat="44.77696" lon="5.84881">
        <ele>2086.2</ele>
        <time>2019-06-23T13:10:19Z</time>
      </trkpt>
      <trkpt lat="44.77699" lon="5.84887">
        <ele>2089.4</ele>
        <time>2019-06-23T13:10:24Z</time>
      </trkpt>
      <trkpt lat="44.77705" lon="5.84889">
        <ele>2087.2</ele>
        <time>2019-06-23T13:10:29Z</time>
      </trkpt>
      <trkpt lat="44.7771" lon="5.8489">
        <ele>2088.8</ele>
        <time>2019-06-23T13:10:34Z</time>
      </trkpt>
      <trkpt lat="44.77713" lon="5.84894">
        <ele>2087.6</ele>
        <time>2019-06-23T13:10:39Z</time>
      </trkpt>
      <trkpt lat="44.77719" lon="5.84898">
        <ele>2089</ele>
        <time>2019-06-23T13:10:44Z</time>
      </trkpt>
      <trkpt lat="44.77724" lon="5.84903">
        <ele>2092.4</ele>
        <time>2019-06-23T13:10:49Z</time>
      </trkpt>
      <trkpt lat="44.77731" lon="5.84908">
        <ele>2090.4</ele>
        <time>2019-06-23T13:10:54Z</time>
      </trkpt>
      <trkpt lat="44.77734" lon="5.8491">
        <ele>2090.2</ele>
        <time>2019-06-23T13:10:59Z</time>
      </trkpt>
      <trkpt lat="44.77739" lon="5.84914">
        <ele>2093</ele>
        <time>2019-06-23T13:11:04Z</time>
      </trkpt>
      <trkpt lat="44.77739" lon="5.84921">
        <ele>2093.8</ele>
        <time>2019-06-23T13:11:09Z</time>
      </trkpt>
      <trkpt lat="44.77738" lon="5.84927">
        <ele>2090.8</ele>
        <time>2019-06-23T13:11:14Z</time>
      </trkpt>
      <trkpt lat="44.77737" lon="5.84932">
        <ele>2085.6</ele>
        <time>2019-06-23T13:11:19Z</time>
      </trkpt>
      <trkpt lat="44.7774" lon="5.84938">
        <ele>2080</ele>
        <time>2019-06-23T13:11:24Z</time>
      </trkpt>
      <trkpt lat="44.77743" lon="5.84945">
        <ele>2078.2</ele>
        <time>2019-06-23T13:11:29Z</time>
      </trkpt>
      <trkpt lat="44.77745" lon="5.84952">
        <ele>2071.6</ele>
        <time>2019-06-23T13:11:34Z</time>
      </trkpt>
      <trkpt lat="44.77748" lon="5.84957">
        <ele>2067.2</ele>
        <time>2019-06-23T13:11:39Z</time>
      </trkpt>
      <trkpt lat="44.77753" lon="5.8496">
        <ele>2062.6</ele>
        <time>2019-06-23T13:11:44Z</time>
      </trkpt>
      <trkpt lat="44.77755" lon="5.84965">
        <ele>2059.2</ele>
        <time>2019-06-23T13:11:49Z</time>
      </trkpt>
      <trkpt lat="44.77759" lon="5.8497">
        <ele>2056</ele>
        <time>2019-06-23T13:11:54Z</time>
      </trkpt>
      <trkpt lat="44.77761" lon="5.84977">
        <ele>2053.8</ele>
        <time>2019-06-23T13:11:59Z</time>
      </trkpt>
      <trkpt lat="44.77764" lon="5.84981">
        <ele>2050.8</ele>
        <time>2019-06-23T13:12:04Z</time>
      </trkpt>
      <trkpt lat="44.77767" lon="5.84987">
        <ele>2046.6</ele>
        <time>2019-06-23T13:12:09Z</time>
      </trkpt>
      <trkpt lat="44.77772" lon="5.8499">
        <ele>2045.2</ele>
        <time>2019-06-23T13:12:14Z</time>
      </trkpt>
      <trkpt lat="44.77775" lon="5.84995">
        <ele>2042</ele>
        <time>2019-06-23T13:12:19Z</time>
      </trkpt>
      <trkpt lat="44.77778" lon="5.84999">
        <ele>2038.2</ele>
        <time>2019-06-23T13:12:24Z</time>
      </trkpt>
      <trkpt lat="44.7778" lon="5.85003">
        <ele>2037.2</ele>
        <time>2019-06-23T13:12:29Z</time>
      </trkpt>
      <trkpt lat="44.77781" lon="5.85005">
        <ele>2034.8</ele>
        <time>2019-06-23T13:12:34Z</time>
      </trkpt>
      <trkpt lat="44.77784" lon="5.85006">
        <ele>2037.8</ele>
        <time>2019-06-23T13:12:39Z</time>
      </trkpt>
      <trkpt lat="44.77785" lon="5.85006">
        <ele>2033.8</ele>
        <time>2019-06-23T13:12:49Z</time>
      </trkpt>
      <trkpt lat="44.77787" lon="5.85008">
        <ele>2032.6</ele>
        <time>2019-06-23T13:12:54Z</time>
      </trkpt>
      <trkpt lat="44.77787" lon="5.8501">
        <ele>2031.2</ele>
        <time>2019-06-23T13:12:59Z</time>
      </trkpt>
      <trkpt lat="44.77788" lon="5.8501">
        <ele>2028.6</ele>
        <time>2019-06-23T13:13:14Z</time>
      </trkpt>
      <trkpt lat="44.77789" lon="5.85011">
        <ele>2026.8</ele>
        <time>2019-06-23T13:13:19Z</time>
      </trkpt>
      <trkpt lat="44.77792" lon="5.85009">
        <ele>2028.4</ele>
        <time>2019-06-23T13:13:24Z</time>
      </trkpt>
      <trkpt lat="44.77795" lon="5.85013">
        <ele>2031.6</ele>
        <time>2019-06-23T13:13:29Z</time>
      </trkpt>
      <trkpt lat="44.77799" lon="5.85018">
        <ele>2029.4</ele>
        <time>2019-06-23T13:13:34Z</time>
      </trkpt>
      <trkpt lat="44.778" lon="5.85021">
        <ele>2027.6</ele>
        <time>2019-06-23T13:13:39Z</time>
      </trkpt>
      <trkpt lat="44.77803" lon="5.8502">
        <ele>2028.2</ele>
        <time>2019-06-23T13:13:44Z</time>
      </trkpt>
      <trkpt lat="44.77807" lon="5.85024">
        <ele>2026</ele>
        <time>2019-06-23T13:13:49Z</time>
      </trkpt>
      <trkpt lat="44.7781" lon="5.85028">
        <ele>2029.8</ele>
        <time>2019-06-23T13:13:54Z</time>
      </trkpt>
      <trkpt lat="44.77814" lon="5.85031">
        <ele>2027.2</ele>
        <time>2019-06-23T13:13:59Z</time>
      </trkpt>
      <trkpt lat="44.77818" lon="5.85035">
        <ele>2025.6</ele>
        <time>2019-06-23T13:14:04Z</time>
      </trkpt>
      <trkpt lat="44.77822" lon="5.85039">
        <ele>2024.4</ele>
        <time>2019-06-23T13:14:09Z</time>
      </trkpt>
      <trkpt lat="44.77827" lon="5.8504">
        <ele>2022.6</ele>
        <time>2019-06-23T13:14:14Z</time>
      </trkpt>
      <trkpt lat="44.77832" lon="5.85043">
        <ele>2022.2</ele>
        <time>2019-06-23T13:14:19Z</time>
      </trkpt>
      <trkpt lat="44.77836" lon="5.85047">
        <ele>2023</ele>
        <time>2019-06-23T13:14:24Z</time>
      </trkpt>
      <trkpt lat="44.77839" lon="5.8505">
        <ele>2021.2</ele>
        <time>2019-06-23T13:14:29Z</time>
      </trkpt>
      <trkpt lat="44.77842" lon="5.85052">
        <ele>2018.8</ele>
        <time>2019-06-23T13:14:34Z</time>
      </trkpt>
      <trkpt lat="44.77844" lon="5.85052">
        <ele>2021.2</ele>
        <time>2019-06-23T13:14:39Z</time>
      </trkpt>
      <trkpt lat="44.77848" lon="5.85057">
        <ele>2020.2</ele>
        <time>2019-06-23T13:14:44Z</time>
      </trkpt>
      <trkpt lat="44.77851" lon="5.85062">
        <ele>2017.4</ele>
        <time>2019-06-23T13:14:49Z</time>
      </trkpt>
      <trkpt lat="44.77855" lon="5.85068">
        <ele>2015.8</ele>
        <time>2019-06-23T13:14:54Z</time>
      </trkpt>
      <trkpt lat="44.77857" lon="5.85074">
        <ele>2012.6</ele>
        <time>2019-06-23T13:14:59Z</time>
      </trkpt>
      <trkpt lat="44.7786" lon="5.85079">
        <ele>2013.6</ele>
        <time>2019-06-23T13:15:04Z</time>
      </trkpt>
      <trkpt lat="44.77862" lon="5.85085">
        <ele>2013</ele>
        <time>2019-06-23T13:15:09Z</time>
      </trkpt>
      <trkpt lat="44.77864" lon="5.8509">
        <ele>2011</ele>
        <time>2019-06-23T13:15:14Z</time>
      </trkpt>
      <trkpt lat="44.77866" lon="5.85097">
        <ele>2008.4</ele>
        <time>2019-06-23T13:15:19Z</time>
      </trkpt>
      <trkpt lat="44.77866" lon="5.85102">
        <ele>2010</ele>
        <time>2019-06-23T13:15:24Z</time>
      </trkpt>
      <trkpt lat="44.77868" lon="5.85106">
        <ele>2009.8</ele>
        <time>2019-06-23T13:15:29Z</time>
      </trkpt>
      <trkpt lat="44.77869" lon="5.85109">
        <ele>2009.8</ele>
        <time>2019-06-23T13:15:34Z</time>
      </trkpt>
      <trkpt lat="44.7787" lon="5.8511">
        <ele>2006.6</ele>
        <time>2019-06-23T13:16:59Z</time>
      </trkpt>
      <trkpt lat="44.77869" lon="5.85112">
        <ele>2006.8</ele>
        <time>2019-06-23T13:17:04Z</time>
      </trkpt>
      <trkpt lat="44.77869" lon="5.85117">
        <ele>2005.8</ele>
        <time>2019-06-23T13:17:09Z</time>
      </trkpt>
      <trkpt lat="44.77871" lon="5.85121">
        <ele>2006.6</ele>
        <time>2019-06-23T13:17:14Z</time>
      </trkpt>
      <trkpt lat="44.77873" lon="5.85125">
        <ele>2006.2</ele>
        <time>2019-06-23T13:17:19Z</time>
      </trkpt>
      <trkpt lat="44.77876" lon="5.85124">
        <ele>2005.8</ele>
        <time>2019-06-23T13:17:24Z</time>
      </trkpt>
      <trkpt lat="44.77877" lon="5.85124">
        <ele>2006.4</ele>
        <time>2019-06-23T13:17:34Z</time>
      </trkpt>
      <trkpt lat="44.77878" lon="5.85126">
        <ele>1999.8</ele>
        <time>2019-06-23T13:17:39Z</time>
      </trkpt>
      <trkpt lat="44.77878" lon="5.85131">
        <ele>2004.8</ele>
        <time>2019-06-23T13:17:44Z</time>
      </trkpt>
      <trkpt lat="44.77879" lon="5.85136">
        <ele>2002.4</ele>
        <time>2019-06-23T13:17:49Z</time>
      </trkpt>
      <trkpt lat="44.77879" lon="5.85145">
        <ele>2000.2</ele>
        <time>2019-06-23T13:17:55Z</time>
      </trkpt>
      <trkpt lat="44.77879" lon="5.85151">
        <ele>1998.6</ele>
        <time>2019-06-23T13:18:00Z</time>
      </trkpt>
      <trkpt lat="44.77879" lon="5.85153">
        <ele>1992.8</ele>
        <time>2019-06-23T13:18:05Z</time>
      </trkpt>
      <trkpt lat="44.7788" lon="5.85153">
        <ele>1997.2</ele>
        <time>2019-06-23T13:18:20Z</time>
      </trkpt>
      <trkpt lat="44.77881" lon="5.85154">
        <ele>1997.8</ele>
        <time>2019-06-23T13:18:25Z</time>
      </trkpt>
      <trkpt lat="44.77881" lon="5.85154">
        <ele>1998.8</ele>
        <time>2019-06-23T13:18:35Z</time>
      </trkpt>
      <trkpt lat="44.77882" lon="5.85157">
        <ele>2001</ele>
        <time>2019-06-23T13:18:40Z</time>
      </trkpt>
      <trkpt lat="44.77883" lon="5.85162">
        <ele>2001.4</ele>
        <time>2019-06-23T13:18:45Z</time>
      </trkpt>
      <trkpt lat="44.77886" lon="5.85168">
        <ele>2001.4</ele>
        <time>2019-06-23T13:18:50Z</time>
      </trkpt>
      <trkpt lat="44.7789" lon="5.85173">
        <ele>1998</ele>
        <time>2019-06-23T13:18:55Z</time>
      </trkpt>
      <trkpt lat="44.77892" lon="5.85179">
        <ele>1994.2</ele>
        <time>2019-06-23T13:19:00Z</time>
      </trkpt>
      <trkpt lat="44.77895" lon="5.85186">
        <ele>1993.4</ele>
        <time>2019-06-23T13:19:05Z</time>
      </trkpt>
      <trkpt lat="44.77897" lon="5.85193">
        <ele>1993.8</ele>
        <time>2019-06-23T13:19:10Z</time>
      </trkpt>
      <trkpt lat="44.77898" lon="5.852">
        <ele>1991.6</ele>
        <time>2019-06-23T13:19:15Z</time>
      </trkpt>
      <trkpt lat="44.77901" lon="5.85206">
        <ele>1992.8</ele>
        <time>2019-06-23T13:19:20Z</time>
      </trkpt>
      <trkpt lat="44.77901" lon="5.85213">
        <ele>1992.2</ele>
        <time>2019-06-23T13:19:25Z</time>
      </trkpt>
      <trkpt lat="44.77901" lon="5.85221">
        <ele>1991.4</ele>
        <time>2019-06-23T13:19:30Z</time>
      </trkpt>
      <trkpt lat="44.77902" lon="5.85222">
        <ele>1990.6</ele>
        <time>2019-06-23T13:19:35Z</time>
      </trkpt>
      <trkpt lat="44.77901" lon="5.85227">
        <ele>1991.8</ele>
        <time>2019-06-23T13:19:40Z</time>
      </trkpt>
      <trkpt lat="44.77903" lon="5.85233">
        <ele>1992</ele>
        <time>2019-06-23T13:19:45Z</time>
      </trkpt>
      <trkpt lat="44.77905" lon="5.85239">
        <ele>1991</ele>
        <time>2019-06-23T13:19:50Z</time>
      </trkpt>
      <trkpt lat="44.77907" lon="5.85245">
        <ele>1990</ele>
        <time>2019-06-23T13:19:55Z</time>
      </trkpt>
      <trkpt lat="44.77907" lon="5.85252">
        <ele>1989</ele>
        <time>2019-06-23T13:20:00Z</time>
      </trkpt>
      <trkpt lat="44.77908" lon="5.8526">
        <ele>1987</ele>
        <time>2019-06-23T13:20:05Z</time>
      </trkpt>
      <trkpt lat="44.77907" lon="5.85267">
        <ele>1985</ele>
        <time>2019-06-23T13:20:10Z</time>
      </trkpt>
      <trkpt lat="44.77908" lon="5.85274">
        <ele>1986.2</ele>
        <time>2019-06-23T13:20:15Z</time>
      </trkpt>
      <trkpt lat="44.7791" lon="5.8528">
        <ele>1984.8</ele>
        <time>2019-06-23T13:20:20Z</time>
      </trkpt>
      <trkpt lat="44.77912" lon="5.85286">
        <ele>1983.8</ele>
        <time>2019-06-23T13:20:25Z</time>
      </trkpt>
      <trkpt lat="44.77911" lon="5.85293">
        <ele>1982.8</ele>
        <time>2019-06-23T13:20:30Z</time>
      </trkpt>
      <trkpt lat="44.77912" lon="5.853">
        <ele>1984</ele>
        <time>2019-06-23T13:20:35Z</time>
      </trkpt>
      <trkpt lat="44.77913" lon="5.85308">
        <ele>1981.8</ele>
        <time>2019-06-23T13:20:40Z</time>
      </trkpt>
      <trkpt lat="44.77916" lon="5.85315">
        <ele>1980.2</ele>
        <time>2019-06-23T13:20:45Z</time>
      </trkpt>
      <trkpt lat="44.7792" lon="5.8532">
        <ele>1978.8</ele>
        <time>2019-06-23T13:20:50Z</time>
      </trkpt>
      <trkpt lat="44.77924" lon="5.85325">
        <ele>1979.6</ele>
        <time>2019-06-23T13:20:55Z</time>
      </trkpt>
      <trkpt lat="44.77923" lon="5.85331">
        <ele>1978.4</ele>
        <time>2019-06-23T13:21:00Z</time>
      </trkpt>
      <trkpt lat="44.77921" lon="5.85335">
        <ele>1979.8</ele>
        <time>2019-06-23T13:21:05Z</time>
      </trkpt>
      <trkpt lat="44.77923" lon="5.85338">
        <ele>1977.4</ele>
        <time>2019-06-23T13:21:10Z</time>
      </trkpt>
      <trkpt lat="44.77922" lon="5.85338">
        <ele>1976.8</ele>
        <time>2019-06-23T13:21:15Z</time>
      </trkpt>
      <trkpt lat="44.77923" lon="5.85342">
        <ele>1976.2</ele>
        <time>2019-06-23T13:21:20Z</time>
      </trkpt>
      <trkpt lat="44.77922" lon="5.85349">
        <ele>1977</ele>
        <time>2019-06-23T13:21:25Z</time>
      </trkpt>
      <trkpt lat="44.7792" lon="5.85356">
        <ele>1973.6</ele>
        <time>2019-06-23T13:21:30Z</time>
      </trkpt>
      <trkpt lat="44.77918" lon="5.85362">
        <ele>1970.8</ele>
        <time>2019-06-23T13:21:35Z</time>
      </trkpt>
      <trkpt lat="44.77919" lon="5.85367">
        <ele>1970.8</ele>
        <time>2019-06-23T13:21:40Z</time>
      </trkpt>
      <trkpt lat="44.77917" lon="5.85372">
        <ele>1969</ele>
        <time>2019-06-23T13:21:45Z</time>
      </trkpt>
      <trkpt lat="44.77916" lon="5.85381">
        <ele>1966.8</ele>
        <time>2019-06-23T13:21:50Z</time>
      </trkpt>
      <trkpt lat="44.77916" lon="5.85388">
        <ele>1964.8</ele>
        <time>2019-06-23T13:21:55Z</time>
      </trkpt>
      <trkpt lat="44.77915" lon="5.85396">
        <ele>1960.6</ele>
        <time>2019-06-23T13:22:00Z</time>
      </trkpt>
      <trkpt lat="44.77916" lon="5.85405">
        <ele>1960.6</ele>
        <time>2019-06-23T13:22:05Z</time>
      </trkpt>
      <trkpt lat="44.77916" lon="5.85411">
        <ele>1959.6</ele>
        <time>2019-06-23T13:22:10Z</time>
      </trkpt>
      <trkpt lat="44.77919" lon="5.85417">
        <ele>1959</ele>
        <time>2019-06-23T13:22:15Z</time>
      </trkpt>
      <trkpt lat="44.7792" lon="5.85426">
        <ele>1958.6</ele>
        <time>2019-06-23T13:22:20Z</time>
      </trkpt>
      <trkpt lat="44.7792" lon="5.85434">
        <ele>1957.2</ele>
        <time>2019-06-23T13:22:25Z</time>
      </trkpt>
      <trkpt lat="44.77921" lon="5.8544">
        <ele>1957.8</ele>
        <time>2019-06-23T13:22:30Z</time>
      </trkpt>
      <trkpt lat="44.77922" lon="5.85444">
        <ele>1960.2</ele>
        <time>2019-06-23T13:22:35Z</time>
      </trkpt>
      <trkpt lat="44.77922" lon="5.85444">
        <ele>1960.2</ele>
        <time>2019-06-23T13:22:40Z</time>
      </trkpt>
      <trkpt lat="44.77921" lon="5.85447">
        <ele>1959.2</ele>
        <time>2019-06-23T13:22:45Z</time>
      </trkpt>
      <trkpt lat="44.7792" lon="5.85454">
        <ele>1959.4</ele>
        <time>2019-06-23T13:22:50Z</time>
      </trkpt>
      <trkpt lat="44.77917" lon="5.85459">
        <ele>1954.4</ele>
        <time>2019-06-23T13:22:55Z</time>
      </trkpt>
      <trkpt lat="44.77915" lon="5.85465">
        <ele>1953.6</ele>
        <time>2019-06-23T13:23:00Z</time>
      </trkpt>
      <trkpt lat="44.77911" lon="5.8547">
        <ele>1952.2</ele>
        <time>2019-06-23T13:23:05Z</time>
      </trkpt>
      <trkpt lat="44.77907" lon="5.85474">
        <ele>1952</ele>
        <time>2019-06-23T13:23:10Z</time>
      </trkpt>
      <trkpt lat="44.77904" lon="5.85479">
        <ele>1952.6</ele>
        <time>2019-06-23T13:23:15Z</time>
      </trkpt>
      <trkpt lat="44.77904" lon="5.85478">
        <ele>1951.6</ele>
        <time>2019-06-23T13:23:25Z</time>
      </trkpt>
      <trkpt lat="44.77904" lon="5.85479">
        <ele>1952.8</ele>
        <time>2019-06-23T13:23:30Z</time>
      </trkpt>
      <trkpt lat="44.77904" lon="5.8548">
        <ele>1950.4</ele>
        <time>2019-06-23T13:23:35Z</time>
      </trkpt>
      <trkpt lat="44.77901" lon="5.85483">
        <ele>1948.8</ele>
        <time>2019-06-23T13:23:40Z</time>
      </trkpt>
      <trkpt lat="44.77898" lon="5.85489">
        <ele>1949.4</ele>
        <time>2019-06-23T13:23:45Z</time>
      </trkpt>
      <trkpt lat="44.77896" lon="5.85495">
        <ele>1949.8</ele>
        <time>2019-06-23T13:23:50Z</time>
      </trkpt>
      <trkpt lat="44.77893" lon="5.855">
        <ele>1947</ele>
        <time>2019-06-23T13:23:55Z</time>
      </trkpt>
      <trkpt lat="44.7789" lon="5.85506">
        <ele>1945.6</ele>
        <time>2019-06-23T13:24:00Z</time>
      </trkpt>
      <trkpt lat="44.77887" lon="5.85512">
        <ele>1946.6</ele>
        <time>2019-06-23T13:24:05Z</time>
      </trkpt>
      <trkpt lat="44.77886" lon="5.85519">
        <ele>1946.2</ele>
        <time>2019-06-23T13:24:10Z</time>
      </trkpt>
      <trkpt lat="44.77885" lon="5.85525">
        <ele>1945</ele>
        <time>2019-06-23T13:24:15Z</time>
      </trkpt>
      <trkpt lat="44.77884" lon="5.85532">
        <ele>1943</ele>
        <time>2019-06-23T13:24:20Z</time>
      </trkpt>
      <trkpt lat="44.77881" lon="5.85539">
        <ele>1942.6</ele>
        <time>2019-06-23T13:24:25Z</time>
      </trkpt>
      <trkpt lat="44.77877" lon="5.85546">
        <ele>1943.2</ele>
        <time>2019-06-23T13:24:30Z</time>
      </trkpt>
      <trkpt lat="44.77874" lon="5.85554">
        <ele>1939.8</ele>
        <time>2019-06-23T13:24:35Z</time>
      </trkpt>
      <trkpt lat="44.77872" lon="5.85559">
        <ele>1939.6</ele>
        <time>2019-06-23T13:24:40Z</time>
      </trkpt>
      <trkpt lat="44.77869" lon="5.85566">
        <ele>1940.6</ele>
        <time>2019-06-23T13:24:45Z</time>
      </trkpt>
      <trkpt lat="44.77865" lon="5.85571">
        <ele>1936.2</ele>
        <time>2019-06-23T13:24:50Z</time>
      </trkpt>
      <trkpt lat="44.77861" lon="5.85577">
        <ele>1938</ele>
        <time>2019-06-23T13:24:55Z</time>
      </trkpt>
      <trkpt lat="44.77859" lon="5.85584">
        <ele>1934.2</ele>
        <time>2019-06-23T13:25:00Z</time>
      </trkpt>
      <trkpt lat="44.77856" lon="5.85591">
        <ele>1932.4</ele>
        <time>2019-06-23T13:25:05Z</time>
      </trkpt>
      <trkpt lat="44.77855" lon="5.85595">
        <ele>1934</ele>
        <time>2019-06-23T13:25:10Z</time>
      </trkpt>
      <trkpt lat="44.77853" lon="5.85598">
        <ele>1932.4</ele>
        <time>2019-06-23T13:25:15Z</time>
      </trkpt>
      <trkpt lat="44.77849" lon="5.856">
        <ele>1931.4</ele>
        <time>2019-06-23T13:25:20Z</time>
      </trkpt>
      <trkpt lat="44.77846" lon="5.85602">
        <ele>1932.2</ele>
        <time>2019-06-23T13:25:25Z</time>
      </trkpt>
      <trkpt lat="44.77843" lon="5.85605">
        <ele>1929.2</ele>
        <time>2019-06-23T13:25:30Z</time>
      </trkpt>
      <trkpt lat="44.77842" lon="5.85606">
        <ele>1928.6</ele>
        <time>2019-06-23T13:25:35Z</time>
      </trkpt>
      <trkpt lat="44.7784" lon="5.85608">
        <ele>1929.4</ele>
        <time>2019-06-23T13:25:40Z</time>
      </trkpt>
      <trkpt lat="44.77838" lon="5.85611">
        <ele>1927</ele>
        <time>2019-06-23T13:25:45Z</time>
      </trkpt>
      <trkpt lat="44.77835" lon="5.85615">
        <ele>1926.8</ele>
        <time>2019-06-23T13:25:50Z</time>
      </trkpt>
      <trkpt lat="44.77833" lon="5.85621">
        <ele>1924.2</ele>
        <time>2019-06-23T13:25:55Z</time>
      </trkpt>
      <trkpt lat="44.77831" lon="5.85626">
        <ele>1926</ele>
        <time>2019-06-23T13:26:00Z</time>
      </trkpt>
      <trkpt lat="44.77831" lon="5.85631">
        <ele>1923.4</ele>
        <time>2019-06-23T13:26:05Z</time>
      </trkpt>
      <trkpt lat="44.7783" lon="5.85637">
        <ele>1921.2</ele>
        <time>2019-06-23T13:26:10Z</time>
      </trkpt>
      <trkpt lat="44.77829" lon="5.85643">
        <ele>1922</ele>
        <time>2019-06-23T13:26:15Z</time>
      </trkpt>
      <trkpt lat="44.77827" lon="5.85648">
        <ele>1920.8</ele>
        <time>2019-06-23T13:26:20Z</time>
      </trkpt>
      <trkpt lat="44.77824" lon="5.85653">
        <ele>1916.8</ele>
        <time>2019-06-23T13:26:25Z</time>
      </trkpt>
      <trkpt lat="44.77821" lon="5.85659">
        <ele>1916.4</ele>
        <time>2019-06-23T13:26:30Z</time>
      </trkpt>
      <trkpt lat="44.77819" lon="5.85665">
        <ele>1916.2</ele>
        <time>2019-06-23T13:26:35Z</time>
      </trkpt>
      <trkpt lat="44.77816" lon="5.85671">
        <ele>1912.8</ele>
        <time>2019-06-23T13:26:40Z</time>
      </trkpt>
      <trkpt lat="44.77813" lon="5.85676">
        <ele>1916</ele>
        <time>2019-06-23T13:26:45Z</time>
      </trkpt>
      <trkpt lat="44.77811" lon="5.8568">
        <ele>1915.6</ele>
        <time>2019-06-23T13:26:50Z</time>
      </trkpt>
      <trkpt lat="44.77808" lon="5.85686">
        <ele>1913.4</ele>
        <time>2019-06-23T13:26:55Z</time>
      </trkpt>
      <trkpt lat="44.77805" lon="5.85692">
        <ele>1912</ele>
        <time>2019-06-23T13:27:00Z</time>
      </trkpt>
      <trkpt lat="44.77803" lon="5.85699">
        <ele>1911.8</ele>
        <time>2019-06-23T13:27:05Z</time>
      </trkpt>
      <trkpt lat="44.77799" lon="5.85704">
        <ele>1912.6</ele>
        <time>2019-06-23T13:27:10Z</time>
      </trkpt>
      <trkpt lat="44.77796" lon="5.85709">
        <ele>1911</ele>
        <time>2019-06-23T13:27:15Z</time>
      </trkpt>
      <trkpt lat="44.77794" lon="5.85713">
        <ele>1905.4</ele>
        <time>2019-06-23T13:27:20Z</time>
      </trkpt>
      <trkpt lat="44.7779" lon="5.85718">
        <ele>1906.2</ele>
        <time>2019-06-23T13:27:25Z</time>
      </trkpt>
      <trkpt lat="44.77787" lon="5.85723">
        <ele>1907.6</ele>
        <time>2019-06-23T13:27:30Z</time>
      </trkpt>
      <trkpt lat="44.77786" lon="5.85726">
        <ele>1907</ele>
        <time>2019-06-23T13:27:35Z</time>
      </trkpt>
      <trkpt lat="44.77786" lon="5.85726">
        <ele>1906.8</ele>
        <time>2019-06-23T13:27:40Z</time>
      </trkpt>
      <trkpt lat="44.77786" lon="5.85727">
        <ele>1907.4</ele>
        <time>2019-06-23T13:27:45Z</time>
      </trkpt>
      <trkpt lat="44.77784" lon="5.85732">
        <ele>1906</ele>
        <time>2019-06-23T13:27:50Z</time>
      </trkpt>
      <trkpt lat="44.77781" lon="5.85739">
        <ele>1907.2</ele>
        <time>2019-06-23T13:27:55Z</time>
      </trkpt>
      <trkpt lat="44.77779" lon="5.85747">
        <ele>1903.6</ele>
        <time>2019-06-23T13:28:00Z</time>
      </trkpt>
      <trkpt lat="44.77778" lon="5.85755">
        <ele>1904</ele>
        <time>2019-06-23T13:28:05Z</time>
      </trkpt>
      <trkpt lat="44.77778" lon="5.85762">
        <ele>1904.2</ele>
        <time>2019-06-23T13:28:10Z</time>
      </trkpt>
      <trkpt lat="44.77777" lon="5.85769">
        <ele>1904</ele>
        <time>2019-06-23T13:28:15Z</time>
      </trkpt>
      <trkpt lat="44.77776" lon="5.85777">
        <ele>1901.2</ele>
        <time>2019-06-23T13:28:20Z</time>
      </trkpt>
      <trkpt lat="44.77776" lon="5.85784">
        <ele>1899.6</ele>
        <time>2019-06-23T13:28:25Z</time>
      </trkpt>
      <trkpt lat="44.77776" lon="5.85789">
        <ele>1896.8</ele>
        <time>2019-06-23T13:28:30Z</time>
      </trkpt>
      <trkpt lat="44.77777" lon="5.85797">
        <ele>1899.8</ele>
        <time>2019-06-23T13:28:35Z</time>
      </trkpt>
      <trkpt lat="44.77777" lon="5.85806">
        <ele>1894</ele>
        <time>2019-06-23T13:28:40Z</time>
      </trkpt>
      <trkpt lat="44.77777" lon="5.85813">
        <ele>1895.6</ele>
        <time>2019-06-23T13:28:45Z</time>
      </trkpt>
      <trkpt lat="44.77778" lon="5.85821">
        <ele>1896.6</ele>
        <time>2019-06-23T13:28:50Z</time>
      </trkpt>
      <trkpt lat="44.77779" lon="5.85828">
        <ele>1896.4</ele>
        <time>2019-06-23T13:28:55Z</time>
      </trkpt>
      <trkpt lat="44.7778" lon="5.85832">
        <ele>1896.8</ele>
        <time>2019-06-23T13:29:00Z</time>
      </trkpt>
      <trkpt lat="44.77782" lon="5.85834">
        <ele>1895.2</ele>
        <time>2019-06-23T13:29:05Z</time>
      </trkpt>
      <trkpt lat="44.77783" lon="5.85844">
        <ele>1896.2</ele>
        <time>2019-06-23T13:29:10Z</time>
      </trkpt>
      <trkpt lat="44.77782" lon="5.85852">
        <ele>1893</ele>
        <time>2019-06-23T13:29:15Z</time>
      </trkpt>
      <trkpt lat="44.77781" lon="5.8586">
        <ele>1894.4</ele>
        <time>2019-06-23T13:29:20Z</time>
      </trkpt>
      <trkpt lat="44.77778" lon="5.85867">
        <ele>1891.2</ele>
        <time>2019-06-23T13:29:25Z</time>
      </trkpt>
      <trkpt lat="44.77775" lon="5.85873">
        <ele>1890.4</ele>
        <time>2019-06-23T13:29:30Z</time>
      </trkpt>
      <trkpt lat="44.77772" lon="5.8588">
        <ele>1891.2</ele>
        <time>2019-06-23T13:29:35Z</time>
      </trkpt>
      <trkpt lat="44.77768" lon="5.85887">
        <ele>1888.8</ele>
        <time>2019-06-23T13:29:40Z</time>
      </trkpt>
      <trkpt lat="44.77764" lon="5.85893">
        <ele>1888.8</ele>
        <time>2019-06-23T13:29:45Z</time>
      </trkpt>
      <trkpt lat="44.77761" lon="5.85898">
        <ele>1888.8</ele>
        <time>2019-06-23T13:29:50Z</time>
      </trkpt>
      <trkpt lat="44.77758" lon="5.85903">
        <ele>1888.2</ele>
        <time>2019-06-23T13:29:55Z</time>
      </trkpt>
      <trkpt lat="44.77755" lon="5.85907">
        <ele>1893.2</ele>
        <time>2019-06-23T13:30:00Z</time>
      </trkpt>
      <trkpt lat="44.77753" lon="5.8591">
        <ele>1894.4</ele>
        <time>2019-06-23T13:30:05Z</time>
      </trkpt>
      <trkpt lat="44.77751" lon="5.85916">
        <ele>1888.8</ele>
        <time>2019-06-23T13:30:10Z</time>
      </trkpt>
      <trkpt lat="44.77749" lon="5.8592">
        <ele>1892.2</ele>
        <time>2019-06-23T13:30:15Z</time>
      </trkpt>
      <trkpt lat="44.77747" lon="5.85923">
        <ele>1892.8</ele>
        <time>2019-06-23T13:30:20Z</time>
      </trkpt>
      <trkpt lat="44.77745" lon="5.85925">
        <ele>1892.8</ele>
        <time>2019-06-23T13:30:25Z</time>
      </trkpt>
      <trkpt lat="44.77743" lon="5.85926">
        <ele>1894.2</ele>
        <time>2019-06-23T13:30:30Z</time>
      </trkpt>
      <trkpt lat="44.77741" lon="5.85928">
        <ele>1897.4</ele>
        <time>2019-06-23T13:30:35Z</time>
      </trkpt>
      <trkpt lat="44.7774" lon="5.85932">
        <ele>1896.8</ele>
        <time>2019-06-23T13:30:40Z</time>
      </trkpt>
      <trkpt lat="44.77739" lon="5.85936">
        <ele>1897.6</ele>
        <time>2019-06-23T13:30:45Z</time>
      </trkpt>
      <trkpt lat="44.77737" lon="5.85936">
        <ele>1900.6</ele>
        <time>2019-06-23T13:30:55Z</time>
      </trkpt>
      <trkpt lat="44.77737" lon="5.85938">
        <ele>1900.4</ele>
        <time>2019-06-23T13:31:00Z</time>
      </trkpt>
      <trkpt lat="44.77737" lon="5.85941">
        <ele>1901</ele>
        <time>2019-06-23T13:31:05Z</time>
      </trkpt>
      <trkpt lat="44.77736" lon="5.85945">
        <ele>1901.2</ele>
        <time>2019-06-23T13:31:10Z</time>
      </trkpt>
      <trkpt lat="44.77735" lon="5.85948">
        <ele>1900</ele>
        <time>2019-06-23T13:31:15Z</time>
      </trkpt>
      <trkpt lat="44.77735" lon="5.85952">
        <ele>1901.8</ele>
        <time>2019-06-23T13:31:20Z</time>
      </trkpt>
      <trkpt lat="44.77736" lon="5.85956">
        <ele>1900.8</ele>
        <time>2019-06-23T13:31:25Z</time>
      </trkpt>
      <trkpt lat="44.77734" lon="5.85962">
        <ele>1898.8</ele>
        <time>2019-06-23T13:31:30Z</time>
      </trkpt>
      <trkpt lat="44.77735" lon="5.8597">
        <ele>1899.6</ele>
        <time>2019-06-23T13:31:35Z</time>
      </trkpt>
      <trkpt lat="44.77735" lon="5.85974">
        <ele>1899.6</ele>
        <time>2019-06-23T13:31:40Z</time>
      </trkpt>
      <trkpt lat="44.77731" lon="5.85976">
        <ele>1899.6</ele>
        <time>2019-06-23T13:31:45Z</time>
      </trkpt>
      <trkpt lat="44.77727" lon="5.8598">
        <ele>1896.6</ele>
        <time>2019-06-23T13:31:50Z</time>
      </trkpt>
      <trkpt lat="44.77723" lon="5.85983">
        <ele>1896.4</ele>
        <time>2019-06-23T13:31:55Z</time>
      </trkpt>
      <trkpt lat="44.77719" lon="5.85985">
        <ele>1897.4</ele>
        <time>2019-06-23T13:32:00Z</time>
      </trkpt>
      <trkpt lat="44.77716" lon="5.85986">
        <ele>1896.8</ele>
        <time>2019-06-23T13:32:05Z</time>
      </trkpt>
      <trkpt lat="44.77713" lon="5.85985">
        <ele>1896.4</ele>
        <time>2019-06-23T13:32:10Z</time>
      </trkpt>
      <trkpt lat="44.77709" lon="5.85985">
        <ele>1895.6</ele>
        <time>2019-06-23T13:32:15Z</time>
      </trkpt>
      <trkpt lat="44.77705" lon="5.85985">
        <ele>1894.8</ele>
        <time>2019-06-23T13:32:20Z</time>
      </trkpt>
      <trkpt lat="44.77702" lon="5.85987">
        <ele>1894.8</ele>
        <time>2019-06-23T13:32:25Z</time>
      </trkpt>
      <trkpt lat="44.77703" lon="5.85991">
        <ele>1894.2</ele>
        <time>2019-06-23T13:32:35Z</time>
      </trkpt>
      <trkpt lat="44.77703" lon="5.85995">
        <ele>1889.8</ele>
        <time>2019-06-23T13:32:40Z</time>
      </trkpt>
      <trkpt lat="44.77702" lon="5.85998">
        <ele>1891</ele>
        <time>2019-06-23T13:32:45Z</time>
      </trkpt>
      <trkpt lat="44.77701" lon="5.86003">
        <ele>1889.2</ele>
        <time>2019-06-23T13:32:50Z</time>
      </trkpt>
      <trkpt lat="44.77699" lon="5.86008">
        <ele>1889</ele>
        <time>2019-06-23T13:32:55Z</time>
      </trkpt>
      <trkpt lat="44.77696" lon="5.86013">
        <ele>1887</ele>
        <time>2019-06-23T13:33:00Z</time>
      </trkpt>
      <trkpt lat="44.77696" lon="5.86016">
        <ele>1889.4</ele>
        <time>2019-06-23T13:33:05Z</time>
      </trkpt>
      <trkpt lat="44.77695" lon="5.8602">
        <ele>1888.2</ele>
        <time>2019-06-23T13:33:10Z</time>
      </trkpt>
      <trkpt lat="44.77693" lon="5.86025">
        <ele>1888.8</ele>
        <time>2019-06-23T13:33:15Z</time>
      </trkpt>
      <trkpt lat="44.77692" lon="5.86028">
        <ele>1886.4</ele>
        <time>2019-06-23T13:33:20Z</time>
      </trkpt>
      <trkpt lat="44.7769" lon="5.86032">
        <ele>1883.8</ele>
        <time>2019-06-23T13:33:25Z</time>
      </trkpt>
      <trkpt lat="44.77689" lon="5.86035">
        <ele>1883.4</ele>
        <time>2019-06-23T13:33:30Z</time>
      </trkpt>
      <trkpt lat="44.77689" lon="5.86039">
        <ele>1881.6</ele>
        <time>2019-06-23T13:33:35Z</time>
      </trkpt>
      <trkpt lat="44.77687" lon="5.86041">
        <ele>1883.2</ele>
        <time>2019-06-23T13:33:40Z</time>
      </trkpt>
      <trkpt lat="44.77687" lon="5.86045">
        <ele>1879</ele>
        <time>2019-06-23T13:33:45Z</time>
      </trkpt>
      <trkpt lat="44.77685" lon="5.86049">
        <ele>1878.6</ele>
        <time>2019-06-23T13:33:50Z</time>
      </trkpt>
      <trkpt lat="44.77685" lon="5.86052">
        <ele>1878</ele>
        <time>2019-06-23T13:33:55Z</time>
      </trkpt>
      <trkpt lat="44.77684" lon="5.86056">
        <ele>1878.2</ele>
        <time>2019-06-23T13:34:00Z</time>
      </trkpt>
      <trkpt lat="44.77683" lon="5.86061">
        <ele>1877.8</ele>
        <time>2019-06-23T13:34:05Z</time>
      </trkpt>
      <trkpt lat="44.77682" lon="5.86064">
        <ele>1877.6</ele>
        <time>2019-06-23T13:34:10Z</time>
      </trkpt>
      <trkpt lat="44.77683" lon="5.86066">
        <ele>1878.6</ele>
        <time>2019-06-23T13:34:15Z</time>
      </trkpt>
      <trkpt lat="44.77683" lon="5.86068">
        <ele>1879</ele>
        <time>2019-06-23T13:34:20Z</time>
      </trkpt>
      <trkpt lat="44.77683" lon="5.86069">
        <ele>1874</ele>
        <time>2019-06-23T13:34:25Z</time>
      </trkpt>
      <trkpt lat="44.77684" lon="5.86073">
        <ele>1871.6</ele>
        <time>2019-06-23T13:34:30Z</time>
      </trkpt>
      <trkpt lat="44.77683" lon="5.86079">
        <ele>1868.2</ele>
        <time>2019-06-23T13:34:35Z</time>
      </trkpt>
      <trkpt lat="44.77682" lon="5.86086">
        <ele>1870.2</ele>
        <time>2019-06-23T13:34:40Z</time>
      </trkpt>
      <trkpt lat="44.77682" lon="5.86092">
        <ele>1864.2</ele>
        <time>2019-06-23T13:34:45Z</time>
      </trkpt>
      <trkpt lat="44.77682" lon="5.86097">
        <ele>1866.6</ele>
        <time>2019-06-23T13:34:50Z</time>
      </trkpt>
      <trkpt lat="44.77682" lon="5.86099">
        <ele>1865</ele>
        <time>2019-06-23T13:34:55Z</time>
      </trkpt>
      <trkpt lat="44.77682" lon="5.86099">
        <ele>1864.8</ele>
        <time>2019-06-23T13:35:05Z</time>
      </trkpt>
      <trkpt lat="44.77682" lon="5.861">
        <ele>1861.6</ele>
        <time>2019-06-23T13:35:10Z</time>
      </trkpt>
      <trkpt lat="44.77683" lon="5.86105">
        <ele>1863.8</ele>
        <time>2019-06-23T13:35:15Z</time>
      </trkpt>
      <trkpt lat="44.77682" lon="5.8611">
        <ele>1861</ele>
        <time>2019-06-23T13:35:20Z</time>
      </trkpt>
      <trkpt lat="44.77682" lon="5.86113">
        <ele>1860.2</ele>
        <time>2019-06-23T13:35:25Z</time>
      </trkpt>
      <trkpt lat="44.77683" lon="5.86117">
        <ele>1858.4</ele>
        <time>2019-06-23T13:35:30Z</time>
      </trkpt>
      <trkpt lat="44.77683" lon="5.86121">
        <ele>1857.4</ele>
        <time>2019-06-23T13:35:35Z</time>
      </trkpt>
      <trkpt lat="44.77684" lon="5.86125">
        <ele>1857.8</ele>
        <time>2019-06-23T13:35:40Z</time>
      </trkpt>
      <trkpt lat="44.77684" lon="5.8613">
        <ele>1859.6</ele>
        <time>2019-06-23T13:35:45Z</time>
      </trkpt>
      <trkpt lat="44.77682" lon="5.86135">
        <ele>1853.8</ele>
        <time>2019-06-23T13:35:50Z</time>
      </trkpt>
      <trkpt lat="44.77683" lon="5.8614">
        <ele>1852.2</ele>
        <time>2019-06-23T13:35:55Z</time>
      </trkpt>
      <trkpt lat="44.77685" lon="5.86142">
        <ele>1852.4</ele>
        <time>2019-06-23T13:36:00Z</time>
      </trkpt>
      <trkpt lat="44.77685" lon="5.86148">
        <ele>1849.4</ele>
        <time>2019-06-23T13:36:05Z</time>
      </trkpt>
      <trkpt lat="44.77688" lon="5.8615">
        <ele>1848.8</ele>
        <time>2019-06-23T13:36:10Z</time>
      </trkpt>
      <trkpt lat="44.77688" lon="5.86155">
        <ele>1847.6</ele>
        <time>2019-06-23T13:36:15Z</time>
      </trkpt>
      <trkpt lat="44.77688" lon="5.8616">
        <ele>1845.8</ele>
        <time>2019-06-23T13:36:20Z</time>
      </trkpt>
      <trkpt lat="44.77687" lon="5.86166">
        <ele>1847.4</ele>
        <time>2019-06-23T13:36:25Z</time>
      </trkpt>
      <trkpt lat="44.77687" lon="5.86172">
        <ele>1846.4</ele>
        <time>2019-06-23T13:36:30Z</time>
      </trkpt>
      <trkpt lat="44.77686" lon="5.86177">
        <ele>1843.4</ele>
        <time>2019-06-23T13:36:35Z</time>
      </trkpt>
      <trkpt lat="44.77687" lon="5.86183">
        <ele>1841</ele>
        <time>2019-06-23T13:36:40Z</time>
      </trkpt>
      <trkpt lat="44.77688" lon="5.86189">
        <ele>1839</ele>
        <time>2019-06-23T13:36:45Z</time>
      </trkpt>
      <trkpt lat="44.77689" lon="5.86195">
        <ele>1840.2</ele>
        <time>2019-06-23T13:36:50Z</time>
      </trkpt>
      <trkpt lat="44.77689" lon="5.862">
        <ele>1836.4</ele>
        <time>2019-06-23T13:36:55Z</time>
      </trkpt>
      <trkpt lat="44.77689" lon="5.86206">
        <ele>1833.2</ele>
        <time>2019-06-23T13:37:00Z</time>
      </trkpt>
      <trkpt lat="44.77689" lon="5.86212">
        <ele>1834.8</ele>
        <time>2019-06-23T13:37:05Z</time>
      </trkpt>
      <trkpt lat="44.7769" lon="5.86217">
        <ele>1830.8</ele>
        <time>2019-06-23T13:37:10Z</time>
      </trkpt>
      <trkpt lat="44.7769" lon="5.86223">
        <ele>1831.8</ele>
        <time>2019-06-23T13:37:15Z</time>
      </trkpt>
      <trkpt lat="44.77691" lon="5.86229">
        <ele>1831.4</ele>
        <time>2019-06-23T13:37:20Z</time>
      </trkpt>
      <trkpt lat="44.77691" lon="5.86234">
        <ele>1829.2</ele>
        <time>2019-06-23T13:37:25Z</time>
      </trkpt>
      <trkpt lat="44.77693" lon="5.86238">
        <ele>1827.8</ele>
        <time>2019-06-23T13:37:30Z</time>
      </trkpt>
      <trkpt lat="44.77693" lon="5.86242">
        <ele>1825.6</ele>
        <time>2019-06-23T13:37:35Z</time>
      </trkpt>
      <trkpt lat="44.77694" lon="5.86249">
        <ele>1828.4</ele>
        <time>2019-06-23T13:37:40Z</time>
      </trkpt>
      <trkpt lat="44.77695" lon="5.86255">
        <ele>1826</ele>
        <time>2019-06-23T13:37:45Z</time>
      </trkpt>
      <trkpt lat="44.77696" lon="5.86262">
        <ele>1823.6</ele>
        <time>2019-06-23T13:37:50Z</time>
      </trkpt>
      <trkpt lat="44.77696" lon="5.86268">
        <ele>1823.4</ele>
        <time>2019-06-23T13:37:55Z</time>
      </trkpt>
      <trkpt lat="44.77696" lon="5.86277">
        <ele>1819.4</ele>
        <time>2019-06-23T13:38:00Z</time>
      </trkpt>
      <trkpt lat="44.77696" lon="5.86286">
        <ele>1819.6</ele>
        <time>2019-06-23T13:38:05Z</time>
      </trkpt>
      <trkpt lat="44.77697" lon="5.86294">
        <ele>1821.6</ele>
        <time>2019-06-23T13:38:10Z</time>
      </trkpt>
      <trkpt lat="44.77698" lon="5.86301">
        <ele>1816.4</ele>
        <time>2019-06-23T13:38:15Z</time>
      </trkpt>
      <trkpt lat="44.77698" lon="5.86309">
        <ele>1817</ele>
        <time>2019-06-23T13:38:20Z</time>
      </trkpt>
      <trkpt lat="44.77699" lon="5.86317">
        <ele>1817</ele>
        <time>2019-06-23T13:38:25Z</time>
      </trkpt>
      <trkpt lat="44.777" lon="5.86325">
        <ele>1818.4</ele>
        <time>2019-06-23T13:38:30Z</time>
      </trkpt>
      <trkpt lat="44.77701" lon="5.86333">
        <ele>1816.4</ele>
        <time>2019-06-23T13:38:35Z</time>
      </trkpt>
      <trkpt lat="44.77702" lon="5.86341">
        <ele>1814.2</ele>
        <time>2019-06-23T13:38:40Z</time>
      </trkpt>
      <trkpt lat="44.77703" lon="5.86349">
        <ele>1813.6</ele>
        <time>2019-06-23T13:38:45Z</time>
      </trkpt>
      <trkpt lat="44.77704" lon="5.86357">
        <ele>1812.8</ele>
        <time>2019-06-23T13:38:50Z</time>
      </trkpt>
      <trkpt lat="44.77705" lon="5.86364">
        <ele>1811.6</ele>
        <time>2019-06-23T13:38:55Z</time>
      </trkpt>
      <trkpt lat="44.77705" lon="5.86368">
        <ele>1812.6</ele>
        <time>2019-06-23T13:39:00Z</time>
      </trkpt>
      <trkpt lat="44.77705" lon="5.86367">
        <ele>1811</ele>
        <time>2019-06-23T13:39:10Z</time>
      </trkpt>
      <trkpt lat="44.77706" lon="5.86371">
        <ele>1810</ele>
        <time>2019-06-23T13:39:15Z</time>
      </trkpt>
      <trkpt lat="44.77707" lon="5.86376">
        <ele>1809.6</ele>
        <time>2019-06-23T13:39:20Z</time>
      </trkpt>
      <trkpt lat="44.77709" lon="5.86382">
        <ele>1811.2</ele>
        <time>2019-06-23T13:39:25Z</time>
      </trkpt>
      <trkpt lat="44.7771" lon="5.86387">
        <ele>1807</ele>
        <time>2019-06-23T13:39:30Z</time>
      </trkpt>
      <trkpt lat="44.77712" lon="5.86393">
        <ele>1807.4</ele>
        <time>2019-06-23T13:39:35Z</time>
      </trkpt>
      <trkpt lat="44.77713" lon="5.864">
        <ele>1807</ele>
        <time>2019-06-23T13:39:40Z</time>
      </trkpt>
      <trkpt lat="44.77714" lon="5.86407">
        <ele>1806.4</ele>
        <time>2019-06-23T13:39:45Z</time>
      </trkpt>
      <trkpt lat="44.77716" lon="5.86412">
        <ele>1806</ele>
        <time>2019-06-23T13:39:50Z</time>
      </trkpt>
      <trkpt lat="44.77717" lon="5.86418">
        <ele>1800.8</ele>
        <time>2019-06-23T13:39:55Z</time>
      </trkpt>
      <trkpt lat="44.77718" lon="5.86424">
        <ele>1800.8</ele>
        <time>2019-06-23T13:40:00Z</time>
      </trkpt>
      <trkpt lat="44.7772" lon="5.86429">
        <ele>1798.2</ele>
        <time>2019-06-23T13:40:05Z</time>
      </trkpt>
      <trkpt lat="44.77722" lon="5.86434">
        <ele>1801.4</ele>
        <time>2019-06-23T13:40:10Z</time>
      </trkpt>
      <trkpt lat="44.77723" lon="5.86441">
        <ele>1798.8</ele>
        <time>2019-06-23T13:40:15Z</time>
      </trkpt>
      <trkpt lat="44.77724" lon="5.86448">
        <ele>1797.6</ele>
        <time>2019-06-23T13:40:20Z</time>
      </trkpt>
      <trkpt lat="44.77726" lon="5.86455">
        <ele>1796.8</ele>
        <time>2019-06-23T13:40:25Z</time>
      </trkpt>
      <trkpt lat="44.77726" lon="5.86463">
        <ele>1795.8</ele>
        <time>2019-06-23T13:40:30Z</time>
      </trkpt>
      <trkpt lat="44.77728" lon="5.86469">
        <ele>1795.8</ele>
        <time>2019-06-23T13:40:35Z</time>
      </trkpt>
      <trkpt lat="44.7773" lon="5.86476">
        <ele>1794.2</ele>
        <time>2019-06-23T13:40:40Z</time>
      </trkpt>
      <trkpt lat="44.77732" lon="5.86483">
        <ele>1792</ele>
        <time>2019-06-23T13:40:45Z</time>
      </trkpt>
      <trkpt lat="44.77734" lon="5.86488">
        <ele>1793.8</ele>
        <time>2019-06-23T13:40:50Z</time>
      </trkpt>
      <trkpt lat="44.77735" lon="5.86495">
        <ele>1791</ele>
        <time>2019-06-23T13:40:55Z</time>
      </trkpt>
      <trkpt lat="44.77738" lon="5.86501">
        <ele>1787.8</ele>
        <time>2019-06-23T13:41:00Z</time>
      </trkpt>
      <trkpt lat="44.77739" lon="5.86508">
        <ele>1791.2</ele>
        <time>2019-06-23T13:41:05Z</time>
      </trkpt>
      <trkpt lat="44.77741" lon="5.86516">
        <ele>1790.4</ele>
        <time>2019-06-23T13:41:10Z</time>
      </trkpt>
      <trkpt lat="44.77742" lon="5.86523">
        <ele>1787.8</ele>
        <time>2019-06-23T13:41:15Z</time>
      </trkpt>
      <trkpt lat="44.77744" lon="5.86529">
        <ele>1785.6</ele>
        <time>2019-06-23T13:41:20Z</time>
      </trkpt>
      <trkpt lat="44.77746" lon="5.86537">
        <ele>1784</ele>
        <time>2019-06-23T13:41:25Z</time>
      </trkpt>
      <trkpt lat="44.77746" lon="5.86545">
        <ele>1785.2</ele>
        <time>2019-06-23T13:41:30Z</time>
      </trkpt>
      <trkpt lat="44.77746" lon="5.86553">
        <ele>1785.6</ele>
        <time>2019-06-23T13:41:35Z</time>
      </trkpt>
      <trkpt lat="44.77747" lon="5.86561">
        <ele>1779.8</ele>
        <time>2019-06-23T13:41:40Z</time>
      </trkpt>
      <trkpt lat="44.77745" lon="5.86568">
        <ele>1784.6</ele>
        <time>2019-06-23T13:41:45Z</time>
      </trkpt>
      <trkpt lat="44.77743" lon="5.86575">
        <ele>1783</ele>
        <time>2019-06-23T13:41:50Z</time>
      </trkpt>
      <trkpt lat="44.77742" lon="5.86584">
        <ele>1781.2</ele>
        <time>2019-06-23T13:41:55Z</time>
      </trkpt>
      <trkpt lat="44.77743" lon="5.86592">
        <ele>1781.4</ele>
        <time>2019-06-23T13:42:00Z</time>
      </trkpt>
      <trkpt lat="44.77741" lon="5.86599">
        <ele>1779.4</ele>
        <time>2019-06-23T13:42:05Z</time>
      </trkpt>
      <trkpt lat="44.7774" lon="5.86606">
        <ele>1780.6</ele>
        <time>2019-06-23T13:42:10Z</time>
      </trkpt>
      <trkpt lat="44.7774" lon="5.86615">
        <ele>1780.2</ele>
        <time>2019-06-23T13:42:15Z</time>
      </trkpt>
      <trkpt lat="44.7774" lon="5.86622">
        <ele>1780</ele>
        <time>2019-06-23T13:42:20Z</time>
      </trkpt>
      <trkpt lat="44.77739" lon="5.8663">
        <ele>1779.2</ele>
        <time>2019-06-23T13:42:25Z</time>
      </trkpt>
      <trkpt lat="44.77739" lon="5.86638">
        <ele>1777.8</ele>
        <time>2019-06-23T13:42:30Z</time>
      </trkpt>
      <trkpt lat="44.77739" lon="5.86646">
        <ele>1779.4</ele>
        <time>2019-06-23T13:42:35Z</time>
      </trkpt>
      <trkpt lat="44.77739" lon="5.86653">
        <ele>1780.8</ele>
        <time>2019-06-23T13:42:40Z</time>
      </trkpt>
      <trkpt lat="44.7774" lon="5.8666">
        <ele>1781.6</ele>
        <time>2019-06-23T13:42:45Z</time>
      </trkpt>
      <trkpt lat="44.77742" lon="5.86668">
        <ele>1775.4</ele>
        <time>2019-06-23T13:42:50Z</time>
      </trkpt>
      <trkpt lat="44.77743" lon="5.86675">
        <ele>1775.8</ele>
        <time>2019-06-23T13:42:55Z</time>
      </trkpt>
      <trkpt lat="44.77745" lon="5.86682">
        <ele>1775.8</ele>
        <time>2019-06-23T13:43:00Z</time>
      </trkpt>
      <trkpt lat="44.77746" lon="5.86688">
        <ele>1774.6</ele>
        <time>2019-06-23T13:43:05Z</time>
      </trkpt>
      <trkpt lat="44.77748" lon="5.86694">
        <ele>1772.4</ele>
        <time>2019-06-23T13:43:10Z</time>
      </trkpt>
      <trkpt lat="44.77751" lon="5.86701">
        <ele>1770.6</ele>
        <time>2019-06-23T13:43:15Z</time>
      </trkpt>
      <trkpt lat="44.77753" lon="5.86707">
        <ele>1774.4</ele>
        <time>2019-06-23T13:43:20Z</time>
      </trkpt>
      <trkpt lat="44.77755" lon="5.86712">
        <ele>1772.2</ele>
        <time>2019-06-23T13:43:25Z</time>
      </trkpt>
      <trkpt lat="44.77758" lon="5.86719">
        <ele>1770.8</ele>
        <time>2019-06-23T13:43:30Z</time>
      </trkpt>
      <trkpt lat="44.7776" lon="5.86724">
        <ele>1770.6</ele>
        <time>2019-06-23T13:43:35Z</time>
      </trkpt>
      <trkpt lat="44.77761" lon="5.86729">
        <ele>1768.8</ele>
        <time>2019-06-23T13:43:40Z</time>
      </trkpt>
      <trkpt lat="44.77764" lon="5.86735">
        <ele>1766.8</ele>
        <time>2019-06-23T13:43:45Z</time>
      </trkpt>
      <trkpt lat="44.77766" lon="5.8674">
        <ele>1766.2</ele>
        <time>2019-06-23T13:43:50Z</time>
      </trkpt>
      <trkpt lat="44.77769" lon="5.86745">
        <ele>1765.4</ele>
        <time>2019-06-23T13:43:55Z</time>
      </trkpt>
      <trkpt lat="44.77771" lon="5.86751">
        <ele>1766</ele>
        <time>2019-06-23T13:44:00Z</time>
      </trkpt>
      <trkpt lat="44.77772" lon="5.86757">
        <ele>1767.2</ele>
        <time>2019-06-23T13:44:05Z</time>
      </trkpt>
      <trkpt lat="44.77773" lon="5.86764">
        <ele>1765.6</ele>
        <time>2019-06-23T13:44:10Z</time>
      </trkpt>
      <trkpt lat="44.77771" lon="5.86768">
        <ele>1765</ele>
        <time>2019-06-23T13:44:15Z</time>
      </trkpt>
      <trkpt lat="44.77772" lon="5.86775">
        <ele>1763</ele>
        <time>2019-06-23T13:44:20Z</time>
      </trkpt>
      <trkpt lat="44.77773" lon="5.86781">
        <ele>1762.6</ele>
        <time>2019-06-23T13:44:25Z</time>
      </trkpt>
      <trkpt lat="44.77775" lon="5.86786">
        <ele>1761.8</ele>
        <time>2019-06-23T13:44:30Z</time>
      </trkpt>
      <trkpt lat="44.77776" lon="5.86792">
        <ele>1763.6</ele>
        <time>2019-06-23T13:44:35Z</time>
      </trkpt>
      <trkpt lat="44.77777" lon="5.86797">
        <ele>1761.8</ele>
        <time>2019-06-23T13:44:40Z</time>
      </trkpt>
      <trkpt lat="44.77777" lon="5.86804">
        <ele>1761.6</ele>
        <time>2019-06-23T13:44:45Z</time>
      </trkpt>
      <trkpt lat="44.77778" lon="5.86812">
        <ele>1761.6</ele>
        <time>2019-06-23T13:44:50Z</time>
      </trkpt>
      <trkpt lat="44.77779" lon="5.8682">
        <ele>1760.4</ele>
        <time>2019-06-23T13:44:55Z</time>
      </trkpt>
      <trkpt lat="44.7778" lon="5.86825">
        <ele>1761.6</ele>
        <time>2019-06-23T13:45:00Z</time>
      </trkpt>
      <trkpt lat="44.77782" lon="5.86831">
        <ele>1760.4</ele>
        <time>2019-06-23T13:45:05Z</time>
      </trkpt>
      <trkpt lat="44.77783" lon="5.86837">
        <ele>1758.6</ele>
        <time>2019-06-23T13:45:10Z</time>
      </trkpt>
      <trkpt lat="44.77785" lon="5.86842">
        <ele>1758.8</ele>
        <time>2019-06-23T13:45:15Z</time>
      </trkpt>
      <trkpt lat="44.77785" lon="5.86847">
        <ele>1757.8</ele>
        <time>2019-06-23T13:45:20Z</time>
      </trkpt>
      <trkpt lat="44.77786" lon="5.86854">
        <ele>1757.2</ele>
        <time>2019-06-23T13:45:25Z</time>
      </trkpt>
      <trkpt lat="44.77788" lon="5.86861">
        <ele>1755.6</ele>
        <time>2019-06-23T13:45:30Z</time>
      </trkpt>
      <trkpt lat="44.77789" lon="5.86867">
        <ele>1754.2</ele>
        <time>2019-06-23T13:45:35Z</time>
      </trkpt>
      <trkpt lat="44.77791" lon="5.86872">
        <ele>1752</ele>
        <time>2019-06-23T13:45:40Z</time>
      </trkpt>
      <trkpt lat="44.77793" lon="5.86877">
        <ele>1753</ele>
        <time>2019-06-23T13:45:45Z</time>
      </trkpt>
      <trkpt lat="44.77794" lon="5.86883">
        <ele>1750</ele>
        <time>2019-06-23T13:45:50Z</time>
      </trkpt>
      <trkpt lat="44.77796" lon="5.86891">
        <ele>1750</ele>
        <time>2019-06-23T13:45:55Z</time>
      </trkpt>
      <trkpt lat="44.77797" lon="5.86898">
        <ele>1750.2</ele>
        <time>2019-06-23T13:46:00Z</time>
      </trkpt>
      <trkpt lat="44.77799" lon="5.86904">
        <ele>1752</ele>
        <time>2019-06-23T13:46:05Z</time>
      </trkpt>
      <trkpt lat="44.778" lon="5.8691">
        <ele>1748.8</ele>
        <time>2019-06-23T13:46:10Z</time>
      </trkpt>
      <trkpt lat="44.77801" lon="5.86916">
        <ele>1747.6</ele>
        <time>2019-06-23T13:46:15Z</time>
      </trkpt>
      <trkpt lat="44.77803" lon="5.86922">
        <ele>1746.4</ele>
        <time>2019-06-23T13:46:20Z</time>
      </trkpt>
      <trkpt lat="44.77804" lon="5.86929">
        <ele>1745.8</ele>
        <time>2019-06-23T13:46:25Z</time>
      </trkpt>
      <trkpt lat="44.77806" lon="5.86935">
        <ele>1744.6</ele>
        <time>2019-06-23T13:46:30Z</time>
      </trkpt>
      <trkpt lat="44.77808" lon="5.8694">
        <ele>1742.6</ele>
        <time>2019-06-23T13:46:35Z</time>
      </trkpt>
      <trkpt lat="44.7781" lon="5.86945">
        <ele>1743.4</ele>
        <time>2019-06-23T13:46:40Z</time>
      </trkpt>
      <trkpt lat="44.77812" lon="5.8695">
        <ele>1742.8</ele>
        <time>2019-06-23T13:46:45Z</time>
      </trkpt>
      <trkpt lat="44.77814" lon="5.86953">
        <ele>1742.2</ele>
        <time>2019-06-23T13:46:50Z</time>
      </trkpt>
      <trkpt lat="44.77816" lon="5.86958">
        <ele>1740.6</ele>
        <time>2019-06-23T13:46:55Z</time>
      </trkpt>
      <trkpt lat="44.77816" lon="5.86959">
        <ele>1741</ele>
        <time>2019-06-23T13:47:00Z</time>
      </trkpt>
      <trkpt lat="44.77816" lon="5.86963">
        <ele>1740.6</ele>
        <time>2019-06-23T13:47:05Z</time>
      </trkpt>
      <trkpt lat="44.77818" lon="5.86969">
        <ele>1737.4</ele>
        <time>2019-06-23T13:47:10Z</time>
      </trkpt>
      <trkpt lat="44.7782" lon="5.86975">
        <ele>1740.6</ele>
        <time>2019-06-23T13:47:15Z</time>
      </trkpt>
      <trkpt lat="44.77821" lon="5.86981">
        <ele>1737.2</ele>
        <time>2019-06-23T13:47:20Z</time>
      </trkpt>
      <trkpt lat="44.77823" lon="5.86985">
        <ele>1735.4</ele>
        <time>2019-06-23T13:47:25Z</time>
      </trkpt>
      <trkpt lat="44.77824" lon="5.8699">
        <ele>1734.4</ele>
        <time>2019-06-23T13:47:30Z</time>
      </trkpt>
      <trkpt lat="44.77825" lon="5.86997">
        <ele>1735.2</ele>
        <time>2019-06-23T13:47:35Z</time>
      </trkpt>
      <trkpt lat="44.77826" lon="5.87002">
        <ele>1730.8</ele>
        <time>2019-06-23T13:47:40Z</time>
      </trkpt>
      <trkpt lat="44.77828" lon="5.87009">
        <ele>1732</ele>
        <time>2019-06-23T13:47:45Z</time>
      </trkpt>
      <trkpt lat="44.77829" lon="5.87015">
        <ele>1732.4</ele>
        <time>2019-06-23T13:47:50Z</time>
      </trkpt>
      <trkpt lat="44.77831" lon="5.87021">
        <ele>1730.2</ele>
        <time>2019-06-23T13:47:55Z</time>
      </trkpt>
      <trkpt lat="44.77833" lon="5.87027">
        <ele>1731.4</ele>
        <time>2019-06-23T13:48:00Z</time>
      </trkpt>
      <trkpt lat="44.77835" lon="5.87033">
        <ele>1727.2</ele>
        <time>2019-06-23T13:48:05Z</time>
      </trkpt>
      <trkpt lat="44.77837" lon="5.87039">
        <ele>1727.8</ele>
        <time>2019-06-23T13:48:10Z</time>
      </trkpt>
      <trkpt lat="44.77839" lon="5.87046">
        <ele>1728</ele>
        <time>2019-06-23T13:48:15Z</time>
      </trkpt>
      <trkpt lat="44.77841" lon="5.87052">
        <ele>1724</ele>
        <time>2019-06-23T13:48:20Z</time>
      </trkpt>
      <trkpt lat="44.77843" lon="5.87058">
        <ele>1723</ele>
        <time>2019-06-23T13:48:25Z</time>
      </trkpt>
      <trkpt lat="44.77845" lon="5.87064">
        <ele>1725</ele>
        <time>2019-06-23T13:48:30Z</time>
      </trkpt>
      <trkpt lat="44.77847" lon="5.87071">
        <ele>1721.4</ele>
        <time>2019-06-23T13:48:35Z</time>
      </trkpt>
      <trkpt lat="44.77849" lon="5.87077">
        <ele>1720.8</ele>
        <time>2019-06-23T13:48:40Z</time>
      </trkpt>
      <trkpt lat="44.77851" lon="5.87083">
        <ele>1720.8</ele>
        <time>2019-06-23T13:48:45Z</time>
      </trkpt>
      <trkpt lat="44.77852" lon="5.8709">
        <ele>1721.6</ele>
        <time>2019-06-23T13:48:50Z</time>
      </trkpt>
      <trkpt lat="44.77854" lon="5.87096">
        <ele>1719.6</ele>
        <time>2019-06-23T13:48:55Z</time>
      </trkpt>
      <trkpt lat="44.77855" lon="5.87104">
        <ele>1718.2</ele>
        <time>2019-06-23T13:49:00Z</time>
      </trkpt>
      <trkpt lat="44.77857" lon="5.87112">
        <ele>1716</ele>
        <time>2019-06-23T13:49:05Z</time>
      </trkpt>
      <trkpt lat="44.77859" lon="5.87118">
        <ele>1719.2</ele>
        <time>2019-06-23T13:49:10Z</time>
      </trkpt>
      <trkpt lat="44.77861" lon="5.87123">
        <ele>1717.8</ele>
        <time>2019-06-23T13:49:15Z</time>
      </trkpt>
      <trkpt lat="44.77864" lon="5.8713">
        <ele>1718.6</ele>
        <time>2019-06-23T13:49:20Z</time>
      </trkpt>
      <trkpt lat="44.77866" lon="5.87137">
        <ele>1713.6</ele>
        <time>2019-06-23T13:49:25Z</time>
      </trkpt>
      <trkpt lat="44.77868" lon="5.87143">
        <ele>1716.8</ele>
        <time>2019-06-23T13:49:30Z</time>
      </trkpt>
      <trkpt lat="44.77871" lon="5.87149">
        <ele>1714.6</ele>
        <time>2019-06-23T13:49:35Z</time>
      </trkpt>
      <trkpt lat="44.77874" lon="5.87155">
        <ele>1712.8</ele>
        <time>2019-06-23T13:49:40Z</time>
      </trkpt>
      <trkpt lat="44.77878" lon="5.87159">
        <ele>1714.2</ele>
        <time>2019-06-23T13:49:45Z</time>
      </trkpt>
      <trkpt lat="44.77882" lon="5.87164">
        <ele>1713.2</ele>
        <time>2019-06-23T13:49:50Z</time>
      </trkpt>
      <trkpt lat="44.77885" lon="5.8717">
        <ele>1713.2</ele>
        <time>2019-06-23T13:49:55Z</time>
      </trkpt>
      <trkpt lat="44.77888" lon="5.87176">
        <ele>1711.6</ele>
        <time>2019-06-23T13:50:00Z</time>
      </trkpt>
      <trkpt lat="44.77891" lon="5.87183">
        <ele>1713.8</ele>
        <time>2019-06-23T13:50:05Z</time>
      </trkpt>
      <trkpt lat="44.77894" lon="5.87189">
        <ele>1711.2</ele>
        <time>2019-06-23T13:50:10Z</time>
      </trkpt>
      <trkpt lat="44.77897" lon="5.87195">
        <ele>1710</ele>
        <time>2019-06-23T13:50:15Z</time>
      </trkpt>
      <trkpt lat="44.779" lon="5.87202">
        <ele>1708.4</ele>
        <time>2019-06-23T13:50:20Z</time>
      </trkpt>
      <trkpt lat="44.77903" lon="5.87208">
        <ele>1707.8</ele>
        <time>2019-06-23T13:50:25Z</time>
      </trkpt>
      <trkpt lat="44.77907" lon="5.87214">
        <ele>1709</ele>
        <time>2019-06-23T13:50:30Z</time>
      </trkpt>
      <trkpt lat="44.7791" lon="5.87219">
        <ele>1707.6</ele>
        <time>2019-06-23T13:50:35Z</time>
      </trkpt>
      <trkpt lat="44.77913" lon="5.87226">
        <ele>1707.6</ele>
        <time>2019-06-23T13:50:40Z</time>
      </trkpt>
      <trkpt lat="44.77915" lon="5.87233">
        <ele>1706.2</ele>
        <time>2019-06-23T13:50:45Z</time>
      </trkpt>
      <trkpt lat="44.77918" lon="5.8724">
        <ele>1704.4</ele>
        <time>2019-06-23T13:50:50Z</time>
      </trkpt>
      <trkpt lat="44.7792" lon="5.87248">
        <ele>1704.2</ele>
        <time>2019-06-23T13:50:55Z</time>
      </trkpt>
      <trkpt lat="44.77922" lon="5.87256">
        <ele>1706.6</ele>
        <time>2019-06-23T13:51:00Z</time>
      </trkpt>
      <trkpt lat="44.77925" lon="5.87264">
        <ele>1704.6</ele>
        <time>2019-06-23T13:51:05Z</time>
      </trkpt>
      <trkpt lat="44.77927" lon="5.87271">
        <ele>1702.2</ele>
        <time>2019-06-23T13:51:10Z</time>
      </trkpt>
      <trkpt lat="44.77929" lon="5.87278">
        <ele>1700</ele>
        <time>2019-06-23T13:51:15Z</time>
      </trkpt>
      <trkpt lat="44.77932" lon="5.87284">
        <ele>1699.6</ele>
        <time>2019-06-23T13:51:20Z</time>
      </trkpt>
      <trkpt lat="44.77936" lon="5.87289">
        <ele>1699.8</ele>
        <time>2019-06-23T13:51:25Z</time>
      </trkpt>
      <trkpt lat="44.77939" lon="5.87296">
        <ele>1698.6</ele>
        <time>2019-06-23T13:51:30Z</time>
      </trkpt>
      <trkpt lat="44.77943" lon="5.87303">
        <ele>1697.8</ele>
        <time>2019-06-23T13:51:35Z</time>
      </trkpt>
      <trkpt lat="44.77947" lon="5.87307">
        <ele>1696.2</ele>
        <time>2019-06-23T13:51:40Z</time>
      </trkpt>
      <trkpt lat="44.7795" lon="5.87313">
        <ele>1695.4</ele>
        <time>2019-06-23T13:51:45Z</time>
      </trkpt>
      <trkpt lat="44.77954" lon="5.87317">
        <ele>1696.8</ele>
        <time>2019-06-23T13:51:50Z</time>
      </trkpt>
      <trkpt lat="44.77958" lon="5.87322">
        <ele>1695.8</ele>
        <time>2019-06-23T13:51:55Z</time>
      </trkpt>
      <trkpt lat="44.77963" lon="5.87326">
        <ele>1695.2</ele>
        <time>2019-06-23T13:52:00Z</time>
      </trkpt>
      <trkpt lat="44.77966" lon="5.87333">
        <ele>1691.6</ele>
        <time>2019-06-23T13:52:05Z</time>
      </trkpt>
      <trkpt lat="44.77969" lon="5.8734">
        <ele>1693</ele>
        <time>2019-06-23T13:52:10Z</time>
      </trkpt>
      <trkpt lat="44.77974" lon="5.87345">
        <ele>1694.8</ele>
        <time>2019-06-23T13:52:15Z</time>
      </trkpt>
      <trkpt lat="44.77978" lon="5.8735">
        <ele>1691.2</ele>
        <time>2019-06-23T13:52:20Z</time>
      </trkpt>
      <trkpt lat="44.7798" lon="5.87358">
        <ele>1690.4</ele>
        <time>2019-06-23T13:52:25Z</time>
      </trkpt>
      <trkpt lat="44.77982" lon="5.87365">
        <ele>1687.8</ele>
        <time>2019-06-23T13:52:30Z</time>
      </trkpt>
      <trkpt lat="44.77986" lon="5.87371">
        <ele>1689.4</ele>
        <time>2019-06-23T13:52:35Z</time>
      </trkpt>
      <trkpt lat="44.77991" lon="5.87376">
        <ele>1689.2</ele>
        <time>2019-06-23T13:52:40Z</time>
      </trkpt>
      <trkpt lat="44.77995" lon="5.87381">
        <ele>1687</ele>
        <time>2019-06-23T13:52:45Z</time>
      </trkpt>
      <trkpt lat="44.77996" lon="5.87389">
        <ele>1686</ele>
        <time>2019-06-23T13:52:50Z</time>
      </trkpt>
      <trkpt lat="44.78" lon="5.87394">
        <ele>1684.2</ele>
        <time>2019-06-23T13:52:55Z</time>
      </trkpt>
      <trkpt lat="44.78004" lon="5.87395">
        <ele>1686.4</ele>
        <time>2019-06-23T13:53:00Z</time>
      </trkpt>
      <trkpt lat="44.78009" lon="5.87399">
        <ele>1687.2</ele>
        <time>2019-06-23T13:53:05Z</time>
      </trkpt>
      <trkpt lat="44.78011" lon="5.87406">
        <ele>1684.2</ele>
        <time>2019-06-23T13:53:10Z</time>
      </trkpt>
      <trkpt lat="44.78013" lon="5.87408">
        <ele>1685.2</ele>
        <time>2019-06-23T13:53:15Z</time>
      </trkpt>
      <trkpt lat="44.78016" lon="5.87411">
        <ele>1685.4</ele>
        <time>2019-06-23T13:53:20Z</time>
      </trkpt>
      <trkpt lat="44.78018" lon="5.87418">
        <ele>1684.8</ele>
        <time>2019-06-23T13:53:25Z</time>
      </trkpt>
      <trkpt lat="44.7802" lon="5.87424">
        <ele>1682</ele>
        <time>2019-06-23T13:53:30Z</time>
      </trkpt>
      <trkpt lat="44.78025" lon="5.87427">
        <ele>1681.2</ele>
        <time>2019-06-23T13:53:35Z</time>
      </trkpt>
      <trkpt lat="44.78029" lon="5.87432">
        <ele>1682</ele>
        <time>2019-06-23T13:53:40Z</time>
      </trkpt>
      <trkpt lat="44.78033" lon="5.87436">
        <ele>1680</ele>
        <time>2019-06-23T13:53:45Z</time>
      </trkpt>
      <trkpt lat="44.78036" lon="5.87442">
        <ele>1679.8</ele>
        <time>2019-06-23T13:53:50Z</time>
      </trkpt>
      <trkpt lat="44.78038" lon="5.87448">
        <ele>1677.6</ele>
        <time>2019-06-23T13:53:55Z</time>
      </trkpt>
      <trkpt lat="44.78041" lon="5.87456">
        <ele>1681.2</ele>
        <time>2019-06-23T13:54:00Z</time>
      </trkpt>
      <trkpt lat="44.78042" lon="5.87463">
        <ele>1677</ele>
        <time>2019-06-23T13:54:05Z</time>
      </trkpt>
      <trkpt lat="44.78044" lon="5.8747">
        <ele>1675.4</ele>
        <time>2019-06-23T13:54:10Z</time>
      </trkpt>
      <trkpt lat="44.78047" lon="5.87474">
        <ele>1676.4</ele>
        <time>2019-06-23T13:54:15Z</time>
      </trkpt>
      <trkpt lat="44.78049" lon="5.87481">
        <ele>1673.8</ele>
        <time>2019-06-23T13:54:20Z</time>
      </trkpt>
      <trkpt lat="44.78049" lon="5.87488">
        <ele>1673.2</ele>
        <time>2019-06-23T13:54:25Z</time>
      </trkpt>
      <trkpt lat="44.7805" lon="5.87496">
        <ele>1675.4</ele>
        <time>2019-06-23T13:54:30Z</time>
      </trkpt>
      <trkpt lat="44.78054" lon="5.87501">
        <ele>1673.6</ele>
        <time>2019-06-23T13:54:35Z</time>
      </trkpt>
      <trkpt lat="44.78059" lon="5.87503">
        <ele>1670.8</ele>
        <time>2019-06-23T13:54:40Z</time>
      </trkpt>
      <trkpt lat="44.78064" lon="5.87504">
        <ele>1668.4</ele>
        <time>2019-06-23T13:54:45Z</time>
      </trkpt>
      <trkpt lat="44.78068" lon="5.87505">
        <ele>1672.4</ele>
        <time>2019-06-23T13:54:50Z</time>
      </trkpt>
      <trkpt lat="44.78073" lon="5.87505">
        <ele>1671</ele>
        <time>2019-06-23T13:54:55Z</time>
      </trkpt>
      <trkpt lat="44.78075" lon="5.87506">
        <ele>1667.2</ele>
        <time>2019-06-23T13:55:00Z</time>
      </trkpt>
      <trkpt lat="44.78076" lon="5.87505">
        <ele>1667.6</ele>
        <time>2019-06-23T13:55:05Z</time>
      </trkpt>
      <trkpt lat="44.7808" lon="5.87505">
        <ele>1666.2</ele>
        <time>2019-06-23T13:55:10Z</time>
      </trkpt>
      <trkpt lat="44.78085" lon="5.87505">
        <ele>1667.8</ele>
        <time>2019-06-23T13:55:15Z</time>
      </trkpt>
      <trkpt lat="44.78089" lon="5.87504">
        <ele>1664.4</ele>
        <time>2019-06-23T13:55:20Z</time>
      </trkpt>
      <trkpt lat="44.78093" lon="5.87502">
        <ele>1665</ele>
        <time>2019-06-23T13:55:25Z</time>
      </trkpt>
      <trkpt lat="44.78097" lon="5.87502">
        <ele>1664.4</ele>
        <time>2019-06-23T13:55:30Z</time>
      </trkpt>
      <trkpt lat="44.781" lon="5.87504">
        <ele>1660.2</ele>
        <time>2019-06-23T13:55:35Z</time>
      </trkpt>
      <trkpt lat="44.78102" lon="5.8751">
        <ele>1660.8</ele>
        <time>2019-06-23T13:55:40Z</time>
      </trkpt>
      <trkpt lat="44.78103" lon="5.87513">
        <ele>1661.8</ele>
        <time>2019-06-23T13:55:45Z</time>
      </trkpt>
      <trkpt lat="44.78108" lon="5.8751">
        <ele>1661</ele>
        <time>2019-06-23T13:55:50Z</time>
      </trkpt>
      <trkpt lat="44.78112" lon="5.87507">
        <ele>1661.4</ele>
        <time>2019-06-23T13:55:55Z</time>
      </trkpt>
      <trkpt lat="44.78116" lon="5.87507">
        <ele>1659</ele>
        <time>2019-06-23T13:56:00Z</time>
      </trkpt>
      <trkpt lat="44.7812" lon="5.87507">
        <ele>1660.2</ele>
        <time>2019-06-23T13:56:05Z</time>
      </trkpt>
      <trkpt lat="44.78124" lon="5.87508">
        <ele>1656.8</ele>
        <time>2019-06-23T13:56:10Z</time>
      </trkpt>
      <trkpt lat="44.78128" lon="5.87507">
        <ele>1653</ele>
        <time>2019-06-23T13:56:15Z</time>
      </trkpt>
      <trkpt lat="44.78132" lon="5.87508">
        <ele>1650.6</ele>
        <time>2019-06-23T13:56:20Z</time>
      </trkpt>
      <trkpt lat="44.78134" lon="5.87511">
        <ele>1652.6</ele>
        <time>2019-06-23T13:56:25Z</time>
      </trkpt>
      <trkpt lat="44.78137" lon="5.87514">
        <ele>1650.6</ele>
        <time>2019-06-23T13:56:30Z</time>
      </trkpt>
      <trkpt lat="44.78141" lon="5.87516">
        <ele>1647</ele>
        <time>2019-06-23T13:56:35Z</time>
      </trkpt>
      <trkpt lat="44.78143" lon="5.87517">
        <ele>1646.8</ele>
        <time>2019-06-23T13:56:40Z</time>
      </trkpt>
      <trkpt lat="44.78147" lon="5.87517">
        <ele>1646.6</ele>
        <time>2019-06-23T13:56:45Z</time>
      </trkpt>
      <trkpt lat="44.7815" lon="5.87517">
        <ele>1647.4</ele>
        <time>2019-06-23T13:56:50Z</time>
      </trkpt>
      <trkpt lat="44.78153" lon="5.87514">
        <ele>1646.6</ele>
        <time>2019-06-23T13:56:55Z</time>
      </trkpt>
      <trkpt lat="44.78156" lon="5.87514">
        <ele>1641</ele>
        <time>2019-06-23T13:57:00Z</time>
      </trkpt>
      <trkpt lat="44.78159" lon="5.87516">
        <ele>1639.6</ele>
        <time>2019-06-23T13:57:05Z</time>
      </trkpt>
      <trkpt lat="44.78162" lon="5.8752">
        <ele>1637.2</ele>
        <time>2019-06-23T13:57:10Z</time>
      </trkpt>
      <trkpt lat="44.78165" lon="5.87521">
        <ele>1636.4</ele>
        <time>2019-06-23T13:57:15Z</time>
      </trkpt>
      <trkpt lat="44.78169" lon="5.87523">
        <ele>1638.2</ele>
        <time>2019-06-23T13:57:20Z</time>
      </trkpt>
      <trkpt lat="44.78173" lon="5.87523">
        <ele>1635</ele>
        <time>2019-06-23T13:57:25Z</time>
      </trkpt>
      <trkpt lat="44.78176" lon="5.87523">
        <ele>1630.2</ele>
        <time>2019-06-23T13:57:30Z</time>
      </trkpt>
      <trkpt lat="44.78181" lon="5.87524">
        <ele>1633.4</ele>
        <time>2019-06-23T13:57:35Z</time>
      </trkpt>
      <trkpt lat="44.78186" lon="5.87524">
        <ele>1634.2</ele>
        <time>2019-06-23T13:57:40Z</time>
      </trkpt>
      <trkpt lat="44.7819" lon="5.87524">
        <ele>1628.4</ele>
        <time>2019-06-23T13:57:45Z</time>
      </trkpt>
      <trkpt lat="44.78195" lon="5.87522">
        <ele>1628.2</ele>
        <time>2019-06-23T13:57:50Z</time>
      </trkpt>
      <trkpt lat="44.78201" lon="5.87521">
        <ele>1629.2</ele>
        <time>2019-06-23T13:57:56Z</time>
      </trkpt>
      <trkpt lat="44.78205" lon="5.87519">
        <ele>1624.4</ele>
        <time>2019-06-23T13:58:01Z</time>
      </trkpt>
      <trkpt lat="44.7821" lon="5.87518">
        <ele>1626.6</ele>
        <time>2019-06-23T13:58:06Z</time>
      </trkpt>
      <trkpt lat="44.78216" lon="5.87517">
        <ele>1624.6</ele>
        <time>2019-06-23T13:58:11Z</time>
      </trkpt>
      <trkpt lat="44.7822" lon="5.87516">
        <ele>1622.8</ele>
        <time>2019-06-23T13:58:16Z</time>
      </trkpt>
      <trkpt lat="44.78224" lon="5.87517">
        <ele>1621.2</ele>
        <time>2019-06-23T13:58:21Z</time>
      </trkpt>
      <trkpt lat="44.78228" lon="5.87518">
        <ele>1620.6</ele>
        <time>2019-06-23T13:58:26Z</time>
      </trkpt>
      <trkpt lat="44.78232" lon="5.87518">
        <ele>1620.4</ele>
        <time>2019-06-23T13:58:31Z</time>
      </trkpt>
      <trkpt lat="44.78232" lon="5.87518">
        <ele>1619.8</ele>
        <time>2019-06-23T13:58:41Z</time>
      </trkpt>
      <trkpt lat="44.78236" lon="5.87518">
        <ele>1617.4</ele>
        <time>2019-06-23T13:58:46Z</time>
      </trkpt>
      <trkpt lat="44.78241" lon="5.87519">
        <ele>1618.8</ele>
        <time>2019-06-23T13:58:51Z</time>
      </trkpt>
      <trkpt lat="44.78246" lon="5.8752">
        <ele>1616.6</ele>
        <time>2019-06-23T13:58:56Z</time>
      </trkpt>
      <trkpt lat="44.78251" lon="5.87519">
        <ele>1613</ele>
        <time>2019-06-23T13:59:01Z</time>
      </trkpt>
      <trkpt lat="44.78255" lon="5.8752">
        <ele>1613.4</ele>
        <time>2019-06-23T13:59:06Z</time>
      </trkpt>
      <trkpt lat="44.7826" lon="5.87521">
        <ele>1609.6</ele>
        <time>2019-06-23T13:59:11Z</time>
      </trkpt>
      <trkpt lat="44.78264" lon="5.87521">
        <ele>1609.6</ele>
        <time>2019-06-23T13:59:16Z</time>
      </trkpt>
      <trkpt lat="44.78268" lon="5.8752">
        <ele>1610.6</ele>
        <time>2019-06-23T13:59:21Z</time>
      </trkpt>
      <trkpt lat="44.78273" lon="5.87522">
        <ele>1607.2</ele>
        <time>2019-06-23T13:59:26Z</time>
      </trkpt>
      <trkpt lat="44.78276" lon="5.87522">
        <ele>1607.8</ele>
        <time>2019-06-23T13:59:31Z</time>
      </trkpt>
      <trkpt lat="44.78274" lon="5.87527">
        <ele>1604.2</ele>
        <time>2019-06-23T13:59:36Z</time>
      </trkpt>
      <trkpt lat="44.78275" lon="5.87531">
        <ele>1601.6</ele>
        <time>2019-06-23T13:59:41Z</time>
      </trkpt>
      <trkpt lat="44.78278" lon="5.8753">
        <ele>1602</ele>
        <time>2019-06-23T13:59:46Z</time>
      </trkpt>
      <trkpt lat="44.78282" lon="5.87533">
        <ele>1597.6</ele>
        <time>2019-06-23T13:59:56Z</time>
      </trkpt>
      <trkpt lat="44.78285" lon="5.87537">
        <ele>1596</ele>
        <time>2019-06-23T14:00:01Z</time>
      </trkpt>
      <trkpt lat="44.78283" lon="5.87539">
        <ele>1597</ele>
        <time>2019-06-23T14:00:06Z</time>
      </trkpt>
      <trkpt lat="44.78283" lon="5.87543">
        <ele>1595.8</ele>
        <time>2019-06-23T14:00:11Z</time>
      </trkpt>
      <trkpt lat="44.78282" lon="5.87549">
        <ele>1595</ele>
        <time>2019-06-23T14:00:16Z</time>
      </trkpt>
      <trkpt lat="44.78279" lon="5.87554">
        <ele>1592.6</ele>
        <time>2019-06-23T14:00:21Z</time>
      </trkpt>
      <trkpt lat="44.78283" lon="5.87556">
        <ele>1592</ele>
        <time>2019-06-23T14:00:26Z</time>
      </trkpt>
      <trkpt lat="44.78287" lon="5.87559">
        <ele>1588.8</ele>
        <time>2019-06-23T14:00:36Z</time>
      </trkpt>
      <trkpt lat="44.7829" lon="5.8756">
        <ele>1590.6</ele>
        <time>2019-06-23T14:00:41Z</time>
      </trkpt>
      <trkpt lat="44.78293" lon="5.87559">
        <ele>1586.4</ele>
        <time>2019-06-23T14:00:46Z</time>
      </trkpt>
      <trkpt lat="44.78299" lon="5.87567">
        <ele>1582.8</ele>
        <time>2019-06-23T14:01:01Z</time>
      </trkpt>
      <trkpt lat="44.78304" lon="5.87565">
        <ele>1581.4</ele>
        <time>2019-06-23T14:01:06Z</time>
      </trkpt>
      <trkpt lat="44.78309" lon="5.87564">
        <ele>1580.6</ele>
        <time>2019-06-23T14:01:11Z</time>
      </trkpt>
      <trkpt lat="44.78315" lon="5.87562">
        <ele>1580.4</ele>
        <time>2019-06-23T14:01:16Z</time>
      </trkpt>
      <trkpt lat="44.7832" lon="5.87558">
        <ele>1581</ele>
        <time>2019-06-23T14:01:21Z</time>
      </trkpt>
      <trkpt lat="44.78325" lon="5.87556">
        <ele>1577.6</ele>
        <time>2019-06-23T14:01:26Z</time>
      </trkpt>
      <trkpt lat="44.78331" lon="5.87555">
        <ele>1577.8</ele>
        <time>2019-06-23T14:01:31Z</time>
      </trkpt>
      <trkpt lat="44.78336" lon="5.87553">
        <ele>1574.2</ele>
        <time>2019-06-23T14:01:36Z</time>
      </trkpt>
      <trkpt lat="44.78342" lon="5.87553">
        <ele>1575.4</ele>
        <time>2019-06-23T14:01:41Z</time>
      </trkpt>
      <trkpt lat="44.78347" lon="5.87552">
        <ele>1575.4</ele>
        <time>2019-06-23T14:01:46Z</time>
      </trkpt>
      <trkpt lat="44.78353" lon="5.8755">
        <ele>1574.4</ele>
        <time>2019-06-23T14:01:51Z</time>
      </trkpt>
      <trkpt lat="44.78358" lon="5.87548">
        <ele>1572.6</ele>
        <time>2019-06-23T14:01:56Z</time>
      </trkpt>
      <trkpt lat="44.78364" lon="5.87545">
        <ele>1571.4</ele>
        <time>2019-06-23T14:02:01Z</time>
      </trkpt>
      <trkpt lat="44.78371" lon="5.87544">
        <ele>1570.8</ele>
        <time>2019-06-23T14:02:06Z</time>
      </trkpt>
      <trkpt lat="44.78377" lon="5.87542">
        <ele>1569</ele>
        <time>2019-06-23T14:02:11Z</time>
      </trkpt>
      <trkpt lat="44.78381" lon="5.87542">
        <ele>1570.2</ele>
        <time>2019-06-23T14:02:16Z</time>
      </trkpt>
      <trkpt lat="44.78386" lon="5.87541">
        <ele>1569.4</ele>
        <time>2019-06-23T14:02:21Z</time>
      </trkpt>
      <trkpt lat="44.78392" lon="5.8754">
        <ele>1571.6</ele>
        <time>2019-06-23T14:02:26Z</time>
      </trkpt>
      <trkpt lat="44.78397" lon="5.87538">
        <ele>1568.4</ele>
        <time>2019-06-23T14:02:31Z</time>
      </trkpt>
      <trkpt lat="44.78404" lon="5.87537">
        <ele>1567.8</ele>
        <time>2019-06-23T14:02:36Z</time>
      </trkpt>
      <trkpt lat="44.7841" lon="5.87536">
        <ele>1569.4</ele>
        <time>2019-06-23T14:02:41Z</time>
      </trkpt>
      <trkpt lat="44.78416" lon="5.87534">
        <ele>1570.6</ele>
        <time>2019-06-23T14:02:46Z</time>
      </trkpt>
      <trkpt lat="44.78422" lon="5.87533">
        <ele>1568.8</ele>
        <time>2019-06-23T14:02:51Z</time>
      </trkpt>
      <trkpt lat="44.78427" lon="5.87532">
        <ele>1570</ele>
        <time>2019-06-23T14:02:56Z</time>
      </trkpt>
      <trkpt lat="44.78433" lon="5.8753">
        <ele>1566.8</ele>
        <time>2019-06-23T14:03:01Z</time>
      </trkpt>
      <trkpt lat="44.78439" lon="5.8753">
        <ele>1567.8</ele>
        <time>2019-06-23T14:03:06Z</time>
      </trkpt>
      <trkpt lat="44.78445" lon="5.87529">
        <ele>1569</ele>
        <time>2019-06-23T14:03:11Z</time>
      </trkpt>
      <trkpt lat="44.78447" lon="5.87528">
        <ele>1566.8</ele>
        <time>2019-06-23T14:03:21Z</time>
      </trkpt>
    </trkseg>
  </trk>
</gpx>